<?xml version="1.0" encoding="UTF-8" standalone="yes"?>
<gpx
 xmlns="http://www.topografix.com/GPX/1/1"
 creator="OziExplorer Version 3955n - http://www.oziexplorer.com"
 version="1.1"
 xmlns:xsi="http://www.w3.org/2001/XMLSchema-instance"
 xsi:schemaLocation="http://www.topografix.com/GPX/1/1 http://www.topografix.com/GPX/1/1/gpx.xsd">
<metadata>
 <time>2012-03-26T18:42:25Z</time>
 <bounds minlat="43.182740" minlon="-2.216870" maxlat="43.290551" maxlon="-2.148300"/>
</metadata>
<wpt lat="43.2844600" lon="-2.1731100">
 <ele>9.144000</ele>
 <time>2012-03-26T20:42:25.245Z</time>
 <name>IRTEERA</name>
 <cmt>07-DIC-07 7:51:04</cmt>
 <desc>07-DIC-07 7:51:04</desc>
 <sym>Flag, Blue</sym>
</wpt>
<wpt lat="43.2905510" lon="-2.2023610">
 <ele>245.059204</ele>
 <time>2012-03-26T20:42:25.245Z</time>
 <name>GARATE GAINA</name>
 <cmt>07-DIC-07 8:25:52</cmt>
 <desc>07-DIC-07 8:25:52</desc>
 <sym>Flag, Blue</sym>
</wpt>
<wpt lat="43.2827600" lon="-2.2083100">
 <ele>142.951202</ele>
 <time>2012-03-26T20:42:25.245Z</time>
 <name>PILOTALEKUA</name>
 <cmt>07-DIC-07 8:38:55</cmt>
 <desc>07-DIC-07 8:38:55</desc>
 <sym>Flag, Blue</sym>
</wpt>
<wpt lat="43.2813000" lon="-2.2095000">
 <ele>142.036804</ele>
 <time>2012-03-26T20:42:25.245Z</time>
 <name>MEAGA GAINA</name>
 <cmt>07-DIC-07 8:40:40</cmt>
 <desc>07-DIC-07 8:40:40</desc>
 <sym>Flag, Green</sym>
</wpt>
<wpt lat="43.2693200" lon="-2.2064800">
 <ele>270.967194</ele>
 <time>2012-03-26T20:42:25.245Z</time>
 <name>SANTA KUTZ</name>
 <cmt>07-DIC-07 8:58:02</cmt>
 <desc>07-DIC-07 8:58:02</desc>
 <sym>Flag, Blue</sym>
</wpt>
<wpt lat="43.2602600" lon="-2.2157900">
 <ele>455.980804</ele>
 <time>2012-03-26T20:42:25.245Z</time>
 <name>INDAMENDI</name>
 <cmt>07-DIC-07 9:14:35</cmt>
 <desc>07-DIC-07 9:14:35</desc>
 <sym>Flag, Blue</sym>
</wpt>
<wpt lat="43.2530700" lon="-2.2000500">
 <ele>462.076813</ele>
 <time>2012-03-26T20:42:25.245Z</time>
 <name>TXATXARRO</name>
 <cmt>07-DIC-07 9:40:43</cmt>
 <desc>07-DIC-07 9:40:43</desc>
 <sym>Flag, Blue</sym>
</wpt>
<wpt lat="43.2490200" lon="-2.1965600">
 <ele>359.054413</ele>
 <time>2012-03-26T20:42:25.245Z</time>
 <name>URDANETA</name>
 <cmt>07-DIC-07 9:50:04</cmt>
 <desc>07-DIC-07 9:50:04</desc>
 <sym>Flag, Blue</sym>
</wpt>
<wpt lat="43.2116900" lon="-2.1548200">
 <ele>422.148010</ele>
 <time>2012-03-26T20:42:25.245Z</time>
 <name>ALTZURUZELAI</name>
 <cmt>04-DIC-07 11:42:58</cmt>
 <desc>04-DIC-07 11:42:58</desc>
 <sym>Flag, Blue</sym>
</wpt>
<wpt lat="43.2209130" lon="-2.2084180">
 <ele>430.072815</ele>
 <time>2012-03-26T20:42:25.245Z</time>
 <name>SANTA ENGRAZI</name>
 <cmt>04-DIC-07 9:36:52</cmt>
 <desc>04-DIC-07 9:36:52</desc>
 <sym>Flag, Blue</sym>
</wpt>
<wpt lat="43.1941900" lon="-2.1876700">
 <ele>608.075989</ele>
 <time>2012-03-26T20:42:25.245Z</time>
 <name>KOMISIOLATZA</name>
 <cmt>04-DIC-07 10:24:29</cmt>
 <desc>04-DIC-07 10:24:29</desc>
 <sym>Flag, Blue</sym>
</wpt>
<wpt lat="43.2405700" lon="-2.2081200">
 <ele>81.076797</ele>
 <time>2012-03-26T20:42:25.245Z</time>
 <name>ALTZOLARA ZUBIA</name>
 <cmt>04-DIC-07 8:30:46</cmt>
 <desc>04-DIC-07 8:30:46</desc>
 <sym>Flag, Blue</sym>
</wpt>
<wpt lat="43.1938700" lon="-2.1483200">
 <ele>579.119995</ele>
 <time>2012-03-26T20:42:25.245Z</time>
 <name>ITURRIOTZ</name>
 <cmt>04-DIC-07 11:20:02</cmt>
 <desc>04-DIC-07 11:20:02</desc>
 <sym>Flag, Blue</sym>
</wpt>
<wpt lat="43.2273400" lon="-2.1721650">
 <ele>708.964783</ele>
 <time>2012-03-26T20:42:25.245Z</time>
 <name>MURUGIL</name>
 <cmt>04-DIC-07 12:22:33</cmt>
 <desc>04-DIC-07 12:22:33</desc>
 <sym>Flag, Blue</sym>
</wpt>
<wpt lat="43.2317200" lon="-2.1759700">
 <ele>677.875183</ele>
 <time>2012-03-26T20:42:25.245Z</time>
 <name>PAGOETAKO GURUTZEA</name>
 <cmt>07-DIC-07 10:32:21</cmt>
 <desc>07-DIC-07 10:32:21</desc>
 <sym>Flag, Blue</sym>
</wpt>
<wpt lat="43.2408300" lon="-2.1805800">
 <ele>465.124786</ele>
 <time>2012-03-26T20:42:25.245Z</time>
 <name>AMEZKETALARDI</name>
 <cmt>07-DIC-07 10:58:24</cmt>
 <desc>07-DIC-07 10:58:24</desc>
 <sym>Flag, Blue</sym>
</wpt>
<wpt lat="43.2482600" lon="-2.1629200">
 <ele>257.860809</ele>
 <time>2012-03-26T20:42:25.245Z</time>
 <name>LAURGAIN</name>
 <cmt>07-DIC-07 11:22:51</cmt>
 <desc>07-DIC-07 11:22:51</desc>
 <sym>Flag, Blue</sym>
</wpt>
<wpt lat="43.2471000" lon="-2.1535200">
 <ele>89.916000</ele>
 <time>2012-03-26T20:42:25.245Z</time>
 <name>AGORREGI</name>
 <cmt>07-DIC-07 11:42:22</cmt>
 <desc>07-DIC-07 11:42:22</desc>
 <sym>Flag, Blue</sym>
</wpt>
<wpt lat="43.2554100" lon="-2.1580300">
 <ele>134.112000</ele>
 <time>2012-03-26T20:42:25.245Z</time>
 <name>LUKUN</name>
 <cmt>07-DIC-07 12:04:36</cmt>
 <desc>07-DIC-07 12:04:36</desc>
 <sym>Flag, Blue</sym>
</wpt>
<wpt lat="43.2845030" lon="-2.1730190">
 <time>2000-01-19T22:50:29.964Z</time>
 <name>AMAIERA</name>
 <sym>Navaid, Red/White</sym>
</wpt>
<wpt lat="43.2491294" lon="-2.1560398">
 <time>2012-03-26T20:41:00.158Z</time>
 <name>ITURRARAN</name>
 <sym>Airport</sym>
</wpt>
<trk>
 <name>Ibilaldi txikia_2007_12_07 ona</name>
 <desc>ACTIVE LOG</desc>
<trkseg>
<trkpt lat="43.2844500" lon="-2.1730900">
<ele>8.778240</ele>
<time>2007-12-07T06:51:01.999Z</time>
</trkpt>
<trkpt lat="43.2844300" lon="-2.1731100">
<ele>9.265920</ele>
<time>2007-12-07T06:51:05.999Z</time>
</trkpt>
<trkpt lat="43.2843600" lon="-2.1734400">
<ele>8.778240</ele>
<time>2007-12-07T06:51:22.000Z</time>
</trkpt>
<trkpt lat="43.2843200" lon="-2.1737300">
<ele>8.778240</ele>
<time>2007-12-07T06:51:35.997Z</time>
</trkpt>
<trkpt lat="43.2843100" lon="-2.1738300">
<ele>8.321040</ele>
<time>2007-12-07T06:51:41.000Z</time>
</trkpt>
<trkpt lat="43.2842700" lon="-2.1741800">
<ele>8.778240</ele>
<time>2007-12-07T06:51:58.003Z</time>
</trkpt>
<trkpt lat="43.2842300" lon="-2.1743300">
<ele>8.321040</ele>
<time>2007-12-07T06:52:05.002Z</time>
</trkpt>
<trkpt lat="43.2842000" lon="-2.1744100">
<ele>8.778240</ele>
<time>2007-12-07T06:52:09.002Z</time>
</trkpt>
<trkpt lat="43.2841900" lon="-2.1744400">
<ele>8.321040</ele>
<time>2007-12-07T06:52:10.998Z</time>
</trkpt>
<trkpt lat="43.2841500" lon="-2.1744800">
<ele>8.321040</ele>
<time>2007-12-07T06:52:13.996Z</time>
</trkpt>
<trkpt lat="43.2841600" lon="-2.1746200">
<ele>8.321040</ele>
<time>2007-12-07T06:52:18.998Z</time>
</trkpt>
<trkpt lat="43.2841600" lon="-2.1747400">
<ele>8.321040</ele>
<time>2007-12-07T06:52:24.001Z</time>
</trkpt>
<trkpt lat="43.2842900" lon="-2.1751400">
<ele>8.778240</ele>
<time>2007-12-07T06:52:40.996Z</time>
</trkpt>
<trkpt lat="43.2842700" lon="-2.1754300">
<ele>8.778240</ele>
<time>2007-12-07T06:52:55.001Z</time>
</trkpt>
<trkpt lat="43.2842500" lon="-2.1756800">
<ele>8.778240</ele>
<time>2007-12-07T06:53:07.002Z</time>
</trkpt>
<trkpt lat="43.2841300" lon="-2.1758300">
<ele>9.265920</ele>
<time>2007-12-07T06:53:14.001Z</time>
</trkpt>
<trkpt lat="43.2844100" lon="-2.1761100">
<ele>9.753600</ele>
<time>2007-12-07T06:53:24.999Z</time>
</trkpt>
<trkpt lat="43.2844800" lon="-2.1763300">
<ele>9.265920</ele>
<time>2007-12-07T06:53:35.998Z</time>
</trkpt>
<trkpt lat="43.2844700" lon="-2.1764800">
<ele>9.753600</ele>
<time>2007-12-07T06:53:43.999Z</time>
</trkpt>
<trkpt lat="43.2845900" lon="-2.1765600">
<ele>9.753600</ele>
<time>2007-12-07T06:53:47.999Z</time>
</trkpt>
<trkpt lat="43.2847100" lon="-2.1767000">
<ele>9.753600</ele>
<time>2007-12-07T06:53:58.998Z</time>
</trkpt>
<trkpt lat="43.2848600" lon="-2.1766800">
<ele>10.241280</ele>
<time>2007-12-07T06:54:09.996Z</time>
</trkpt>
<trkpt lat="43.2851300" lon="-2.1767100">
<ele>10.698480</ele>
<time>2007-12-07T06:54:21.004Z</time>
</trkpt>
<trkpt lat="43.2853400" lon="-2.1768100">
<ele>10.698480</ele>
<time>2007-12-07T06:54:32.003Z</time>
</trkpt>
<trkpt lat="43.2854000" lon="-2.1768000">
<ele>10.698480</ele>
<time>2007-12-07T06:54:36.003Z</time>
</trkpt>
<trkpt lat="43.2854100" lon="-2.1769000">
<ele>11.186160</ele>
<time>2007-12-07T06:54:41.999Z</time>
</trkpt>
<trkpt lat="43.2854200" lon="-2.1769200">
<ele>11.186160</ele>
<time>2007-12-07T06:54:44.004Z</time>
</trkpt>
<trkpt lat="43.2854600" lon="-2.1769600">
<ele>11.186160</ele>
<time>2007-12-07T06:54:47.002Z</time>
</trkpt>
<trkpt lat="43.2854900" lon="-2.1770200">
<ele>11.186160</ele>
<time>2007-12-07T06:54:51.002Z</time>
</trkpt>
<trkpt lat="43.2855600" lon="-2.1770700">
<ele>11.673840</ele>
<time>2007-12-07T06:54:55.002Z</time>
</trkpt>
<trkpt lat="43.2855800" lon="-2.1771300">
<ele>11.673840</ele>
<time>2007-12-07T06:54:59.003Z</time>
</trkpt>
<trkpt lat="43.2856600" lon="-2.1772300">
<ele>11.673840</ele>
<time>2007-12-07T06:55:06.001Z</time>
</trkpt>
<trkpt lat="43.2857000" lon="-2.1773200">
<ele>12.161520</ele>
<time>2007-12-07T06:55:11.004Z</time>
</trkpt>
<trkpt lat="43.2857600" lon="-2.1774400">
<ele>13.106400</ele>
<time>2007-12-07T06:55:19.998Z</time>
</trkpt>
<trkpt lat="43.2856900" lon="-2.1775600">
<ele>14.569440</ele>
<time>2007-12-07T06:55:27.998Z</time>
</trkpt>
<trkpt lat="43.2854900" lon="-2.1776700">
<ele>16.002001</ele>
<time>2007-12-07T06:55:44.000Z</time>
</trkpt>
<trkpt lat="43.2854200" lon="-2.1778000">
<ele>16.489679</ele>
<time>2007-12-07T06:55:53.003Z</time>
</trkpt>
<trkpt lat="43.2851800" lon="-2.1779100">
<ele>19.842480</ele>
<time>2007-12-07T06:56:09.997Z</time>
</trkpt>
<trkpt lat="43.2850300" lon="-2.1780500">
<ele>22.738079</ele>
<time>2007-12-07T06:56:24.996Z</time>
</trkpt>
<trkpt lat="43.2849800" lon="-2.1782000">
<ele>26.090879</ele>
<time>2007-12-07T06:56:36.004Z</time>
</trkpt>
<trkpt lat="43.2849300" lon="-2.1782900">
<ele>28.498800</ele>
<time>2007-12-07T06:56:43.996Z</time>
</trkpt>
<trkpt lat="43.2848200" lon="-2.1784500">
<ele>31.851601</ele>
<time>2007-12-07T06:56:58.001Z</time>
</trkpt>
<trkpt lat="43.2847700" lon="-2.1785800">
<ele>35.692078</ele>
<time>2007-12-07T06:57:07.998Z</time>
</trkpt>
<trkpt lat="43.2847500" lon="-2.1787300">
<ele>39.075359</ele>
<time>2007-12-07T06:57:18.996Z</time>
</trkpt>
<trkpt lat="43.2847300" lon="-2.1788800">
<ele>41.940483</ele>
<time>2007-12-07T06:57:32.000Z</time>
</trkpt>
<trkpt lat="43.2847200" lon="-2.1790100">
<ele>45.323757</ele>
<time>2007-12-07T06:57:42.998Z</time>
</trkpt>
<trkpt lat="43.2847200" lon="-2.1791000">
<ele>46.268642</ele>
<time>2007-12-07T06:57:49.997Z</time>
</trkpt>
<trkpt lat="43.2847800" lon="-2.1791700">
<ele>48.188881</ele>
<time>2007-12-07T06:57:56.002Z</time>
</trkpt>
<trkpt lat="43.2848600" lon="-2.1792900">
<ele>51.572159</ele>
<time>2007-12-07T06:58:07.000Z</time>
</trkpt>
<trkpt lat="43.2849900" lon="-2.1794600">
<ele>55.412640</ele>
<time>2007-12-07T06:58:23.002Z</time>
</trkpt>
<trkpt lat="43.2850800" lon="-2.1795900">
<ele>58.308243</ele>
<time>2007-12-07T06:58:35.996Z</time>
</trkpt>
<trkpt lat="43.2851200" lon="-2.1797400">
<ele>61.661041</ele>
<time>2007-12-07T06:58:47.997Z</time>
</trkpt>
<trkpt lat="43.2851500" lon="-2.1798300">
<ele>64.068962</ele>
<time>2007-12-07T06:58:55.998Z</time>
</trkpt>
<trkpt lat="43.2851800" lon="-2.1799100">
<ele>65.989197</ele>
<time>2007-12-07T06:59:02.003Z</time>
</trkpt>
<trkpt lat="43.2852900" lon="-2.1801300">
<ele>69.342003</ele>
<time>2007-12-07T06:59:18.997Z</time>
</trkpt>
<trkpt lat="43.2853600" lon="-2.1803600">
<ele>72.237602</ele>
<time>2007-12-07T06:59:34.999Z</time>
</trkpt>
<trkpt lat="43.2853800" lon="-2.1804300">
<ele>73.670158</ele>
<time>2007-12-07T06:59:40.001Z</time>
</trkpt>
<trkpt lat="43.2854500" lon="-2.1806300">
<ele>76.565758</ele>
<time>2007-12-07T06:59:55.000Z</time>
</trkpt>
<trkpt lat="43.2854900" lon="-2.1807800">
<ele>79.918564</ele>
<time>2007-12-07T07:00:05.999Z</time>
</trkpt>
<trkpt lat="43.2855000" lon="-2.1808000">
<ele>80.406235</ele>
<time>2007-12-07T07:00:08.004Z</time>
</trkpt>
<trkpt lat="43.2856100" lon="-2.1809000">
<ele>83.301834</ele>
<time>2007-12-07T07:00:19.002Z</time>
</trkpt>
<trkpt lat="43.2856300" lon="-2.1809500">
<ele>84.734398</ele>
<time>2007-12-07T07:00:23.003Z</time>
</trkpt>
<trkpt lat="43.2857000" lon="-2.1810400">
<ele>87.629997</ele>
<time>2007-12-07T07:00:34.001Z</time>
</trkpt>
<trkpt lat="43.2858200" lon="-2.1811600">
<ele>90.982803</ele>
<time>2007-12-07T07:00:47.998Z</time>
</trkpt>
<trkpt lat="43.2859700" lon="-2.1813200">
<ele>93.878403</ele>
<time>2007-12-07T07:01:05.002Z</time>
</trkpt>
<trkpt lat="43.2860700" lon="-2.1814300">
<ele>96.743515</ele>
<time>2007-12-07T07:01:16.000Z</time>
</trkpt>
<trkpt lat="43.2862100" lon="-2.1815800">
<ele>100.126801</ele>
<time>2007-12-07T07:01:30.999Z</time>
</trkpt>
<trkpt lat="43.2863700" lon="-2.1817300">
<ele>103.479599</ele>
<time>2007-12-07T07:01:47.001Z</time>
</trkpt>
<trkpt lat="43.2866100" lon="-2.1819200">
<ele>105.399834</ele>
<time>2007-12-07T07:02:07.002Z</time>
</trkpt>
<trkpt lat="43.2867700" lon="-2.1820800">
<ele>107.807762</ele>
<time>2007-12-07T07:02:23.004Z</time>
</trkpt>
<trkpt lat="43.2869000" lon="-2.1821900">
<ele>111.160561</ele>
<time>2007-12-07T07:02:35.998Z</time>
</trkpt>
<trkpt lat="43.2870900" lon="-2.1823400">
<ele>114.543839</ele>
<time>2007-12-07T07:02:53.002Z</time>
</trkpt>
<trkpt lat="43.2872800" lon="-2.1824400">
<ele>115.976402</ele>
<time>2007-12-07T07:03:08.001Z</time>
</trkpt>
<trkpt lat="43.2874300" lon="-2.1825300">
<ele>118.872002</ele>
<time>2007-12-07T07:03:21.004Z</time>
</trkpt>
<trkpt lat="43.2876200" lon="-2.1824900">
<ele>121.737122</ele>
<time>2007-12-07T07:03:36.003Z</time>
</trkpt>
<trkpt lat="43.2878000" lon="-2.1824100">
<ele>124.632721</ele>
<time>2007-12-07T07:03:52.004Z</time>
</trkpt>
<trkpt lat="43.2880300" lon="-2.1823200">
<ele>127.040634</ele>
<time>2007-12-07T07:04:11.004Z</time>
</trkpt>
<trkpt lat="43.2882200" lon="-2.1822600">
<ele>128.473206</ele>
<time>2007-12-07T07:04:25.000Z</time>
</trkpt>
<trkpt lat="43.2884500" lon="-2.1822400">
<ele>130.393433</ele>
<time>2007-12-07T07:04:42.997Z</time>
</trkpt>
<trkpt lat="43.2886400" lon="-2.1823000">
<ele>133.746231</ele>
<time>2007-12-07T07:04:57.996Z</time>
</trkpt>
<trkpt lat="43.2887800" lon="-2.1823700">
<ele>136.641830</ele>
<time>2007-12-07T07:05:09.997Z</time>
</trkpt>
<trkpt lat="43.2889900" lon="-2.1826100">
<ele>139.994629</ele>
<time>2007-12-07T07:05:31.001Z</time>
</trkpt>
<trkpt lat="43.2891700" lon="-2.1828000">
<ele>143.377914</ele>
<time>2007-12-07T07:05:47.996Z</time>
</trkpt>
<trkpt lat="43.2893600" lon="-2.1830000">
<ele>146.730713</ele>
<time>2007-12-07T07:06:06.002Z</time>
</trkpt>
<trkpt lat="43.2894400" lon="-2.1830900">
<ele>149.138641</ele>
<time>2007-12-07T07:06:14.003Z</time>
</trkpt>
<trkpt lat="43.2894700" lon="-2.1831300">
<ele>148.650970</ele>
<time>2007-12-07T07:06:18.996Z</time>
</trkpt>
<trkpt lat="43.2895700" lon="-2.1831800">
<ele>150.113998</ele>
<time>2007-12-07T07:06:34.004Z</time>
</trkpt>
<trkpt lat="43.2897200" lon="-2.1832600">
<ele>153.466797</ele>
<time>2007-12-07T07:06:45.996Z</time>
</trkpt>
<trkpt lat="43.2897900" lon="-2.1833200">
<ele>154.899368</ele>
<time>2007-12-07T07:06:52.001Z</time>
</trkpt>
<trkpt lat="43.2898200" lon="-2.1834200">
<ele>155.874725</ele>
<time>2007-12-07T07:06:57.997Z</time>
</trkpt>
<trkpt lat="43.2898900" lon="-2.1837600">
<ele>159.227524</ele>
<time>2007-12-07T07:07:16.997Z</time>
</trkpt>
<trkpt lat="43.2899800" lon="-2.1841300">
<ele>162.123123</ele>
<time>2007-12-07T07:07:36.998Z</time>
</trkpt>
<trkpt lat="43.2900200" lon="-2.1844000">
<ele>164.988235</ele>
<time>2007-12-07T07:07:51.997Z</time>
</trkpt>
<trkpt lat="43.2901100" lon="-2.1846900">
<ele>167.396164</ele>
<time>2007-12-07T07:08:09.001Z</time>
</trkpt>
<trkpt lat="43.2902200" lon="-2.1850200">
<ele>170.779434</ele>
<time>2007-12-07T07:08:28.000Z</time>
</trkpt>
<trkpt lat="43.2903100" lon="-2.1852300">
<ele>173.644562</ele>
<time>2007-12-07T07:08:41.004Z</time>
</trkpt>
<trkpt lat="43.2904200" lon="-2.1854500">
<ele>177.027832</ele>
<time>2007-12-07T07:08:55.000Z</time>
</trkpt>
<trkpt lat="43.2904300" lon="-2.1858300">
<ele>177.972733</ele>
<time>2007-12-07T07:09:15.002Z</time>
</trkpt>
<trkpt lat="43.2903200" lon="-2.1862000">
<ele>177.972733</ele>
<time>2007-12-07T07:09:34.001Z</time>
</trkpt>
<trkpt lat="43.2901400" lon="-2.1865600">
<ele>178.948074</ele>
<time>2007-12-07T07:09:54.996Z</time>
</trkpt>
<trkpt lat="43.2899600" lon="-2.1868400">
<ele>178.948074</ele>
<time>2007-12-07T07:10:13.996Z</time>
</trkpt>
<trkpt lat="43.2899600" lon="-2.1868600">
<ele>178.948074</ele>
<time>2007-12-07T07:10:14.998Z</time>
</trkpt>
<trkpt lat="43.2898600" lon="-2.1871600">
<ele>179.892960</ele>
<time>2007-12-07T07:10:30.999Z</time>
</trkpt>
<trkpt lat="43.2897800" lon="-2.1876100">
<ele>180.380630</ele>
<time>2007-12-07T07:10:52.003Z</time>
</trkpt>
<trkpt lat="43.2896700" lon="-2.1880000">
<ele>178.460403</ele>
<time>2007-12-07T07:11:11.003Z</time>
</trkpt>
<trkpt lat="43.2895200" lon="-2.1882400">
<ele>177.027832</ele>
<time>2007-12-07T07:11:26.002Z</time>
</trkpt>
<trkpt lat="43.2895000" lon="-2.1882700">
<ele>176.540161</ele>
<time>2007-12-07T07:11:27.997Z</time>
</trkpt>
<trkpt lat="43.2894400" lon="-2.1883600">
<ele>177.515533</ele>
<time>2007-12-07T07:11:34.002Z</time>
</trkpt>
<trkpt lat="43.2894300" lon="-2.1887000">
<ele>178.460403</ele>
<time>2007-12-07T07:11:50.997Z</time>
</trkpt>
<trkpt lat="43.2894200" lon="-2.1891600">
<ele>178.948074</ele>
<time>2007-12-07T07:12:12.001Z</time>
</trkpt>
<trkpt lat="43.2894000" lon="-2.1894800">
<ele>178.460403</ele>
<time>2007-12-07T07:12:25.998Z</time>
</trkpt>
<trkpt lat="43.2894000" lon="-2.1899200">
<ele>178.948074</ele>
<time>2007-12-07T07:12:45.999Z</time>
</trkpt>
<trkpt lat="43.2894400" lon="-2.1903600">
<ele>180.380630</ele>
<time>2007-12-07T07:13:06.001Z</time>
</trkpt>
<trkpt lat="43.2894400" lon="-2.1907900">
<ele>180.380630</ele>
<time>2007-12-07T07:13:25.000Z</time>
</trkpt>
<trkpt lat="43.2894200" lon="-2.1908100">
<ele>180.868332</ele>
<time>2007-12-07T07:13:26.996Z</time>
</trkpt>
<trkpt lat="43.2893900" lon="-2.1907700">
<ele>181.356003</ele>
<time>2007-12-07T07:13:30.996Z</time>
</trkpt>
<trkpt lat="43.2893800" lon="-2.1907300">
<ele>182.300873</ele>
<time>2007-12-07T07:13:33.001Z</time>
</trkpt>
<trkpt lat="43.2893600" lon="-2.1905800">
<ele>184.221130</ele>
<time>2007-12-07T07:13:41.002Z</time>
</trkpt>
<trkpt lat="43.2892200" lon="-2.1903300">
<ele>187.116730</ele>
<time>2007-12-07T07:13:56.001Z</time>
</trkpt>
<trkpt lat="43.2890800" lon="-2.1901200">
<ele>190.469528</ele>
<time>2007-12-07T07:14:11.000Z</time>
</trkpt>
<trkpt lat="43.2889500" lon="-2.1899200">
<ele>193.852798</ele>
<time>2007-12-07T07:14:24.996Z</time>
</trkpt>
<trkpt lat="43.2888600" lon="-2.1898000">
<ele>196.717926</ele>
<time>2007-12-07T07:14:36.997Z</time>
</trkpt>
<trkpt lat="43.2888300" lon="-2.1897600">
<ele>197.205597</ele>
<time>2007-12-07T07:14:40.998Z</time>
</trkpt>
<trkpt lat="43.2888100" lon="-2.1897700">
<ele>198.180969</ele>
<time>2007-12-07T07:14:43.002Z</time>
</trkpt>
<trkpt lat="43.2887100" lon="-2.1899300">
<ele>201.533768</ele>
<time>2007-12-07T07:14:55.003Z</time>
</trkpt>
<trkpt lat="43.2887100" lon="-2.1899500">
<ele>201.533768</ele>
<time>2007-12-07T07:14:55.997Z</time>
</trkpt>
<trkpt lat="43.2886800" lon="-2.1901600">
<ele>204.886566</ele>
<time>2007-12-07T07:15:07.998Z</time>
</trkpt>
<trkpt lat="43.2886600" lon="-2.1903300">
<ele>207.782166</ele>
<time>2007-12-07T07:15:18.003Z</time>
</trkpt>
<trkpt lat="43.2886300" lon="-2.1905700">
<ele>211.134964</ele>
<time>2007-12-07T07:15:32.000Z</time>
</trkpt>
<trkpt lat="43.2885900" lon="-2.1907800">
<ele>214.030563</ele>
<time>2007-12-07T07:15:45.003Z</time>
</trkpt>
<trkpt lat="43.2885200" lon="-2.1909800">
<ele>217.383362</ele>
<time>2007-12-07T07:15:59.000Z</time>
</trkpt>
<trkpt lat="43.2884500" lon="-2.1911500">
<ele>220.766632</ele>
<time>2007-12-07T07:16:11.001Z</time>
</trkpt>
<trkpt lat="43.2884000" lon="-2.1915200">
<ele>223.174561</ele>
<time>2007-12-07T07:16:31.996Z</time>
</trkpt>
<trkpt lat="43.2884000" lon="-2.1919800">
<ele>224.119431</ele>
<time>2007-12-07T07:16:54.002Z</time>
</trkpt>
<trkpt lat="43.2883900" lon="-2.1924800">
<ele>222.686874</ele>
<time>2007-12-07T07:17:15.999Z</time>
</trkpt>
<trkpt lat="43.2883700" lon="-2.1929500">
<ele>223.174561</ele>
<time>2007-12-07T07:17:37.997Z</time>
</trkpt>
<trkpt lat="43.2883900" lon="-2.1932900">
<ele>226.039673</ele>
<time>2007-12-07T07:17:55.000Z</time>
</trkpt>
<trkpt lat="43.2884400" lon="-2.1935900">
<ele>229.422958</ele>
<time>2007-12-07T07:18:11.002Z</time>
</trkpt>
<trkpt lat="43.2885300" lon="-2.1940900">
<ele>227.015030</ele>
<time>2007-12-07T07:18:34.001Z</time>
</trkpt>
<trkpt lat="43.2886400" lon="-2.1944100">
<ele>228.447601</ele>
<time>2007-12-07T07:18:50.996Z</time>
</trkpt>
<trkpt lat="43.2886700" lon="-2.1946200">
<ele>231.800400</ele>
<time>2007-12-07T07:19:02.997Z</time>
</trkpt>
<trkpt lat="43.2886900" lon="-2.1947300">
<ele>234.208328</ele>
<time>2007-12-07T07:19:10.004Z</time>
</trkpt>
<trkpt lat="43.2887300" lon="-2.1949100">
<ele>237.103928</ele>
<time>2007-12-07T07:19:21.003Z</time>
</trkpt>
<trkpt lat="43.2887700" lon="-2.1950500">
<ele>240.456726</ele>
<time>2007-12-07T07:19:30.999Z</time>
</trkpt>
<trkpt lat="43.2888200" lon="-2.1952300">
<ele>243.352325</ele>
<time>2007-12-07T07:19:43.000Z</time>
</trkpt>
<trkpt lat="43.2889000" lon="-2.1955500">
<ele>246.705124</ele>
<time>2007-12-07T07:20:00.997Z</time>
</trkpt>
<trkpt lat="43.2889800" lon="-2.1959700">
<ele>248.168167</ele>
<time>2007-12-07T07:20:22.001Z</time>
</trkpt>
<trkpt lat="43.2890700" lon="-2.1963600">
<ele>250.545593</ele>
<time>2007-12-07T07:20:42.003Z</time>
</trkpt>
<trkpt lat="43.2892200" lon="-2.1968300">
<ele>250.545593</ele>
<time>2007-12-07T07:21:05.996Z</time>
</trkpt>
<trkpt lat="43.2893600" lon="-2.1972700">
<ele>248.625366</ele>
<time>2007-12-07T07:21:28.002Z</time>
</trkpt>
<trkpt lat="43.2894800" lon="-2.1976900">
<ele>249.600723</ele>
<time>2007-12-07T07:21:48.997Z</time>
</trkpt>
<trkpt lat="43.2894800" lon="-2.1979900">
<ele>252.953522</ele>
<time>2007-12-07T07:22:04.999Z</time>
</trkpt>
<trkpt lat="43.2894900" lon="-2.1981800">
<ele>256.824463</ele>
<time>2007-12-07T07:22:15.997Z</time>
</trkpt>
<trkpt lat="43.2894900" lon="-2.1982000">
<ele>256.824463</ele>
<time>2007-12-07T07:22:17.000Z</time>
</trkpt>
<trkpt lat="43.2895000" lon="-2.1984500">
<ele>260.177277</ele>
<time>2007-12-07T07:22:31.999Z</time>
</trkpt>
<trkpt lat="43.2895100" lon="-2.1986700">
<ele>263.072876</ele>
<time>2007-12-07T07:22:45.002Z</time>
</trkpt>
<trkpt lat="43.2895200" lon="-2.1987500">
<ele>264.505432</ele>
<time>2007-12-07T07:22:49.996Z</time>
</trkpt>
<trkpt lat="43.2895600" lon="-2.1990300">
<ele>267.858246</ele>
<time>2007-12-07T07:23:05.997Z</time>
</trkpt>
<trkpt lat="43.2896800" lon="-2.1993600">
<ele>269.321259</ele>
<time>2007-12-07T07:23:24.996Z</time>
</trkpt>
<trkpt lat="43.2897700" lon="-2.1997900">
<ele>267.858246</ele>
<time>2007-12-07T07:23:46.000Z</time>
</trkpt>
<trkpt lat="43.2898800" lon="-2.2002400">
<ele>266.425659</ele>
<time>2007-12-07T07:24:07.998Z</time>
</trkpt>
<trkpt lat="43.2899700" lon="-2.2005900">
<ele>264.017761</ele>
<time>2007-12-07T07:24:25.001Z</time>
</trkpt>
<trkpt lat="43.2900200" lon="-2.2007900">
<ele>262.097534</ele>
<time>2007-12-07T07:24:34.998Z</time>
</trkpt>
<trkpt lat="43.2901400" lon="-2.2010800">
<ele>258.744720</ele>
<time>2007-12-07T07:24:49.997Z</time>
</trkpt>
<trkpt lat="43.2902100" lon="-2.2013000">
<ele>255.849121</ele>
<time>2007-12-07T07:25:01.004Z</time>
</trkpt>
<trkpt lat="43.2903200" lon="-2.2015700">
<ele>252.496323</ele>
<time>2007-12-07T07:25:15.001Z</time>
</trkpt>
<trkpt lat="43.2904100" lon="-2.2017800">
<ele>249.113037</ele>
<time>2007-12-07T07:25:26.000Z</time>
</trkpt>
<trkpt lat="43.2905300" lon="-2.2021800">
<ele>246.247925</ele>
<time>2007-12-07T07:25:46.001Z</time>
</trkpt>
<trkpt lat="43.2905500" lon="-2.2023200">
<ele>245.272568</ele>
<time>2007-12-07T07:25:54.002Z</time>
</trkpt>
<trkpt lat="43.2905000" lon="-2.2023300">
<ele>242.864639</ele>
<time>2007-12-07T07:25:58.002Z</time>
</trkpt>
<trkpt lat="43.2904800" lon="-2.2023200">
<ele>242.864639</ele>
<time>2007-12-07T07:25:58.996Z</time>
</trkpt>
<trkpt lat="43.2902900" lon="-2.2022000">
<ele>243.839996</ele>
<time>2007-12-07T07:26:14.004Z</time>
</trkpt>
<trkpt lat="43.2902500" lon="-2.2021700">
<ele>244.297195</ele>
<time>2007-12-07T07:26:28.000Z</time>
</trkpt>
<trkpt lat="43.2902000" lon="-2.2022100">
<ele>240.944397</ele>
<time>2007-12-07T07:26:56.996Z</time>
</trkpt>
<trkpt lat="43.2900800" lon="-2.2022200">
<ele>237.591599</ele>
<time>2007-12-07T07:27:11.002Z</time>
</trkpt>
<trkpt lat="43.2900200" lon="-2.2022100">
<ele>235.671356</ele>
<time>2007-12-07T07:27:19.002Z</time>
</trkpt>
<trkpt lat="43.2898600" lon="-2.2022300">
<ele>232.775757</ele>
<time>2007-12-07T07:27:34.001Z</time>
</trkpt>
<trkpt lat="43.2897500" lon="-2.2022500">
<ele>230.367844</ele>
<time>2007-12-07T07:27:45.000Z</time>
</trkpt>
<trkpt lat="43.2897300" lon="-2.2022700">
<ele>229.422958</ele>
<time>2007-12-07T07:27:46.996Z</time>
</trkpt>
<trkpt lat="43.2896000" lon="-2.2023100">
<ele>226.039673</ele>
<time>2007-12-07T07:27:58.997Z</time>
</trkpt>
<trkpt lat="43.2895700" lon="-2.2023300">
<ele>224.607132</ele>
<time>2007-12-07T07:28:02.997Z</time>
</trkpt>
<trkpt lat="43.2894900" lon="-2.2024400">
<ele>221.254333</ele>
<time>2007-12-07T07:28:13.996Z</time>
</trkpt>
<trkpt lat="43.2894400" lon="-2.2025100">
<ele>220.766632</ele>
<time>2007-12-07T07:28:20.001Z</time>
</trkpt>
<trkpt lat="43.2894100" lon="-2.2026400">
<ele>217.871033</ele>
<time>2007-12-07T07:28:33.997Z</time>
</trkpt>
<trkpt lat="43.2894000" lon="-2.2027400">
<ele>217.383362</ele>
<time>2007-12-07T07:28:47.001Z</time>
</trkpt>
<trkpt lat="43.2893900" lon="-2.2027600">
<ele>217.383362</ele>
<time>2007-12-07T07:28:48.996Z</time>
</trkpt>
<trkpt lat="43.2893500" lon="-2.2028800">
<ele>215.005920</ele>
<time>2007-12-07T07:29:00.997Z</time>
</trkpt>
<trkpt lat="43.2893500" lon="-2.2029700">
<ele>213.055206</ele>
<time>2007-12-07T07:29:12.998Z</time>
</trkpt>
<trkpt lat="43.2893300" lon="-2.2031200">
<ele>211.622635</ele>
<time>2007-12-07T07:29:23.997Z</time>
</trkpt>
<trkpt lat="43.2893100" lon="-2.2031600">
<ele>211.134964</ele>
<time>2007-12-07T07:29:26.002Z</time>
</trkpt>
<trkpt lat="43.2892400" lon="-2.2032300">
<ele>209.214722</ele>
<time>2007-12-07T07:29:31.998Z</time>
</trkpt>
<trkpt lat="43.2891700" lon="-2.2033200">
<ele>206.349594</ele>
<time>2007-12-07T07:29:43.999Z</time>
</trkpt>
<trkpt lat="43.2891000" lon="-2.2033800">
<ele>204.429367</ele>
<time>2007-12-07T07:29:50.997Z</time>
</trkpt>
<trkpt lat="43.2890400" lon="-2.2034000">
<ele>203.453995</ele>
<time>2007-12-07T07:29:54.997Z</time>
</trkpt>
<trkpt lat="43.2890200" lon="-2.2034200">
<ele>203.453995</ele>
<time>2007-12-07T07:29:57.002Z</time>
</trkpt>
<trkpt lat="43.2888400" lon="-2.2035200">
<ele>200.101196</ele>
<time>2007-12-07T07:30:13.997Z</time>
</trkpt>
<trkpt lat="43.2886600" lon="-2.2036100">
<ele>196.717926</ele>
<time>2007-12-07T07:30:31.000Z</time>
</trkpt>
<trkpt lat="43.2885700" lon="-2.2036400">
<ele>194.797668</ele>
<time>2007-12-07T07:30:40.003Z</time>
</trkpt>
<trkpt lat="43.2883300" lon="-2.2036300">
<ele>192.389771</ele>
<time>2007-12-07T07:30:59.996Z</time>
</trkpt>
<trkpt lat="43.2882000" lon="-2.2036300">
<ele>191.932556</ele>
<time>2007-12-07T07:31:11.997Z</time>
</trkpt>
<trkpt lat="43.2881300" lon="-2.2036600">
<ele>191.444870</ele>
<time>2007-12-07T07:31:19.004Z</time>
</trkpt>
<trkpt lat="43.2880200" lon="-2.2036800">
<ele>190.012329</ele>
<time>2007-12-07T07:31:26.996Z</time>
</trkpt>
<trkpt lat="43.2879800" lon="-2.2037300">
<ele>188.549271</ele>
<time>2007-12-07T07:31:30.996Z</time>
</trkpt>
<trkpt lat="43.2879000" lon="-2.2038800">
<ele>185.196472</ele>
<time>2007-12-07T07:31:41.002Z</time>
</trkpt>
<trkpt lat="43.2877600" lon="-2.2040000">
<ele>184.221130</ele>
<time>2007-12-07T07:31:52.000Z</time>
</trkpt>
<trkpt lat="43.2875200" lon="-2.2040500">
<ele>182.788559</ele>
<time>2007-12-07T07:32:09.004Z</time>
</trkpt>
<trkpt lat="43.2873500" lon="-2.2041400">
<ele>180.868332</ele>
<time>2007-12-07T07:32:23.001Z</time>
</trkpt>
<trkpt lat="43.2872900" lon="-2.2041900">
<ele>180.380630</ele>
<time>2007-12-07T07:32:28.997Z</time>
</trkpt>
<trkpt lat="43.2871900" lon="-2.2044400">
<ele>177.515533</ele>
<time>2007-12-07T07:32:44.998Z</time>
</trkpt>
<trkpt lat="43.2871600" lon="-2.2046300">
<ele>176.052475</ele>
<time>2007-12-07T07:32:55.003Z</time>
</trkpt>
<trkpt lat="43.2871400" lon="-2.2048400">
<ele>172.699677</ele>
<time>2007-12-07T07:33:07.004Z</time>
</trkpt>
<trkpt lat="43.2871000" lon="-2.2050100">
<ele>171.267120</ele>
<time>2007-12-07T07:33:15.998Z</time>
</trkpt>
<trkpt lat="43.2870400" lon="-2.2053100">
<ele>167.396164</ele>
<time>2007-12-07T07:33:32.000Z</time>
</trkpt>
<trkpt lat="43.2869600" lon="-2.2055700">
<ele>164.531036</ele>
<time>2007-12-07T07:33:45.996Z</time>
</trkpt>
<trkpt lat="43.2869500" lon="-2.2055900">
<ele>164.043365</ele>
<time>2007-12-07T07:33:46.999Z</time>
</trkpt>
<trkpt lat="43.2868500" lon="-2.2058500">
<ele>163.067993</ele>
<time>2007-12-07T07:34:03.000Z</time>
</trkpt>
<trkpt lat="43.2868200" lon="-2.2059400">
<ele>162.610794</ele>
<time>2007-12-07T07:34:08.003Z</time>
</trkpt>
<trkpt lat="43.2866700" lon="-2.2062400">
<ele>161.147766</ele>
<time>2007-12-07T07:34:24.997Z</time>
</trkpt>
<trkpt lat="43.2865500" lon="-2.2064800">
<ele>159.715195</ele>
<time>2007-12-07T07:34:39.003Z</time>
</trkpt>
<trkpt lat="43.2864400" lon="-2.2064500">
<ele>159.715195</ele>
<time>2007-12-07T07:34:46.001Z</time>
</trkpt>
<trkpt lat="43.2861800" lon="-2.2065000">
<ele>156.362396</ele>
<time>2007-12-07T07:35:02.996Z</time>
</trkpt>
<trkpt lat="43.2859200" lon="-2.2066800">
<ele>154.899368</ele>
<time>2007-12-07T07:35:18.997Z</time>
</trkpt>
<trkpt lat="43.2856100" lon="-2.2069200">
<ele>153.466797</ele>
<time>2007-12-07T07:35:38.999Z</time>
</trkpt>
<trkpt lat="43.2852900" lon="-2.2071600">
<ele>151.546570</ele>
<time>2007-12-07T07:36:00.003Z</time>
</trkpt>
<trkpt lat="43.2849500" lon="-2.2074800">
<ele>150.113998</ele>
<time>2007-12-07T07:36:23.996Z</time>
</trkpt>
<trkpt lat="43.2847100" lon="-2.2078700">
<ele>150.113998</ele>
<time>2007-12-07T07:36:46.002Z</time>
</trkpt>
<trkpt lat="43.2845000" lon="-2.2082000">
<ele>149.138641</ele>
<time>2007-12-07T07:37:05.002Z</time>
</trkpt>
<trkpt lat="43.2842400" lon="-2.2085000">
<ele>148.650970</ele>
<time>2007-12-07T07:37:25.003Z</time>
</trkpt>
<trkpt lat="43.2838300" lon="-2.2086000">
<ele>146.243042</ele>
<time>2007-12-07T07:37:51.001Z</time>
</trkpt>
<trkpt lat="43.2835300" lon="-2.2085100">
<ele>146.243042</ele>
<time>2007-12-07T07:38:10.000Z</time>
</trkpt>
<trkpt lat="43.2831600" lon="-2.2083700">
<ele>143.377914</ele>
<time>2007-12-07T07:38:31.998Z</time>
</trkpt>
<trkpt lat="43.2828000" lon="-2.2083000">
<ele>142.890244</ele>
<time>2007-12-07T07:38:53.002Z</time>
</trkpt>
<trkpt lat="43.2825000" lon="-2.2084600">
<ele>142.402557</ele>
<time>2007-12-07T07:39:13.003Z</time>
</trkpt>
<trkpt lat="43.2821100" lon="-2.2087800">
<ele>141.457687</ele>
<time>2007-12-07T07:39:40.003Z</time>
</trkpt>
<trkpt lat="43.2817300" lon="-2.2091200">
<ele>140.482315</ele>
<time>2007-12-07T07:40:07.997Z</time>
</trkpt>
<trkpt lat="43.2814600" lon="-2.2093700">
<ele>139.994629</ele>
<time>2007-12-07T07:40:27.998Z</time>
</trkpt>
<trkpt lat="43.2813400" lon="-2.2094800">
<ele>139.994629</ele>
<time>2007-12-07T07:40:37.001Z</time>
</trkpt>
<trkpt lat="43.2810900" lon="-2.2095800">
<ele>140.482315</ele>
<time>2007-12-07T07:40:53.996Z</time>
</trkpt>
<trkpt lat="43.2808210" lon="-2.2098600">
<ele>142.890244</ele>
<time>2007-12-07T07:41:16.002Z</time>
</trkpt>
<trkpt lat="43.2805700" lon="-2.2102200">
<ele>144.810486</ele>
<time>2007-12-07T07:41:40.004Z</time>
</trkpt>
<trkpt lat="43.2803800" lon="-2.2104200">
<ele>146.730713</ele>
<time>2007-12-07T07:41:55.997Z</time>
</trkpt>
<trkpt lat="43.2801300" lon="-2.2106700">
<ele>148.193756</ele>
<time>2007-12-07T07:42:17.001Z</time>
</trkpt>
<trkpt lat="43.2798500" lon="-2.2109600">
<ele>150.113998</ele>
<time>2007-12-07T07:42:40.000Z</time>
</trkpt>
<trkpt lat="43.2795500" lon="-2.2112000">
<ele>153.466797</ele>
<time>2007-12-07T07:43:03.000Z</time>
</trkpt>
<trkpt lat="43.2793000" lon="-2.2112200">
<ele>156.362396</ele>
<time>2007-12-07T07:43:20.997Z</time>
</trkpt>
<trkpt lat="43.2789900" lon="-2.2111800">
<ele>159.227524</ele>
<time>2007-12-07T07:43:43.003Z</time>
</trkpt>
<trkpt lat="43.2786500" lon="-2.2113100">
<ele>161.635437</ele>
<time>2007-12-07T07:44:06.996Z</time>
</trkpt>
<trkpt lat="43.2784100" lon="-2.2115400">
<ele>164.988235</ele>
<time>2007-12-07T07:44:26.998Z</time>
</trkpt>
<trkpt lat="43.2781000" lon="-2.2117000">
<ele>167.883835</ele>
<time>2007-12-07T07:44:49.998Z</time>
</trkpt>
<trkpt lat="43.2778700" lon="-2.2116700">
<ele>171.267120</ele>
<time>2007-12-07T07:45:05.999Z</time>
</trkpt>
<trkpt lat="43.2776300" lon="-2.2115100">
<ele>174.619934</ele>
<time>2007-12-07T07:45:24.998Z</time>
</trkpt>
<trkpt lat="43.2774100" lon="-2.2113900">
<ele>177.515533</ele>
<time>2007-12-07T07:45:42.002Z</time>
</trkpt>
<trkpt lat="43.2772600" lon="-2.2111000">
<ele>179.435760</ele>
<time>2007-12-07T07:46:01.001Z</time>
</trkpt>
<trkpt lat="43.2770600" lon="-2.2111800">
<ele>180.380630</ele>
<time>2007-12-07T07:46:16.000Z</time>
</trkpt>
<trkpt lat="43.2770200" lon="-2.2113500">
<ele>181.813202</ele>
<time>2007-12-07T07:46:26.999Z</time>
</trkpt>
<trkpt lat="43.2769700" lon="-2.2113900">
<ele>182.788559</ele>
<time>2007-12-07T07:46:30.999Z</time>
</trkpt>
<trkpt lat="43.2769300" lon="-2.2114000">
<ele>183.276230</ele>
<time>2007-12-07T07:46:33.997Z</time>
</trkpt>
<trkpt lat="43.2768300" lon="-2.2114300">
<ele>185.684158</ele>
<time>2007-12-07T07:46:41.998Z</time>
</trkpt>
<trkpt lat="43.2766100" lon="-2.2114300">
<ele>189.036957</ele>
<time>2007-12-07T07:46:57.999Z</time>
</trkpt>
<trkpt lat="43.2763800" lon="-2.2113800">
<ele>191.932556</ele>
<time>2007-12-07T07:47:15.003Z</time>
</trkpt>
<trkpt lat="43.2761400" lon="-2.2113000">
<ele>195.285370</ele>
<time>2007-12-07T07:47:31.998Z</time>
</trkpt>
<trkpt lat="43.2760200" lon="-2.2112600">
<ele>197.205597</ele>
<time>2007-12-07T07:47:39.998Z</time>
</trkpt>
<trkpt lat="43.2757600" lon="-2.2110900">
<ele>199.613525</ele>
<time>2007-12-07T07:48:00.000Z</time>
</trkpt>
<trkpt lat="43.2754000" lon="-2.2108700">
<ele>199.125839</ele>
<time>2007-12-07T07:48:25.004Z</time>
</trkpt>
<trkpt lat="43.2750200" lon="-2.2107700">
<ele>199.613525</ele>
<time>2007-12-07T07:48:48.997Z</time>
</trkpt>
<trkpt lat="43.2747400" lon="-2.2105700">
<ele>196.717926</ele>
<time>2007-12-07T07:49:08.999Z</time>
</trkpt>
<trkpt lat="43.2745800" lon="-2.2101500">
<ele>198.180969</ele>
<time>2007-12-07T07:49:30.003Z</time>
</trkpt>
<trkpt lat="43.2743500" lon="-2.2095800">
<ele>200.101196</ele>
<time>2007-12-07T07:50:00.001Z</time>
</trkpt>
<trkpt lat="43.2742400" lon="-2.2094400">
<ele>200.558395</ele>
<time>2007-12-07T07:50:09.997Z</time>
</trkpt>
<trkpt lat="43.2740100" lon="-2.2092500">
<ele>203.941666</ele>
<time>2007-12-07T07:50:27.001Z</time>
</trkpt>
<trkpt lat="43.2737000" lon="-2.2089900">
<ele>207.294479</ele>
<time>2007-12-07T07:50:50.001Z</time>
</trkpt>
<trkpt lat="43.2736200" lon="-2.2089200">
<ele>208.269836</ele>
<time>2007-12-07T07:50:55.997Z</time>
</trkpt>
<trkpt lat="43.2733600" lon="-2.2086600">
<ele>211.622635</ele>
<time>2007-12-07T07:51:17.001Z</time>
</trkpt>
<trkpt lat="43.2732400" lon="-2.2082900">
<ele>214.518234</ele>
<time>2007-12-07T07:51:36.000Z</time>
</trkpt>
<trkpt lat="43.2731400" lon="-2.2077000">
<ele>216.926163</ele>
<time>2007-12-07T07:52:04.002Z</time>
</trkpt>
<trkpt lat="43.2730600" lon="-2.2072100">
<ele>220.278961</ele>
<time>2007-12-07T07:52:28.004Z</time>
</trkpt>
<trkpt lat="43.2728600" lon="-2.2069400">
<ele>220.766632</ele>
<time>2007-12-07T07:52:47.004Z</time>
</trkpt>
<trkpt lat="43.2727100" lon="-2.2068600">
<ele>220.766632</ele>
<time>2007-12-07T07:53:02.996Z</time>
</trkpt>
<trkpt lat="43.2727100" lon="-2.2068700">
<ele>220.766632</ele>
<time>2007-12-07T07:53:33.996Z</time>
</trkpt>
<trkpt lat="43.2724100" lon="-2.2069300">
<ele>223.174561</ele>
<time>2007-12-07T07:53:56.003Z</time>
</trkpt>
<trkpt lat="43.2721100" lon="-2.2068600">
<ele>226.527359</ele>
<time>2007-12-07T07:54:16.004Z</time>
</trkpt>
<trkpt lat="43.2718000" lon="-2.2067500">
<ele>228.447601</ele>
<time>2007-12-07T07:54:38.002Z</time>
</trkpt>
<trkpt lat="43.2716200" lon="-2.2067200">
<ele>231.343201</ele>
<time>2007-12-07T07:54:50.996Z</time>
</trkpt>
<trkpt lat="43.2714000" lon="-2.2067700">
<ele>234.695999</ele>
<time>2007-12-07T07:55:08.000Z</time>
</trkpt>
<trkpt lat="43.2712700" lon="-2.2067700">
<ele>237.591599</ele>
<time>2007-12-07T07:55:18.998Z</time>
</trkpt>
<trkpt lat="43.2710600" lon="-2.2067400">
<ele>240.944397</ele>
<time>2007-12-07T07:55:36.002Z</time>
</trkpt>
<trkpt lat="43.2708500" lon="-2.2066700">
<ele>244.297195</ele>
<time>2007-12-07T07:55:52.003Z</time>
</trkpt>
<trkpt lat="43.2706000" lon="-2.2066100">
<ele>245.760239</ele>
<time>2007-12-07T07:56:11.003Z</time>
</trkpt>
<trkpt lat="43.2704500" lon="-2.2066000">
<ele>249.113037</ele>
<time>2007-12-07T07:56:23.997Z</time>
</trkpt>
<trkpt lat="43.2702600" lon="-2.2065700">
<ele>252.008636</ele>
<time>2007-12-07T07:56:38.996Z</time>
</trkpt>
<trkpt lat="43.2699900" lon="-2.2065500">
<ele>254.416565</ele>
<time>2007-12-07T07:56:58.998Z</time>
</trkpt>
<trkpt lat="43.2699100" lon="-2.2065600">
<ele>255.849121</ele>
<time>2007-12-07T07:57:05.003Z</time>
</trkpt>
<trkpt lat="43.2697400" lon="-2.2065500">
<ele>259.689606</ele>
<time>2007-12-07T07:57:20.002Z</time>
</trkpt>
<trkpt lat="43.2695900" lon="-2.2065700">
<ele>262.585205</ele>
<time>2007-12-07T07:57:33.998Z</time>
</trkpt>
<trkpt lat="43.2694900" lon="-2.2065400">
<ele>265.937988</ele>
<time>2007-12-07T07:57:44.004Z</time>
</trkpt>
<trkpt lat="43.2693700" lon="-2.2064800">
<ele>269.321259</ele>
<time>2007-12-07T07:57:56.998Z</time>
</trkpt>
<trkpt lat="43.2693500" lon="-2.2064800">
<ele>269.778473</ele>
<time>2007-12-07T07:57:59.996Z</time>
</trkpt>
<trkpt lat="43.2693200" lon="-2.2064800">
<ele>270.753845</ele>
<time>2007-12-07T07:58:02.001Z</time>
</trkpt>
<trkpt lat="43.2693100" lon="-2.2064900">
<ele>270.266174</ele>
<time>2007-12-07T07:58:03.996Z</time>
</trkpt>
<trkpt lat="43.2692900" lon="-2.2065000">
<ele>271.241516</ele>
<time>2007-12-07T07:58:06.001Z</time>
</trkpt>
<trkpt lat="43.2691700" lon="-2.2068900">
<ele>272.674072</ele>
<time>2007-12-07T07:58:26.996Z</time>
</trkpt>
<trkpt lat="43.2690300" lon="-2.2071500">
<ele>272.674072</ele>
<time>2007-12-07T07:58:42.997Z</time>
</trkpt>
<trkpt lat="43.2688500" lon="-2.2074500">
<ele>276.026886</ele>
<time>2007-12-07T07:59:02.999Z</time>
</trkpt>
<trkpt lat="43.2686800" lon="-2.2077300">
<ele>276.026886</ele>
<time>2007-12-07T07:59:20.996Z</time>
</trkpt>
<trkpt lat="43.2684000" lon="-2.2079300">
<ele>278.922485</ele>
<time>2007-12-07T07:59:42.000Z</time>
</trkpt>
<trkpt lat="43.2681300" lon="-2.2079300">
<ele>281.330414</ele>
<time>2007-12-07T08:00:00.999Z</time>
</trkpt>
<trkpt lat="43.2678800" lon="-2.2079100">
<ele>284.683197</ele>
<time>2007-12-07T08:00:18.003Z</time>
</trkpt>
<trkpt lat="43.2677200" lon="-2.2078900">
<ele>288.066467</ele>
<time>2007-12-07T08:00:30.004Z</time>
</trkpt>
<trkpt lat="43.2675400" lon="-2.2079000">
<ele>291.419281</ele>
<time>2007-12-07T08:00:42.998Z</time>
</trkpt>
<trkpt lat="43.2672200" lon="-2.2079800">
<ele>293.827209</ele>
<time>2007-12-07T08:01:04.996Z</time>
</trkpt>
<trkpt lat="43.2669100" lon="-2.2080700">
<ele>296.692322</ele>
<time>2007-12-07T08:01:28.004Z</time>
</trkpt>
<trkpt lat="43.2666200" lon="-2.2081700">
<ele>299.100250</ele>
<time>2007-12-07T08:01:47.997Z</time>
</trkpt>
<trkpt lat="43.2664200" lon="-2.2082200">
<ele>299.587921</ele>
<time>2007-12-07T08:02:02.003Z</time>
</trkpt>
<trkpt lat="43.2661200" lon="-2.2083000">
<ele>298.612549</ele>
<time>2007-12-07T08:02:22.004Z</time>
</trkpt>
<trkpt lat="43.2658600" lon="-2.2084000">
<ele>299.587921</ele>
<time>2007-12-07T08:02:41.004Z</time>
</trkpt>
<trkpt lat="43.2655700" lon="-2.2086700">
<ele>300.563263</ele>
<time>2007-12-07T08:03:04.997Z</time>
</trkpt>
<trkpt lat="43.2654400" lon="-2.2088800">
<ele>302.483521</ele>
<time>2007-12-07T08:03:19.996Z</time>
</trkpt>
<trkpt lat="43.2652700" lon="-2.2091900">
<ele>305.348633</ele>
<time>2007-12-07T08:03:39.997Z</time>
</trkpt>
<trkpt lat="43.2652300" lon="-2.2092700">
<ele>307.268860</ele>
<time>2007-12-07T08:03:45.000Z</time>
</trkpt>
<trkpt lat="43.2651300" lon="-2.2094600">
<ele>310.652161</ele>
<time>2007-12-07T08:03:57.001Z</time>
</trkpt>
<trkpt lat="43.2650300" lon="-2.2096700">
<ele>314.004944</ele>
<time>2007-12-07T08:04:10.004Z</time>
</trkpt>
<trkpt lat="43.2649500" lon="-2.2098400">
<ele>315.925201</ele>
<time>2007-12-07T08:04:20.001Z</time>
</trkpt>
<trkpt lat="43.2648400" lon="-2.2099800">
<ele>317.845459</ele>
<time>2007-12-07T08:04:30.999Z</time>
</trkpt>
<trkpt lat="43.2646300" lon="-2.2101100">
<ele>319.765686</ele>
<time>2007-12-07T08:04:47.001Z</time>
</trkpt>
<trkpt lat="43.2643700" lon="-2.2103400">
<ele>321.228729</ele>
<time>2007-12-07T08:05:07.996Z</time>
</trkpt>
<trkpt lat="43.2641000" lon="-2.2107700">
<ele>324.581512</ele>
<time>2007-12-07T08:05:34.996Z</time>
</trkpt>
<trkpt lat="43.2640700" lon="-2.2108100">
<ele>326.014069</ele>
<time>2007-12-07T08:05:38.003Z</time>
</trkpt>
<trkpt lat="43.2640300" lon="-2.2108900">
<ele>323.606140</ele>
<time>2007-12-07T08:05:42.003Z</time>
</trkpt>
<trkpt lat="43.2638400" lon="-2.2111700">
<ele>326.989441</ele>
<time>2007-12-07T08:06:01.996Z</time>
</trkpt>
<trkpt lat="43.2638100" lon="-2.2112100">
<ele>327.934326</ele>
<time>2007-12-07T08:06:05.003Z</time>
</trkpt>
<trkpt lat="43.2637900" lon="-2.2112600">
<ele>326.501740</ele>
<time>2007-12-07T08:06:08.001Z</time>
</trkpt>
<trkpt lat="43.2637500" lon="-2.2113200">
<ele>327.934326</ele>
<time>2007-12-07T08:06:13.003Z</time>
</trkpt>
<trkpt lat="43.2636800" lon="-2.2114300">
<ele>329.854553</ele>
<time>2007-12-07T08:06:21.004Z</time>
</trkpt>
<trkpt lat="43.2634800" lon="-2.2117300">
<ele>332.750153</ele>
<time>2007-12-07T08:06:41.999Z</time>
</trkpt>
<trkpt lat="43.2633700" lon="-2.2118800">
<ele>336.102936</ele>
<time>2007-12-07T08:06:54.000Z</time>
</trkpt>
<trkpt lat="43.2632100" lon="-2.2121000">
<ele>339.486267</ele>
<time>2007-12-07T08:07:11.004Z</time>
</trkpt>
<trkpt lat="43.2630700" lon="-2.2123100">
<ele>343.326721</ele>
<time>2007-12-07T08:07:26.996Z</time>
</trkpt>
<trkpt lat="43.2629500" lon="-2.2124900">
<ele>346.222321</ele>
<time>2007-12-07T08:07:41.002Z</time>
</trkpt>
<trkpt lat="43.2628600" lon="-2.2125900">
<ele>349.087463</ele>
<time>2007-12-07T08:07:49.996Z</time>
</trkpt>
<trkpt lat="43.2627500" lon="-2.2127100">
<ele>351.983063</ele>
<time>2007-12-07T08:08:01.997Z</time>
</trkpt>
<trkpt lat="43.2626500" lon="-2.2128000">
<ele>355.335846</ele>
<time>2007-12-07T08:08:13.004Z</time>
</trkpt>
<trkpt lat="43.2625600" lon="-2.2128900">
<ele>358.231445</ele>
<time>2007-12-07T08:08:23.001Z</time>
</trkpt>
<trkpt lat="43.2624700" lon="-2.2129800">
<ele>361.584259</ele>
<time>2007-12-07T08:08:35.002Z</time>
</trkpt>
<trkpt lat="43.2624000" lon="-2.2130500">
<ele>364.479858</ele>
<time>2007-12-07T08:08:43.996Z</time>
</trkpt>
<trkpt lat="43.2623000" lon="-2.2131600">
<ele>368.320313</ele>
<time>2007-12-07T08:08:56.999Z</time>
</trkpt>
<trkpt lat="43.2622400" lon="-2.2132200">
<ele>370.240540</ele>
<time>2007-12-07T08:09:05.000Z</time>
</trkpt>
<trkpt lat="43.2622000" lon="-2.2132700">
<ele>373.136139</ele>
<time>2007-12-07T08:09:13.000Z</time>
</trkpt>
<trkpt lat="43.2621000" lon="-2.2133100">
<ele>376.976654</ele>
<time>2007-12-07T08:09:25.001Z</time>
</trkpt>
<trkpt lat="43.2620400" lon="-2.2133500">
<ele>379.872253</ele>
<time>2007-12-07T08:09:34.004Z</time>
</trkpt>
<trkpt lat="43.2619700" lon="-2.2134100">
<ele>382.737335</ele>
<time>2007-12-07T08:09:44.001Z</time>
</trkpt>
<trkpt lat="43.2619700" lon="-2.2134200">
<ele>382.737335</ele>
<time>2007-12-07T08:09:45.003Z</time>
</trkpt>
<trkpt lat="43.2619100" lon="-2.2134800">
<ele>386.120667</ele>
<time>2007-12-07T08:09:53.997Z</time>
</trkpt>
<trkpt lat="43.2618400" lon="-2.2135300">
<ele>389.473450</ele>
<time>2007-12-07T08:10:04.996Z</time>
</trkpt>
<trkpt lat="43.2617700" lon="-2.2135900">
<ele>392.826263</ele>
<time>2007-12-07T08:10:17.999Z</time>
</trkpt>
<trkpt lat="43.2617400" lon="-2.2136200">
<ele>394.746460</ele>
<time>2007-12-07T08:10:23.002Z</time>
</trkpt>
<trkpt lat="43.2616900" lon="-2.2136700">
<ele>397.642059</ele>
<time>2007-12-07T08:10:32.998Z</time>
</trkpt>
<trkpt lat="43.2616400" lon="-2.2137200">
<ele>400.994873</ele>
<time>2007-12-07T08:10:43.003Z</time>
</trkpt>
<trkpt lat="43.2616000" lon="-2.2137900">
<ele>403.890472</ele>
<time>2007-12-07T08:10:53.000Z</time>
</trkpt>
<trkpt lat="43.2615300" lon="-2.2138600">
<ele>406.786072</ele>
<time>2007-12-07T08:11:06.996Z</time>
</trkpt>
<trkpt lat="43.2615000" lon="-2.2139200">
<ele>409.163513</ele>
<time>2007-12-07T08:11:14.004Z</time>
</trkpt>
<trkpt lat="43.2614000" lon="-2.2139800">
<ele>412.546814</ele>
<time>2007-12-07T08:11:25.996Z</time>
</trkpt>
<trkpt lat="43.2613200" lon="-2.2140600">
<ele>415.411926</ele>
<time>2007-12-07T08:11:37.003Z</time>
</trkpt>
<trkpt lat="43.2612400" lon="-2.2141600">
<ele>418.795197</ele>
<time>2007-12-07T08:11:48.002Z</time>
</trkpt>
<trkpt lat="43.2611600" lon="-2.2143100">
<ele>421.660339</ele>
<time>2007-12-07T08:12:00.996Z</time>
</trkpt>
<trkpt lat="43.2610700" lon="-2.2144200">
<ele>425.043610</ele>
<time>2007-12-07T08:12:12.997Z</time>
</trkpt>
<trkpt lat="43.2610000" lon="-2.2145400">
<ele>427.908722</ele>
<time>2007-12-07T08:12:23.996Z</time>
</trkpt>
<trkpt lat="43.2608900" lon="-2.2146900">
<ele>430.804321</ele>
<time>2007-12-07T08:12:38.002Z</time>
</trkpt>
<trkpt lat="43.2607900" lon="-2.2148600">
<ele>434.187592</ele>
<time>2007-12-07T08:12:51.998Z</time>
</trkpt>
<trkpt lat="43.2607200" lon="-2.2149900">
<ele>437.540405</ele>
<time>2007-12-07T08:13:02.997Z</time>
</trkpt>
<trkpt lat="43.2606800" lon="-2.2150400">
<ele>439.460663</ele>
<time>2007-12-07T08:13:06.997Z</time>
</trkpt>
<trkpt lat="43.2606100" lon="-2.2151800">
<ele>441.868530</ele>
<time>2007-12-07T08:13:18.998Z</time>
</trkpt>
<trkpt lat="43.2605200" lon="-2.2153100">
<ele>445.221344</ele>
<time>2007-12-07T08:13:30.999Z</time>
</trkpt>
<trkpt lat="43.2604600" lon="-2.2154000">
<ele>448.604645</ele>
<time>2007-12-07T08:13:40.996Z</time>
</trkpt>
<trkpt lat="43.2604000" lon="-2.2155300">
<ele>451.469757</ele>
<time>2007-12-07T08:13:52.997Z</time>
</trkpt>
<trkpt lat="43.2604000" lon="-2.2155700">
<ele>452.445129</ele>
<time>2007-12-07T08:14:07.996Z</time>
</trkpt>
<trkpt lat="43.2603900" lon="-2.2156000">
<ele>452.932800</ele>
<time>2007-12-07T08:14:19.003Z</time>
</trkpt>
<trkpt lat="43.2603200" lon="-2.2157000">
<ele>453.877686</ele>
<time>2007-12-07T08:14:27.004Z</time>
</trkpt>
<trkpt lat="43.2602800" lon="-2.2157400">
<ele>455.797913</ele>
<time>2007-12-07T08:14:31.004Z</time>
</trkpt>
<trkpt lat="43.2602500" lon="-2.2158100">
<ele>456.773285</ele>
<time>2007-12-07T08:14:35.998Z</time>
</trkpt>
<trkpt lat="43.2601300" lon="-2.2158200">
<ele>459.181213</ele>
<time>2007-12-07T08:14:46.003Z</time>
</trkpt>
<trkpt lat="43.2601200" lon="-2.2158300">
<ele>456.285614</ele>
<time>2007-12-07T08:14:47.999Z</time>
</trkpt>
<trkpt lat="43.2601200" lon="-2.2158300">
<ele>456.773285</ele>
<time>2007-12-07T08:14:49.001Z</time>
</trkpt>
<trkpt lat="43.2601200" lon="-2.2158300">
<ele>460.613739</ele>
<time>2007-12-07T08:14:51.999Z</time>
</trkpt>
<trkpt lat="43.2601100" lon="-2.2158200">
<ele>457.718140</ele>
<time>2007-12-07T08:15:05.996Z</time>
</trkpt>
<trkpt lat="43.2601100" lon="-2.2158200">
<ele>461.558655</ele>
<time>2007-12-07T08:15:06.998Z</time>
</trkpt>
<trkpt lat="43.2601100" lon="-2.2158200">
<ele>459.181213</ele>
<time>2007-12-07T08:15:08.001Z</time>
</trkpt>
<trkpt lat="43.2600700" lon="-2.2157900">
<ele>455.797913</ele>
<time>2007-12-07T08:15:10.999Z</time>
</trkpt>
<trkpt lat="43.2600000" lon="-2.2157300">
<ele>456.773285</ele>
<time>2007-12-07T08:15:16.001Z</time>
</trkpt>
<trkpt lat="43.2599500" lon="-2.2157100">
<ele>455.310242</ele>
<time>2007-12-07T08:15:18.999Z</time>
</trkpt>
<trkpt lat="43.2597700" lon="-2.2155500">
<ele>451.957458</ele>
<time>2007-12-07T08:15:31.000Z</time>
</trkpt>
<trkpt lat="43.2597600" lon="-2.2155400">
<ele>451.957458</ele>
<time>2007-12-07T08:15:32.003Z</time>
</trkpt>
<trkpt lat="43.2595500" lon="-2.2152600">
<ele>451.957458</ele>
<time>2007-12-07T08:15:51.002Z</time>
</trkpt>
<trkpt lat="43.2595400" lon="-2.2152500">
<ele>450.982086</ele>
<time>2007-12-07T08:16:02.001Z</time>
</trkpt>
<trkpt lat="43.2595400" lon="-2.2152600">
<ele>451.469757</ele>
<time>2007-12-07T08:17:40.998Z</time>
</trkpt>
<trkpt lat="43.2595400" lon="-2.2152500">
<ele>451.957458</ele>
<time>2007-12-07T08:18:18.996Z</time>
</trkpt>
<trkpt lat="43.2595400" lon="-2.2152500">
<ele>452.445129</ele>
<time>2007-12-07T08:18:22.997Z</time>
</trkpt>
<trkpt lat="43.2595400" lon="-2.2152400">
<ele>451.469757</ele>
<time>2007-12-07T08:18:30.004Z</time>
</trkpt>
<trkpt lat="43.2595400" lon="-2.2152500">
<ele>452.445129</ele>
<time>2007-12-07T08:18:54.999Z</time>
</trkpt>
<trkpt lat="43.2594800" lon="-2.2151500">
<ele>450.982086</ele>
<time>2007-12-07T08:19:13.999Z</time>
</trkpt>
<trkpt lat="43.2593700" lon="-2.2149600">
<ele>448.116943</ele>
<time>2007-12-07T08:19:24.997Z</time>
</trkpt>
<trkpt lat="43.2591500" lon="-2.2147800">
<ele>445.709045</ele>
<time>2007-12-07T08:19:39.996Z</time>
</trkpt>
<trkpt lat="43.2589500" lon="-2.2146100">
<ele>442.356262</ele>
<time>2007-12-07T08:19:54.002Z</time>
</trkpt>
<trkpt lat="43.2589100" lon="-2.2145800">
<ele>440.893188</ele>
<time>2007-12-07T08:19:57.000Z</time>
</trkpt>
<trkpt lat="43.2588300" lon="-2.2145200">
<ele>438.028076</ele>
<time>2007-12-07T08:20:02.996Z</time>
</trkpt>
<trkpt lat="43.2588000" lon="-2.2144900">
<ele>437.052734</ele>
<time>2007-12-07T08:20:06.003Z</time>
</trkpt>
<trkpt lat="43.2587000" lon="-2.2143900">
<ele>433.212250</ele>
<time>2007-12-07T08:20:14.004Z</time>
</trkpt>
<trkpt lat="43.2585500" lon="-2.2142500">
<ele>429.859467</ele>
<time>2007-12-07T08:20:25.996Z</time>
</trkpt>
<trkpt lat="43.2584100" lon="-2.2141500">
<ele>427.451538</ele>
<time>2007-12-07T08:20:36.001Z</time>
</trkpt>
<trkpt lat="43.2581700" lon="-2.2139200">
<ele>423.123352</ele>
<time>2007-12-07T08:20:52.996Z</time>
</trkpt>
<trkpt lat="43.2581000" lon="-2.2138300">
<ele>423.611053</ele>
<time>2007-12-07T08:21:03.001Z</time>
</trkpt>
<trkpt lat="43.2579800" lon="-2.2137200">
<ele>422.635681</ele>
<time>2007-12-07T08:21:14.000Z</time>
</trkpt>
<trkpt lat="43.2578200" lon="-2.2133900">
<ele>424.555939</ele>
<time>2007-12-07T08:21:32.999Z</time>
</trkpt>
<trkpt lat="43.2578100" lon="-2.2133700">
<ele>423.611053</ele>
<time>2007-12-07T08:21:39.004Z</time>
</trkpt>
<trkpt lat="43.2578000" lon="-2.2133500">
<ele>424.068268</ele>
<time>2007-12-07T08:21:42.002Z</time>
</trkpt>
<trkpt lat="43.2577000" lon="-2.2129900">
<ele>422.148010</ele>
<time>2007-12-07T08:21:59.999Z</time>
</trkpt>
<trkpt lat="43.2575800" lon="-2.2127200">
<ele>418.795197</ele>
<time>2007-12-07T08:22:14.998Z</time>
</trkpt>
<trkpt lat="43.2574900" lon="-2.2125600">
<ele>418.307526</ele>
<time>2007-12-07T08:22:29.004Z</time>
</trkpt>
<trkpt lat="43.2574400" lon="-2.2123600">
<ele>418.795197</ele>
<time>2007-12-07T08:22:43.000Z</time>
</trkpt>
<trkpt lat="43.2573900" lon="-2.2121300">
<ele>421.660339</ele>
<time>2007-12-07T08:22:59.002Z</time>
</trkpt>
<trkpt lat="43.2573600" lon="-2.2120200">
<ele>425.043610</ele>
<time>2007-12-07T08:23:07.002Z</time>
</trkpt>
<trkpt lat="43.2573500" lon="-2.2120100">
<ele>425.043610</ele>
<time>2007-12-07T08:23:07.996Z</time>
</trkpt>
<trkpt lat="43.2573100" lon="-2.2118800">
<ele>428.396393</ele>
<time>2007-12-07T08:23:18.001Z</time>
</trkpt>
<trkpt lat="43.2571900" lon="-2.2116400">
<ele>431.779663</ele>
<time>2007-12-07T08:23:35.998Z</time>
</trkpt>
<trkpt lat="43.2570500" lon="-2.2113900">
<ele>433.699921</ele>
<time>2007-12-07T08:23:53.002Z</time>
</trkpt>
<trkpt lat="43.2570300" lon="-2.2111900">
<ele>434.644806</ele>
<time>2007-12-07T08:24:09.003Z</time>
</trkpt>
<trkpt lat="43.2570300" lon="-2.2111800">
<ele>434.644806</ele>
<time>2007-12-07T08:24:21.997Z</time>
</trkpt>
<trkpt lat="43.2570300" lon="-2.2111800">
<ele>435.620148</ele>
<time>2007-12-07T08:24:36.996Z</time>
</trkpt>
<trkpt lat="43.2569500" lon="-2.2110100">
<ele>430.804321</ele>
<time>2007-12-07T08:24:48.997Z</time>
</trkpt>
<trkpt lat="43.2569200" lon="-2.2109400">
<ele>427.451538</ele>
<time>2007-12-07T08:24:52.998Z</time>
</trkpt>
<trkpt lat="43.2568600" lon="-2.2107700">
<ele>424.555939</ele>
<time>2007-12-07T08:25:03.003Z</time>
</trkpt>
<trkpt lat="43.2568400" lon="-2.2107200">
<ele>422.635681</ele>
<time>2007-12-07T08:25:06.001Z</time>
</trkpt>
<trkpt lat="43.2568200" lon="-2.2106400">
<ele>419.282867</ele>
<time>2007-12-07T08:25:11.004Z</time>
</trkpt>
<trkpt lat="43.2568200" lon="-2.2106300">
<ele>418.795197</ele>
<time>2007-12-07T08:25:11.997Z</time>
</trkpt>
<trkpt lat="43.2568000" lon="-2.2105900">
<ele>417.362640</ele>
<time>2007-12-07T08:25:15.004Z</time>
</trkpt>
<trkpt lat="43.2567900" lon="-2.2105200">
<ele>414.467041</ele>
<time>2007-12-07T08:25:19.998Z</time>
</trkpt>
<trkpt lat="43.2567500" lon="-2.2104400">
<ele>412.546814</ele>
<time>2007-12-07T08:25:25.000Z</time>
</trkpt>
<trkpt lat="43.2567000" lon="-2.2103200">
<ele>408.706329</ele>
<time>2007-12-07T08:25:31.999Z</time>
</trkpt>
<trkpt lat="43.2566900" lon="-2.2103000">
<ele>408.706329</ele>
<time>2007-12-07T08:25:33.001Z</time>
</trkpt>
<trkpt lat="43.2565800" lon="-2.2100900">
<ele>405.323059</ele>
<time>2007-12-07T08:25:44.000Z</time>
</trkpt>
<trkpt lat="43.2565700" lon="-2.2100700">
<ele>405.323059</ele>
<time>2007-12-07T08:25:45.002Z</time>
</trkpt>
<trkpt lat="43.2564800" lon="-2.2099000">
<ele>401.970245</ele>
<time>2007-12-07T08:25:54.998Z</time>
</trkpt>
<trkpt lat="43.2563800" lon="-2.2097400">
<ele>404.865845</ele>
<time>2007-12-07T08:26:05.004Z</time>
</trkpt>
<trkpt lat="43.2561800" lon="-2.2094000">
<ele>405.810730</ele>
<time>2007-12-07T08:26:25.999Z</time>
</trkpt>
<trkpt lat="43.2559600" lon="-2.2090600">
<ele>406.786072</ele>
<time>2007-12-07T08:26:50.001Z</time>
</trkpt>
<trkpt lat="43.2559600" lon="-2.2090500">
<ele>407.243286</ele>
<time>2007-12-07T08:27:05.000Z</time>
</trkpt>
<trkpt lat="43.2559600" lon="-2.2090600">
<ele>406.298401</ele>
<time>2007-12-07T08:27:15.998Z</time>
</trkpt>
<trkpt lat="43.2558300" lon="-2.2088600">
<ele>404.865845</ele>
<time>2007-12-07T08:27:41.003Z</time>
</trkpt>
<trkpt lat="43.2558000" lon="-2.2088400">
<ele>403.890472</ele>
<time>2007-12-07T08:27:42.998Z</time>
</trkpt>
<trkpt lat="43.2557500" lon="-2.2087800">
<ele>400.994873</ele>
<time>2007-12-07T08:27:46.999Z</time>
</trkpt>
<trkpt lat="43.2557100" lon="-2.2086600">
<ele>398.129730</ele>
<time>2007-12-07T08:27:53.997Z</time>
</trkpt>
<trkpt lat="43.2556400" lon="-2.2085600">
<ele>395.721863</ele>
<time>2007-12-07T08:28:01.004Z</time>
</trkpt>
<trkpt lat="43.2556100" lon="-2.2085300">
<ele>394.746460</ele>
<time>2007-12-07T08:28:04.002Z</time>
</trkpt>
<trkpt lat="43.2555800" lon="-2.2085100">
<ele>393.313934</ele>
<time>2007-12-07T08:28:08.996Z</time>
</trkpt>
<trkpt lat="43.2555300" lon="-2.2083800">
<ele>389.961121</ele>
<time>2007-12-07T08:28:19.001Z</time>
</trkpt>
<trkpt lat="43.2555000" lon="-2.2083300">
<ele>388.498077</ele>
<time>2007-12-07T08:28:21.999Z</time>
</trkpt>
<trkpt lat="43.2554300" lon="-2.2082500">
<ele>385.145264</ele>
<time>2007-12-07T08:28:28.004Z</time>
</trkpt>
<trkpt lat="43.2553100" lon="-2.2080600">
<ele>381.304810</ele>
<time>2007-12-07T08:28:39.996Z</time>
</trkpt>
<trkpt lat="43.2553000" lon="-2.2080500">
<ele>381.304810</ele>
<time>2007-12-07T08:28:40.999Z</time>
</trkpt>
<trkpt lat="43.2551800" lon="-2.2079200">
<ele>377.921539</ele>
<time>2007-12-07T08:28:51.004Z</time>
</trkpt>
<trkpt lat="43.2551700" lon="-2.2079100">
<ele>377.921539</ele>
<time>2007-12-07T08:28:51.997Z</time>
</trkpt>
<trkpt lat="43.2551200" lon="-2.2077800">
<ele>375.544067</ele>
<time>2007-12-07T08:28:58.996Z</time>
</trkpt>
<trkpt lat="43.2551000" lon="-2.2077400">
<ele>373.623840</ele>
<time>2007-12-07T08:29:02.003Z</time>
</trkpt>
<trkpt lat="43.2550900" lon="-2.2077300">
<ele>373.623840</ele>
<time>2007-12-07T08:29:02.996Z</time>
</trkpt>
<trkpt lat="43.2549400" lon="-2.2074900">
<ele>369.295685</ele>
<time>2007-12-07T08:29:18.004Z</time>
</trkpt>
<trkpt lat="43.2547700" lon="-2.2072800">
<ele>366.887756</ele>
<time>2007-12-07T08:29:33.003Z</time>
</trkpt>
<trkpt lat="43.2547500" lon="-2.2072400">
<ele>367.832642</ele>
<time>2007-12-07T08:29:36.001Z</time>
</trkpt>
<trkpt lat="43.2547300" lon="-2.2072000">
<ele>366.400085</ele>
<time>2007-12-07T08:29:47.000Z</time>
</trkpt>
<trkpt lat="43.2546400" lon="-2.2071100">
<ele>366.887756</ele>
<time>2007-12-07T08:29:52.996Z</time>
</trkpt>
<trkpt lat="43.2545100" lon="-2.2068090">
<ele>366.400085</ele>
<time>2007-12-07T08:30:09.999Z</time>
</trkpt>
<trkpt lat="43.2543300" lon="-2.2066000">
<ele>369.295685</ele>
<time>2007-12-07T08:30:27.996Z</time>
</trkpt>
<trkpt lat="43.2541400" lon="-2.2065100">
<ele>372.160797</ele>
<time>2007-12-07T08:30:45.000Z</time>
</trkpt>
<trkpt lat="43.2541300" lon="-2.2065100">
<ele>373.623840</ele>
<time>2007-12-07T08:30:57.001Z</time>
</trkpt>
<trkpt lat="43.2541300" lon="-2.2065100">
<ele>372.160797</ele>
<time>2007-12-07T08:31:10.998Z</time>
</trkpt>
<trkpt lat="43.2541300" lon="-2.2065200">
<ele>372.160797</ele>
<time>2007-12-07T08:31:29.997Z</time>
</trkpt>
<trkpt lat="43.2541300" lon="-2.2065100">
<ele>373.136139</ele>
<time>2007-12-07T08:31:35.000Z</time>
</trkpt>
<trkpt lat="43.2541700" lon="-2.2063000">
<ele>373.623840</ele>
<time>2007-12-07T08:31:45.998Z</time>
</trkpt>
<trkpt lat="43.2541800" lon="-2.2062300">
<ele>374.568726</ele>
<time>2007-12-07T08:31:49.999Z</time>
</trkpt>
<trkpt lat="43.2541900" lon="-2.2062000">
<ele>375.544067</ele>
<time>2007-12-07T08:31:52.003Z</time>
</trkpt>
<trkpt lat="43.2543000" lon="-2.2061200">
<ele>378.896881</ele>
<time>2007-12-07T08:32:02.000Z</time>
</trkpt>
<trkpt lat="43.2543500" lon="-2.2060200">
<ele>379.384552</ele>
<time>2007-12-07T08:32:15.003Z</time>
</trkpt>
<trkpt lat="43.2543500" lon="-2.2060100">
<ele>380.329468</ele>
<time>2007-12-07T08:32:26.002Z</time>
</trkpt>
<trkpt lat="43.2543800" lon="-2.2059700">
<ele>380.817139</ele>
<time>2007-12-07T08:32:31.004Z</time>
</trkpt>
<trkpt lat="43.2544800" lon="-2.2057700">
<ele>383.712738</ele>
<time>2007-12-07T08:32:45.001Z</time>
</trkpt>
<trkpt lat="43.2545500" lon="-2.2056200">
<ele>384.169922</ele>
<time>2007-12-07T08:32:56.000Z</time>
</trkpt>
<trkpt lat="43.2545600" lon="-2.2055600">
<ele>384.169922</ele>
<time>2007-12-07T08:33:00.000Z</time>
</trkpt>
<trkpt lat="43.2545700" lon="-2.2055300">
<ele>384.169922</ele>
<time>2007-12-07T08:33:01.996Z</time>
</trkpt>
<trkpt lat="43.2546200" lon="-2.2054000">
<ele>385.145264</ele>
<time>2007-12-07T08:33:10.999Z</time>
</trkpt>
<trkpt lat="43.2546500" lon="-2.2053500">
<ele>384.657593</ele>
<time>2007-12-07T08:33:14.999Z</time>
</trkpt>
<trkpt lat="43.2546900" lon="-2.2052400">
<ele>385.145264</ele>
<time>2007-12-07T08:33:21.997Z</time>
</trkpt>
<trkpt lat="43.2547000" lon="-2.2049400">
<ele>388.498077</ele>
<time>2007-12-07T08:33:39.001Z</time>
</trkpt>
<trkpt lat="43.2546700" lon="-2.2048400">
<ele>389.473450</ele>
<time>2007-12-07T08:33:45.999Z</time>
</trkpt>
<trkpt lat="43.2545800" lon="-2.2047700">
<ele>393.313934</ele>
<time>2007-12-07T08:33:55.996Z</time>
</trkpt>
<trkpt lat="43.2545100" lon="-2.2047200">
<ele>395.234131</ele>
<time>2007-12-07T08:34:03.003Z</time>
</trkpt>
<trkpt lat="43.2544900" lon="-2.2047100">
<ele>395.721863</ele>
<time>2007-12-07T08:34:04.999Z</time>
</trkpt>
<trkpt lat="43.2544600" lon="-2.2047000">
<ele>396.209534</ele>
<time>2007-12-07T08:34:07.997Z</time>
</trkpt>
<trkpt lat="43.2544000" lon="-2.2046600">
<ele>397.642059</ele>
<time>2007-12-07T08:34:15.004Z</time>
</trkpt>
<trkpt lat="43.2543200" lon="-2.2045300">
<ele>401.970245</ele>
<time>2007-12-07T08:34:26.003Z</time>
</trkpt>
<trkpt lat="43.2542500" lon="-2.2044800">
<ele>403.890472</ele>
<time>2007-12-07T08:34:34.997Z</time>
</trkpt>
<trkpt lat="43.2541400" lon="-2.2043800">
<ele>407.730957</ele>
<time>2007-12-07T08:34:48.000Z</time>
</trkpt>
<trkpt lat="43.2541300" lon="-2.2043700">
<ele>408.218658</ele>
<time>2007-12-07T08:34:49.002Z</time>
</trkpt>
<trkpt lat="43.2540200" lon="-2.2042900">
<ele>411.571442</ele>
<time>2007-12-07T08:35:01.003Z</time>
</trkpt>
<trkpt lat="43.2539500" lon="-2.2042500">
<ele>413.979340</ele>
<time>2007-12-07T08:35:06.999Z</time>
</trkpt>
<trkpt lat="43.2538500" lon="-2.2041600">
<ele>417.362640</ele>
<time>2007-12-07T08:35:17.998Z</time>
</trkpt>
<trkpt lat="43.2537400" lon="-2.2040500">
<ele>420.227753</ele>
<time>2007-12-07T08:35:29.999Z</time>
</trkpt>
<trkpt lat="43.2536800" lon="-2.2037300">
<ele>423.123352</ele>
<time>2007-12-07T08:35:50.001Z</time>
</trkpt>
<trkpt lat="43.2536600" lon="-2.2034200">
<ele>424.555939</ele>
<time>2007-12-07T08:36:07.998Z</time>
</trkpt>
<trkpt lat="43.2536600" lon="-2.2034000">
<ele>425.043610</ele>
<time>2007-12-07T08:36:21.001Z</time>
</trkpt>
<trkpt lat="43.2536300" lon="-2.2032400">
<ele>424.068268</ele>
<time>2007-12-07T08:36:52.001Z</time>
</trkpt>
<trkpt lat="43.2535600" lon="-2.2029800">
<ele>421.203125</ele>
<time>2007-12-07T08:37:04.996Z</time>
</trkpt>
<trkpt lat="43.2535200" lon="-2.2028100">
<ele>417.819855</ele>
<time>2007-12-07T08:37:13.999Z</time>
</trkpt>
<trkpt lat="43.2535100" lon="-2.2027900">
<ele>417.819855</ele>
<time>2007-12-07T08:37:15.001Z</time>
</trkpt>
<trkpt lat="43.2535200" lon="-2.2027100">
<ele>416.387268</ele>
<time>2007-12-07T08:37:19.001Z</time>
</trkpt>
<trkpt lat="43.2534800" lon="-2.2024700">
<ele>413.034485</ele>
<time>2007-12-07T08:37:31.002Z</time>
</trkpt>
<trkpt lat="43.2534900" lon="-2.2024500">
<ele>413.034485</ele>
<time>2007-12-07T08:37:31.996Z</time>
</trkpt>
<trkpt lat="43.2534600" lon="-2.2020900">
<ele>414.954742</ele>
<time>2007-12-07T08:37:51.004Z</time>
</trkpt>
<trkpt lat="43.2534600" lon="-2.2020400">
<ele>416.387268</ele>
<time>2007-12-07T08:37:54.002Z</time>
</trkpt>
<trkpt lat="43.2534500" lon="-2.2018700">
<ele>419.740082</ele>
<time>2007-12-07T08:38:03.998Z</time>
</trkpt>
<trkpt lat="43.2534400" lon="-2.2018600">
<ele>419.282867</ele>
<time>2007-12-07T08:38:05.001Z</time>
</trkpt>
<trkpt lat="43.2534400" lon="-2.2017900">
<ele>421.660339</ele>
<time>2007-12-07T08:38:10.003Z</time>
</trkpt>
<trkpt lat="43.2534200" lon="-2.2016800">
<ele>423.611053</ele>
<time>2007-12-07T08:38:18.004Z</time>
</trkpt>
<trkpt lat="43.2534100" lon="-2.2016400">
<ele>424.555939</ele>
<time>2007-12-07T08:38:21.002Z</time>
</trkpt>
<trkpt lat="43.2533900" lon="-2.2014900">
<ele>427.451538</ele>
<time>2007-12-07T08:38:33.003Z</time>
</trkpt>
<trkpt lat="43.2533900" lon="-2.2014500">
<ele>428.884064</ele>
<time>2007-12-07T08:38:36.001Z</time>
</trkpt>
<trkpt lat="43.2534000" lon="-2.2013900">
<ele>431.291992</ele>
<time>2007-12-07T08:38:41.004Z</time>
</trkpt>
<trkpt lat="43.2533900" lon="-2.2013100">
<ele>433.699921</ele>
<time>2007-12-07T08:38:48.002Z</time>
</trkpt>
<trkpt lat="43.2533900" lon="-2.2011900">
<ele>437.052734</ele>
<time>2007-12-07T08:38:57.998Z</time>
</trkpt>
<trkpt lat="43.2533900" lon="-2.2011500">
<ele>438.028076</ele>
<time>2007-12-07T08:39:03.001Z</time>
</trkpt>
<trkpt lat="43.2533700" lon="-2.2011300">
<ele>438.028076</ele>
<time>2007-12-07T08:39:05.999Z</time>
</trkpt>
<trkpt lat="43.2533500" lon="-2.2010800">
<ele>440.436005</ele>
<time>2007-12-07T08:39:09.999Z</time>
</trkpt>
<trkpt lat="43.2533300" lon="-2.2010100">
<ele>441.868530</ele>
<time>2007-12-07T08:39:16.004Z</time>
</trkpt>
<trkpt lat="43.2533100" lon="-2.2009800">
<ele>443.301117</ele>
<time>2007-12-07T08:39:19.002Z</time>
</trkpt>
<trkpt lat="43.2532700" lon="-2.2008000">
<ele>446.684387</ele>
<time>2007-12-07T08:39:31.997Z</time>
</trkpt>
<trkpt lat="43.2532300" lon="-2.2006700">
<ele>450.037201</ele>
<time>2007-12-07T08:39:43.004Z</time>
</trkpt>
<trkpt lat="43.2532100" lon="-2.2005900">
<ele>451.957458</ele>
<time>2007-12-07T08:39:50.003Z</time>
</trkpt>
<trkpt lat="43.2531700" lon="-2.2005400">
<ele>453.390015</ele>
<time>2007-12-07T08:39:54.996Z</time>
</trkpt>
<trkpt lat="43.2531500" lon="-2.2005100">
<ele>453.877686</ele>
<time>2007-12-07T08:39:58.003Z</time>
</trkpt>
<trkpt lat="43.2531200" lon="-2.2003600">
<ele>457.230469</ele>
<time>2007-12-07T08:40:10.998Z</time>
</trkpt>
<trkpt lat="43.2531100" lon="-2.2003500">
<ele>457.230469</ele>
<time>2007-12-07T08:40:12.000Z</time>
</trkpt>
<trkpt lat="43.2531000" lon="-2.2002400">
<ele>458.693542</ele>
<time>2007-12-07T08:40:20.001Z</time>
</trkpt>
<trkpt lat="43.2530600" lon="-2.2002100">
<ele>459.181213</ele>
<time>2007-12-07T08:40:26.999Z</time>
</trkpt>
<trkpt lat="43.2530700" lon="-2.2001800">
<ele>460.613739</ele>
<time>2007-12-07T08:40:33.997Z</time>
</trkpt>
<trkpt lat="43.2530700" lon="-2.2000200">
<ele>461.101440</ele>
<time>2007-12-07T08:40:48.996Z</time>
</trkpt>
<trkpt lat="43.2530700" lon="-2.2000200">
<ele>461.558655</ele>
<time>2007-12-07T08:40:49.999Z</time>
</trkpt>
<trkpt lat="43.2530800" lon="-2.2000000">
<ele>460.126068</ele>
<time>2007-12-07T08:40:52.003Z</time>
</trkpt>
<trkpt lat="43.2531600" lon="-2.1997600">
<ele>457.230469</ele>
<time>2007-12-07T08:41:04.004Z</time>
</trkpt>
<trkpt lat="43.2531600" lon="-2.1997000">
<ele>455.797913</ele>
<time>2007-12-07T08:41:07.002Z</time>
</trkpt>
<trkpt lat="43.2531800" lon="-2.1996000">
<ele>453.877686</ele>
<time>2007-12-07T08:41:11.996Z</time>
</trkpt>
<trkpt lat="43.2532000" lon="-2.1994900">
<ele>450.982086</ele>
<time>2007-12-07T08:41:18.001Z</time>
</trkpt>
<trkpt lat="43.2532100" lon="-2.1994500">
<ele>450.037201</ele>
<time>2007-12-07T08:41:19.997Z</time>
</trkpt>
<trkpt lat="43.2532400" lon="-2.1993100">
<ele>446.684387</ele>
<time>2007-12-07T08:41:27.004Z</time>
</trkpt>
<trkpt lat="43.2532700" lon="-2.1991600">
<ele>443.301117</ele>
<time>2007-12-07T08:41:34.002Z</time>
</trkpt>
<trkpt lat="43.2534000" lon="-2.1988800">
<ele>440.436005</ele>
<time>2007-12-07T08:41:49.001Z</time>
</trkpt>
<trkpt lat="43.2535100" lon="-2.1987700">
<ele>438.485260</ele>
<time>2007-12-07T08:41:58.004Z</time>
</trkpt>
<trkpt lat="43.2535400" lon="-2.1986900">
<ele>435.132477</ele>
<time>2007-12-07T08:42:05.003Z</time>
</trkpt>
<trkpt lat="43.2535400" lon="-2.1986900">
<ele>438.972931</ele>
<time>2007-12-07T08:42:05.996Z</time>
</trkpt>
<trkpt lat="43.2535400" lon="-2.1986900">
<ele>435.620148</ele>
<time>2007-12-07T08:42:12.001Z</time>
</trkpt>
<trkpt lat="43.2535700" lon="-2.1986600">
<ele>436.107849</ele>
<time>2007-12-07T08:42:16.001Z</time>
</trkpt>
<trkpt lat="43.2537500" lon="-2.1985700">
<ele>432.724548</ele>
<time>2007-12-07T08:42:28.002Z</time>
</trkpt>
<trkpt lat="43.2538700" lon="-2.1985200">
<ele>429.371735</ele>
<time>2007-12-07T08:42:36.996Z</time>
</trkpt>
<trkpt lat="43.2538800" lon="-2.1985300">
<ele>428.884064</ele>
<time>2007-12-07T08:42:37.999Z</time>
</trkpt>
<trkpt lat="43.2539300" lon="-2.1984600">
<ele>425.988464</ele>
<time>2007-12-07T08:42:44.004Z</time>
</trkpt>
<trkpt lat="43.2539400" lon="-2.1984500">
<ele>425.531281</ele>
<time>2007-12-07T08:42:44.997Z</time>
</trkpt>
<trkpt lat="43.2539700" lon="-2.1984000">
<ele>423.611053</ele>
<time>2007-12-07T08:42:48.997Z</time>
</trkpt>
<trkpt lat="43.2539900" lon="-2.1983800">
<ele>422.635681</ele>
<time>2007-12-07T08:42:51.002Z</time>
</trkpt>
<trkpt lat="43.2540000" lon="-2.1983500">
<ele>421.660339</ele>
<time>2007-12-07T08:42:52.998Z</time>
</trkpt>
<trkpt lat="43.2539800" lon="-2.1983000">
<ele>419.740082</ele>
<time>2007-12-07T08:42:55.996Z</time>
</trkpt>
<trkpt lat="43.2539400" lon="-2.1982100">
<ele>417.819855</ele>
<time>2007-12-07T08:43:00.998Z</time>
</trkpt>
<trkpt lat="43.2538300" lon="-2.1980300">
<ele>414.467041</ele>
<time>2007-12-07T08:43:11.997Z</time>
</trkpt>
<trkpt lat="43.2537200" lon="-2.1979000">
<ele>411.114258</ele>
<time>2007-12-07T08:43:21.000Z</time>
</trkpt>
<trkpt lat="43.2536400" lon="-2.1978300">
<ele>409.163513</ele>
<time>2007-12-07T08:43:26.996Z</time>
</trkpt>
<trkpt lat="43.2535200" lon="-2.1976900">
<ele>405.323059</ele>
<time>2007-12-07T08:43:37.001Z</time>
</trkpt>
<trkpt lat="43.2534400" lon="-2.1975200">
<ele>401.482544</ele>
<time>2007-12-07T08:43:46.004Z</time>
</trkpt>
<trkpt lat="43.2534300" lon="-2.1975100">
<ele>401.482544</ele>
<time>2007-12-07T08:43:46.998Z</time>
</trkpt>
<trkpt lat="43.2532500" lon="-2.1973500">
<ele>397.642059</ele>
<time>2007-12-07T08:44:00.001Z</time>
</trkpt>
<trkpt lat="43.2530900" lon="-2.1972200">
<ele>393.801605</ele>
<time>2007-12-07T08:44:11.000Z</time>
</trkpt>
<trkpt lat="43.2529900" lon="-2.1970900">
<ele>390.906006</ele>
<time>2007-12-07T08:44:20.003Z</time>
</trkpt>
<trkpt lat="43.2529300" lon="-2.1969700">
<ele>388.040863</ele>
<time>2007-12-07T08:44:27.001Z</time>
</trkpt>
<trkpt lat="43.2528800" lon="-2.1968900">
<ele>387.065521</ele>
<time>2007-12-07T08:44:32.004Z</time>
</trkpt>
<trkpt lat="43.2528700" lon="-2.1968500">
<ele>386.577850</ele>
<time>2007-12-07T08:44:33.999Z</time>
</trkpt>
<trkpt lat="43.2528500" lon="-2.1968200">
<ele>385.145264</ele>
<time>2007-12-07T08:44:36.997Z</time>
</trkpt>
<trkpt lat="43.2528300" lon="-2.1968100">
<ele>385.145264</ele>
<time>2007-12-07T08:44:50.001Z</time>
</trkpt>
<trkpt lat="43.2528100" lon="-2.1966200">
<ele>382.737335</ele>
<time>2007-12-07T08:45:02.002Z</time>
</trkpt>
<trkpt lat="43.2528000" lon="-2.1965400">
<ele>380.817139</ele>
<time>2007-12-07T08:45:06.002Z</time>
</trkpt>
<trkpt lat="43.2527500" lon="-2.1964300">
<ele>378.409210</ele>
<time>2007-12-07T08:45:17.001Z</time>
</trkpt>
<trkpt lat="43.2526800" lon="-2.1963600">
<ele>376.976654</ele>
<time>2007-12-07T08:45:30.004Z</time>
</trkpt>
<trkpt lat="43.2526600" lon="-2.1963900">
<ele>377.464325</ele>
<time>2007-12-07T08:45:44.001Z</time>
</trkpt>
<trkpt lat="43.2525800" lon="-2.1963500">
<ele>374.568726</ele>
<time>2007-12-07T08:45:49.997Z</time>
</trkpt>
<trkpt lat="43.2523000" lon="-2.1962600">
<ele>373.623840</ele>
<time>2007-12-07T08:46:05.998Z</time>
</trkpt>
<trkpt lat="43.2518900" lon="-2.1961600">
<ele>373.136139</ele>
<time>2007-12-07T08:46:31.002Z</time>
</trkpt>
<trkpt lat="43.2514500" lon="-2.1960900">
<ele>374.081055</ele>
<time>2007-12-07T08:46:57.000Z</time>
</trkpt>
<trkpt lat="43.2509400" lon="-2.1962100">
<ele>372.648468</ele>
<time>2007-12-07T08:47:25.996Z</time>
</trkpt>
<trkpt lat="43.2505300" lon="-2.1962700">
<ele>371.673126</ele>
<time>2007-12-07T08:47:49.004Z</time>
</trkpt>
<trkpt lat="43.2503300" lon="-2.1962400">
<ele>368.320313</ele>
<time>2007-12-07T08:48:00.003Z</time>
</trkpt>
<trkpt lat="43.2500800" lon="-2.1959500">
<ele>365.424713</ele>
<time>2007-12-07T08:48:18.000Z</time>
</trkpt>
<trkpt lat="43.2499400" lon="-2.1955700">
<ele>361.584259</ele>
<time>2007-12-07T08:48:35.004Z</time>
</trkpt>
<trkpt lat="43.2497800" lon="-2.1953100">
<ele>358.231445</ele>
<time>2007-12-07T08:48:49.000Z</time>
</trkpt>
<trkpt lat="43.2495600" lon="-2.1954400">
<ele>355.823517</ele>
<time>2007-12-07T08:49:03.999Z</time>
</trkpt>
<trkpt lat="43.2493500" lon="-2.1958900">
<ele>357.256073</ele>
<time>2007-12-07T08:49:26.999Z</time>
</trkpt>
<trkpt lat="43.2492300" lon="-2.1962200">
<ele>356.798859</ele>
<time>2007-12-07T08:49:43.000Z</time>
</trkpt>
<trkpt lat="43.2490000" lon="-2.1965700">
<ele>358.719116</ele>
<time>2007-12-07T08:50:06.000Z</time>
</trkpt>
<trkpt lat="43.2489300" lon="-2.1966200">
<ele>358.231445</ele>
<time>2007-12-07T08:50:15.996Z</time>
</trkpt>
<trkpt lat="43.2489300" lon="-2.1966200">
<ele>358.231445</ele>
<time>2007-12-07T08:50:18.001Z</time>
</trkpt>
<trkpt lat="43.2488900" lon="-2.1966900">
<ele>359.664001</ele>
<time>2007-12-07T08:51:18.999Z</time>
</trkpt>
<trkpt lat="43.2487500" lon="-2.1965000">
<ele>363.047272</ele>
<time>2007-12-07T08:51:33.998Z</time>
</trkpt>
<trkpt lat="43.2488200" lon="-2.1962300">
<ele>367.375458</ele>
<time>2007-12-07T08:51:48.997Z</time>
</trkpt>
<trkpt lat="43.2488700" lon="-2.1959800">
<ele>370.728241</ele>
<time>2007-12-07T08:52:02.001Z</time>
</trkpt>
<trkpt lat="43.2489000" lon="-2.1957400">
<ele>373.623840</ele>
<time>2007-12-07T08:52:15.004Z</time>
</trkpt>
<trkpt lat="43.2490700" lon="-2.1954900">
<ele>376.976654</ele>
<time>2007-12-07T08:52:31.999Z</time>
</trkpt>
<trkpt lat="43.2492000" lon="-2.1952000">
<ele>379.872253</ele>
<time>2007-12-07T08:52:49.002Z</time>
</trkpt>
<trkpt lat="43.2492500" lon="-2.1948800">
<ele>383.712738</ele>
<time>2007-12-07T08:53:05.997Z</time>
</trkpt>
<trkpt lat="43.2492400" lon="-2.1948300">
<ele>383.712738</ele>
<time>2007-12-07T08:53:09.004Z</time>
</trkpt>
<trkpt lat="43.2492000" lon="-2.1947800">
<ele>384.169922</ele>
<time>2007-12-07T08:53:13.004Z</time>
</trkpt>
<trkpt lat="43.2491100" lon="-2.1947600">
<ele>387.065521</ele>
<time>2007-12-07T08:53:19.000Z</time>
</trkpt>
<trkpt lat="43.2488000" lon="-2.1948000">
<ele>389.961121</ele>
<time>2007-12-07T08:53:39.002Z</time>
</trkpt>
<trkpt lat="43.2486300" lon="-2.1947800">
<ele>390.906006</ele>
<time>2007-12-07T08:53:50.001Z</time>
</trkpt>
<trkpt lat="43.2482400" lon="-2.1947100">
<ele>393.313934</ele>
<time>2007-12-07T08:54:14.996Z</time>
</trkpt>
<trkpt lat="43.2480000" lon="-2.1946600">
<ele>396.666718</ele>
<time>2007-12-07T08:54:32.000Z</time>
</trkpt>
<trkpt lat="43.2478000" lon="-2.1946300">
<ele>399.562317</ele>
<time>2007-12-07T08:54:45.996Z</time>
</trkpt>
<trkpt lat="43.2476000" lon="-2.1946100">
<ele>402.915131</ele>
<time>2007-12-07T08:55:00.002Z</time>
</trkpt>
<trkpt lat="43.2473200" lon="-2.1945100">
<ele>406.298401</ele>
<time>2007-12-07T08:55:20.004Z</time>
</trkpt>
<trkpt lat="43.2471100" lon="-2.1943800">
<ele>409.163513</ele>
<time>2007-12-07T08:55:36.998Z</time>
</trkpt>
<trkpt lat="43.2469400" lon="-2.1942400">
<ele>412.546814</ele>
<time>2007-12-07T08:55:51.004Z</time>
</trkpt>
<trkpt lat="43.2467700" lon="-2.1941000">
<ele>415.899597</ele>
<time>2007-12-07T08:56:05.001Z</time>
</trkpt>
<trkpt lat="43.2466100" lon="-2.1939500">
<ele>418.795197</ele>
<time>2007-12-07T08:56:18.997Z</time>
</trkpt>
<trkpt lat="43.2464600" lon="-2.1937100">
<ele>422.148010</ele>
<time>2007-12-07T08:56:34.999Z</time>
</trkpt>
<trkpt lat="43.2464500" lon="-2.1936700">
<ele>422.148010</ele>
<time>2007-12-07T08:56:37.003Z</time>
</trkpt>
<trkpt lat="43.2464100" lon="-2.1933800">
<ele>425.988464</ele>
<time>2007-12-07T08:56:52.002Z</time>
</trkpt>
<trkpt lat="43.2464900" lon="-2.1930900">
<ele>428.884064</ele>
<time>2007-12-07T08:57:07.001Z</time>
</trkpt>
<trkpt lat="43.2466000" lon="-2.1928000">
<ele>431.291992</ele>
<time>2007-12-07T08:57:22.000Z</time>
</trkpt>
<trkpt lat="43.2466200" lon="-2.1924100">
<ele>434.187592</ele>
<time>2007-12-07T08:57:41.000Z</time>
</trkpt>
<trkpt lat="43.2466200" lon="-2.1919700">
<ele>435.132477</ele>
<time>2007-12-07T08:58:01.001Z</time>
</trkpt>
<trkpt lat="43.2464800" lon="-2.1915900">
<ele>435.620148</ele>
<time>2007-12-07T08:58:21.003Z</time>
</trkpt>
<trkpt lat="43.2462400" lon="-2.1912000">
<ele>437.540405</ele>
<time>2007-12-07T08:58:44.003Z</time>
</trkpt>
<trkpt lat="43.2460700" lon="-2.1909400">
<ele>440.436005</ele>
<time>2007-12-07T08:59:00.997Z</time>
</trkpt>
<trkpt lat="43.2458800" lon="-2.1907600">
<ele>442.356262</ele>
<time>2007-12-07T08:59:19.003Z</time>
</trkpt>
<trkpt lat="43.2456800" lon="-2.1907000">
<ele>444.733673</ele>
<time>2007-12-07T08:59:33.000Z</time>
</trkpt>
<trkpt lat="43.2454700" lon="-2.1906600">
<ele>446.684387</ele>
<time>2007-12-07T08:59:46.997Z</time>
</trkpt>
<trkpt lat="43.2454400" lon="-2.1906600">
<ele>446.684387</ele>
<time>2007-12-07T08:59:49.001Z</time>
</trkpt>
<trkpt lat="43.2453800" lon="-2.1906500">
<ele>449.061859</ele>
<time>2007-12-07T08:59:53.002Z</time>
</trkpt>
<trkpt lat="43.2451100" lon="-2.1905300">
<ele>449.549530</ele>
<time>2007-12-07T09:00:10.999Z</time>
</trkpt>
<trkpt lat="43.2449900" lon="-2.1904700">
<ele>452.932800</ele>
<time>2007-12-07T09:00:20.002Z</time>
</trkpt>
<trkpt lat="43.2449700" lon="-2.1904600">
<ele>453.390015</ele>
<time>2007-12-07T09:00:21.997Z</time>
</trkpt>
<trkpt lat="43.2448600" lon="-2.1903700">
<ele>456.285614</ele>
<time>2007-12-07T09:00:32.003Z</time>
</trkpt>
<trkpt lat="43.2446700" lon="-2.1901600">
<ele>458.693542</ele>
<time>2007-12-07T09:00:48.004Z</time>
</trkpt>
<trkpt lat="43.2444500" lon="-2.1898900">
<ele>458.205841</ele>
<time>2007-12-07T09:01:04.999Z</time>
</trkpt>
<trkpt lat="43.2441400" lon="-2.1896000">
<ele>457.718140</ele>
<time>2007-12-07T09:01:26.996Z</time>
</trkpt>
<trkpt lat="43.2438100" lon="-2.1895100">
<ele>458.205841</ele>
<time>2007-12-07T09:01:46.998Z</time>
</trkpt>
<trkpt lat="43.2434600" lon="-2.1893800">
<ele>458.205841</ele>
<time>2007-12-07T09:02:09.004Z</time>
</trkpt>
<trkpt lat="43.2433400" lon="-2.1893300">
<ele>458.205841</ele>
<time>2007-12-07T09:02:16.996Z</time>
</trkpt>
<trkpt lat="43.2431500" lon="-2.1890400">
<ele>457.230469</ele>
<time>2007-12-07T09:02:35.002Z</time>
</trkpt>
<trkpt lat="43.2429900" lon="-2.1888200">
<ele>458.205841</ele>
<time>2007-12-07T09:02:50.001Z</time>
</trkpt>
<trkpt lat="43.2428200" lon="-2.1885600">
<ele>459.181213</ele>
<time>2007-12-07T09:03:06.002Z</time>
</trkpt>
<trkpt lat="43.2427500" lon="-2.1884600">
<ele>459.638397</ele>
<time>2007-12-07T09:03:18.996Z</time>
</trkpt>
<trkpt lat="43.2426400" lon="-2.1882200">
<ele>460.613739</ele>
<time>2007-12-07T09:03:33.002Z</time>
</trkpt>
<trkpt lat="43.2424000" lon="-2.1878700">
<ele>463.478882</ele>
<time>2007-12-07T09:03:56.002Z</time>
</trkpt>
<trkpt lat="43.2422500" lon="-2.1876100">
<ele>466.862152</ele>
<time>2007-12-07T09:04:12.003Z</time>
</trkpt>
<trkpt lat="43.2420400" lon="-2.1872900">
<ele>468.782410</ele>
<time>2007-12-07T09:04:32.998Z</time>
</trkpt>
<trkpt lat="43.2418400" lon="-2.1870100">
<ele>470.702667</ele>
<time>2007-12-07T09:04:54.002Z</time>
</trkpt>
<trkpt lat="43.2418300" lon="-2.1870000">
<ele>470.702667</ele>
<time>2007-12-07T09:04:55.998Z</time>
</trkpt>
<trkpt lat="43.2417700" lon="-2.1869000">
<ele>471.190338</ele>
<time>2007-12-07T09:05:02.996Z</time>
</trkpt>
<trkpt lat="43.2416000" lon="-2.1866500">
<ele>473.598267</ele>
<time>2007-12-07T09:05:20.000Z</time>
</trkpt>
<trkpt lat="43.2414400" lon="-2.1865700">
<ele>476.463348</ele>
<time>2007-12-07T09:05:32.001Z</time>
</trkpt>
<trkpt lat="43.2411900" lon="-2.1864200">
<ele>477.438721</ele>
<time>2007-12-07T09:05:49.004Z</time>
</trkpt>
<trkpt lat="43.2408600" lon="-2.1861000">
<ele>475.518463</ele>
<time>2007-12-07T09:06:12.997Z</time>
</trkpt>
<trkpt lat="43.2406300" lon="-2.1860400">
<ele>476.463348</ele>
<time>2007-12-07T09:06:28.999Z</time>
</trkpt>
<trkpt lat="43.2403800" lon="-2.1859600">
<ele>479.358948</ele>
<time>2007-12-07T09:06:46.996Z</time>
</trkpt>
<trkpt lat="43.2401400" lon="-2.1858600">
<ele>480.303864</ele>
<time>2007-12-07T09:07:05.002Z</time>
</trkpt>
<trkpt lat="43.2399900" lon="-2.1857900">
<ele>481.766876</ele>
<time>2007-12-07T09:07:16.000Z</time>
</trkpt>
<trkpt lat="43.2398700" lon="-2.1857500">
<ele>484.174805</ele>
<time>2007-12-07T09:07:25.997Z</time>
</trkpt>
<trkpt lat="43.2398400" lon="-2.1857200">
<ele>485.119659</ele>
<time>2007-12-07T09:07:29.004Z</time>
</trkpt>
<trkpt lat="43.2397300" lon="-2.1856500">
<ele>488.472473</ele>
<time>2007-12-07T09:07:39.000Z</time>
</trkpt>
<trkpt lat="43.2396500" lon="-2.1856100">
<ele>491.368073</ele>
<time>2007-12-07T09:07:47.001Z</time>
</trkpt>
<trkpt lat="43.2395600" lon="-2.1855600">
<ele>493.288330</ele>
<time>2007-12-07T09:07:55.001Z</time>
</trkpt>
<trkpt lat="43.2395200" lon="-2.1855200">
<ele>495.208557</ele>
<time>2007-12-07T09:08:00.004Z</time>
</trkpt>
<trkpt lat="43.2394300" lon="-2.1854300">
<ele>499.049042</ele>
<time>2007-12-07T09:08:11.003Z</time>
</trkpt>
<trkpt lat="43.2393200" lon="-2.1853200">
<ele>502.432343</ele>
<time>2007-12-07T09:08:22.001Z</time>
</trkpt>
<trkpt lat="43.2392300" lon="-2.1851600">
<ele>505.785126</ele>
<time>2007-12-07T09:08:34.002Z</time>
</trkpt>
<trkpt lat="43.2390900" lon="-2.1849900">
<ele>509.168396</ele>
<time>2007-12-07T09:08:49.001Z</time>
</trkpt>
<trkpt lat="43.2389200" lon="-2.1848100">
<ele>510.600952</ele>
<time>2007-12-07T09:09:05.996Z</time>
</trkpt>
<trkpt lat="43.2389100" lon="-2.1848000">
<ele>513.008850</ele>
<time>2007-12-07T09:09:09.003Z</time>
</trkpt>
<trkpt lat="43.2388900" lon="-2.1847600">
<ele>512.521179</ele>
<time>2007-12-07T09:09:27.000Z</time>
</trkpt>
<trkpt lat="43.2388700" lon="-2.1847100">
<ele>515.416809</ele>
<time>2007-12-07T09:09:29.998Z</time>
</trkpt>
<trkpt lat="43.2388400" lon="-2.1846700">
<ele>514.441467</ele>
<time>2007-12-07T09:09:32.996Z</time>
</trkpt>
<trkpt lat="43.2388300" lon="-2.1846500">
<ele>514.929138</ele>
<time>2007-12-07T09:09:33.998Z</time>
</trkpt>
<trkpt lat="43.2387000" lon="-2.1845000">
<ele>517.794250</ele>
<time>2007-12-07T09:09:45.999Z</time>
</trkpt>
<trkpt lat="43.2385400" lon="-2.1843400">
<ele>520.689880</ele>
<time>2007-12-07T09:09:59.003Z</time>
</trkpt>
<trkpt lat="43.2384200" lon="-2.1841700">
<ele>523.097717</ele>
<time>2007-12-07T09:10:11.004Z</time>
</trkpt>
<trkpt lat="43.2381700" lon="-2.1838300">
<ele>525.018005</ele>
<time>2007-12-07T09:10:34.997Z</time>
</trkpt>
<trkpt lat="43.2380100" lon="-2.1835800">
<ele>524.042664</ele>
<time>2007-12-07T09:10:49.996Z</time>
</trkpt>
<trkpt lat="43.2378000" lon="-2.1832300">
<ele>521.665222</ele>
<time>2007-12-07T09:11:09.997Z</time>
</trkpt>
<trkpt lat="43.2376100" lon="-2.1829500">
<ele>518.281921</ele>
<time>2007-12-07T09:11:25.999Z</time>
</trkpt>
<trkpt lat="43.2375100" lon="-2.1828000">
<ele>519.257263</ele>
<time>2007-12-07T09:11:35.002Z</time>
</trkpt>
<trkpt lat="43.2374500" lon="-2.1826800">
<ele>518.769592</ele>
<time>2007-12-07T09:11:47.003Z</time>
</trkpt>
<trkpt lat="43.2373300" lon="-2.1826700">
<ele>517.794250</ele>
<time>2007-12-07T09:11:59.997Z</time>
</trkpt>
<trkpt lat="43.2370800" lon="-2.1826600">
<ele>519.744934</ele>
<time>2007-12-07T09:12:17.001Z</time>
</trkpt>
<trkpt lat="43.2369800" lon="-2.1826400">
<ele>522.610046</ele>
<time>2007-12-07T09:12:25.001Z</time>
</trkpt>
<trkpt lat="43.2368700" lon="-2.1825900">
<ele>526.450562</ele>
<time>2007-12-07T09:12:34.998Z</time>
</trkpt>
<trkpt lat="43.2367800" lon="-2.1825700">
<ele>529.346130</ele>
<time>2007-12-07T09:12:42.998Z</time>
</trkpt>
<trkpt lat="43.2366700" lon="-2.1825500">
<ele>532.241760</ele>
<time>2007-12-07T09:12:53.004Z</time>
</trkpt>
<trkpt lat="43.2366300" lon="-2.1825600">
<ele>533.674316</ele>
<time>2007-12-07T09:12:57.004Z</time>
</trkpt>
<trkpt lat="43.2365700" lon="-2.1825600">
<ele>535.106873</ele>
<time>2007-12-07T09:13:03.000Z</time>
</trkpt>
<trkpt lat="43.2365000" lon="-2.1825600">
<ele>537.027100</ele>
<time>2007-12-07T09:13:09.998Z</time>
</trkpt>
<trkpt lat="43.2363300" lon="-2.1825700">
<ele>540.410400</ele>
<time>2007-12-07T09:13:24.997Z</time>
</trkpt>
<trkpt lat="43.2362100" lon="-2.1825900">
<ele>541.355286</ele>
<time>2007-12-07T09:13:35.003Z</time>
</trkpt>
<trkpt lat="43.2359900" lon="-2.1826000">
<ele>544.738525</ele>
<time>2007-12-07T09:13:53.000Z</time>
</trkpt>
<trkpt lat="43.2359400" lon="-2.1826200">
<ele>546.658813</ele>
<time>2007-12-07T09:13:58.002Z</time>
</trkpt>
<trkpt lat="43.2358400" lon="-2.1826300">
<ele>550.011597</ele>
<time>2007-12-07T09:14:06.996Z</time>
</trkpt>
<trkpt lat="43.2357400" lon="-2.1826000">
<ele>552.419556</ele>
<time>2007-12-07T09:14:17.002Z</time>
</trkpt>
<trkpt lat="43.2356100" lon="-2.1826000">
<ele>555.772339</ele>
<time>2007-12-07T09:14:29.003Z</time>
</trkpt>
<trkpt lat="43.2354600" lon="-2.1826100">
<ele>558.667908</ele>
<time>2007-12-07T09:15:54.996Z</time>
</trkpt>
<trkpt lat="43.2353900" lon="-2.1827100">
<ele>562.020752</ele>
<time>2007-12-07T09:16:02.997Z</time>
</trkpt>
<trkpt lat="43.2352300" lon="-2.1830100">
<ele>563.483765</ele>
<time>2007-12-07T09:16:21.003Z</time>
</trkpt>
<trkpt lat="43.2351400" lon="-2.1831900">
<ele>566.348877</ele>
<time>2007-12-07T09:16:33.004Z</time>
</trkpt>
<trkpt lat="43.2350600" lon="-2.1833600">
<ele>568.269104</ele>
<time>2007-12-07T09:16:45.998Z</time>
</trkpt>
<trkpt lat="43.2350400" lon="-2.1834000">
<ele>570.677063</ele>
<time>2007-12-07T09:16:48.996Z</time>
</trkpt>
<trkpt lat="43.2350000" lon="-2.1834100">
<ele>570.677063</ele>
<time>2007-12-07T09:16:52.003Z</time>
</trkpt>
<trkpt lat="43.2349700" lon="-2.1834700">
<ele>573.572632</ele>
<time>2007-12-07T09:16:56.004Z</time>
</trkpt>
<trkpt lat="43.2349300" lon="-2.1835400">
<ele>573.572632</ele>
<time>2007-12-07T09:17:00.997Z</time>
</trkpt>
<trkpt lat="43.2348800" lon="-2.1835700">
<ele>573.572632</ele>
<time>2007-12-07T09:17:06.000Z</time>
</trkpt>
<trkpt lat="43.2347900" lon="-2.1836100">
<ele>576.925476</ele>
<time>2007-12-07T09:17:15.996Z</time>
</trkpt>
<trkpt lat="43.2347900" lon="-2.1836000">
<ele>577.413147</ele>
<time>2007-12-07T09:17:16.999Z</time>
</trkpt>
<trkpt lat="43.2346800" lon="-2.1835600">
<ele>579.821045</ele>
<time>2007-12-07T09:17:27.997Z</time>
</trkpt>
<trkpt lat="43.2346700" lon="-2.1835600">
<ele>579.821045</ele>
<time>2007-12-07T09:17:29.000Z</time>
</trkpt>
<trkpt lat="43.2346500" lon="-2.1835500">
<ele>579.821045</ele>
<time>2007-12-07T09:17:31.004Z</time>
</trkpt>
<trkpt lat="43.2345400" lon="-2.1835700">
<ele>581.741272</ele>
<time>2007-12-07T09:17:39.998Z</time>
</trkpt>
<trkpt lat="43.2344000" lon="-2.1835000">
<ele>583.661499</ele>
<time>2007-12-07T09:17:51.999Z</time>
</trkpt>
<trkpt lat="43.2343600" lon="-2.1834700">
<ele>585.581726</ele>
<time>2007-12-07T09:17:56.000Z</time>
</trkpt>
<trkpt lat="43.2341200" lon="-2.1833800">
<ele>587.502014</ele>
<time>2007-12-07T09:18:13.997Z</time>
</trkpt>
<trkpt lat="43.2339300" lon="-2.1833000">
<ele>587.502014</ele>
<time>2007-12-07T09:18:27.000Z</time>
</trkpt>
<trkpt lat="43.2338000" lon="-2.1831700">
<ele>590.854797</ele>
<time>2007-12-07T09:18:39.001Z</time>
</trkpt>
<trkpt lat="43.2335800" lon="-2.1829600">
<ele>591.342468</ele>
<time>2007-12-07T09:18:56.998Z</time>
</trkpt>
<trkpt lat="43.2333900" lon="-2.1827600">
<ele>595.182922</ele>
<time>2007-12-07T09:19:14.002Z</time>
</trkpt>
<trkpt lat="43.2332800" lon="-2.1826700">
<ele>596.158325</ele>
<time>2007-12-07T09:19:22.996Z</time>
</trkpt>
<trkpt lat="43.2330300" lon="-2.1825900">
<ele>598.566284</ele>
<time>2007-12-07T09:19:41.002Z</time>
</trkpt>
<trkpt lat="43.2329200" lon="-2.1825500">
<ele>599.511108</ele>
<time>2007-12-07T09:19:49.002Z</time>
</trkpt>
<trkpt lat="43.2326300" lon="-2.1824300">
<ele>598.566284</ele>
<time>2007-12-07T09:20:08.002Z</time>
</trkpt>
<trkpt lat="43.2323600" lon="-2.1822800">
<ele>600.974121</ele>
<time>2007-12-07T09:20:27.001Z</time>
</trkpt>
<trkpt lat="43.2321000" lon="-2.1821100">
<ele>602.406738</ele>
<time>2007-12-07T09:20:46.000Z</time>
</trkpt>
<trkpt lat="43.2317500" lon="-2.1819500">
<ele>603.351624</ele>
<time>2007-12-07T09:21:10.002Z</time>
</trkpt>
<trkpt lat="43.2315600" lon="-2.1818600">
<ele>605.759521</ele>
<time>2007-12-07T09:21:23.999Z</time>
</trkpt>
<trkpt lat="43.2313600" lon="-2.1817300">
<ele>605.759521</ele>
<time>2007-12-07T09:21:38.998Z</time>
</trkpt>
<trkpt lat="43.2312400" lon="-2.1816200">
<ele>609.142822</ele>
<time>2007-12-07T09:21:49.003Z</time>
</trkpt>
<trkpt lat="43.2309700" lon="-2.1814200">
<ele>612.007935</ele>
<time>2007-12-07T09:22:11.001Z</time>
</trkpt>
<trkpt lat="43.2309800" lon="-2.1814300">
<ele>611.063049</ele>
<time>2007-12-07T09:22:46.001Z</time>
</trkpt>
<trkpt lat="43.2309100" lon="-2.1813900">
<ele>611.063049</ele>
<time>2007-12-07T09:22:59.998Z</time>
</trkpt>
<trkpt lat="43.2305500" lon="-2.1811600">
<ele>614.415833</ele>
<time>2007-12-07T09:23:25.002Z</time>
</trkpt>
<trkpt lat="43.2302500" lon="-2.1809400">
<ele>616.823730</ele>
<time>2007-12-07T09:23:48.002Z</time>
</trkpt>
<trkpt lat="43.2300900" lon="-2.1808000">
<ele>620.176575</ele>
<time>2007-12-07T09:24:00.996Z</time>
</trkpt>
<trkpt lat="43.2300100" lon="-2.1806800">
<ele>621.639587</ele>
<time>2007-12-07T09:24:08.997Z</time>
</trkpt>
<trkpt lat="43.2298300" lon="-2.1803590">
<ele>624.992371</ele>
<time>2007-12-07T09:24:28.999Z</time>
</trkpt>
<trkpt lat="43.2296900" lon="-2.1800600">
<ele>627.888000</ele>
<time>2007-12-07T09:24:46.002Z</time>
</trkpt>
<trkpt lat="43.2295700" lon="-2.1798100">
<ele>631.240784</ele>
<time>2007-12-07T09:25:02.004Z</time>
</trkpt>
<trkpt lat="43.2295000" lon="-2.1796100">
<ele>633.648682</ele>
<time>2007-12-07T09:25:13.996Z</time>
</trkpt>
<trkpt lat="43.2294500" lon="-2.1795500">
<ele>634.593628</ele>
<time>2007-12-07T09:25:18.998Z</time>
</trkpt>
<trkpt lat="43.2293700" lon="-2.1793100">
<ele>637.976929</ele>
<time>2007-12-07T09:25:33.004Z</time>
</trkpt>
<trkpt lat="43.2292900" lon="-2.1790300">
<ele>640.841980</ele>
<time>2007-12-07T09:25:48.996Z</time>
</trkpt>
<trkpt lat="43.2292600" lon="-2.1789300">
<ele>641.817322</ele>
<time>2007-12-07T09:25:55.001Z</time>
</trkpt>
<trkpt lat="43.2292400" lon="-2.1788500">
<ele>642.792664</ele>
<time>2007-12-07T09:26:00.004Z</time>
</trkpt>
<trkpt lat="43.2292200" lon="-2.1787400">
<ele>646.633179</ele>
<time>2007-12-07T09:26:07.996Z</time>
</trkpt>
<trkpt lat="43.2292200" lon="-2.1787400">
<ele>646.633179</ele>
<time>2007-12-07T09:26:08.998Z</time>
</trkpt>
<trkpt lat="43.2292200" lon="-2.1787400">
<ele>644.712952</ele>
<time>2007-12-07T09:26:11.003Z</time>
</trkpt>
<trkpt lat="43.2292200" lon="-2.1787100">
<ele>645.657837</ele>
<time>2007-12-07T09:26:27.004Z</time>
</trkpt>
<trkpt lat="43.2292500" lon="-2.1786600">
<ele>647.578125</ele>
<time>2007-12-07T09:26:31.998Z</time>
</trkpt>
<trkpt lat="43.2292600" lon="-2.1786400">
<ele>648.065735</ele>
<time>2007-12-07T09:26:33.000Z</time>
</trkpt>
<trkpt lat="43.2293200" lon="-2.1784900">
<ele>652.393860</ele>
<time>2007-12-07T09:26:43.999Z</time>
</trkpt>
<trkpt lat="43.2293400" lon="-2.1784700">
<ele>653.338806</ele>
<time>2007-12-07T09:26:46.003Z</time>
</trkpt>
<trkpt lat="43.2293600" lon="-2.1784200">
<ele>654.314148</ele>
<time>2007-12-07T09:26:49.001Z</time>
</trkpt>
<trkpt lat="43.2294000" lon="-2.1782100">
<ele>657.666931</ele>
<time>2007-12-07T09:27:01.002Z</time>
</trkpt>
<trkpt lat="43.2294100" lon="-2.1781400">
<ele>659.130005</ele>
<time>2007-12-07T09:27:05.003Z</time>
</trkpt>
<trkpt lat="43.2294500" lon="-2.1779500">
<ele>662.482788</ele>
<time>2007-12-07T09:27:16.001Z</time>
</trkpt>
<trkpt lat="43.2296400" lon="-2.1777800">
<ele>665.835571</ele>
<time>2007-12-07T09:27:32.996Z</time>
</trkpt>
<trkpt lat="43.2297200" lon="-2.1777400">
<ele>667.786316</ele>
<time>2007-12-07T09:27:40.003Z</time>
</trkpt>
<trkpt lat="43.2298200" lon="-2.1776700">
<ele>670.651428</ele>
<time>2007-12-07T09:27:48.997Z</time>
</trkpt>
<trkpt lat="43.2300100" lon="-2.1775100">
<ele>674.034668</ele>
<time>2007-12-07T09:28:06.001Z</time>
</trkpt>
<trkpt lat="43.2301300" lon="-2.1773500">
<ele>675.467285</ele>
<time>2007-12-07T09:28:23.998Z</time>
</trkpt>
<trkpt lat="43.2301700" lon="-2.1773200">
<ele>674.034668</ele>
<time>2007-12-07T09:28:42.997Z</time>
</trkpt>
<trkpt lat="43.2302800" lon="-2.1772000">
<ele>671.626770</ele>
<time>2007-12-07T09:28:52.000Z</time>
</trkpt>
<trkpt lat="43.2304600" lon="-2.1770400">
<ele>668.731201</ele>
<time>2007-12-07T09:29:05.997Z</time>
</trkpt>
<trkpt lat="43.2306700" lon="-2.1768700">
<ele>666.323303</ele>
<time>2007-12-07T09:29:23.001Z</time>
</trkpt>
<trkpt lat="43.2306900" lon="-2.1768700">
<ele>665.835571</ele>
<time>2007-12-07T09:29:27.001Z</time>
</trkpt>
<trkpt lat="43.2309780" lon="-2.1766710">
<ele>664.890686</ele>
<time>2007-12-07T09:29:47.996Z</time>
</trkpt>
<trkpt lat="43.2312240" lon="-2.1764830">
<ele>663.915344</ele>
<time>2007-12-07T09:30:10.996Z</time>
</trkpt>
<trkpt lat="43.2312910" lon="-2.1764200">
<ele>663.458130</ele>
<time>2007-12-07T09:30:18.003Z</time>
</trkpt>
<trkpt lat="43.2314480" lon="-2.1762340">
<ele>664.403076</ele>
<time>2007-12-07T09:31:19.001Z</time>
</trkpt>
<trkpt lat="43.2315700" lon="-2.1760200">
<ele>674.491882</ele>
<time>2007-12-07T09:32:01.000Z</time>
</trkpt>
<trkpt lat="43.2315800" lon="-2.1759700">
<ele>674.979614</ele>
<time>2007-12-07T09:32:03.998Z</time>
</trkpt>
<trkpt lat="43.2316200" lon="-2.1759500">
<ele>676.899841</ele>
<time>2007-12-07T09:32:07.999Z</time>
</trkpt>
<trkpt lat="43.2316400" lon="-2.1759700">
<ele>679.307739</ele>
<time>2007-12-07T09:32:11.999Z</time>
</trkpt>
<trkpt lat="43.2316700" lon="-2.1759600">
<ele>680.740295</ele>
<time>2007-12-07T09:32:15.999Z</time>
</trkpt>
<trkpt lat="43.2317000" lon="-2.1759900">
<ele>679.307739</ele>
<time>2007-12-07T09:32:18.997Z</time>
</trkpt>
<trkpt lat="43.2317300" lon="-2.1759200">
<ele>677.875183</ele>
<time>2007-12-07T09:32:25.996Z</time>
</trkpt>
<trkpt lat="43.2316500" lon="-2.1758600">
<ele>677.875183</ele>
<time>2007-12-07T09:32:33.003Z</time>
</trkpt>
<trkpt lat="43.2316100" lon="-2.1757700">
<ele>675.467285</ele>
<time>2007-12-07T09:32:38.999Z</time>
</trkpt>
<trkpt lat="43.2316100" lon="-2.1757500">
<ele>675.954956</ele>
<time>2007-12-07T09:32:40.001Z</time>
</trkpt>
<trkpt lat="43.2315900" lon="-2.1756400">
<ele>672.571716</ele>
<time>2007-12-07T09:32:49.004Z</time>
</trkpt>
<trkpt lat="43.2315900" lon="-2.1756200">
<ele>672.571716</ele>
<time>2007-12-07T09:32:49.998Z</time>
</trkpt>
<trkpt lat="43.2315300" lon="-2.1754900">
<ele>670.163757</ele>
<time>2007-12-07T09:32:57.998Z</time>
</trkpt>
<trkpt lat="43.2315000" lon="-2.1754700">
<ele>669.706543</ele>
<time>2007-12-07T09:33:00.003Z</time>
</trkpt>
<trkpt lat="43.2314700" lon="-2.1753800">
<ele>668.731201</ele>
<time>2007-12-07T09:33:04.997Z</time>
</trkpt>
<trkpt lat="43.2313600" lon="-2.1751400">
<ele>665.378418</ele>
<time>2007-12-07T09:33:19.002Z</time>
</trkpt>
<trkpt lat="43.2313200" lon="-2.1750000">
<ele>661.995117</ele>
<time>2007-12-07T09:33:27.996Z</time>
</trkpt>
<trkpt lat="43.2312700" lon="-2.1749700">
<ele>661.537903</ele>
<time>2007-12-07T09:33:42.002Z</time>
</trkpt>
<trkpt lat="43.2312600" lon="-2.1749600">
<ele>660.074890</ele>
<time>2007-12-07T09:34:20.001Z</time>
</trkpt>
<trkpt lat="43.2312700" lon="-2.1749700">
<ele>660.562561</ele>
<time>2007-12-07T09:35:11.003Z</time>
</trkpt>
<trkpt lat="43.2312700" lon="-2.1749800">
<ele>661.995117</ele>
<time>2007-12-07T09:35:16.999Z</time>
</trkpt>
<trkpt lat="43.2312400" lon="-2.1749200">
<ele>661.050232</ele>
<time>2007-12-07T09:35:31.998Z</time>
</trkpt>
<trkpt lat="43.2312400" lon="-2.1749300">
<ele>661.050232</ele>
<time>2007-12-07T09:35:35.998Z</time>
</trkpt>
<trkpt lat="43.2312700" lon="-2.1749700">
<ele>662.482788</ele>
<time>2007-12-07T09:35:49.001Z</time>
</trkpt>
<trkpt lat="43.2312300" lon="-2.1749200">
<ele>661.995117</ele>
<time>2007-12-07T09:35:53.002Z</time>
</trkpt>
<trkpt lat="43.2311200" lon="-2.1747900">
<ele>659.130005</ele>
<time>2007-12-07T09:36:05.996Z</time>
</trkpt>
<trkpt lat="43.2309800" lon="-2.1746500">
<ele>658.642273</ele>
<time>2007-12-07T09:36:23.000Z</time>
</trkpt>
<trkpt lat="43.2309700" lon="-2.1746500">
<ele>658.642273</ele>
<time>2007-12-07T09:36:24.002Z</time>
</trkpt>
<trkpt lat="43.2309100" lon="-2.1746100">
<ele>657.209717</ele>
<time>2007-12-07T09:36:31.000Z</time>
</trkpt>
<trkpt lat="43.2308400" lon="-2.1745800">
<ele>657.209717</ele>
<time>2007-12-07T09:36:36.996Z</time>
</trkpt>
<trkpt lat="43.2307600" lon="-2.1744500">
<ele>654.314148</ele>
<time>2007-12-07T09:36:51.002Z</time>
</trkpt>
<trkpt lat="43.2306500" lon="-2.1743100">
<ele>651.418518</ele>
<time>2007-12-07T09:37:02.001Z</time>
</trkpt>
<trkpt lat="43.2305900" lon="-2.1742500">
<ele>649.986023</ele>
<time>2007-12-07T09:37:07.997Z</time>
</trkpt>
<trkpt lat="43.2305800" lon="-2.1741600">
<ele>648.553467</ele>
<time>2007-12-07T09:37:14.002Z</time>
</trkpt>
<trkpt lat="43.2306300" lon="-2.1739800">
<ele>645.657837</ele>
<time>2007-12-07T09:37:25.000Z</time>
</trkpt>
<trkpt lat="43.2305900" lon="-2.1739200">
<ele>644.225281</ele>
<time>2007-12-07T09:37:29.001Z</time>
</trkpt>
<trkpt lat="43.2305500" lon="-2.1738700">
<ele>643.249878</ele>
<time>2007-12-07T09:37:31.999Z</time>
</trkpt>
<trkpt lat="43.2304600" lon="-2.1735000">
<ele>639.409485</ele>
<time>2007-12-07T09:37:49.996Z</time>
</trkpt>
<trkpt lat="43.2304800" lon="-2.1733800">
<ele>637.489197</ele>
<time>2007-12-07T09:37:54.998Z</time>
</trkpt>
<trkpt lat="43.2304600" lon="-2.1730200">
<ele>634.593628</ele>
<time>2007-12-07T09:38:09.997Z</time>
</trkpt>
<trkpt lat="43.2304600" lon="-2.1729300">
<ele>632.673340</ele>
<time>2007-12-07T09:38:13.998Z</time>
</trkpt>
<trkpt lat="43.2304300" lon="-2.1727000">
<ele>629.808228</ele>
<time>2007-12-07T09:38:24.003Z</time>
</trkpt>
<trkpt lat="43.2304000" lon="-2.1723400">
<ele>627.400269</ele>
<time>2007-12-07T09:38:39.002Z</time>
</trkpt>
<trkpt lat="43.2304300" lon="-2.1718400">
<ele>624.504700</ele>
<time>2007-12-07T09:38:59.004Z</time>
</trkpt>
<trkpt lat="43.2304900" lon="-2.1715700">
<ele>621.639587</ele>
<time>2007-12-07T09:39:10.996Z</time>
</trkpt>
<trkpt lat="43.2305900" lon="-2.1713200">
<ele>617.799133</ele>
<time>2007-12-07T09:39:22.997Z</time>
</trkpt>
<trkpt lat="43.2306100" lon="-2.1712100">
<ele>616.823730</ele>
<time>2007-12-07T09:39:27.999Z</time>
</trkpt>
<trkpt lat="43.2306500" lon="-2.1710700">
<ele>614.415833</ele>
<time>2007-12-07T09:39:34.998Z</time>
</trkpt>
<trkpt lat="43.2307200" lon="-2.1709200">
<ele>611.550720</ele>
<time>2007-12-07T09:39:41.996Z</time>
</trkpt>
<trkpt lat="43.2307600" lon="-2.1708600">
<ele>610.575317</ele>
<time>2007-12-07T09:39:45.003Z</time>
</trkpt>
<trkpt lat="43.2307900" lon="-2.1708000">
<ele>609.142822</ele>
<time>2007-12-07T09:39:48.001Z</time>
</trkpt>
<trkpt lat="43.2308700" lon="-2.1705400">
<ele>604.814636</ele>
<time>2007-12-07T09:40:01.004Z</time>
</trkpt>
<trkpt lat="43.2308800" lon="-2.1705000">
<ele>604.814636</ele>
<time>2007-12-07T09:40:08.003Z</time>
</trkpt>
<trkpt lat="43.2309000" lon="-2.1705400">
<ele>603.351624</ele>
<time>2007-12-07T09:40:11.001Z</time>
</trkpt>
<trkpt lat="43.2309100" lon="-2.1706300">
<ele>603.839294</ele>
<time>2007-12-07T09:40:15.001Z</time>
</trkpt>
<trkpt lat="43.2309200" lon="-2.1706700">
<ele>603.839294</ele>
<time>2007-12-07T09:40:16.997Z</time>
</trkpt>
<trkpt lat="43.2309300" lon="-2.1706900">
<ele>603.839294</ele>
<time>2007-12-07T09:40:19.001Z</time>
</trkpt>
<trkpt lat="43.2309500" lon="-2.1709600">
<ele>604.326965</ele>
<time>2007-12-07T09:40:32.998Z</time>
</trkpt>
<trkpt lat="43.2309500" lon="-2.1709800">
<ele>603.839294</ele>
<time>2007-12-07T09:40:34.000Z</time>
</trkpt>
<trkpt lat="43.2309600" lon="-2.1713600">
<ele>603.839294</ele>
<time>2007-12-07T09:40:50.002Z</time>
</trkpt>
<trkpt lat="43.2309500" lon="-2.1716800">
<ele>603.351624</ele>
<time>2007-12-07T09:41:03.998Z</time>
</trkpt>
<trkpt lat="43.2309800" lon="-2.1720000">
<ele>603.839294</ele>
<time>2007-12-07T09:41:18.997Z</time>
</trkpt>
<trkpt lat="43.2311500" lon="-2.1723200">
<ele>600.974121</ele>
<time>2007-12-07T09:41:36.001Z</time>
</trkpt>
<trkpt lat="43.2312700" lon="-2.1725800">
<ele>600.974121</ele>
<time>2007-12-07T09:41:49.998Z</time>
</trkpt>
<trkpt lat="43.2312900" lon="-2.1725900">
<ele>599.023438</ele>
<time>2007-12-07T09:41:55.000Z</time>
</trkpt>
<trkpt lat="43.2313300" lon="-2.1726000">
<ele>598.566284</ele>
<time>2007-12-07T09:41:57.998Z</time>
</trkpt>
<trkpt lat="43.2314200" lon="-2.1726400">
<ele>596.158325</ele>
<time>2007-12-07T09:42:05.999Z</time>
</trkpt>
<trkpt lat="43.2315700" lon="-2.1727500">
<ele>594.725769</ele>
<time>2007-12-07T09:42:18.000Z</time>
</trkpt>
<trkpt lat="43.2318200" lon="-2.1728700">
<ele>593.262756</ele>
<time>2007-12-07T09:42:32.999Z</time>
</trkpt>
<trkpt lat="43.2319000" lon="-2.1729100">
<ele>593.750427</ele>
<time>2007-12-07T09:42:38.002Z</time>
</trkpt>
<trkpt lat="43.2319700" lon="-2.1729400">
<ele>593.262756</ele>
<time>2007-12-07T09:42:42.002Z</time>
</trkpt>
<trkpt lat="43.2322100" lon="-2.1730800">
<ele>591.342468</ele>
<time>2007-12-07T09:42:57.001Z</time>
</trkpt>
<trkpt lat="43.2323100" lon="-2.1731500">
<ele>590.854797</ele>
<time>2007-12-07T09:43:02.997Z</time>
</trkpt>
<trkpt lat="43.2323500" lon="-2.1731900">
<ele>590.854797</ele>
<time>2007-12-07T09:43:06.004Z</time>
</trkpt>
<trkpt lat="43.2325000" lon="-2.1732800">
<ele>589.422241</ele>
<time>2007-12-07T09:43:16.000Z</time>
</trkpt>
<trkpt lat="43.2325900" lon="-2.1733300">
<ele>588.477356</ele>
<time>2007-12-07T09:43:21.003Z</time>
</trkpt>
<trkpt lat="43.2327400" lon="-2.1734200">
<ele>586.526672</ele>
<time>2007-12-07T09:43:29.997Z</time>
</trkpt>
<trkpt lat="43.2327800" lon="-2.1734600">
<ele>585.581726</ele>
<time>2007-12-07T09:43:33.004Z</time>
</trkpt>
<trkpt lat="43.2328500" lon="-2.1735300">
<ele>585.094055</ele>
<time>2007-12-07T09:43:37.998Z</time>
</trkpt>
<trkpt lat="43.2330200" lon="-2.1737200">
<ele>582.686157</ele>
<time>2007-12-07T09:43:51.001Z</time>
</trkpt>
<trkpt lat="43.2331700" lon="-2.1739300">
<ele>580.765930</ele>
<time>2007-12-07T09:44:04.004Z</time>
</trkpt>
<trkpt lat="43.2332500" lon="-2.1740500">
<ele>579.333374</ele>
<time>2007-12-07T09:44:11.996Z</time>
</trkpt>
<trkpt lat="43.2333300" lon="-2.1741600">
<ele>577.900818</ele>
<time>2007-12-07T09:44:19.003Z</time>
</trkpt>
<trkpt lat="43.2334200" lon="-2.1742700">
<ele>576.437744</ele>
<time>2007-12-07T09:44:26.002Z</time>
</trkpt>
<trkpt lat="43.2335000" lon="-2.1743900">
<ele>575.980530</ele>
<time>2007-12-07T09:44:33.000Z</time>
</trkpt>
<trkpt lat="43.2335800" lon="-2.1744700">
<ele>574.029846</ele>
<time>2007-12-07T09:44:38.996Z</time>
</trkpt>
<trkpt lat="43.2336600" lon="-2.1746200">
<ele>573.572632</ele>
<time>2007-12-07T09:44:46.997Z</time>
</trkpt>
<trkpt lat="43.2337000" lon="-2.1746900">
<ele>573.084961</ele>
<time>2007-12-07T09:44:50.997Z</time>
</trkpt>
<trkpt lat="43.2337400" lon="-2.1747700">
<ele>573.084961</ele>
<time>2007-12-07T09:44:54.997Z</time>
</trkpt>
<trkpt lat="43.2337900" lon="-2.1748790">
<ele>572.109619</ele>
<time>2007-12-07T09:45:01.002Z</time>
</trkpt>
<trkpt lat="43.2337900" lon="-2.1749390">
<ele>571.652405</ele>
<time>2007-12-07T09:45:04.000Z</time>
</trkpt>
<trkpt lat="43.2338400" lon="-2.1751390">
<ele>569.244446</ele>
<time>2007-12-07T09:45:13.997Z</time>
</trkpt>
<trkpt lat="43.2338300" lon="-2.1752990">
<ele>568.756775</ele>
<time>2007-12-07T09:45:21.997Z</time>
</trkpt>
<trkpt lat="43.2338600" lon="-2.1753590">
<ele>567.324280</ele>
<time>2007-12-07T09:45:25.004Z</time>
</trkpt>
<trkpt lat="43.2339700" lon="-2.1756200">
<ele>564.916321</ele>
<time>2007-12-07T09:45:37.999Z</time>
</trkpt>
<trkpt lat="43.2340200" lon="-2.1758400">
<ele>563.940918</ele>
<time>2007-12-07T09:45:48.997Z</time>
</trkpt>
<trkpt lat="43.2340100" lon="-2.1758900">
<ele>563.483765</ele>
<time>2007-12-07T09:45:51.002Z</time>
</trkpt>
<trkpt lat="43.2340100" lon="-2.1759300">
<ele>562.996094</ele>
<time>2007-12-07T09:45:52.998Z</time>
</trkpt>
<trkpt lat="43.2340500" lon="-2.1760100">
<ele>562.996094</ele>
<time>2007-12-07T09:45:58.000Z</time>
</trkpt>
<trkpt lat="43.2341200" lon="-2.1761600">
<ele>558.667908</ele>
<time>2007-12-07T09:46:08.999Z</time>
</trkpt>
<trkpt lat="43.2341300" lon="-2.1762000">
<ele>557.692566</ele>
<time>2007-12-07T09:46:11.997Z</time>
</trkpt>
<trkpt lat="43.2341500" lon="-2.1762300">
<ele>556.747681</ele>
<time>2007-12-07T09:46:14.002Z</time>
</trkpt>
<trkpt lat="43.2341200" lon="-2.1763700">
<ele>555.772339</ele>
<time>2007-12-07T09:46:21.000Z</time>
</trkpt>
<trkpt lat="43.2341300" lon="-2.1764100">
<ele>554.827454</ele>
<time>2007-12-07T09:46:22.996Z</time>
</trkpt>
<trkpt lat="43.2341900" lon="-2.1765500">
<ele>551.931885</ele>
<time>2007-12-07T09:46:30.996Z</time>
</trkpt>
<trkpt lat="43.2342100" lon="-2.1766300">
<ele>551.931885</ele>
<time>2007-12-07T09:46:34.997Z</time>
</trkpt>
<trkpt lat="43.2341900" lon="-2.1766900">
<ele>551.931885</ele>
<time>2007-12-07T09:46:38.004Z</time>
</trkpt>
<trkpt lat="43.2342300" lon="-2.1768100">
<ele>550.011597</ele>
<time>2007-12-07T09:46:45.002Z</time>
</trkpt>
<trkpt lat="43.2343000" lon="-2.1770500">
<ele>546.171143</ele>
<time>2007-12-07T09:47:00.001Z</time>
</trkpt>
<trkpt lat="43.2343100" lon="-2.1771900">
<ele>544.250854</ele>
<time>2007-12-07T09:47:08.002Z</time>
</trkpt>
<trkpt lat="43.2343300" lon="-2.1772900">
<ele>542.787842</ele>
<time>2007-12-07T09:47:13.004Z</time>
</trkpt>
<trkpt lat="43.2344200" lon="-2.1775400">
<ele>539.435059</ele>
<time>2007-12-07T09:47:25.999Z</time>
</trkpt>
<trkpt lat="43.2344400" lon="-2.1776200">
<ele>538.947327</ele>
<time>2007-12-07T09:47:31.001Z</time>
</trkpt>
<trkpt lat="43.2344600" lon="-2.1776800">
<ele>539.435059</ele>
<time>2007-12-07T09:47:35.002Z</time>
</trkpt>
<trkpt lat="43.2344800" lon="-2.1777300">
<ele>539.922729</ele>
<time>2007-12-07T09:47:39.002Z</time>
</trkpt>
<trkpt lat="43.2346100" lon="-2.1780100">
<ele>538.490173</ele>
<time>2007-12-07T09:47:55.003Z</time>
</trkpt>
<trkpt lat="43.2346400" lon="-2.1782000">
<ele>536.539429</ele>
<time>2007-12-07T09:48:06.002Z</time>
</trkpt>
<trkpt lat="43.2346700" lon="-2.1783400">
<ele>535.594543</ele>
<time>2007-12-07T09:48:14.996Z</time>
</trkpt>
<trkpt lat="43.2347400" lon="-2.1784400">
<ele>537.514771</ele>
<time>2007-12-07T09:48:26.004Z</time>
</trkpt>
<trkpt lat="43.2347600" lon="-2.1784700">
<ele>538.490173</ele>
<time>2007-12-07T09:48:27.999Z</time>
</trkpt>
<trkpt lat="43.2347900" lon="-2.1785200">
<ele>538.490173</ele>
<time>2007-12-07T09:48:30.997Z</time>
</trkpt>
<trkpt lat="43.2348400" lon="-2.1786300">
<ele>540.410400</ele>
<time>2007-12-07T09:48:38.998Z</time>
</trkpt>
<trkpt lat="43.2348900" lon="-2.1787000">
<ele>540.410400</ele>
<time>2007-12-07T09:48:45.996Z</time>
</trkpt>
<trkpt lat="43.2351100" lon="-2.1787900">
<ele>538.947327</ele>
<time>2007-12-07T09:49:00.002Z</time>
</trkpt>
<trkpt lat="43.2352200" lon="-2.1788100">
<ele>537.027100</ele>
<time>2007-12-07T09:49:07.000Z</time>
</trkpt>
<trkpt lat="43.2353900" lon="-2.1788200">
<ele>536.539429</ele>
<time>2007-12-07T09:49:16.997Z</time>
</trkpt>
<trkpt lat="43.2356000" lon="-2.1789100">
<ele>533.674316</ele>
<time>2007-12-07T09:49:31.002Z</time>
</trkpt>
<trkpt lat="43.2357900" lon="-2.1790100">
<ele>532.698975</ele>
<time>2007-12-07T09:49:43.003Z</time>
</trkpt>
<trkpt lat="43.2360200" lon="-2.1789900">
<ele>529.833862</ele>
<time>2007-12-07T09:49:57.000Z</time>
</trkpt>
<trkpt lat="43.2360800" lon="-2.1789700">
<ele>529.833862</ele>
<time>2007-12-07T09:49:59.998Z</time>
</trkpt>
<trkpt lat="43.2362900" lon="-2.1788700">
<ele>527.913574</ele>
<time>2007-12-07T09:50:13.001Z</time>
</trkpt>
<trkpt lat="43.2364200" lon="-2.1789200">
<ele>525.018005</ele>
<time>2007-12-07T09:50:22.998Z</time>
</trkpt>
<trkpt lat="43.2364300" lon="-2.1789700">
<ele>525.505676</ele>
<time>2007-12-07T09:50:25.996Z</time>
</trkpt>
<trkpt lat="43.2364300" lon="-2.1790900">
<ele>525.018005</ele>
<time>2007-12-07T09:50:32.001Z</time>
</trkpt>
<trkpt lat="43.2363400" lon="-2.1794000">
<ele>524.042664</ele>
<time>2007-12-07T09:50:47.000Z</time>
</trkpt>
<trkpt lat="43.2363200" lon="-2.1794800">
<ele>523.585449</ele>
<time>2007-12-07T09:50:51.000Z</time>
</trkpt>
<trkpt lat="43.2362400" lon="-2.1797500">
<ele>523.097717</ele>
<time>2007-12-07T09:51:03.001Z</time>
</trkpt>
<trkpt lat="43.2362500" lon="-2.1798800">
<ele>522.610046</ele>
<time>2007-12-07T09:51:08.004Z</time>
</trkpt>
<trkpt lat="43.2362000" lon="-2.1800400">
<ele>523.097717</ele>
<time>2007-12-07T09:51:15.002Z</time>
</trkpt>
<trkpt lat="43.2361600" lon="-2.1803400">
<ele>525.505676</ele>
<time>2007-12-07T09:51:27.996Z</time>
</trkpt>
<trkpt lat="43.2361600" lon="-2.1804200">
<ele>525.505676</ele>
<time>2007-12-07T09:51:31.997Z</time>
</trkpt>
<trkpt lat="43.2361500" lon="-2.1806300">
<ele>525.993347</ele>
<time>2007-12-07T09:51:42.002Z</time>
</trkpt>
<trkpt lat="43.2361600" lon="-2.1808500">
<ele>528.858459</ele>
<time>2007-12-07T09:51:54.996Z</time>
</trkpt>
<trkpt lat="43.2361800" lon="-2.1808600">
<ele>529.346130</ele>
<time>2007-12-07T09:51:57.001Z</time>
</trkpt>
<trkpt lat="43.2361800" lon="-2.1808900">
<ele>530.778748</ele>
<time>2007-12-07T09:52:02.004Z</time>
</trkpt>
<trkpt lat="43.2362200" lon="-2.1809200">
<ele>531.754089</ele>
<time>2007-12-07T09:52:06.997Z</time>
</trkpt>
<trkpt lat="43.2362500" lon="-2.1809400">
<ele>532.241760</ele>
<time>2007-12-07T09:52:10.004Z</time>
</trkpt>
<trkpt lat="43.2364200" lon="-2.1810500">
<ele>531.754089</ele>
<time>2007-12-07T09:52:22.999Z</time>
</trkpt>
<trkpt lat="43.2364500" lon="-2.1810600">
<ele>531.754089</ele>
<time>2007-12-07T09:52:25.003Z</time>
</trkpt>
<trkpt lat="43.2365500" lon="-2.1811400">
<ele>529.833862</ele>
<time>2007-12-07T09:52:33.004Z</time>
</trkpt>
<trkpt lat="43.2366900" lon="-2.1812400">
<ele>530.778748</ele>
<time>2007-12-07T09:52:44.996Z</time>
</trkpt>
<trkpt lat="43.2368400" lon="-2.1814000">
<ele>529.346130</ele>
<time>2007-12-07T09:52:57.999Z</time>
</trkpt>
<trkpt lat="43.2368800" lon="-2.1814600">
<ele>528.370789</ele>
<time>2007-12-07T09:53:00.997Z</time>
</trkpt>
<trkpt lat="43.2370100" lon="-2.1817200">
<ele>525.018005</ele>
<time>2007-12-07T09:53:14.001Z</time>
</trkpt>
<trkpt lat="43.2370400" lon="-2.1817800">
<ele>524.530334</ele>
<time>2007-12-07T09:53:16.999Z</time>
</trkpt>
<trkpt lat="43.2371200" lon="-2.1819600">
<ele>521.665222</ele>
<time>2007-12-07T09:53:26.002Z</time>
</trkpt>
<trkpt lat="43.2371400" lon="-2.1819900">
<ele>521.665222</ele>
<time>2007-12-07T09:53:27.997Z</time>
</trkpt>
<trkpt lat="43.2372000" lon="-2.1820900">
<ele>519.744934</ele>
<time>2007-12-07T09:53:34.002Z</time>
</trkpt>
<trkpt lat="43.2373500" lon="-2.1823900">
<ele>521.177551</ele>
<time>2007-12-07T09:53:50.004Z</time>
</trkpt>
<trkpt lat="43.2374500" lon="-2.1824400">
<ele>520.689880</ele>
<time>2007-12-07T09:53:58.004Z</time>
</trkpt>
<trkpt lat="43.2374900" lon="-2.1823900">
<ele>518.769592</ele>
<time>2007-12-07T09:54:01.996Z</time>
</trkpt>
<trkpt lat="43.2376200" lon="-2.1820500">
<ele>515.874023</ele>
<time>2007-12-07T09:54:17.997Z</time>
</trkpt>
<trkpt lat="43.2377700" lon="-2.1817400">
<ele>512.521179</ele>
<time>2007-12-07T09:54:33.998Z</time>
</trkpt>
<trkpt lat="43.2380200" lon="-2.1814200">
<ele>510.113281</ele>
<time>2007-12-07T09:54:52.998Z</time>
</trkpt>
<trkpt lat="43.2382500" lon="-2.1811500">
<ele>506.760468</ele>
<time>2007-12-07T09:55:10.001Z</time>
</trkpt>
<trkpt lat="43.2385800" lon="-2.1809300">
<ele>503.864868</ele>
<time>2007-12-07T09:55:30.996Z</time>
</trkpt>
<trkpt lat="43.2387700" lon="-2.1808300">
<ele>500.512085</ele>
<time>2007-12-07T09:55:42.997Z</time>
</trkpt>
<trkpt lat="43.2390400" lon="-2.1806800">
<ele>497.128815</ele>
<time>2007-12-07T09:56:00.001Z</time>
</trkpt>
<trkpt lat="43.2391100" lon="-2.1805000">
<ele>493.776001</ele>
<time>2007-12-07T09:56:11.000Z</time>
</trkpt>
<trkpt lat="43.2391100" lon="-2.1805000">
<ele>493.776001</ele>
<time>2007-12-07T09:56:12.002Z</time>
</trkpt>
<trkpt lat="43.2391900" lon="-2.1804400">
<ele>489.935516</ele>
<time>2007-12-07T09:56:19.000Z</time>
</trkpt>
<trkpt lat="43.2393500" lon="-2.1803500">
<ele>488.015259</ele>
<time>2007-12-07T09:56:31.001Z</time>
</trkpt>
<trkpt lat="43.2394800" lon="-2.1802500">
<ele>486.552246</ele>
<time>2007-12-07T09:56:42.000Z</time>
</trkpt>
<trkpt lat="43.2396200" lon="-2.1801300">
<ele>485.119659</ele>
<time>2007-12-07T09:56:51.996Z</time>
</trkpt>
<trkpt lat="43.2396600" lon="-2.1800700">
<ele>483.687134</ele>
<time>2007-12-07T09:56:55.997Z</time>
</trkpt>
<trkpt lat="43.2398300" lon="-2.1799800">
<ele>481.279205</ele>
<time>2007-12-07T09:57:07.004Z</time>
</trkpt>
<trkpt lat="43.2399900" lon="-2.1799100">
<ele>478.871277</ele>
<time>2007-12-07T09:57:17.001Z</time>
</trkpt>
<trkpt lat="43.2400800" lon="-2.1799000">
<ele>476.463348</ele>
<time>2007-12-07T09:57:25.001Z</time>
</trkpt>
<trkpt lat="43.2401300" lon="-2.1798700">
<ele>474.543121</ele>
<time>2007-12-07T09:57:29.002Z</time>
</trkpt>
<trkpt lat="43.2402000" lon="-2.1798700">
<ele>473.598267</ele>
<time>2007-12-07T09:57:34.998Z</time>
</trkpt>
<trkpt lat="43.2402900" lon="-2.1799900">
<ele>473.110535</ele>
<time>2007-12-07T09:57:42.998Z</time>
</trkpt>
<trkpt lat="43.2404600" lon="-2.1801900">
<ele>472.622864</ele>
<time>2007-12-07T09:57:54.999Z</time>
</trkpt>
<trkpt lat="43.2405900" lon="-2.1803100">
<ele>471.190338</ele>
<time>2007-12-07T09:58:04.996Z</time>
</trkpt>
<trkpt lat="43.2407000" lon="-2.1804300">
<ele>466.862152</ele>
<time>2007-12-07T09:58:13.999Z</time>
</trkpt>
<trkpt lat="43.2408400" lon="-2.1805800">
<ele>464.454254</ele>
<time>2007-12-07T09:58:27.002Z</time>
</trkpt>
<trkpt lat="43.2408500" lon="-2.1806000">
<ele>463.966553</ele>
<time>2007-12-07T09:58:28.004Z</time>
</trkpt>
<trkpt lat="43.2409500" lon="-2.1806500">
<ele>462.046326</ele>
<time>2007-12-07T09:58:35.996Z</time>
</trkpt>
<trkpt lat="43.2411100" lon="-2.1806500">
<ele>458.205841</ele>
<time>2007-12-07T09:58:46.001Z</time>
</trkpt>
<trkpt lat="43.2411500" lon="-2.1806300">
<ele>457.718140</ele>
<time>2007-12-07T09:58:47.997Z</time>
</trkpt>
<trkpt lat="43.2413700" lon="-2.1805600">
<ele>454.853058</ele>
<time>2007-12-07T09:59:01.000Z</time>
</trkpt>
<trkpt lat="43.2415600" lon="-2.1804800">
<ele>452.445129</ele>
<time>2007-12-07T09:59:11.999Z</time>
</trkpt>
<trkpt lat="43.2417000" lon="-2.1804500">
<ele>450.037201</ele>
<time>2007-12-07T09:59:20.000Z</time>
</trkpt>
<trkpt lat="43.2418700" lon="-2.1803400">
<ele>447.141602</ele>
<time>2007-12-07T09:59:30.998Z</time>
</trkpt>
<trkpt lat="43.2418900" lon="-2.1803000">
<ele>446.196716</ele>
<time>2007-12-07T09:59:33.003Z</time>
</trkpt>
<trkpt lat="43.2419700" lon="-2.1802200">
<ele>443.301117</ele>
<time>2007-12-07T09:59:40.001Z</time>
</trkpt>
<trkpt lat="43.2419800" lon="-2.1802100">
<ele>442.813446</ele>
<time>2007-12-07T09:59:41.004Z</time>
</trkpt>
<trkpt lat="43.2420800" lon="-2.1801500">
<ele>439.948334</ele>
<time>2007-12-07T09:59:47.000Z</time>
</trkpt>
<trkpt lat="43.2421800" lon="-2.1800900">
<ele>437.540405</ele>
<time>2007-12-07T09:59:52.996Z</time>
</trkpt>
<trkpt lat="43.2422600" lon="-2.1800400">
<ele>435.132477</ele>
<time>2007-12-07T09:59:59.001Z</time>
</trkpt>
<trkpt lat="43.2422800" lon="-2.1800000">
<ele>433.699921</ele>
<time>2007-12-07T10:00:01.999Z</time>
</trkpt>
<trkpt lat="43.2423400" lon="-2.1799500">
<ele>432.236877</ele>
<time>2007-12-07T10:00:05.999Z</time>
</trkpt>
<trkpt lat="43.2424200" lon="-2.1798900">
<ele>428.884064</ele>
<time>2007-12-07T10:00:12.004Z</time>
</trkpt>
<trkpt lat="43.2424300" lon="-2.1798700">
<ele>428.396393</ele>
<time>2007-12-07T10:00:12.997Z</time>
</trkpt>
<trkpt lat="43.2424700" lon="-2.1798500">
<ele>427.451538</ele>
<time>2007-12-07T10:00:15.002Z</time>
</trkpt>
<trkpt lat="43.2425400" lon="-2.1798300">
<ele>425.988464</ele>
<time>2007-12-07T10:00:19.002Z</time>
</trkpt>
<trkpt lat="43.2427500" lon="-2.1798100">
<ele>423.123352</ele>
<time>2007-12-07T10:00:31.003Z</time>
</trkpt>
<trkpt lat="43.2428800" lon="-2.1797900">
<ele>420.227753</ele>
<time>2007-12-07T10:00:38.002Z</time>
</trkpt>
<trkpt lat="43.2429800" lon="-2.1797600">
<ele>417.819855</ele>
<time>2007-12-07T10:00:43.004Z</time>
</trkpt>
<trkpt lat="43.2431700" lon="-2.1796300">
<ele>414.467041</ele>
<time>2007-12-07T10:00:57.001Z</time>
</trkpt>
<trkpt lat="43.2432200" lon="-2.1795800">
<ele>412.546814</ele>
<time>2007-12-07T10:01:01.001Z</time>
</trkpt>
<trkpt lat="43.2433100" lon="-2.1794900">
<ele>409.651215</ele>
<time>2007-12-07T10:01:09.002Z</time>
</trkpt>
<trkpt lat="43.2433700" lon="-2.1794300">
<ele>406.298401</ele>
<time>2007-12-07T10:01:13.996Z</time>
</trkpt>
<trkpt lat="43.2435000" lon="-2.1793400">
<ele>402.915131</ele>
<time>2007-12-07T10:01:22.999Z</time>
</trkpt>
<trkpt lat="43.2435200" lon="-2.1793300">
<ele>402.915131</ele>
<time>2007-12-07T10:01:24.001Z</time>
</trkpt>
<trkpt lat="43.2436800" lon="-2.1792400">
<ele>400.049988</ele>
<time>2007-12-07T10:01:33.997Z</time>
</trkpt>
<trkpt lat="43.2438000" lon="-2.1790900">
<ele>396.666718</ele>
<time>2007-12-07T10:01:44.996Z</time>
</trkpt>
<trkpt lat="43.2438800" lon="-2.1789600">
<ele>393.313934</ele>
<time>2007-12-07T10:01:53.999Z</time>
</trkpt>
<trkpt lat="43.2440200" lon="-2.1787700">
<ele>390.418335</ele>
<time>2007-12-07T10:02:07.002Z</time>
</trkpt>
<trkpt lat="43.2440800" lon="-2.1785400">
<ele>389.473450</ele>
<time>2007-12-07T10:02:19.003Z</time>
</trkpt>
<trkpt lat="43.2440300" lon="-2.1784000">
<ele>387.065521</ele>
<time>2007-12-07T10:02:26.002Z</time>
</trkpt>
<trkpt lat="43.2439800" lon="-2.1783700">
<ele>386.120667</ele>
<time>2007-12-07T10:02:30.002Z</time>
</trkpt>
<trkpt lat="43.2438200" lon="-2.1784400">
<ele>382.737335</ele>
<time>2007-12-07T10:02:42.003Z</time>
</trkpt>
<trkpt lat="43.2437200" lon="-2.1785200">
<ele>379.384552</ele>
<time>2007-12-07T10:02:50.997Z</time>
</trkpt>
<trkpt lat="43.2436300" lon="-2.1786300">
<ele>375.544067</ele>
<time>2007-12-07T10:03:01.996Z</time>
</trkpt>
<trkpt lat="43.2435900" lon="-2.1786800">
<ele>373.136139</ele>
<time>2007-12-07T10:03:09.996Z</time>
</trkpt>
<trkpt lat="43.2435000" lon="-2.1786900">
<ele>371.673126</ele>
<time>2007-12-07T10:03:17.004Z</time>
</trkpt>
<trkpt lat="43.2434500" lon="-2.1786600">
<ele>370.240540</ele>
<time>2007-12-07T10:03:21.004Z</time>
</trkpt>
<trkpt lat="43.2432700" lon="-2.1785800">
<ele>366.887756</ele>
<time>2007-12-07T10:03:33.998Z</time>
</trkpt>
<trkpt lat="43.2431700" lon="-2.1785400">
<ele>364.967529</ele>
<time>2007-12-07T10:03:41.999Z</time>
</trkpt>
<trkpt lat="43.2430000" lon="-2.1785700">
<ele>362.559601</ele>
<time>2007-12-07T10:03:54.000Z</time>
</trkpt>
<trkpt lat="43.2429000" lon="-2.1786100">
<ele>361.584259</ele>
<time>2007-12-07T10:04:04.999Z</time>
</trkpt>
<trkpt lat="43.2428800" lon="-2.1786200">
<ele>361.127045</ele>
<time>2007-12-07T10:04:07.003Z</time>
</trkpt>
<trkpt lat="43.2428300" lon="-2.1786300">
<ele>361.127045</ele>
<time>2007-12-07T10:04:11.997Z</time>
</trkpt>
<trkpt lat="43.2428000" lon="-2.1785800">
<ele>361.127045</ele>
<time>2007-12-07T10:04:15.004Z</time>
</trkpt>
<trkpt lat="43.2427300" lon="-2.1784200">
<ele>363.504486</ele>
<time>2007-12-07T10:04:23.998Z</time>
</trkpt>
<trkpt lat="43.2425800" lon="-2.1781900">
<ele>364.967529</ele>
<time>2007-12-07T10:04:39.999Z</time>
</trkpt>
<trkpt lat="43.2424500" lon="-2.1779200">
<ele>363.992157</ele>
<time>2007-12-07T10:04:54.998Z</time>
</trkpt>
<trkpt lat="43.2422600" lon="-2.1776700">
<ele>364.967529</ele>
<time>2007-12-07T10:05:11.000Z</time>
</trkpt>
<trkpt lat="43.2420300" lon="-2.1776500">
<ele>362.071930</ele>
<time>2007-12-07T10:05:24.996Z</time>
</trkpt>
<trkpt lat="43.2418000" lon="-2.1776400">
<ele>361.584259</ele>
<time>2007-12-07T10:05:39.002Z</time>
</trkpt>
<trkpt lat="43.2415600" lon="-2.1775800">
<ele>363.992157</ele>
<time>2007-12-07T10:05:55.997Z</time>
</trkpt>
<trkpt lat="43.2414600" lon="-2.1776300">
<ele>362.071930</ele>
<time>2007-12-07T10:06:05.000Z</time>
</trkpt>
<trkpt lat="43.2414200" lon="-2.1776600">
<ele>361.127045</ele>
<time>2007-12-07T10:06:07.998Z</time>
</trkpt>
<trkpt lat="43.2412100" lon="-2.1775600">
<ele>358.231445</ele>
<time>2007-12-07T10:06:23.999Z</time>
</trkpt>
<trkpt lat="43.2411400" lon="-2.1774900">
<ele>357.743744</ele>
<time>2007-12-07T10:06:29.002Z</time>
</trkpt>
<trkpt lat="43.2410500" lon="-2.1774000">
<ele>354.390930</ele>
<time>2007-12-07T10:06:37.996Z</time>
</trkpt>
<trkpt lat="43.2409300" lon="-2.1773600">
<ele>351.495331</ele>
<time>2007-12-07T10:06:45.996Z</time>
</trkpt>
<trkpt lat="43.2407500" lon="-2.1773500">
<ele>348.142548</ele>
<time>2007-12-07T10:06:57.997Z</time>
</trkpt>
<trkpt lat="43.2406200" lon="-2.1773500">
<ele>346.222321</ele>
<time>2007-12-07T10:07:08.996Z</time>
</trkpt>
<trkpt lat="43.2405100" lon="-2.1773200">
<ele>344.759277</ele>
<time>2007-12-07T10:07:16.997Z</time>
</trkpt>
<trkpt lat="43.2403900" lon="-2.1771800">
<ele>341.406464</ele>
<time>2007-12-07T10:07:31.002Z</time>
</trkpt>
<trkpt lat="43.2403300" lon="-2.1771100">
<ele>338.998535</ele>
<time>2007-12-07T10:07:40.999Z</time>
</trkpt>
<trkpt lat="43.2402400" lon="-2.1770600">
<ele>336.590668</ele>
<time>2007-12-07T10:07:47.997Z</time>
</trkpt>
<trkpt lat="43.2401800" lon="-2.1770400">
<ele>335.158081</ele>
<time>2007-12-07T10:07:51.997Z</time>
</trkpt>
<trkpt lat="43.2401100" lon="-2.1770200">
<ele>333.725525</ele>
<time>2007-12-07T10:07:57.000Z</time>
</trkpt>
<trkpt lat="43.2401000" lon="-2.1769400">
<ele>333.237854</ele>
<time>2007-12-07T10:08:02.003Z</time>
</trkpt>
<trkpt lat="43.2401000" lon="-2.1768600">
<ele>331.805267</ele>
<time>2007-12-07T10:08:07.999Z</time>
</trkpt>
<trkpt lat="43.2401100" lon="-2.1768200">
<ele>331.317596</ele>
<time>2007-12-07T10:08:10.997Z</time>
</trkpt>
<trkpt lat="43.2401400" lon="-2.1765500">
<ele>327.477142</ele>
<time>2007-12-07T10:08:25.002Z</time>
</trkpt>
<trkpt lat="43.2401700" lon="-2.1762100">
<ele>325.069214</ele>
<time>2007-12-07T10:08:40.001Z</time>
</trkpt>
<trkpt lat="43.2401800" lon="-2.1760500">
<ele>324.093842</ele>
<time>2007-12-07T10:08:47.000Z</time>
</trkpt>
<trkpt lat="43.2401600" lon="-2.1759000">
<ele>322.661285</ele>
<time>2007-12-07T10:08:53.998Z</time>
</trkpt>
<trkpt lat="43.2402800" lon="-2.1757300">
<ele>321.228729</ele>
<time>2007-12-07T10:09:05.999Z</time>
</trkpt>
<trkpt lat="43.2404300" lon="-2.1755500">
<ele>319.765686</ele>
<time>2007-12-07T10:09:14.000Z</time>
</trkpt>
<trkpt lat="43.2405000" lon="-2.1755000">
<ele>317.845459</ele>
<time>2007-12-07T10:09:19.002Z</time>
</trkpt>
<trkpt lat="43.2405400" lon="-2.1754800">
<ele>316.900543</ele>
<time>2007-12-07T10:09:20.998Z</time>
</trkpt>
<trkpt lat="43.2405700" lon="-2.1754600">
<ele>315.437531</ele>
<time>2007-12-07T10:09:23.996Z</time>
</trkpt>
<trkpt lat="43.2406300" lon="-2.1754200">
<ele>314.004944</ele>
<time>2007-12-07T10:09:27.996Z</time>
</trkpt>
<trkpt lat="43.2407600" lon="-2.1753400">
<ele>310.652161</ele>
<time>2007-12-07T10:09:36.999Z</time>
</trkpt>
<trkpt lat="43.2409000" lon="-2.1751500">
<ele>307.756561</ele>
<time>2007-12-07T10:09:49.000Z</time>
</trkpt>
<trkpt lat="43.2410300" lon="-2.1750000">
<ele>304.860962</ele>
<time>2007-12-07T10:10:01.001Z</time>
</trkpt>
<trkpt lat="43.2410700" lon="-2.1749400">
<ele>302.940735</ele>
<time>2007-12-07T10:10:05.002Z</time>
</trkpt>
<trkpt lat="43.2412400" lon="-2.1747800">
<ele>300.075592</ele>
<time>2007-12-07T10:10:16.000Z</time>
</trkpt>
<trkpt lat="43.2414000" lon="-2.1746500">
<ele>299.587921</ele>
<time>2007-12-07T10:10:25.997Z</time>
</trkpt>
<trkpt lat="43.2415000" lon="-2.1744700">
<ele>299.100250</ele>
<time>2007-12-07T10:10:40.002Z</time>
</trkpt>
<trkpt lat="43.2415800" lon="-2.1744100">
<ele>299.587921</ele>
<time>2007-12-07T10:10:47.001Z</time>
</trkpt>
<trkpt lat="43.2417900" lon="-2.1742900">
<ele>299.587921</ele>
<time>2007-12-07T10:10:59.002Z</time>
</trkpt>
<trkpt lat="43.2418300" lon="-2.1742700">
<ele>299.587921</ele>
<time>2007-12-07T10:11:00.997Z</time>
</trkpt>
<trkpt lat="43.2418400" lon="-2.1742500">
<ele>299.587921</ele>
<time>2007-12-07T10:11:03.002Z</time>
</trkpt>
<trkpt lat="43.2418800" lon="-2.1741900">
<ele>299.100250</ele>
<time>2007-12-07T10:11:07.002Z</time>
</trkpt>
<trkpt lat="43.2420000" lon="-2.1741000">
<ele>299.100250</ele>
<time>2007-12-07T10:11:14.001Z</time>
</trkpt>
<trkpt lat="43.2421400" lon="-2.1739400">
<ele>299.587921</ele>
<time>2007-12-07T10:11:23.997Z</time>
</trkpt>
<trkpt lat="43.2423800" lon="-2.1737400">
<ele>299.587921</ele>
<time>2007-12-07T10:11:35.998Z</time>
</trkpt>
<trkpt lat="43.2424900" lon="-2.1735800">
<ele>300.075592</ele>
<time>2007-12-07T10:11:46.003Z</time>
</trkpt>
<trkpt lat="43.2426600" lon="-2.1733800">
<ele>299.100250</ele>
<time>2007-12-07T10:11:56.000Z</time>
</trkpt>
<trkpt lat="43.2426900" lon="-2.1732700">
<ele>298.155365</ele>
<time>2007-12-07T10:12:01.002Z</time>
</trkpt>
<trkpt lat="43.2428100" lon="-2.1730500">
<ele>298.155365</ele>
<time>2007-12-07T10:12:12.001Z</time>
</trkpt>
<trkpt lat="43.2429400" lon="-2.1728700">
<ele>299.587921</ele>
<time>2007-12-07T10:12:25.004Z</time>
</trkpt>
<trkpt lat="43.2429700" lon="-2.1726700">
<ele>298.612549</ele>
<time>2007-12-07T10:12:36.996Z</time>
</trkpt>
<trkpt lat="43.2429600" lon="-2.1725200">
<ele>299.100250</ele>
<time>2007-12-07T10:12:44.004Z</time>
</trkpt>
<trkpt lat="43.2430600" lon="-2.1721600">
<ele>296.692322</ele>
<time>2007-12-07T10:12:59.996Z</time>
</trkpt>
<trkpt lat="43.2430800" lon="-2.1719900">
<ele>293.827209</ele>
<time>2007-12-07T10:13:07.003Z</time>
</trkpt>
<trkpt lat="43.2431800" lon="-2.1718200">
<ele>290.931610</ele>
<time>2007-12-07T10:13:15.997Z</time>
</trkpt>
<trkpt lat="43.2432900" lon="-2.1717000">
<ele>287.578796</ele>
<time>2007-12-07T10:13:23.998Z</time>
</trkpt>
<trkpt lat="43.2433400" lon="-2.1716200">
<ele>287.091125</ele>
<time>2007-12-07T10:13:27.998Z</time>
</trkpt>
<trkpt lat="43.2433800" lon="-2.1712200">
<ele>284.683197</ele>
<time>2007-12-07T10:13:45.002Z</time>
</trkpt>
<trkpt lat="43.2433500" lon="-2.1708200">
<ele>284.683197</ele>
<time>2007-12-07T10:14:01.997Z</time>
</trkpt>
<trkpt lat="43.2433900" lon="-2.1705200">
<ele>282.762970</ele>
<time>2007-12-07T10:14:13.998Z</time>
</trkpt>
<trkpt lat="43.2434100" lon="-2.1702200">
<ele>280.842712</ele>
<time>2007-12-07T10:14:27.001Z</time>
</trkpt>
<trkpt lat="43.2435800" lon="-2.1701200">
<ele>277.489929</ele>
<time>2007-12-07T10:14:38.000Z</time>
</trkpt>
<trkpt lat="43.2436500" lon="-2.1700400">
<ele>277.002228</ele>
<time>2007-12-07T10:14:43.996Z</time>
</trkpt>
<trkpt lat="43.2437200" lon="-2.1697400">
<ele>274.106628</ele>
<time>2007-12-07T10:14:58.001Z</time>
</trkpt>
<trkpt lat="43.2438700" lon="-2.1693900">
<ele>274.106628</ele>
<time>2007-12-07T10:15:15.998Z</time>
</trkpt>
<trkpt lat="43.2439000" lon="-2.1692200">
<ele>274.594330</ele>
<time>2007-12-07T10:15:23.999Z</time>
</trkpt>
<trkpt lat="43.2439200" lon="-2.1688800">
<ele>275.569672</ele>
<time>2007-12-07T10:15:40.000Z</time>
</trkpt>
<trkpt lat="43.2440000" lon="-2.1686100">
<ele>278.922485</ele>
<time>2007-12-07T10:15:54.999Z</time>
</trkpt>
<trkpt lat="43.2440500" lon="-2.1683400">
<ele>282.275269</ele>
<time>2007-12-07T10:16:08.996Z</time>
</trkpt>
<trkpt lat="43.2440500" lon="-2.1682800">
<ele>283.250641</ele>
<time>2007-12-07T10:16:12.003Z</time>
</trkpt>
<trkpt lat="43.2440300" lon="-2.1682100">
<ele>281.330414</ele>
<time>2007-12-07T10:16:16.003Z</time>
</trkpt>
<trkpt lat="43.2441000" lon="-2.1680300">
<ele>278.922485</ele>
<time>2007-12-07T10:16:26.000Z</time>
</trkpt>
<trkpt lat="43.2442600" lon="-2.1678800">
<ele>275.569672</ele>
<time>2007-12-07T10:16:35.996Z</time>
</trkpt>
<trkpt lat="43.2444000" lon="-2.1677100">
<ele>274.594330</ele>
<time>2007-12-07T10:16:47.004Z</time>
</trkpt>
<trkpt lat="43.2445200" lon="-2.1675700">
<ele>272.674072</ele>
<time>2007-12-07T10:16:58.002Z</time>
</trkpt>
<trkpt lat="43.2445400" lon="-2.1675600">
<ele>272.674072</ele>
<time>2007-12-07T10:16:58.996Z</time>
</trkpt>
<trkpt lat="43.2446400" lon="-2.1675700">
<ele>271.241516</ele>
<time>2007-12-07T10:17:06.003Z</time>
</trkpt>
<trkpt lat="43.2449000" lon="-2.1675200">
<ele>272.186401</ele>
<time>2007-12-07T10:17:21.002Z</time>
</trkpt>
<trkpt lat="43.2450300" lon="-2.1673800">
<ele>273.161774</ele>
<time>2007-12-07T10:17:32.001Z</time>
</trkpt>
<trkpt lat="43.2451300" lon="-2.1672700">
<ele>273.618958</ele>
<time>2007-12-07T10:17:40.001Z</time>
</trkpt>
<trkpt lat="43.2452800" lon="-2.1671200">
<ele>275.569672</ele>
<time>2007-12-07T10:17:52.996Z</time>
</trkpt>
<trkpt lat="43.2454900" lon="-2.1669500">
<ele>275.569672</ele>
<time>2007-12-07T10:18:08.004Z</time>
</trkpt>
<trkpt lat="43.2457000" lon="-2.1667800">
<ele>274.594330</ele>
<time>2007-12-07T10:18:23.003Z</time>
</trkpt>
<trkpt lat="43.2458400" lon="-2.1665700">
<ele>271.698730</ele>
<time>2007-12-07T10:18:35.004Z</time>
</trkpt>
<trkpt lat="43.2459400" lon="-2.1664300">
<ele>270.266174</ele>
<time>2007-12-07T10:18:43.998Z</time>
</trkpt>
<trkpt lat="43.2459600" lon="-2.1663400">
<ele>270.753845</ele>
<time>2007-12-07T10:18:58.003Z</time>
</trkpt>
<trkpt lat="43.2459600" lon="-2.1662900">
<ele>270.266174</ele>
<time>2007-12-07T10:19:09.002Z</time>
</trkpt>
<trkpt lat="43.2461200" lon="-2.1660700">
<ele>266.425659</ele>
<time>2007-12-07T10:19:21.996Z</time>
</trkpt>
<trkpt lat="43.2463100" lon="-2.1658700">
<ele>264.993134</ele>
<time>2007-12-07T10:19:36.002Z</time>
</trkpt>
<trkpt lat="43.2464800" lon="-2.1656100">
<ele>264.505432</ele>
<time>2007-12-07T10:19:52.003Z</time>
</trkpt>
<trkpt lat="43.2466500" lon="-2.1654300">
<ele>263.530060</ele>
<time>2007-12-07T10:20:04.998Z</time>
</trkpt>
<trkpt lat="43.2469000" lon="-2.1651700">
<ele>262.097534</ele>
<time>2007-12-07T10:20:23.004Z</time>
</trkpt>
<trkpt lat="43.2470500" lon="-2.1649700">
<ele>262.585205</ele>
<time>2007-12-07T10:20:37.000Z</time>
</trkpt>
<trkpt lat="43.2472100" lon="-2.1648200">
<ele>261.609833</ele>
<time>2007-12-07T10:20:47.999Z</time>
</trkpt>
<trkpt lat="43.2473900" lon="-2.1646500">
<ele>259.201935</ele>
<time>2007-12-07T10:21:01.996Z</time>
</trkpt>
<trkpt lat="43.2475800" lon="-2.1644200">
<ele>257.769379</ele>
<time>2007-12-07T10:21:17.004Z</time>
</trkpt>
<trkpt lat="43.2476900" lon="-2.1641700">
<ele>256.336792</ele>
<time>2007-12-07T10:21:29.998Z</time>
</trkpt>
<trkpt lat="43.2477600" lon="-2.1640200">
<ele>254.873764</ele>
<time>2007-12-07T10:21:37.999Z</time>
</trkpt>
<trkpt lat="43.2477900" lon="-2.1638500">
<ele>253.441193</ele>
<time>2007-12-07T10:21:45.999Z</time>
</trkpt>
<trkpt lat="43.2478400" lon="-2.1636600">
<ele>250.545593</ele>
<time>2007-12-07T10:21:55.996Z</time>
</trkpt>
<trkpt lat="43.2478800" lon="-2.1635500">
<ele>249.600723</ele>
<time>2007-12-07T10:22:02.001Z</time>
</trkpt>
<trkpt lat="43.2479200" lon="-2.1634700">
<ele>250.088394</ele>
<time>2007-12-07T10:22:07.003Z</time>
</trkpt>
<trkpt lat="43.2479500" lon="-2.1633900">
<ele>250.545593</ele>
<time>2007-12-07T10:22:11.997Z</time>
</trkpt>
<trkpt lat="43.2480200" lon="-2.1633300">
<ele>253.928879</ele>
<time>2007-12-07T10:22:22.002Z</time>
</trkpt>
<trkpt lat="43.2480200" lon="-2.1633300">
<ele>251.520966</ele>
<time>2007-12-07T10:22:22.996Z</time>
</trkpt>
<trkpt lat="43.2481500" lon="-2.1632100">
<ele>254.873764</ele>
<time>2007-12-07T10:22:34.997Z</time>
</trkpt>
<trkpt lat="43.2481600" lon="-2.1631800">
<ele>255.849121</ele>
<time>2007-12-07T10:22:37.001Z</time>
</trkpt>
<trkpt lat="43.2482900" lon="-2.1628200">
<ele>257.769379</ele>
<time>2007-12-07T10:22:56.001Z</time>
</trkpt>
<trkpt lat="43.2484600" lon="-2.1626000">
<ele>258.257050</ele>
<time>2007-12-07T10:23:09.997Z</time>
</trkpt>
<trkpt lat="43.2487000" lon="-2.1624200">
<ele>258.744720</ele>
<time>2007-12-07T10:23:28.003Z</time>
</trkpt>
<trkpt lat="43.2489500" lon="-2.1623800">
<ele>257.281677</ele>
<time>2007-12-07T10:23:43.996Z</time>
</trkpt>
<trkpt lat="43.2491200" lon="-2.1624000">
<ele>257.281677</ele>
<time>2007-12-07T10:23:55.003Z</time>
</trkpt>
<trkpt lat="43.2493900" lon="-2.1623600">
<ele>257.281677</ele>
<time>2007-12-07T10:24:10.996Z</time>
</trkpt>
<trkpt lat="43.2496900" lon="-2.1623200">
<ele>256.336792</ele>
<time>2007-12-07T10:24:29.002Z</time>
</trkpt>
<trkpt lat="43.2499400" lon="-2.1621700">
<ele>257.281677</ele>
<time>2007-12-07T10:24:46.999Z</time>
</trkpt>
<trkpt lat="43.2502100" lon="-2.1621100">
<ele>255.849121</ele>
<time>2007-12-07T10:25:01.998Z</time>
</trkpt>
<trkpt lat="43.2504700" lon="-2.1620900">
<ele>256.336792</ele>
<time>2007-12-07T10:25:16.997Z</time>
</trkpt>
<trkpt lat="43.2507200" lon="-2.1621200">
<ele>257.281677</ele>
<time>2007-12-07T10:25:31.002Z</time>
</trkpt>
<trkpt lat="43.2509000" lon="-2.1621800">
<ele>256.824463</ele>
<time>2007-12-07T10:25:43.997Z</time>
</trkpt>
<trkpt lat="43.2510700" lon="-2.1621400">
<ele>258.744720</ele>
<time>2007-12-07T10:25:55.998Z</time>
</trkpt>
<trkpt lat="43.2513000" lon="-2.1620700">
<ele>259.689606</ele>
<time>2007-12-07T10:26:11.999Z</time>
</trkpt>
<trkpt lat="43.2513500" lon="-2.1620100">
<ele>257.769379</ele>
<time>2007-12-07T10:26:20.000Z</time>
</trkpt>
<trkpt lat="43.2513500" lon="-2.1619500">
<ele>253.928879</ele>
<time>2007-12-07T10:26:25.996Z</time>
</trkpt>
<trkpt lat="43.2513500" lon="-2.1619500">
<ele>257.769379</ele>
<time>2007-12-07T10:26:26.998Z</time>
</trkpt>
<trkpt lat="43.2513200" lon="-2.1619300">
<ele>254.873764</ele>
<time>2007-12-07T10:27:04.003Z</time>
</trkpt>
<trkpt lat="43.2513200" lon="-2.1618800">
<ele>254.416565</ele>
<time>2007-12-07T10:27:27.996Z</time>
</trkpt>
<trkpt lat="43.2513500" lon="-2.1618400">
<ele>252.953522</ele>
<time>2007-12-07T10:27:31.997Z</time>
</trkpt>
<trkpt lat="43.2514000" lon="-2.1618000">
<ele>251.033279</ele>
<time>2007-12-07T10:27:35.997Z</time>
</trkpt>
<trkpt lat="43.2514300" lon="-2.1617700">
<ele>250.545593</ele>
<time>2007-12-07T10:27:38.002Z</time>
</trkpt>
<trkpt lat="43.2515400" lon="-2.1616800">
<ele>247.192795</ele>
<time>2007-12-07T10:27:46.996Z</time>
</trkpt>
<trkpt lat="43.2516200" lon="-2.1615700">
<ele>243.839996</ele>
<time>2007-12-07T10:27:54.996Z</time>
</trkpt>
<trkpt lat="43.2516300" lon="-2.1615600">
<ele>244.297195</ele>
<time>2007-12-07T10:27:55.999Z</time>
</trkpt>
<trkpt lat="43.2516200" lon="-2.1615300">
<ele>243.839996</ele>
<time>2007-12-07T10:27:58.003Z</time>
</trkpt>
<trkpt lat="43.2515900" lon="-2.1614700">
<ele>242.376968</ele>
<time>2007-12-07T10:28:02.004Z</time>
</trkpt>
<trkpt lat="43.2515300" lon="-2.1614300">
<ele>240.944397</ele>
<time>2007-12-07T10:28:06.004Z</time>
</trkpt>
<trkpt lat="43.2514200" lon="-2.1612800">
<ele>237.591599</ele>
<time>2007-12-07T10:28:14.998Z</time>
</trkpt>
<trkpt lat="43.2512900" lon="-2.1611200">
<ele>234.208328</ele>
<time>2007-12-07T10:28:25.003Z</time>
</trkpt>
<trkpt lat="43.2511800" lon="-2.1609800">
<ele>230.855530</ele>
<time>2007-12-07T10:28:33.997Z</time>
</trkpt>
<trkpt lat="43.2511100" lon="-2.1608300">
<ele>227.502731</ele>
<time>2007-12-07T10:28:41.998Z</time>
</trkpt>
<trkpt lat="43.2510300" lon="-2.1607200">
<ele>225.094803</ele>
<time>2007-12-07T10:28:52.997Z</time>
</trkpt>
<trkpt lat="43.2510900" lon="-2.1607200">
<ele>223.631760</ele>
<time>2007-12-07T10:28:56.997Z</time>
</trkpt>
<trkpt lat="43.2512500" lon="-2.1606200">
<ele>220.766632</ele>
<time>2007-12-07T10:29:08.998Z</time>
</trkpt>
<trkpt lat="43.2512500" lon="-2.1606100">
<ele>219.791275</ele>
<time>2007-12-07T10:29:10.000Z</time>
</trkpt>
<trkpt lat="43.2512300" lon="-2.1605800">
<ele>217.871033</ele>
<time>2007-12-07T10:29:11.996Z</time>
</trkpt>
<trkpt lat="43.2511700" lon="-2.1605200">
<ele>216.438477</ele>
<time>2007-12-07T10:29:15.996Z</time>
</trkpt>
<trkpt lat="43.2510300" lon="-2.1604100">
<ele>213.055206</ele>
<time>2007-12-07T10:29:26.002Z</time>
</trkpt>
<trkpt lat="43.2510200" lon="-2.1604000">
<ele>212.598007</ele>
<time>2007-12-07T10:29:27.004Z</time>
</trkpt>
<trkpt lat="43.2509600" lon="-2.1603500">
<ele>210.677765</ele>
<time>2007-12-07T10:29:31.998Z</time>
</trkpt>
<trkpt lat="43.2508300" lon="-2.1602400">
<ele>206.806793</ele>
<time>2007-12-07T10:29:41.001Z</time>
</trkpt>
<trkpt lat="43.2507100" lon="-2.1601200">
<ele>203.941666</ele>
<time>2007-12-07T10:29:50.004Z</time>
</trkpt>
<trkpt lat="43.2506400" lon="-2.1600800">
<ele>202.021439</ele>
<time>2007-12-07T10:29:54.004Z</time>
</trkpt>
<trkpt lat="43.2504700" lon="-2.1599700">
<ele>199.125839</ele>
<time>2007-12-07T10:30:05.003Z</time>
</trkpt>
<trkpt lat="43.2504100" lon="-2.1599500">
<ele>200.101196</ele>
<time>2007-12-07T10:30:09.003Z</time>
</trkpt>
<trkpt lat="43.2501900" lon="-2.1597700">
<ele>198.638168</ele>
<time>2007-12-07T10:30:25.004Z</time>
</trkpt>
<trkpt lat="43.2501700" lon="-2.1597200">
<ele>196.717926</ele>
<time>2007-12-07T10:30:28.002Z</time>
</trkpt>
<trkpt lat="43.2501200" lon="-2.1594400">
<ele>193.365128</ele>
<time>2007-12-07T10:30:40.003Z</time>
</trkpt>
<trkpt lat="43.2501100" lon="-2.1593200">
<ele>190.957199</ele>
<time>2007-12-07T10:30:45.999Z</time>
</trkpt>
<trkpt lat="43.2500900" lon="-2.1592300">
<ele>189.524643</ele>
<time>2007-12-07T10:30:50.000Z</time>
</trkpt>
<trkpt lat="43.2499000" lon="-2.1589600">
<ele>187.604401</ele>
<time>2007-12-07T10:31:07.003Z</time>
</trkpt>
<trkpt lat="43.2496800" lon="-2.1588500">
<ele>184.708801</ele>
<time>2007-12-07T10:31:21.000Z</time>
</trkpt>
<trkpt lat="43.2496800" lon="-2.1588400">
<ele>184.221130</ele>
<time>2007-12-07T10:31:25.000Z</time>
</trkpt>
<trkpt lat="43.2497000" lon="-2.1588300">
<ele>185.196472</ele>
<time>2007-12-07T10:31:27.998Z</time>
</trkpt>
<trkpt lat="43.2496200" lon="-2.1588800">
<ele>183.763931</ele>
<time>2007-12-07T10:31:34.003Z</time>
</trkpt>
<trkpt lat="43.2494000" lon="-2.1591000">
<ele>181.356003</ele>
<time>2007-12-07T10:31:48.000Z</time>
</trkpt>
<trkpt lat="43.2491300" lon="-2.1593400">
<ele>179.892960</ele>
<time>2007-12-07T10:32:05.004Z</time>
</trkpt>
<trkpt lat="43.2490200" lon="-2.1591200">
<ele>180.868332</ele>
<time>2007-12-07T10:32:17.998Z</time>
</trkpt>
<trkpt lat="43.2490300" lon="-2.1586300">
<ele>180.868332</ele>
<time>2007-12-07T10:32:40.004Z</time>
</trkpt>
<trkpt lat="43.2490000" lon="-2.1582900">
<ele>178.460403</ele>
<time>2007-12-07T10:32:54.001Z</time>
</trkpt>
<trkpt lat="43.2490200" lon="-2.1582600">
<ele>177.515533</ele>
<time>2007-12-07T10:33:00.999Z</time>
</trkpt>
<trkpt lat="43.2490000" lon="-2.1582400">
<ele>177.972733</ele>
<time>2007-12-07T10:33:03.004Z</time>
</trkpt>
<trkpt lat="43.2489800" lon="-2.1581700">
<ele>177.972733</ele>
<time>2007-12-07T10:33:18.003Z</time>
</trkpt>
<trkpt lat="43.2489600" lon="-2.1578000">
<ele>176.052475</ele>
<time>2007-12-07T10:33:34.998Z</time>
</trkpt>
<trkpt lat="43.2489300" lon="-2.1575200">
<ele>177.515533</ele>
<time>2007-12-07T10:33:53.004Z</time>
</trkpt>
<trkpt lat="43.2489300" lon="-2.1575200">
<ele>176.052475</ele>
<time>2007-12-07T10:33:54.999Z</time>
</trkpt>
<trkpt lat="43.2488800" lon="-2.1573000">
<ele>177.027832</ele>
<time>2007-12-07T10:34:13.999Z</time>
</trkpt>
<trkpt lat="43.2487500" lon="-2.1568700">
<ele>177.027832</ele>
<time>2007-12-07T10:34:35.003Z</time>
</trkpt>
<trkpt lat="43.2487800" lon="-2.1565300">
<ele>176.052475</ele>
<time>2007-12-07T10:34:51.004Z</time>
</trkpt>
<trkpt lat="43.2490900" lon="-2.1561400">
<ele>178.948074</ele>
<time>2007-12-07T10:35:17.002Z</time>
</trkpt>
<trkpt lat="43.2491400" lon="-2.1560400">
<ele>178.948074</ele>
<time>2007-12-07T10:35:25.996Z</time>
</trkpt>
<trkpt lat="43.2489400" lon="-2.1557390">
<ele>178.948074</ele>
<time>2007-12-07T10:35:45.004Z</time>
</trkpt>
<trkpt lat="43.2489500" lon="-2.1554890">
<ele>177.515533</ele>
<time>2007-12-07T10:35:56.003Z</time>
</trkpt>
<trkpt lat="43.2489500" lon="-2.1554390">
<ele>177.027832</ele>
<time>2007-12-07T10:36:07.001Z</time>
</trkpt>
<trkpt lat="43.2488600" lon="-2.1553100">
<ele>173.644562</ele>
<time>2007-12-07T10:36:16.004Z</time>
</trkpt>
<trkpt lat="43.2488500" lon="-2.1553000">
<ele>173.187363</ele>
<time>2007-12-07T10:36:16.998Z</time>
</trkpt>
<trkpt lat="43.2487100" lon="-2.1552000">
<ele>169.804077</ele>
<time>2007-12-07T10:36:27.003Z</time>
</trkpt>
<trkpt lat="43.2485100" lon="-2.1551300">
<ele>166.938965</ele>
<time>2007-12-07T10:36:39.004Z</time>
</trkpt>
<trkpt lat="43.2484900" lon="-2.1551300">
<ele>167.396164</ele>
<time>2007-12-07T10:36:41.000Z</time>
</trkpt>
<trkpt lat="43.2484500" lon="-2.1551700">
<ele>165.963593</ele>
<time>2007-12-07T10:36:45.000Z</time>
</trkpt>
<trkpt lat="43.2484300" lon="-2.1551800">
<ele>165.963593</ele>
<time>2007-12-07T10:36:46.002Z</time>
</trkpt>
<trkpt lat="43.2482800" lon="-2.1552300">
<ele>162.123123</ele>
<time>2007-12-07T10:36:55.999Z</time>
</trkpt>
<trkpt lat="43.2482200" lon="-2.1552000">
<ele>160.690567</ele>
<time>2007-12-07T10:36:59.999Z</time>
</trkpt>
<trkpt lat="43.2481500" lon="-2.1551300">
<ele>158.282639</ele>
<time>2007-12-07T10:37:06.004Z</time>
</trkpt>
<trkpt lat="43.2480800" lon="-2.1550400">
<ele>155.387039</ele>
<time>2007-12-07T10:37:12.000Z</time>
</trkpt>
<trkpt lat="43.2480500" lon="-2.1548200">
<ele>152.491440</ele>
<time>2007-12-07T10:37:21.996Z</time>
</trkpt>
<trkpt lat="43.2480200" lon="-2.1547400">
<ele>151.546570</ele>
<time>2007-12-07T10:37:26.999Z</time>
</trkpt>
<trkpt lat="43.2478500" lon="-2.1548800">
<ele>147.706085</ele>
<time>2007-12-07T10:37:40.002Z</time>
</trkpt>
<trkpt lat="43.2478000" lon="-2.1549700">
<ele>146.243042</ele>
<time>2007-12-07T10:37:44.996Z</time>
</trkpt>
<trkpt lat="43.2477700" lon="-2.1549400">
<ele>143.865601</ele>
<time>2007-12-07T10:37:48.996Z</time>
</trkpt>
<trkpt lat="43.2477600" lon="-2.1548700">
<ele>143.865601</ele>
<time>2007-12-07T10:37:52.003Z</time>
</trkpt>
<trkpt lat="43.2477800" lon="-2.1546100">
<ele>140.482315</ele>
<time>2007-12-07T10:38:04.004Z</time>
</trkpt>
<trkpt lat="43.2478000" lon="-2.1545700">
<ele>140.482315</ele>
<time>2007-12-07T10:38:07.996Z</time>
</trkpt>
<trkpt lat="43.2477600" lon="-2.1545500">
<ele>139.537430</ele>
<time>2007-12-07T10:38:22.001Z</time>
</trkpt>
<trkpt lat="43.2477400" lon="-2.1545500">
<ele>138.562088</ele>
<time>2007-12-07T10:38:23.997Z</time>
</trkpt>
<trkpt lat="43.2477100" lon="-2.1545800">
<ele>138.074402</ele>
<time>2007-12-07T10:38:26.002Z</time>
</trkpt>
<trkpt lat="43.2476200" lon="-2.1545800">
<ele>137.617203</ele>
<time>2007-12-07T10:38:38.003Z</time>
</trkpt>
<trkpt lat="43.2476300" lon="-2.1545800">
<ele>137.617203</ele>
<time>2007-12-07T10:38:47.999Z</time>
</trkpt>
<trkpt lat="43.2476400" lon="-2.1546100">
<ele>136.154160</ele>
<time>2007-12-07T10:38:50.004Z</time>
</trkpt>
<trkpt lat="43.2475400" lon="-2.1548700">
<ele>133.289032</ele>
<time>2007-12-07T10:39:01.996Z</time>
</trkpt>
<trkpt lat="43.2475300" lon="-2.1548900">
<ele>132.801361</ele>
<time>2007-12-07T10:39:02.998Z</time>
</trkpt>
<trkpt lat="43.2475100" lon="-2.1550800">
<ele>129.905762</ele>
<time>2007-12-07T10:39:12.001Z</time>
</trkpt>
<trkpt lat="43.2474900" lon="-2.1552200">
<ele>126.552963</ele>
<time>2007-12-07T10:39:18.999Z</time>
</trkpt>
<trkpt lat="43.2474100" lon="-2.1553500">
<ele>123.657364</ele>
<time>2007-12-07T10:39:25.998Z</time>
</trkpt>
<trkpt lat="43.2473800" lon="-2.1553800">
<ele>123.200165</ele>
<time>2007-12-07T10:39:28.002Z</time>
</trkpt>
<trkpt lat="43.2473500" lon="-2.1554100">
<ele>122.712479</ele>
<time>2007-12-07T10:39:29.998Z</time>
</trkpt>
<trkpt lat="43.2472600" lon="-2.1555300">
<ele>120.792236</ele>
<time>2007-12-07T10:39:36.996Z</time>
</trkpt>
<trkpt lat="43.2470400" lon="-2.1556500">
<ele>117.896637</ele>
<time>2007-12-07T10:39:50.000Z</time>
</trkpt>
<trkpt lat="43.2468800" lon="-2.1558000">
<ele>115.001038</ele>
<time>2007-12-07T10:40:00.998Z</time>
</trkpt>
<trkpt lat="43.2468300" lon="-2.1558700">
<ele>114.056160</ele>
<time>2007-12-07T10:40:04.999Z</time>
</trkpt>
<trkpt lat="43.2467800" lon="-2.1559600">
<ele>112.135918</ele>
<time>2007-12-07T10:40:10.001Z</time>
</trkpt>
<trkpt lat="43.2466600" lon="-2.1560500">
<ele>108.752640</ele>
<time>2007-12-07T10:40:18.002Z</time>
</trkpt>
<trkpt lat="43.2466500" lon="-2.1559500">
<ele>107.320084</ele>
<time>2007-12-07T10:40:22.996Z</time>
</trkpt>
<trkpt lat="43.2467000" lon="-2.1557500">
<ele>105.399834</ele>
<time>2007-12-07T10:40:34.003Z</time>
</trkpt>
<trkpt lat="43.2466800" lon="-2.1557700">
<ele>105.887520</ele>
<time>2007-12-07T10:40:37.001Z</time>
</trkpt>
<trkpt lat="43.2467700" lon="-2.1554000">
<ele>103.479599</ele>
<time>2007-12-07T10:40:53.996Z</time>
</trkpt>
<trkpt lat="43.2467600" lon="-2.1551700">
<ele>100.126801</ele>
<time>2007-12-07T10:41:04.001Z</time>
</trkpt>
<trkpt lat="43.2468100" lon="-2.1548700">
<ele>97.231201</ele>
<time>2007-12-07T10:41:16.996Z</time>
</trkpt>
<trkpt lat="43.2469000" lon="-2.1545200">
<ele>95.310966</ele>
<time>2007-12-07T10:41:32.004Z</time>
</trkpt>
<trkpt lat="43.2469700" lon="-2.1542300">
<ele>92.903038</ele>
<time>2007-12-07T10:41:44.998Z</time>
</trkpt>
<trkpt lat="43.2470400" lon="-2.1539800">
<ele>90.495117</ele>
<time>2007-12-07T10:41:58.001Z</time>
</trkpt>
<trkpt lat="43.2470600" lon="-2.1538200">
<ele>89.550240</ele>
<time>2007-12-07T10:42:09.000Z</time>
</trkpt>
<trkpt lat="43.2471000" lon="-2.1534900">
<ele>89.550240</ele>
<time>2007-12-07T10:42:22.997Z</time>
</trkpt>
<trkpt lat="43.2469500" lon="-2.1532300">
<ele>89.550240</ele>
<time>2007-12-07T10:42:37.996Z</time>
</trkpt>
<trkpt lat="43.2469100" lon="-2.1532700">
<ele>89.550240</ele>
<time>2007-12-07T10:42:41.996Z</time>
</trkpt>
<trkpt lat="43.2468100" lon="-2.1533500">
<ele>89.550240</ele>
<time>2007-12-07T10:43:00.002Z</time>
</trkpt>
<trkpt lat="43.2469360" lon="-2.1532310">
<ele>90.007439</ele>
<time>2007-12-07T10:43:43.997Z</time>
</trkpt>
<trkpt lat="43.2470700" lon="-2.1533800">
<ele>90.007439</ele>
<time>2007-12-07T10:43:58.002Z</time>
</trkpt>
<trkpt lat="43.2471200" lon="-2.1537300">
<ele>90.007439</ele>
<time>2007-12-07T10:44:14.004Z</time>
</trkpt>
<trkpt lat="43.2471000" lon="-2.1537300">
<ele>88.574883</ele>
<time>2007-12-07T10:44:25.996Z</time>
</trkpt>
<trkpt lat="43.2472200" lon="-2.1537300">
<ele>89.550240</ele>
<time>2007-12-07T10:44:33.996Z</time>
</trkpt>
<trkpt lat="43.2473200" lon="-2.1534400">
<ele>88.087196</ele>
<time>2007-12-07T10:44:49.004Z</time>
</trkpt>
<trkpt lat="43.2475000" lon="-2.1532900">
<ele>88.087196</ele>
<time>2007-12-07T10:45:03.001Z</time>
</trkpt>
<trkpt lat="43.2476900" lon="-2.1531500">
<ele>89.550240</ele>
<time>2007-12-07T10:45:16.998Z</time>
</trkpt>
<trkpt lat="43.2478610" lon="-2.1530400">
<ele>92.903038</ele>
<time>2007-12-07T10:45:30.001Z</time>
</trkpt>
<trkpt lat="43.2479900" lon="-2.1529400">
<ele>94.823280</ele>
<time>2007-12-07T10:45:41.000Z</time>
</trkpt>
<trkpt lat="43.2481700" lon="-2.1530200">
<ele>96.255836</ele>
<time>2007-12-07T10:45:55.999Z</time>
</trkpt>
<trkpt lat="43.2481900" lon="-2.1530200">
<ele>96.255836</ele>
<time>2007-12-07T10:45:58.003Z</time>
</trkpt>
<trkpt lat="43.2482400" lon="-2.1530000">
<ele>96.255836</ele>
<time>2007-12-07T10:46:01.001Z</time>
</trkpt>
<trkpt lat="43.2482900" lon="-2.1529400">
<ele>97.718880</ele>
<time>2007-12-07T10:46:06.004Z</time>
</trkpt>
<trkpt lat="43.2483800" lon="-2.1527300">
<ele>100.126801</ele>
<time>2007-12-07T10:46:18.998Z</time>
</trkpt>
<trkpt lat="43.2484000" lon="-2.1526800">
<ele>101.071678</ele>
<time>2007-12-07T10:46:22.999Z</time>
</trkpt>
<trkpt lat="43.2484700" lon="-2.1525000">
<ele>104.454964</ele>
<time>2007-12-07T10:46:35.000Z</time>
</trkpt>
<trkpt lat="43.2486700" lon="-2.1523600">
<ele>106.832397</ele>
<time>2007-12-07T10:46:52.003Z</time>
</trkpt>
<trkpt lat="43.2486800" lon="-2.1523500">
<ele>106.832397</ele>
<time>2007-12-07T10:46:52.997Z</time>
</trkpt>
<trkpt lat="43.2487500" lon="-2.1522400">
<ele>106.832397</ele>
<time>2007-12-07T10:47:00.004Z</time>
</trkpt>
<trkpt lat="43.2489000" lon="-2.1519300">
<ele>109.727997</ele>
<time>2007-12-07T10:47:19.003Z</time>
</trkpt>
<trkpt lat="43.2491300" lon="-2.1517100">
<ele>110.703362</ele>
<time>2007-12-07T10:47:38.003Z</time>
</trkpt>
<trkpt lat="43.2494200" lon="-2.1516100">
<ele>108.295433</ele>
<time>2007-12-07T10:47:57.002Z</time>
</trkpt>
<trkpt lat="43.2494600" lon="-2.1515300">
<ele>108.295433</ele>
<time>2007-12-07T10:48:01.996Z</time>
</trkpt>
<trkpt lat="43.2494600" lon="-2.1514900">
<ele>107.807762</ele>
<time>2007-12-07T10:48:04.000Z</time>
</trkpt>
<trkpt lat="43.2495100" lon="-2.1511700">
<ele>106.375198</ele>
<time>2007-12-07T10:48:18.999Z</time>
</trkpt>
<trkpt lat="43.2495500" lon="-2.1510700">
<ele>105.887520</ele>
<time>2007-12-07T10:48:24.002Z</time>
</trkpt>
<trkpt lat="43.2496200" lon="-2.1509900">
<ele>105.399834</ele>
<time>2007-12-07T10:48:28.996Z</time>
</trkpt>
<trkpt lat="43.2498000" lon="-2.1507000">
<ele>104.912163</ele>
<time>2007-12-07T10:48:45.999Z</time>
</trkpt>
<trkpt lat="43.2498700" lon="-2.1504100">
<ele>106.375198</ele>
<time>2007-12-07T10:49:00.998Z</time>
</trkpt>
<trkpt lat="43.2500200" lon="-2.1501800">
<ele>106.375198</ele>
<time>2007-12-07T10:49:15.997Z</time>
</trkpt>
<trkpt lat="43.2502000" lon="-2.1499000">
<ele>105.887520</ele>
<time>2007-12-07T10:49:33.001Z</time>
</trkpt>
<trkpt lat="43.2504000" lon="-2.1496100">
<ele>105.399834</ele>
<time>2007-12-07T10:49:52.000Z</time>
</trkpt>
<trkpt lat="43.2504300" lon="-2.1495600">
<ele>105.399834</ele>
<time>2007-12-07T10:49:54.998Z</time>
</trkpt>
<trkpt lat="43.2505100" lon="-2.1495000">
<ele>104.912163</ele>
<time>2007-12-07T10:50:01.003Z</time>
</trkpt>
<trkpt lat="43.2507200" lon="-2.1493500">
<ele>104.454964</ele>
<time>2007-12-07T10:50:16.002Z</time>
</trkpt>
<trkpt lat="43.2508000" lon="-2.1493400">
<ele>104.454964</ele>
<time>2007-12-07T10:50:20.996Z</time>
</trkpt>
<trkpt lat="43.2509900" lon="-2.1493100">
<ele>103.967285</ele>
<time>2007-12-07T10:50:32.997Z</time>
</trkpt>
<trkpt lat="43.2510500" lon="-2.1492700">
<ele>103.479599</ele>
<time>2007-12-07T10:50:36.997Z</time>
</trkpt>
<trkpt lat="43.2513600" lon="-2.1491800">
<ele>102.504234</ele>
<time>2007-12-07T10:50:58.001Z</time>
</trkpt>
<trkpt lat="43.2516100" lon="-2.1493100">
<ele>99.639114</ele>
<time>2007-12-07T10:51:14.003Z</time>
</trkpt>
<trkpt lat="43.2516400" lon="-2.1495400">
<ele>97.231201</ele>
<time>2007-12-07T10:51:25.001Z</time>
</trkpt>
<trkpt lat="43.2517100" lon="-2.1496500">
<ele>95.798637</ele>
<time>2007-12-07T10:51:30.997Z</time>
</trkpt>
<trkpt lat="43.2518800" lon="-2.1495200">
<ele>94.335602</ele>
<time>2007-12-07T10:51:42.998Z</time>
</trkpt>
<trkpt lat="43.2519600" lon="-2.1494700">
<ele>92.903038</ele>
<time>2007-12-07T10:51:48.001Z</time>
</trkpt>
<trkpt lat="43.2521700" lon="-2.1493600">
<ele>89.550240</ele>
<time>2007-12-07T10:52:01.004Z</time>
</trkpt>
<trkpt lat="43.2524000" lon="-2.1492000">
<ele>87.142319</ele>
<time>2007-12-07T10:52:16.003Z</time>
</trkpt>
<trkpt lat="43.2525100" lon="-2.1491200">
<ele>86.654633</ele>
<time>2007-12-07T10:52:24.004Z</time>
</trkpt>
<trkpt lat="43.2527100" lon="-2.1490300">
<ele>83.301834</ele>
<time>2007-12-07T10:52:35.996Z</time>
</trkpt>
<trkpt lat="43.2529400" lon="-2.1489600">
<ele>79.918564</ele>
<time>2007-12-07T10:52:47.997Z</time>
</trkpt>
<trkpt lat="43.2530200" lon="-2.1489500">
<ele>78.486000</ele>
<time>2007-12-07T10:52:51.997Z</time>
</trkpt>
<trkpt lat="43.2532400" lon="-2.1489500">
<ele>75.133202</ele>
<time>2007-12-07T10:53:05.001Z</time>
</trkpt>
<trkpt lat="43.2533100" lon="-2.1491400">
<ele>73.670158</ele>
<time>2007-12-07T10:53:14.997Z</time>
</trkpt>
<trkpt lat="43.2533500" lon="-2.1493200">
<ele>71.262238</ele>
<time>2007-12-07T10:53:22.004Z</time>
</trkpt>
<trkpt lat="43.2534800" lon="-2.1492300">
<ele>70.317360</ele>
<time>2007-12-07T10:53:32.001Z</time>
</trkpt>
<trkpt lat="43.2537400" lon="-2.1491190">
<ele>68.397118</ele>
<time>2007-12-07T10:53:47.000Z</time>
</trkpt>
<trkpt lat="43.2540000" lon="-2.1490990">
<ele>66.934082</ele>
<time>2007-12-07T10:54:01.999Z</time>
</trkpt>
<trkpt lat="43.2542100" lon="-2.1492390">
<ele>64.556641</ele>
<time>2007-12-07T10:54:15.002Z</time>
</trkpt>
<trkpt lat="43.2543200" lon="-2.1493100">
<ele>63.581284</ele>
<time>2007-12-07T10:54:22.000Z</time>
</trkpt>
<trkpt lat="43.2543800" lon="-2.1493400">
<ele>63.581284</ele>
<time>2007-12-07T10:54:27.003Z</time>
</trkpt>
<trkpt lat="43.2546300" lon="-2.1494400">
<ele>63.093601</ele>
<time>2007-12-07T10:54:42.002Z</time>
</trkpt>
<trkpt lat="43.2548100" lon="-2.1495000">
<ele>62.148720</ele>
<time>2007-12-07T10:54:54.996Z</time>
</trkpt>
<trkpt lat="43.2548700" lon="-2.1494700">
<ele>62.148720</ele>
<time>2007-12-07T10:54:58.997Z</time>
</trkpt>
<trkpt lat="43.2549500" lon="-2.1495200">
<ele>62.148720</ele>
<time>2007-12-07T10:55:03.999Z</time>
</trkpt>
<trkpt lat="43.2550000" lon="-2.1496200">
<ele>61.173359</ele>
<time>2007-12-07T10:55:09.002Z</time>
</trkpt>
<trkpt lat="43.2550500" lon="-2.1497100">
<ele>59.740799</ele>
<time>2007-12-07T10:55:13.996Z</time>
</trkpt>
<trkpt lat="43.2551700" lon="-2.1498300">
<ele>60.685680</ele>
<time>2007-12-07T10:55:22.999Z</time>
</trkpt>
<trkpt lat="43.2551900" lon="-2.1498600">
<ele>61.661041</ele>
<time>2007-12-07T10:55:25.003Z</time>
</trkpt>
<trkpt lat="43.2552300" lon="-2.1499200">
<ele>62.148720</ele>
<time>2007-12-07T10:55:28.001Z</time>
</trkpt>
<trkpt lat="43.2552500" lon="-2.1501600">
<ele>65.501518</ele>
<time>2007-12-07T10:55:40.002Z</time>
</trkpt>
<trkpt lat="43.2552400" lon="-2.1502600">
<ele>66.934082</ele>
<time>2007-12-07T10:55:44.996Z</time>
</trkpt>
<trkpt lat="43.2551400" lon="-2.1504200">
<ele>69.829681</ele>
<time>2007-12-07T10:55:57.999Z</time>
</trkpt>
<trkpt lat="43.2551800" lon="-2.1505400">
<ele>71.262238</ele>
<time>2007-12-07T10:56:07.996Z</time>
</trkpt>
<trkpt lat="43.2552800" lon="-2.1505300">
<ele>72.725281</ele>
<time>2007-12-07T10:56:15.996Z</time>
</trkpt>
<trkpt lat="43.2553700" lon="-2.1505500">
<ele>75.133202</ele>
<time>2007-12-07T10:56:23.997Z</time>
</trkpt>
<trkpt lat="43.2554700" lon="-2.1508500">
<ele>76.078079</ele>
<time>2007-12-07T10:56:39.998Z</time>
</trkpt>
<trkpt lat="43.2554800" lon="-2.1511300">
<ele>76.078079</ele>
<time>2007-12-07T10:56:54.997Z</time>
</trkpt>
<trkpt lat="43.2554600" lon="-2.1514700">
<ele>72.725281</ele>
<time>2007-12-07T10:57:12.001Z</time>
</trkpt>
<trkpt lat="43.2554900" lon="-2.1515100">
<ele>73.182480</ele>
<time>2007-12-07T10:57:14.999Z</time>
</trkpt>
<trkpt lat="43.2555900" lon="-2.1515800">
<ele>74.157845</ele>
<time>2007-12-07T10:57:21.004Z</time>
</trkpt>
<trkpt lat="43.2556700" lon="-2.1516400">
<ele>74.645515</ele>
<time>2007-12-07T10:57:25.004Z</time>
</trkpt>
<trkpt lat="43.2557300" lon="-2.1518000">
<ele>76.078079</ele>
<time>2007-12-07T10:57:33.998Z</time>
</trkpt>
<trkpt lat="43.2557500" lon="-2.1518400">
<ele>76.078079</ele>
<time>2007-12-07T10:57:36.003Z</time>
</trkpt>
<trkpt lat="43.2557800" lon="-2.1520300">
<ele>76.078079</ele>
<time>2007-12-07T10:57:44.004Z</time>
</trkpt>
<trkpt lat="43.2557700" lon="-2.1522400">
<ele>75.133202</ele>
<time>2007-12-07T10:57:54.000Z</time>
</trkpt>
<trkpt lat="43.2557200" lon="-2.1525500">
<ele>74.157845</ele>
<time>2007-12-07T10:58:07.997Z</time>
</trkpt>
<trkpt lat="43.2556900" lon="-2.1526100">
<ele>74.645515</ele>
<time>2007-12-07T10:58:11.997Z</time>
</trkpt>
<trkpt lat="43.2556100" lon="-2.1528200">
<ele>76.565758</ele>
<time>2007-12-07T10:58:23.998Z</time>
</trkpt>
<trkpt lat="43.2555400" lon="-2.1531100">
<ele>79.430885</ele>
<time>2007-12-07T10:58:39.999Z</time>
</trkpt>
<trkpt lat="43.2554200" lon="-2.1534300">
<ele>78.486000</ele>
<time>2007-12-07T10:58:57.003Z</time>
</trkpt>
<trkpt lat="43.2553100" lon="-2.1536500">
<ele>75.133202</ele>
<time>2007-12-07T10:59:08.002Z</time>
</trkpt>
<trkpt lat="43.2552600" lon="-2.1539400">
<ele>75.133202</ele>
<time>2007-12-07T10:59:21.998Z</time>
</trkpt>
<trkpt lat="43.2551900" lon="-2.1541300">
<ele>75.590401</ele>
<time>2007-12-07T10:59:32.004Z</time>
</trkpt>
<trkpt lat="43.2550800" lon="-2.1543400">
<ele>75.590401</ele>
<time>2007-12-07T10:59:43.996Z</time>
</trkpt>
<trkpt lat="43.2549600" lon="-2.1546000">
<ele>77.510643</ele>
<time>2007-12-07T10:59:59.004Z</time>
</trkpt>
<trkpt lat="43.2548500" lon="-2.1547700">
<ele>80.893921</ele>
<time>2007-12-07T11:00:10.996Z</time>
</trkpt>
<trkpt lat="43.2547300" lon="-2.1549700">
<ele>84.734398</ele>
<time>2007-12-07T11:00:25.001Z</time>
</trkpt>
<trkpt lat="43.2546900" lon="-2.1551000">
<ele>84.734398</ele>
<time>2007-12-07T11:00:32.000Z</time>
</trkpt>
<trkpt lat="43.2545900" lon="-2.1553400">
<ele>84.734398</ele>
<time>2007-12-07T11:00:45.996Z</time>
</trkpt>
<trkpt lat="43.2546000" lon="-2.1553800">
<ele>85.222084</ele>
<time>2007-12-07T11:00:49.003Z</time>
</trkpt>
<trkpt lat="43.2545900" lon="-2.1555700">
<ele>82.326485</ele>
<time>2007-12-07T11:00:59.000Z</time>
</trkpt>
<trkpt lat="43.2545900" lon="-2.1556100">
<ele>82.326485</ele>
<time>2007-12-07T11:01:01.004Z</time>
</trkpt>
<trkpt lat="43.2545300" lon="-2.1557500">
<ele>85.709763</ele>
<time>2007-12-07T11:01:12.996Z</time>
</trkpt>
<trkpt lat="43.2545900" lon="-2.1558800">
<ele>88.574883</ele>
<time>2007-12-07T11:01:24.997Z</time>
</trkpt>
<trkpt lat="43.2545900" lon="-2.1559400">
<ele>90.495117</ele>
<time>2007-12-07T11:01:30.000Z</time>
</trkpt>
<trkpt lat="43.2545900" lon="-2.1559800">
<ele>90.982803</ele>
<time>2007-12-07T11:01:31.996Z</time>
</trkpt>
<trkpt lat="43.2546500" lon="-2.1560600">
<ele>92.903038</ele>
<time>2007-12-07T11:01:39.003Z</time>
</trkpt>
<trkpt lat="43.2546600" lon="-2.1561700">
<ele>94.823280</ele>
<time>2007-12-07T11:01:47.004Z</time>
</trkpt>
<trkpt lat="43.2547000" lon="-2.1563100">
<ele>98.206566</ele>
<time>2007-12-07T11:01:57.000Z</time>
</trkpt>
<trkpt lat="43.2547100" lon="-2.1563400">
<ele>98.663765</ele>
<time>2007-12-07T11:01:58.996Z</time>
</trkpt>
<trkpt lat="43.2547900" lon="-2.1565300">
<ele>102.047035</ele>
<time>2007-12-07T11:02:13.001Z</time>
</trkpt>
<trkpt lat="43.2548600" lon="-2.1566500">
<ele>104.454964</ele>
<time>2007-12-07T11:02:22.998Z</time>
</trkpt>
<trkpt lat="43.2548700" lon="-2.1566900">
<ele>105.399834</ele>
<time>2007-12-07T11:02:25.996Z</time>
</trkpt>
<trkpt lat="43.2548700" lon="-2.1568900">
<ele>108.752640</ele>
<time>2007-12-07T11:02:40.001Z</time>
</trkpt>
<trkpt lat="43.2548900" lon="-2.1569800">
<ele>110.215683</ele>
<time>2007-12-07T11:02:45.997Z</time>
</trkpt>
<trkpt lat="43.2549800" lon="-2.1570900">
<ele>113.568481</ele>
<time>2007-12-07T11:02:56.003Z</time>
</trkpt>
<trkpt lat="43.2550000" lon="-2.1571900">
<ele>114.543839</ele>
<time>2007-12-07T11:03:01.999Z</time>
</trkpt>
<trkpt lat="43.2550900" lon="-2.1574200">
<ele>117.896637</ele>
<time>2007-12-07T11:03:18.000Z</time>
</trkpt>
<trkpt lat="43.2551000" lon="-2.1574300">
<ele>118.384315</ele>
<time>2007-12-07T11:03:19.002Z</time>
</trkpt>
<trkpt lat="43.2551700" lon="-2.1574200">
<ele>120.304565</ele>
<time>2007-12-07T11:03:26.001Z</time>
</trkpt>
<trkpt lat="43.2552600" lon="-2.1573000">
<ele>123.657364</ele>
<time>2007-12-07T11:03:38.002Z</time>
</trkpt>
<trkpt lat="43.2553200" lon="-2.1572900">
<ele>125.120399</ele>
<time>2007-12-07T11:03:43.004Z</time>
</trkpt>
<trkpt lat="43.2553400" lon="-2.1573000">
<ele>125.577599</ele>
<time>2007-12-07T11:03:45.000Z</time>
</trkpt>
<trkpt lat="43.2553600" lon="-2.1573600">
<ele>127.040634</ele>
<time>2007-12-07T11:03:50.996Z</time>
</trkpt>
<trkpt lat="43.2553600" lon="-2.1574200">
<ele>127.985519</ele>
<time>2007-12-07T11:03:54.996Z</time>
</trkpt>
<trkpt lat="43.2553400" lon="-2.1575300">
<ele>128.473206</ele>
<time>2007-12-07T11:04:01.001Z</time>
</trkpt>
<trkpt lat="43.2552500" lon="-2.1578200">
<ele>130.881119</ele>
<time>2007-12-07T11:04:18.998Z</time>
</trkpt>
<trkpt lat="43.2552700" lon="-2.1579200">
<ele>131.826004</ele>
<time>2007-12-07T11:04:25.003Z</time>
</trkpt>
<trkpt lat="43.2553200" lon="-2.1579900">
<ele>131.826004</ele>
<time>2007-12-07T11:04:29.004Z</time>
</trkpt>
<trkpt lat="43.2554000" lon="-2.1580200">
<ele>133.746231</ele>
<time>2007-12-07T11:04:35.000Z</time>
</trkpt>
<trkpt lat="43.2554500" lon="-2.1580500">
<ele>134.233917</ele>
<time>2007-12-07T11:04:48.996Z</time>
</trkpt>
<trkpt lat="43.2555000" lon="-2.1580400">
<ele>133.289032</ele>
<time>2007-12-07T11:04:52.997Z</time>
</trkpt>
<trkpt lat="43.2557700" lon="-2.1577800">
<ele>132.313675</ele>
<time>2007-12-07T11:05:11.996Z</time>
</trkpt>
<trkpt lat="43.2560700" lon="-2.1574900">
<ele>131.826004</ele>
<time>2007-12-07T11:05:33.000Z</time>
</trkpt>
<trkpt lat="43.2564200" lon="-2.1573400">
<ele>130.881119</ele>
<time>2007-12-07T11:05:54.004Z</time>
</trkpt>
<trkpt lat="43.2567500" lon="-2.1572300">
<ele>130.393433</ele>
<time>2007-12-07T11:06:13.997Z</time>
</trkpt>
<trkpt lat="43.2570900" lon="-2.1570800">
<ele>129.448563</ele>
<time>2007-12-07T11:06:33.998Z</time>
</trkpt>
<trkpt lat="43.2574200" lon="-2.1568700">
<ele>128.960876</ele>
<time>2007-12-07T11:06:55.002Z</time>
</trkpt>
<trkpt lat="43.2576800" lon="-2.1566400">
<ele>127.497833</ele>
<time>2007-12-07T11:07:12.999Z</time>
</trkpt>
<trkpt lat="43.2579000" lon="-2.1564500">
<ele>127.040634</ele>
<time>2007-12-07T11:07:27.998Z</time>
</trkpt>
<trkpt lat="43.2579800" lon="-2.1563900">
<ele>126.552963</ele>
<time>2007-12-07T11:07:34.003Z</time>
</trkpt>
<trkpt lat="43.2580200" lon="-2.1563900">
<ele>126.065285</ele>
<time>2007-12-07T11:07:37.001Z</time>
</trkpt>
<trkpt lat="43.2582600" lon="-2.1565400">
<ele>127.040634</ele>
<time>2007-12-07T11:07:53.996Z</time>
</trkpt>
<trkpt lat="43.2585800" lon="-2.1564200">
<ele>128.473206</ele>
<time>2007-12-07T11:08:15.000Z</time>
</trkpt>
<trkpt lat="43.2588800" lon="-2.1563000">
<ele>130.881119</ele>
<time>2007-12-07T11:08:35.002Z</time>
</trkpt>
<trkpt lat="43.2591500" lon="-2.1562100">
<ele>132.801361</ele>
<time>2007-12-07T11:08:52.999Z</time>
</trkpt>
<trkpt lat="43.2593800" lon="-2.1560500">
<ele>135.696960</ele>
<time>2007-12-07T11:09:10.002Z</time>
</trkpt>
<trkpt lat="43.2596300" lon="-2.1560800">
<ele>137.617203</ele>
<time>2007-12-07T11:09:26.997Z</time>
</trkpt>
<trkpt lat="43.2598900" lon="-2.1561300">
<ele>140.970001</ele>
<time>2007-12-07T11:09:45.003Z</time>
</trkpt>
<trkpt lat="43.2601800" lon="-2.1561200">
<ele>143.865601</ele>
<time>2007-12-07T11:10:04.996Z</time>
</trkpt>
<trkpt lat="43.2603900" lon="-2.1560400">
<ele>146.243042</ele>
<time>2007-12-07T11:10:20.004Z</time>
</trkpt>
<trkpt lat="43.2606400" lon="-2.1558800">
<ele>149.626312</ele>
<time>2007-12-07T11:10:39.003Z</time>
</trkpt>
<trkpt lat="43.2608700" lon="-2.1557700">
<ele>152.491440</ele>
<time>2007-12-07T11:10:55.998Z</time>
</trkpt>
<trkpt lat="43.2610300" lon="-2.1556600">
<ele>155.874725</ele>
<time>2007-12-07T11:11:09.001Z</time>
</trkpt>
<trkpt lat="43.2612700" lon="-2.1555400">
<ele>159.227524</ele>
<time>2007-12-07T11:11:28.000Z</time>
</trkpt>
<trkpt lat="43.2614900" lon="-2.1554800">
<ele>162.123123</ele>
<time>2007-12-07T11:11:44.002Z</time>
</trkpt>
<trkpt lat="43.2617900" lon="-2.1553700">
<ele>164.531036</ele>
<time>2007-12-07T11:12:04.997Z</time>
</trkpt>
<trkpt lat="43.2620900" lon="-2.1552900">
<ele>164.988235</ele>
<time>2007-12-07T11:12:24.998Z</time>
</trkpt>
<trkpt lat="43.2621200" lon="-2.1552800">
<ele>165.475922</ele>
<time>2007-12-07T11:12:27.003Z</time>
</trkpt>
<trkpt lat="43.2621900" lon="-2.1552400">
<ele>164.988235</ele>
<time>2007-12-07T11:12:32.999Z</time>
</trkpt>
<trkpt lat="43.2625300" lon="-2.1552700">
<ele>164.988235</ele>
<time>2007-12-07T11:12:53.001Z</time>
</trkpt>
<trkpt lat="43.2628400" lon="-2.1552300">
<ele>162.610794</ele>
<time>2007-12-07T11:13:12.000Z</time>
</trkpt>
<trkpt lat="43.2630200" lon="-2.1551800">
<ele>160.202866</ele>
<time>2007-12-07T11:13:21.996Z</time>
</trkpt>
<trkpt lat="43.2632500" lon="-2.1551100">
<ele>157.794968</ele>
<time>2007-12-07T11:13:36.002Z</time>
</trkpt>
<trkpt lat="43.2634100" lon="-2.1549200">
<ele>155.387039</ele>
<time>2007-12-07T11:13:48.003Z</time>
</trkpt>
<trkpt lat="43.2636100" lon="-2.1548700">
<ele>152.491440</ele>
<time>2007-12-07T11:13:59.002Z</time>
</trkpt>
<trkpt lat="43.2637800" lon="-2.1550600">
<ele>148.650970</ele>
<time>2007-12-07T11:14:11.003Z</time>
</trkpt>
<trkpt lat="43.2638800" lon="-2.1551900">
<ele>145.298157</ele>
<time>2007-12-07T11:14:18.001Z</time>
</trkpt>
<trkpt lat="43.2640900" lon="-2.1552200">
<ele>141.945358</ele>
<time>2007-12-07T11:14:29.000Z</time>
</trkpt>
<trkpt lat="43.2643300" lon="-2.1551500">
<ele>139.537430</ele>
<time>2007-12-07T11:14:42.003Z</time>
</trkpt>
<trkpt lat="43.2643800" lon="-2.1552900">
<ele>136.641830</ele>
<time>2007-12-07T11:14:50.004Z</time>
</trkpt>
<trkpt lat="43.2643800" lon="-2.1552600">
<ele>136.641830</ele>
<time>2007-12-07T11:14:51.999Z</time>
</trkpt>
<trkpt lat="43.2643500" lon="-2.1551700">
<ele>139.049759</ele>
<time>2007-12-07T11:15:00.000Z</time>
</trkpt>
<trkpt lat="43.2643900" lon="-2.1552700">
<ele>137.617203</ele>
<time>2007-12-07T11:15:05.003Z</time>
</trkpt>
<trkpt lat="43.2644000" lon="-2.1553400">
<ele>136.154160</ele>
<time>2007-12-07T11:15:08.001Z</time>
</trkpt>
<trkpt lat="43.2645200" lon="-2.1554400">
<ele>132.801361</ele>
<time>2007-12-07T11:15:16.001Z</time>
</trkpt>
<trkpt lat="43.2647200" lon="-2.1555200">
<ele>129.448563</ele>
<time>2007-12-07T11:15:27.000Z</time>
</trkpt>
<trkpt lat="43.2650600" lon="-2.1557400">
<ele>126.552963</ele>
<time>2007-12-07T11:15:47.002Z</time>
</trkpt>
<trkpt lat="43.2654700" lon="-2.1559300">
<ele>124.632721</ele>
<time>2007-12-07T11:16:11.004Z</time>
</trkpt>
<trkpt lat="43.2658100" lon="-2.1559900">
<ele>121.737122</ele>
<time>2007-12-07T11:16:30.003Z</time>
</trkpt>
<trkpt lat="43.2660600" lon="-2.1559900">
<ele>118.384315</ele>
<time>2007-12-07T11:16:44.000Z</time>
</trkpt>
<trkpt lat="43.2663000" lon="-2.1560100">
<ele>115.488716</ele>
<time>2007-12-07T11:16:57.003Z</time>
</trkpt>
<trkpt lat="43.2664500" lon="-2.1560000">
<ele>113.080803</ele>
<time>2007-12-07T11:17:05.004Z</time>
</trkpt>
<trkpt lat="43.2667900" lon="-2.1558800">
<ele>109.727997</ele>
<time>2007-12-07T11:17:24.003Z</time>
</trkpt>
<trkpt lat="43.2671700" lon="-2.1557000">
<ele>108.752640</ele>
<time>2007-12-07T11:17:47.003Z</time>
</trkpt>
<trkpt lat="43.2672100" lon="-2.1557000">
<ele>107.807762</ele>
<time>2007-12-07T11:17:48.998Z</time>
</trkpt>
<trkpt lat="43.2675800" lon="-2.1556700">
<ele>105.399834</ele>
<time>2007-12-07T11:18:10.002Z</time>
</trkpt>
<trkpt lat="43.2679900" lon="-2.1558700">
<ele>103.967285</ele>
<time>2007-12-07T11:18:34.998Z</time>
</trkpt>
<trkpt lat="43.2682900" lon="-2.1559400">
<ele>103.479599</ele>
<time>2007-12-07T11:18:52.001Z</time>
</trkpt>
<trkpt lat="43.2684400" lon="-2.1561000">
<ele>103.479599</ele>
<time>2007-12-07T11:19:04.002Z</time>
</trkpt>
<trkpt lat="43.2684700" lon="-2.1564600">
<ele>104.912163</ele>
<time>2007-12-07T11:19:20.004Z</time>
</trkpt>
<trkpt lat="43.2683800" lon="-2.1567400">
<ele>107.320084</ele>
<time>2007-12-07T11:19:34.000Z</time>
</trkpt>
<trkpt lat="43.2683100" lon="-2.1570600">
<ele>107.320084</ele>
<time>2007-12-07T11:19:48.999Z</time>
</trkpt>
<trkpt lat="43.2683100" lon="-2.1571200">
<ele>107.320084</ele>
<time>2007-12-07T11:19:51.997Z</time>
</trkpt>
<trkpt lat="43.2684000" lon="-2.1572300">
<ele>108.295433</ele>
<time>2007-12-07T11:19:58.996Z</time>
</trkpt>
<trkpt lat="43.2686400" lon="-2.1574000">
<ele>110.215683</ele>
<time>2007-12-07T11:20:14.997Z</time>
</trkpt>
<trkpt lat="43.2689200" lon="-2.1576100">
<ele>111.160561</ele>
<time>2007-12-07T11:20:33.003Z</time>
</trkpt>
<trkpt lat="43.2692800" lon="-2.1578000">
<ele>110.703362</ele>
<time>2007-12-07T11:20:55.000Z</time>
</trkpt>
<trkpt lat="43.2696900" lon="-2.1580200">
<ele>110.703362</ele>
<time>2007-12-07T11:21:20.998Z</time>
</trkpt>
<trkpt lat="43.2700600" lon="-2.1582000">
<ele>111.160561</ele>
<time>2007-12-07T11:21:45.000Z</time>
</trkpt>
<trkpt lat="43.2703000" lon="-2.1584900">
<ele>110.703362</ele>
<time>2007-12-07T11:22:05.002Z</time>
</trkpt>
<trkpt lat="43.2704200" lon="-2.1589500">
<ele>111.648239</ele>
<time>2007-12-07T11:22:25.997Z</time>
</trkpt>
<trkpt lat="43.2705000" lon="-2.1593300">
<ele>108.752640</ele>
<time>2007-12-07T11:22:40.996Z</time>
</trkpt>
<trkpt lat="43.2705700" lon="-2.1596300">
<ele>105.399834</ele>
<time>2007-12-07T11:22:52.997Z</time>
</trkpt>
<trkpt lat="43.2706700" lon="-2.1599600">
<ele>102.047035</ele>
<time>2007-12-07T11:23:07.002Z</time>
</trkpt>
<trkpt lat="43.2708600" lon="-2.1602500">
<ele>99.151436</ele>
<time>2007-12-07T11:23:22.001Z</time>
</trkpt>
<trkpt lat="43.2712500" lon="-2.1604200">
<ele>97.231201</ele>
<time>2007-12-07T11:23:45.001Z</time>
</trkpt>
<trkpt lat="43.2716800" lon="-2.1606500">
<ele>96.743515</ele>
<time>2007-12-07T11:24:12.001Z</time>
</trkpt>
<trkpt lat="43.2720600" lon="-2.1607100">
<ele>97.231201</ele>
<time>2007-12-07T11:24:33.998Z</time>
</trkpt>
<trkpt lat="43.2724300" lon="-2.1606700">
<ele>97.231201</ele>
<time>2007-12-07T11:24:55.996Z</time>
</trkpt>
<trkpt lat="43.2727500" lon="-2.1605800">
<ele>98.663765</ele>
<time>2007-12-07T11:25:15.997Z</time>
</trkpt>
<trkpt lat="43.2730800" lon="-2.1605400">
<ele>95.798637</ele>
<time>2007-12-07T11:25:34.003Z</time>
</trkpt>
<trkpt lat="43.2734000" lon="-2.1603600">
<ele>92.415367</ele>
<time>2007-12-07T11:25:53.003Z</time>
</trkpt>
<trkpt lat="43.2735500" lon="-2.1604000">
<ele>90.495117</ele>
<time>2007-12-07T11:26:02.999Z</time>
</trkpt>
<trkpt lat="43.2737000" lon="-2.1606500">
<ele>86.166962</ele>
<time>2007-12-07T11:26:16.996Z</time>
</trkpt>
<trkpt lat="43.2738200" lon="-2.1608100">
<ele>82.814163</ele>
<time>2007-12-07T11:26:25.999Z</time>
</trkpt>
<trkpt lat="43.2738400" lon="-2.1608200">
<ele>82.814163</ele>
<time>2007-12-07T11:26:27.001Z</time>
</trkpt>
<trkpt lat="43.2740400" lon="-2.1609500">
<ele>79.918564</ele>
<time>2007-12-07T11:26:39.002Z</time>
</trkpt>
<trkpt lat="43.2741800" lon="-2.1611900">
<ele>76.565758</ele>
<time>2007-12-07T11:26:51.003Z</time>
</trkpt>
<trkpt lat="43.2742300" lon="-2.1615800">
<ele>73.182480</ele>
<time>2007-12-07T11:27:07.998Z</time>
</trkpt>
<trkpt lat="43.2745900" lon="-2.1618300">
<ele>73.670158</ele>
<time>2007-12-07T11:27:32.000Z</time>
</trkpt>
<trkpt lat="43.2747900" lon="-2.1621400">
<ele>74.157845</ele>
<time>2007-12-07T11:27:50.999Z</time>
</trkpt>
<trkpt lat="43.2749100" lon="-2.1627000">
<ele>71.749916</ele>
<time>2007-12-07T11:28:15.001Z</time>
</trkpt>
<trkpt lat="43.2749400" lon="-2.1628000">
<ele>71.262238</ele>
<time>2007-12-07T11:28:19.001Z</time>
</trkpt>
<trkpt lat="43.2750900" lon="-2.1633300">
<ele>68.397118</ele>
<time>2007-12-07T11:28:43.003Z</time>
</trkpt>
<trkpt lat="43.2752500" lon="-2.1636300">
<ele>64.556641</ele>
<time>2007-12-07T11:28:58.002Z</time>
</trkpt>
<trkpt lat="43.2752000" lon="-2.1641400">
<ele>63.581284</ele>
<time>2007-12-07T11:29:20.000Z</time>
</trkpt>
<trkpt lat="43.2752700" lon="-2.1646400">
<ele>59.740799</ele>
<time>2007-12-07T11:29:41.004Z</time>
</trkpt>
<trkpt lat="43.2752800" lon="-2.1646900">
<ele>59.253117</ele>
<time>2007-12-07T11:29:42.999Z</time>
</trkpt>
<trkpt lat="43.2754100" lon="-2.1651100">
<ele>56.388000</ele>
<time>2007-12-07T11:30:01.999Z</time>
</trkpt>
<trkpt lat="43.2756600" lon="-2.1651700">
<ele>53.980083</ele>
<time>2007-12-07T11:30:18.000Z</time>
</trkpt>
<trkpt lat="43.2757300" lon="-2.1651800">
<ele>52.517040</ele>
<time>2007-12-07T11:30:22.000Z</time>
</trkpt>
<trkpt lat="43.2757400" lon="-2.1651900">
<ele>52.059841</ele>
<time>2007-12-07T11:30:23.003Z</time>
</trkpt>
<trkpt lat="43.2757400" lon="-2.1653100">
<ele>50.596802</ele>
<time>2007-12-07T11:30:27.996Z</time>
</trkpt>
<trkpt lat="43.2755500" lon="-2.1657700">
<ele>47.731682</ele>
<time>2007-12-07T11:30:50.003Z</time>
</trkpt>
<trkpt lat="43.2755300" lon="-2.1660800">
<ele>44.836082</ele>
<time>2007-12-07T11:31:03.999Z</time>
</trkpt>
<trkpt lat="43.2756800" lon="-2.1660400">
<ele>44.348400</ele>
<time>2007-12-07T11:31:16.000Z</time>
</trkpt>
<trkpt lat="43.2759600" lon="-2.1657800">
<ele>43.403519</ele>
<time>2007-12-07T11:31:35.000Z</time>
</trkpt>
<trkpt lat="43.2760700" lon="-2.1655500">
<ele>40.507919</ele>
<time>2007-12-07T11:31:47.001Z</time>
</trkpt>
<trkpt lat="43.2760800" lon="-2.1654900">
<ele>39.563042</ele>
<time>2007-12-07T11:31:52.997Z</time>
</trkpt>
<trkpt lat="43.2762700" lon="-2.1652500">
<ele>37.642799</ele>
<time>2007-12-07T11:32:07.996Z</time>
</trkpt>
<trkpt lat="43.2765000" lon="-2.1652000">
<ele>36.179760</ele>
<time>2007-12-07T11:32:22.001Z</time>
</trkpt>
<trkpt lat="43.2767200" lon="-2.1651600">
<ele>32.826958</ele>
<time>2007-12-07T11:32:34.002Z</time>
</trkpt>
<trkpt lat="43.2769200" lon="-2.1651300">
<ele>29.931358</ele>
<time>2007-12-07T11:32:45.001Z</time>
</trkpt>
<trkpt lat="43.2771100" lon="-2.1650400">
<ele>26.578560</ele>
<time>2007-12-07T11:32:56.000Z</time>
</trkpt>
<trkpt lat="43.2772300" lon="-2.1648200">
<ele>23.682959</ele>
<time>2007-12-07T11:33:06.998Z</time>
</trkpt>
<trkpt lat="43.2773300" lon="-2.1646100">
<ele>20.330158</ele>
<time>2007-12-07T11:33:17.004Z</time>
</trkpt>
<trkpt lat="43.2775200" lon="-2.1644300">
<ele>18.409920</ele>
<time>2007-12-07T11:33:32.003Z</time>
</trkpt>
<trkpt lat="43.2776000" lon="-2.1644800">
<ele>16.002001</ele>
<time>2007-12-07T11:33:36.996Z</time>
</trkpt>
<trkpt lat="43.2776900" lon="-2.1645700">
<ele>16.002001</ele>
<time>2007-12-07T11:33:43.001Z</time>
</trkpt>
<trkpt lat="43.2779000" lon="-2.1647300">
<ele>12.649200</ele>
<time>2007-12-07T11:33:56.998Z</time>
</trkpt>
<trkpt lat="43.2781000" lon="-2.1649400">
<ele>9.753600</ele>
<time>2007-12-07T11:34:11.997Z</time>
</trkpt>
<trkpt lat="43.2781600" lon="-2.1650700">
<ele>8.321040</ele>
<time>2007-12-07T11:34:19.004Z</time>
</trkpt>
<trkpt lat="43.2780000" lon="-2.1653600">
<ele>5.913120</ele>
<time>2007-12-07T11:34:34.997Z</time>
</trkpt>
<trkpt lat="43.2777800" lon="-2.1658900">
<ele>3.992880</ele>
<time>2007-12-07T11:35:00.001Z</time>
</trkpt>
<trkpt lat="43.2776700" lon="-2.1664300">
<ele>4.450080</ele>
<time>2007-12-07T11:35:24.996Z</time>
</trkpt>
<trkpt lat="43.2777800" lon="-2.1665600">
<ele>4.450080</ele>
<time>2007-12-07T11:35:35.002Z</time>
</trkpt>
<trkpt lat="43.2780900" lon="-2.1667500">
<ele>6.400800</ele>
<time>2007-12-07T11:35:55.003Z</time>
</trkpt>
<trkpt lat="43.2784300" lon="-2.1669300">
<ele>9.753600</ele>
<time>2007-12-07T11:36:17.001Z</time>
</trkpt>
<trkpt lat="43.2787500" lon="-2.1670800">
<ele>9.753600</ele>
<time>2007-12-07T11:36:37.002Z</time>
</trkpt>
<trkpt lat="43.2791300" lon="-2.1672500">
<ele>7.833360</ele>
<time>2007-12-07T11:37:01.004Z</time>
</trkpt>
<trkpt lat="43.2794600" lon="-2.1673200">
<ele>4.450080</ele>
<time>2007-12-07T11:37:20.004Z</time>
</trkpt>
<trkpt lat="43.2797600" lon="-2.1673600">
<ele>3.017520</ele>
<time>2007-12-07T11:37:38.001Z</time>
</trkpt>
<trkpt lat="43.2800200" lon="-2.1674000">
<ele>2.529840</ele>
<time>2007-12-07T11:37:51.997Z</time>
</trkpt>
<trkpt lat="43.2801300" lon="-2.1673800">
<ele>3.017520</ele>
<time>2007-12-07T11:37:58.996Z</time>
</trkpt>
<trkpt lat="43.2803400" lon="-2.1674000">
<ele>2.529840</ele>
<time>2007-12-07T11:38:10.997Z</time>
</trkpt>
<trkpt lat="43.2806300" lon="-2.1673600">
<ele>2.529840</ele>
<time>2007-12-07T11:38:25.996Z</time>
</trkpt>
<trkpt lat="43.2808200" lon="-2.1673000">
<ele>3.017520</ele>
<time>2007-12-07T11:38:41.004Z</time>
</trkpt>
<trkpt lat="43.2808300" lon="-2.1673200">
<ele>3.505200</ele>
<time>2007-12-07T11:38:42.999Z</time>
</trkpt>
<trkpt lat="43.2809100" lon="-2.1672800">
<ele>3.017520</ele>
<time>2007-12-07T11:38:48.002Z</time>
</trkpt>
<trkpt lat="43.2810100" lon="-2.1673000">
<ele>2.529840</ele>
<time>2007-12-07T11:38:55.000Z</time>
</trkpt>
<trkpt lat="43.2810600" lon="-2.1677000">
<ele>2.529840</ele>
<time>2007-12-07T11:39:14.000Z</time>
</trkpt>
<trkpt lat="43.2810500" lon="-2.1680900">
<ele>2.072640</ele>
<time>2007-12-07T11:39:31.997Z</time>
</trkpt>
<trkpt lat="43.2810500" lon="-2.1681400">
<ele>2.529840</ele>
<time>2007-12-07T11:39:34.001Z</time>
</trkpt>
<trkpt lat="43.2810700" lon="-2.1682500">
<ele>2.529840</ele>
<time>2007-12-07T11:39:39.004Z</time>
</trkpt>
<trkpt lat="43.2811300" lon="-2.1685200">
<ele>2.072640</ele>
<time>2007-12-07T11:39:53.001Z</time>
</trkpt>
<trkpt lat="43.2812100" lon="-2.1685600">
<ele>2.529840</ele>
<time>2007-12-07T11:39:58.997Z</time>
</trkpt>
<trkpt lat="43.2812800" lon="-2.1685600">
<ele>3.017520</ele>
<time>2007-12-07T11:40:02.997Z</time>
</trkpt>
<trkpt lat="43.2813200" lon="-2.1685500">
<ele>2.072640</ele>
<time>2007-12-07T11:40:06.004Z</time>
</trkpt>
<trkpt lat="43.2815600" lon="-2.1684900">
<ele>2.529840</ele>
<time>2007-12-07T11:40:21.003Z</time>
</trkpt>
<trkpt lat="43.2818000" lon="-2.1684300">
<ele>2.529840</ele>
<time>2007-12-07T11:40:35.000Z</time>
</trkpt>
<trkpt lat="43.2820400" lon="-2.1683400">
<ele>3.017520</ele>
<time>2007-12-07T11:40:51.001Z</time>
</trkpt>
<trkpt lat="43.2822500" lon="-2.1683300">
<ele>3.017520</ele>
<time>2007-12-07T11:41:04.998Z</time>
</trkpt>
<trkpt lat="43.2824900" lon="-2.1683800">
<ele>3.505200</ele>
<time>2007-12-07T11:41:19.997Z</time>
</trkpt>
<trkpt lat="43.2828400" lon="-2.1683200">
<ele>3.505200</ele>
<time>2007-12-07T11:41:42.003Z</time>
</trkpt>
<trkpt lat="43.2831600" lon="-2.1682300">
<ele>2.529840</ele>
<time>2007-12-07T11:42:01.996Z</time>
</trkpt>
<trkpt lat="43.2832700" lon="-2.1680100">
<ele>2.529840</ele>
<time>2007-12-07T11:42:13.997Z</time>
</trkpt>
<trkpt lat="43.2834100" lon="-2.1681000">
<ele>1.584960</ele>
<time>2007-12-07T11:42:25.004Z</time>
</trkpt>
<trkpt lat="43.2836200" lon="-2.1681900">
<ele>1.584960</ele>
<time>2007-12-07T11:42:40.997Z</time>
</trkpt>
<trkpt lat="43.2838300" lon="-2.1681300">
<ele>-0.822960</ele>
<time>2007-12-07T11:42:55.996Z</time>
</trkpt>
<trkpt lat="43.2838300" lon="-2.1681300">
<ele>-1.310640</ele>
<time>2007-12-07T11:42:56.998Z</time>
</trkpt>
<trkpt lat="43.2838800" lon="-2.1681100">
<ele>-1.310640</ele>
<time>2007-12-07T11:43:02.001Z</time>
</trkpt>
<trkpt lat="43.2840100" lon="-2.1680200">
<ele>1.584960</ele>
<time>2007-12-07T11:43:14.002Z</time>
</trkpt>
<trkpt lat="43.2840300" lon="-2.1680100">
<ele>3.017520</ele>
<time>2007-12-07T11:43:18.002Z</time>
</trkpt>
<trkpt lat="43.2840600" lon="-2.1680200">
<ele>3.505200</ele>
<time>2007-12-07T11:43:33.001Z</time>
</trkpt>
<trkpt lat="43.2840600" lon="-2.1680500">
<ele>3.017520</ele>
<time>2007-12-07T11:43:39.999Z</time>
</trkpt>
<trkpt lat="43.2840900" lon="-2.1684590">
<ele>4.450080</ele>
<time>2007-12-07T11:44:00.001Z</time>
</trkpt>
<trkpt lat="43.2841300" lon="-2.1689400">
<ele>3.992880</ele>
<time>2007-12-07T11:44:21.998Z</time>
</trkpt>
<trkpt lat="43.2841800" lon="-2.1694200">
<ele>3.505200</ele>
<time>2007-12-07T11:44:43.002Z</time>
</trkpt>
<trkpt lat="43.2842200" lon="-2.1699000">
<ele>3.505200</ele>
<time>2007-12-07T11:45:05.000Z</time>
</trkpt>
<trkpt lat="43.2842600" lon="-2.1702700">
<ele>3.505200</ele>
<time>2007-12-07T11:45:22.003Z</time>
</trkpt>
<trkpt lat="43.2843200" lon="-2.1707300">
<ele>4.450080</ele>
<time>2007-12-07T11:45:42.998Z</time>
</trkpt>
<trkpt lat="43.2843500" lon="-2.1708200">
<ele>3.992880</ele>
<time>2007-12-07T11:46:00.002Z</time>
</trkpt>
<trkpt lat="43.2843600" lon="-2.1708800">
<ele>3.992880</ele>
<time>2007-12-07T11:46:20.997Z</time>
</trkpt>
<trkpt lat="43.2844200" lon="-2.1713200">
<ele>3.505200</ele>
<time>2007-12-07T11:46:40.999Z</time>
</trkpt>
<trkpt lat="43.2844200" lon="-2.1717100">
<ele>3.505200</ele>
<time>2007-12-07T11:46:59.998Z</time>
</trkpt>
<trkpt lat="43.2844400" lon="-2.1721300">
<ele>4.450080</ele>
<time>2007-12-07T11:47:18.997Z</time>
</trkpt>
<trkpt lat="43.2844500" lon="-2.1725200">
<ele>3.017520</ele>
<time>2007-12-07T11:47:37.003Z</time>
</trkpt>
<trkpt lat="43.2845000" lon="-2.1729300">
<ele>3.017520</ele>
<time>2007-12-07T11:47:53.998Z</time>
</trkpt>
<trkpt lat="43.2844900" lon="-2.1730400">
<ele>3.017520</ele>
<time>2007-12-07T11:47:57.998Z</time>
</trkpt>
</trkseg>
</trk>
<trk>
 <name>Iraupeneko Ibilaldia 2007-12-07-ona</name>
 <desc>ACTIVE LOG</desc>
<trkseg>
<trkpt lat="43.2844500" lon="-2.1730900">
<ele>8.839200</ele>
<time>2007-12-07T06:51:01.999Z</time>
</trkpt>
<trkpt lat="43.2844300" lon="-2.1731100">
<ele>9.144000</ele>
<time>2007-12-07T06:51:05.999Z</time>
</trkpt>
<trkpt lat="43.2843600" lon="-2.1734400">
<ele>8.839200</ele>
<time>2007-12-07T06:51:22.000Z</time>
</trkpt>
<trkpt lat="43.2843200" lon="-2.1737300">
<ele>8.839200</ele>
<time>2007-12-07T06:51:35.997Z</time>
</trkpt>
<trkpt lat="43.2843100" lon="-2.1738300">
<ele>8.229600</ele>
<time>2007-12-07T06:51:41.000Z</time>
</trkpt>
<trkpt lat="43.2842700" lon="-2.1741800">
<ele>8.839200</ele>
<time>2007-12-07T06:51:58.003Z</time>
</trkpt>
<trkpt lat="43.2842300" lon="-2.1743300">
<ele>8.229600</ele>
<time>2007-12-07T06:52:05.002Z</time>
</trkpt>
<trkpt lat="43.2842000" lon="-2.1744100">
<ele>8.839200</ele>
<time>2007-12-07T06:52:09.002Z</time>
</trkpt>
<trkpt lat="43.2841900" lon="-2.1744400">
<ele>8.229600</ele>
<time>2007-12-07T06:52:10.998Z</time>
</trkpt>
<trkpt lat="43.2841500" lon="-2.1744800">
<ele>8.229600</ele>
<time>2007-12-07T06:52:13.996Z</time>
</trkpt>
<trkpt lat="43.2841600" lon="-2.1746200">
<ele>8.229600</ele>
<time>2007-12-07T06:52:18.998Z</time>
</trkpt>
<trkpt lat="43.2841600" lon="-2.1747400">
<ele>8.229600</ele>
<time>2007-12-07T06:52:24.001Z</time>
</trkpt>
<trkpt lat="43.2842900" lon="-2.1751400">
<ele>8.839200</ele>
<time>2007-12-07T06:52:40.996Z</time>
</trkpt>
<trkpt lat="43.2842700" lon="-2.1754300">
<ele>8.839200</ele>
<time>2007-12-07T06:52:55.001Z</time>
</trkpt>
<trkpt lat="43.2842500" lon="-2.1756800">
<ele>8.839200</ele>
<time>2007-12-07T06:53:07.002Z</time>
</trkpt>
<trkpt lat="43.2841300" lon="-2.1758300">
<ele>9.144000</ele>
<time>2007-12-07T06:53:14.001Z</time>
</trkpt>
<trkpt lat="43.2844100" lon="-2.1761100">
<ele>9.753600</ele>
<time>2007-12-07T06:53:24.999Z</time>
</trkpt>
<trkpt lat="43.2844800" lon="-2.1763300">
<ele>9.144000</ele>
<time>2007-12-07T06:53:35.998Z</time>
</trkpt>
<trkpt lat="43.2844700" lon="-2.1764800">
<ele>9.753600</ele>
<time>2007-12-07T06:53:43.999Z</time>
</trkpt>
<trkpt lat="43.2845900" lon="-2.1765600">
<ele>9.753600</ele>
<time>2007-12-07T06:53:47.999Z</time>
</trkpt>
<trkpt lat="43.2847100" lon="-2.1767000">
<ele>9.753600</ele>
<time>2007-12-07T06:53:58.998Z</time>
</trkpt>
<trkpt lat="43.2848600" lon="-2.1766800">
<ele>10.363200</ele>
<time>2007-12-07T06:54:09.996Z</time>
</trkpt>
<trkpt lat="43.2851300" lon="-2.1767100">
<ele>10.668000</ele>
<time>2007-12-07T06:54:21.004Z</time>
</trkpt>
<trkpt lat="43.2853400" lon="-2.1768100">
<ele>10.668000</ele>
<time>2007-12-07T06:54:32.003Z</time>
</trkpt>
<trkpt lat="43.2854000" lon="-2.1768000">
<ele>10.668000</ele>
<time>2007-12-07T06:54:36.003Z</time>
</trkpt>
<trkpt lat="43.2854100" lon="-2.1769000">
<ele>11.277600</ele>
<time>2007-12-07T06:54:41.999Z</time>
</trkpt>
<trkpt lat="43.2854200" lon="-2.1769200">
<ele>11.277600</ele>
<time>2007-12-07T06:54:44.004Z</time>
</trkpt>
<trkpt lat="43.2854600" lon="-2.1769600">
<ele>11.277600</ele>
<time>2007-12-07T06:54:47.002Z</time>
</trkpt>
<trkpt lat="43.2854900" lon="-2.1770200">
<ele>11.277600</ele>
<time>2007-12-07T06:54:51.002Z</time>
</trkpt>
<trkpt lat="43.2855600" lon="-2.1770700">
<ele>11.582400</ele>
<time>2007-12-07T06:54:55.002Z</time>
</trkpt>
<trkpt lat="43.2855800" lon="-2.1771300">
<ele>11.582400</ele>
<time>2007-12-07T06:54:59.003Z</time>
</trkpt>
<trkpt lat="43.2856600" lon="-2.1772300">
<ele>11.582400</ele>
<time>2007-12-07T06:55:06.001Z</time>
</trkpt>
<trkpt lat="43.2857000" lon="-2.1773200">
<ele>12.192000</ele>
<time>2007-12-07T06:55:11.004Z</time>
</trkpt>
<trkpt lat="43.2857600" lon="-2.1774400">
<ele>13.106400</ele>
<time>2007-12-07T06:55:19.998Z</time>
</trkpt>
<trkpt lat="43.2856900" lon="-2.1775600">
<ele>14.630400</ele>
<time>2007-12-07T06:55:27.998Z</time>
</trkpt>
<trkpt lat="43.2854900" lon="-2.1776700">
<ele>16.154400</ele>
<time>2007-12-07T06:55:44.000Z</time>
</trkpt>
<trkpt lat="43.2854200" lon="-2.1778000">
<ele>16.459200</ele>
<time>2007-12-07T06:55:53.003Z</time>
</trkpt>
<trkpt lat="43.2851800" lon="-2.1779100">
<ele>19.812000</ele>
<time>2007-12-07T06:56:09.997Z</time>
</trkpt>
<trkpt lat="43.2850300" lon="-2.1780500">
<ele>22.860001</ele>
<time>2007-12-07T06:56:24.996Z</time>
</trkpt>
<trkpt lat="43.2849800" lon="-2.1782000">
<ele>26.212799</ele>
<time>2007-12-07T06:56:36.004Z</time>
</trkpt>
<trkpt lat="43.2849300" lon="-2.1782900">
<ele>28.651199</ele>
<time>2007-12-07T06:56:43.996Z</time>
</trkpt>
<trkpt lat="43.2848200" lon="-2.1784500">
<ele>32.004002</ele>
<time>2007-12-07T06:56:58.001Z</time>
</trkpt>
<trkpt lat="43.2847700" lon="-2.1785800">
<ele>35.661598</ele>
<time>2007-12-07T06:57:07.998Z</time>
</trkpt>
<trkpt lat="43.2847500" lon="-2.1787300">
<ele>39.014400</ele>
<time>2007-12-07T06:57:18.996Z</time>
</trkpt>
<trkpt lat="43.2847300" lon="-2.1788800">
<ele>42.062401</ele>
<time>2007-12-07T06:57:32.000Z</time>
</trkpt>
<trkpt lat="43.2847200" lon="-2.1790100">
<ele>45.415199</ele>
<time>2007-12-07T06:57:42.998Z</time>
</trkpt>
<trkpt lat="43.2847200" lon="-2.1791000">
<ele>46.329601</ele>
<time>2007-12-07T06:57:49.997Z</time>
</trkpt>
<trkpt lat="43.2847800" lon="-2.1791700">
<ele>48.158401</ele>
<time>2007-12-07T06:57:56.002Z</time>
</trkpt>
<trkpt lat="43.2848600" lon="-2.1792900">
<ele>51.511200</ele>
<time>2007-12-07T06:58:07.000Z</time>
</trkpt>
<trkpt lat="43.2849900" lon="-2.1794600">
<ele>55.473598</ele>
<time>2007-12-07T06:58:23.002Z</time>
</trkpt>
<trkpt lat="43.2850800" lon="-2.1795900">
<ele>58.216801</ele>
<time>2007-12-07T06:58:35.996Z</time>
</trkpt>
<trkpt lat="43.2851200" lon="-2.1797400">
<ele>61.569599</ele>
<time>2007-12-07T06:58:47.997Z</time>
</trkpt>
<trkpt lat="43.2851500" lon="-2.1798300">
<ele>64.008003</ele>
<time>2007-12-07T06:58:55.998Z</time>
</trkpt>
<trkpt lat="43.2851800" lon="-2.1799100">
<ele>66.141602</ele>
<time>2007-12-07T06:59:02.003Z</time>
</trkpt>
<trkpt lat="43.2852900" lon="-2.1801300">
<ele>69.494400</ele>
<time>2007-12-07T06:59:18.997Z</time>
</trkpt>
<trkpt lat="43.2853600" lon="-2.1803600">
<ele>72.237602</ele>
<time>2007-12-07T06:59:34.999Z</time>
</trkpt>
<trkpt lat="43.2853800" lon="-2.1804300">
<ele>73.761597</ele>
<time>2007-12-07T06:59:40.001Z</time>
</trkpt>
<trkpt lat="43.2854500" lon="-2.1806300">
<ele>76.504799</ele>
<time>2007-12-07T06:59:55.000Z</time>
</trkpt>
<trkpt lat="43.2854900" lon="-2.1807800">
<ele>79.857597</ele>
<time>2007-12-07T07:00:05.999Z</time>
</trkpt>
<trkpt lat="43.2855000" lon="-2.1808000">
<ele>80.467201</ele>
<time>2007-12-07T07:00:08.004Z</time>
</trkpt>
<trkpt lat="43.2856100" lon="-2.1809000">
<ele>83.210403</ele>
<time>2007-12-07T07:00:19.002Z</time>
</trkpt>
<trkpt lat="43.2856300" lon="-2.1809500">
<ele>84.734398</ele>
<time>2007-12-07T07:00:23.003Z</time>
</trkpt>
<trkpt lat="43.2857000" lon="-2.1810400">
<ele>87.782402</ele>
<time>2007-12-07T07:00:34.001Z</time>
</trkpt>
<trkpt lat="43.2858200" lon="-2.1811600">
<ele>91.135201</ele>
<time>2007-12-07T07:00:47.998Z</time>
</trkpt>
<trkpt lat="43.2859700" lon="-2.1813200">
<ele>93.878403</ele>
<time>2007-12-07T07:01:05.002Z</time>
</trkpt>
<trkpt lat="43.2860700" lon="-2.1814300">
<ele>96.621597</ele>
<time>2007-12-07T07:01:16.000Z</time>
</trkpt>
<trkpt lat="43.2862100" lon="-2.1815800">
<ele>100.279198</ele>
<time>2007-12-07T07:01:30.999Z</time>
</trkpt>
<trkpt lat="43.2863700" lon="-2.1817300">
<ele>103.632004</ele>
<time>2007-12-07T07:01:47.001Z</time>
</trkpt>
<trkpt lat="43.2866100" lon="-2.1819200">
<ele>105.460800</ele>
<time>2007-12-07T07:02:07.002Z</time>
</trkpt>
<trkpt lat="43.2867700" lon="-2.1820800">
<ele>107.899200</ele>
<time>2007-12-07T07:02:23.004Z</time>
</trkpt>
<trkpt lat="43.2869000" lon="-2.1821900">
<ele>111.251999</ele>
<time>2007-12-07T07:02:35.998Z</time>
</trkpt>
<trkpt lat="43.2870900" lon="-2.1823400">
<ele>114.604797</ele>
<time>2007-12-07T07:02:53.002Z</time>
</trkpt>
<trkpt lat="43.2872800" lon="-2.1824400">
<ele>116.128799</ele>
<time>2007-12-07T07:03:08.001Z</time>
</trkpt>
<trkpt lat="43.2874300" lon="-2.1825300">
<ele>118.872002</ele>
<time>2007-12-07T07:03:21.004Z</time>
</trkpt>
<trkpt lat="43.2876200" lon="-2.1824900">
<ele>121.615196</ele>
<time>2007-12-07T07:03:36.003Z</time>
</trkpt>
<trkpt lat="43.2878000" lon="-2.1824100">
<ele>124.663200</ele>
<time>2007-12-07T07:03:52.004Z</time>
</trkpt>
<trkpt lat="43.2880300" lon="-2.1823200">
<ele>127.101601</ele>
<time>2007-12-07T07:04:11.004Z</time>
</trkpt>
<trkpt lat="43.2882200" lon="-2.1822600">
<ele>128.625595</ele>
<time>2007-12-07T07:04:25.000Z</time>
</trkpt>
<trkpt lat="43.2884500" lon="-2.1822400">
<ele>130.454407</ele>
<time>2007-12-07T07:04:42.997Z</time>
</trkpt>
<trkpt lat="43.2886400" lon="-2.1823000">
<ele>133.807205</ele>
<time>2007-12-07T07:04:57.996Z</time>
</trkpt>
<trkpt lat="43.2887800" lon="-2.1823700">
<ele>136.550400</ele>
<time>2007-12-07T07:05:09.997Z</time>
</trkpt>
<trkpt lat="43.2889900" lon="-2.1826100">
<ele>139.903198</ele>
<time>2007-12-07T07:05:31.001Z</time>
</trkpt>
<trkpt lat="43.2891700" lon="-2.1828000">
<ele>143.255997</ele>
<time>2007-12-07T07:05:47.996Z</time>
</trkpt>
<trkpt lat="43.2893600" lon="-2.1830000">
<ele>146.608795</ele>
<time>2007-12-07T07:06:06.002Z</time>
</trkpt>
<trkpt lat="43.2894400" lon="-2.1830900">
<ele>149.047195</ele>
<time>2007-12-07T07:06:14.003Z</time>
</trkpt>
<trkpt lat="43.2894700" lon="-2.1831300">
<ele>148.742401</ele>
<time>2007-12-07T07:06:18.996Z</time>
</trkpt>
<trkpt lat="43.2895700" lon="-2.1831800">
<ele>150.266403</ele>
<time>2007-12-07T07:06:34.004Z</time>
</trkpt>
<trkpt lat="43.2897200" lon="-2.1832600">
<ele>153.619202</ele>
<time>2007-12-07T07:06:45.996Z</time>
</trkpt>
<trkpt lat="43.2897900" lon="-2.1833200">
<ele>154.838394</ele>
<time>2007-12-07T07:06:52.001Z</time>
</trkpt>
<trkpt lat="43.2898200" lon="-2.1834200">
<ele>155.752808</ele>
<time>2007-12-07T07:06:57.997Z</time>
</trkpt>
<trkpt lat="43.2898900" lon="-2.1837600">
<ele>159.105606</ele>
<time>2007-12-07T07:07:16.997Z</time>
</trkpt>
<trkpt lat="43.2899800" lon="-2.1841300">
<ele>162.153595</ele>
<time>2007-12-07T07:07:36.998Z</time>
</trkpt>
<trkpt lat="43.2900200" lon="-2.1844000">
<ele>164.896805</ele>
<time>2007-12-07T07:07:51.997Z</time>
</trkpt>
<trkpt lat="43.2901100" lon="-2.1846900">
<ele>167.335205</ele>
<time>2007-12-07T07:08:09.001Z</time>
</trkpt>
<trkpt lat="43.2902200" lon="-2.1850200">
<ele>170.688004</ele>
<time>2007-12-07T07:08:28.000Z</time>
</trkpt>
<trkpt lat="43.2903100" lon="-2.1852300">
<ele>173.735992</ele>
<time>2007-12-07T07:08:41.004Z</time>
</trkpt>
<trkpt lat="43.2904200" lon="-2.1854500">
<ele>177.088806</ele>
<time>2007-12-07T07:08:55.000Z</time>
</trkpt>
<trkpt lat="43.2904300" lon="-2.1858300">
<ele>178.003204</ele>
<time>2007-12-07T07:09:15.002Z</time>
</trkpt>
<trkpt lat="43.2903200" lon="-2.1862000">
<ele>178.003204</ele>
<time>2007-12-07T07:09:34.001Z</time>
</trkpt>
<trkpt lat="43.2901400" lon="-2.1865600">
<ele>178.917603</ele>
<time>2007-12-07T07:09:54.996Z</time>
</trkpt>
<trkpt lat="43.2899600" lon="-2.1868400">
<ele>178.917603</ele>
<time>2007-12-07T07:10:13.996Z</time>
</trkpt>
<trkpt lat="43.2899600" lon="-2.1868600">
<ele>178.917603</ele>
<time>2007-12-07T07:10:14.998Z</time>
</trkpt>
<trkpt lat="43.2898600" lon="-2.1871600">
<ele>179.832001</ele>
<time>2007-12-07T07:10:30.999Z</time>
</trkpt>
<trkpt lat="43.2897800" lon="-2.1876100">
<ele>180.441605</ele>
<time>2007-12-07T07:10:52.003Z</time>
</trkpt>
<trkpt lat="43.2896700" lon="-2.1880000">
<ele>178.612793</ele>
<time>2007-12-07T07:11:11.003Z</time>
</trkpt>
<trkpt lat="43.2895200" lon="-2.1882400">
<ele>177.088806</ele>
<time>2007-12-07T07:11:26.002Z</time>
</trkpt>
<trkpt lat="43.2895000" lon="-2.1882700">
<ele>176.479202</ele>
<time>2007-12-07T07:11:27.997Z</time>
</trkpt>
<trkpt lat="43.2894400" lon="-2.1883600">
<ele>177.393600</ele>
<time>2007-12-07T07:11:34.002Z</time>
</trkpt>
<trkpt lat="43.2894300" lon="-2.1887000">
<ele>178.612793</ele>
<time>2007-12-07T07:11:50.997Z</time>
</trkpt>
<trkpt lat="43.2894200" lon="-2.1891600">
<ele>178.917603</ele>
<time>2007-12-07T07:12:12.001Z</time>
</trkpt>
<trkpt lat="43.2894000" lon="-2.1894800">
<ele>178.612793</ele>
<time>2007-12-07T07:12:25.998Z</time>
</trkpt>
<trkpt lat="43.2894000" lon="-2.1899200">
<ele>178.917603</ele>
<time>2007-12-07T07:12:45.999Z</time>
</trkpt>
<trkpt lat="43.2894400" lon="-2.1903600">
<ele>180.441605</ele>
<time>2007-12-07T07:13:06.001Z</time>
</trkpt>
<trkpt lat="43.2894400" lon="-2.1907900">
<ele>180.441605</ele>
<time>2007-12-07T07:13:25.000Z</time>
</trkpt>
<trkpt lat="43.2894200" lon="-2.1908100">
<ele>180.746399</ele>
<time>2007-12-07T07:13:26.996Z</time>
</trkpt>
<trkpt lat="43.2893900" lon="-2.1907700">
<ele>181.356003</ele>
<time>2007-12-07T07:13:30.996Z</time>
</trkpt>
<trkpt lat="43.2893800" lon="-2.1907300">
<ele>182.270401</ele>
<time>2007-12-07T07:13:33.001Z</time>
</trkpt>
<trkpt lat="43.2893600" lon="-2.1905800">
<ele>184.099197</ele>
<time>2007-12-07T07:13:41.002Z</time>
</trkpt>
<trkpt lat="43.2892200" lon="-2.1903300">
<ele>187.147202</ele>
<time>2007-12-07T07:13:56.001Z</time>
</trkpt>
<trkpt lat="43.2890800" lon="-2.1901200">
<ele>190.500000</ele>
<time>2007-12-07T07:14:11.000Z</time>
</trkpt>
<trkpt lat="43.2889500" lon="-2.1899200">
<ele>193.852798</ele>
<time>2007-12-07T07:14:24.996Z</time>
</trkpt>
<trkpt lat="43.2888600" lon="-2.1898000">
<ele>196.595993</ele>
<time>2007-12-07T07:14:36.997Z</time>
</trkpt>
<trkpt lat="43.2888300" lon="-2.1897600">
<ele>197.205597</ele>
<time>2007-12-07T07:14:40.998Z</time>
</trkpt>
<trkpt lat="43.2888100" lon="-2.1897700">
<ele>198.119995</ele>
<time>2007-12-07T07:14:43.002Z</time>
</trkpt>
<trkpt lat="43.2887100" lon="-2.1899300">
<ele>201.472794</ele>
<time>2007-12-07T07:14:55.003Z</time>
</trkpt>
<trkpt lat="43.2887100" lon="-2.1899500">
<ele>201.472794</ele>
<time>2007-12-07T07:14:55.997Z</time>
</trkpt>
<trkpt lat="43.2886800" lon="-2.1901600">
<ele>204.825607</ele>
<time>2007-12-07T07:15:07.998Z</time>
</trkpt>
<trkpt lat="43.2886600" lon="-2.1903300">
<ele>207.873596</ele>
<time>2007-12-07T07:15:18.003Z</time>
</trkpt>
<trkpt lat="43.2886300" lon="-2.1905700">
<ele>211.226395</ele>
<time>2007-12-07T07:15:32.000Z</time>
</trkpt>
<trkpt lat="43.2885900" lon="-2.1907800">
<ele>213.969604</ele>
<time>2007-12-07T07:15:45.003Z</time>
</trkpt>
<trkpt lat="43.2885200" lon="-2.1909800">
<ele>217.322403</ele>
<time>2007-12-07T07:15:59.000Z</time>
</trkpt>
<trkpt lat="43.2884500" lon="-2.1911500">
<ele>220.675201</ele>
<time>2007-12-07T07:16:11.001Z</time>
</trkpt>
<trkpt lat="43.2884000" lon="-2.1915200">
<ele>223.113602</ele>
<time>2007-12-07T07:16:31.996Z</time>
</trkpt>
<trkpt lat="43.2884000" lon="-2.1919800">
<ele>224.028000</ele>
<time>2007-12-07T07:16:54.002Z</time>
</trkpt>
<trkpt lat="43.2883900" lon="-2.1924800">
<ele>222.808807</ele>
<time>2007-12-07T07:17:15.999Z</time>
</trkpt>
<trkpt lat="43.2883700" lon="-2.1929500">
<ele>223.113602</ele>
<time>2007-12-07T07:17:37.997Z</time>
</trkpt>
<trkpt lat="43.2883900" lon="-2.1932900">
<ele>226.161606</ele>
<time>2007-12-07T07:17:55.000Z</time>
</trkpt>
<trkpt lat="43.2884400" lon="-2.1935900">
<ele>229.514404</ele>
<time>2007-12-07T07:18:11.002Z</time>
</trkpt>
<trkpt lat="43.2885300" lon="-2.1940900">
<ele>227.076004</ele>
<time>2007-12-07T07:18:34.001Z</time>
</trkpt>
<trkpt lat="43.2886400" lon="-2.1944100">
<ele>228.600006</ele>
<time>2007-12-07T07:18:50.996Z</time>
</trkpt>
<trkpt lat="43.2886700" lon="-2.1946200">
<ele>231.952805</ele>
<time>2007-12-07T07:19:02.997Z</time>
</trkpt>
<trkpt lat="43.2886900" lon="-2.1947300">
<ele>234.086395</ele>
<time>2007-12-07T07:19:10.004Z</time>
</trkpt>
<trkpt lat="43.2887300" lon="-2.1949100">
<ele>237.134399</ele>
<time>2007-12-07T07:19:21.003Z</time>
</trkpt>
<trkpt lat="43.2887700" lon="-2.1950500">
<ele>240.487198</ele>
<time>2007-12-07T07:19:30.999Z</time>
</trkpt>
<trkpt lat="43.2888200" lon="-2.1952300">
<ele>243.230392</ele>
<time>2007-12-07T07:19:43.000Z</time>
</trkpt>
<trkpt lat="43.2889000" lon="-2.1955500">
<ele>246.583206</ele>
<time>2007-12-07T07:20:00.997Z</time>
</trkpt>
<trkpt lat="43.2889800" lon="-2.1959700">
<ele>248.107193</ele>
<time>2007-12-07T07:20:22.001Z</time>
</trkpt>
<trkpt lat="43.2890700" lon="-2.1963600">
<ele>250.545593</ele>
<time>2007-12-07T07:20:42.003Z</time>
</trkpt>
<trkpt lat="43.2892200" lon="-2.1968300">
<ele>250.545593</ele>
<time>2007-12-07T07:21:05.996Z</time>
</trkpt>
<trkpt lat="43.2893600" lon="-2.1972700">
<ele>248.716797</ele>
<time>2007-12-07T07:21:28.002Z</time>
</trkpt>
<trkpt lat="43.2894800" lon="-2.1976900">
<ele>249.631195</ele>
<time>2007-12-07T07:21:48.997Z</time>
</trkpt>
<trkpt lat="43.2894800" lon="-2.1979900">
<ele>252.983994</ele>
<time>2007-12-07T07:22:04.999Z</time>
</trkpt>
<trkpt lat="43.2894900" lon="-2.1981800">
<ele>256.946411</ele>
<time>2007-12-07T07:22:15.997Z</time>
</trkpt>
<trkpt lat="43.2894900" lon="-2.1982000">
<ele>256.946411</ele>
<time>2007-12-07T07:22:17.000Z</time>
</trkpt>
<trkpt lat="43.2895000" lon="-2.1984500">
<ele>260.299194</ele>
<time>2007-12-07T07:22:31.999Z</time>
</trkpt>
<trkpt lat="43.2895100" lon="-2.1986700">
<ele>263.042389</ele>
<time>2007-12-07T07:22:45.002Z</time>
</trkpt>
<trkpt lat="43.2895200" lon="-2.1987500">
<ele>264.566406</ele>
<time>2007-12-07T07:22:49.996Z</time>
</trkpt>
<trkpt lat="43.2895600" lon="-2.1990300">
<ele>267.919189</ele>
<time>2007-12-07T07:23:05.997Z</time>
</trkpt>
<trkpt lat="43.2896800" lon="-2.1993600">
<ele>269.443207</ele>
<time>2007-12-07T07:23:24.996Z</time>
</trkpt>
<trkpt lat="43.2897700" lon="-2.1997900">
<ele>267.919189</ele>
<time>2007-12-07T07:23:46.000Z</time>
</trkpt>
<trkpt lat="43.2898800" lon="-2.2002400">
<ele>266.395203</ele>
<time>2007-12-07T07:24:07.998Z</time>
</trkpt>
<trkpt lat="43.2899700" lon="-2.2005900">
<ele>263.956787</ele>
<time>2007-12-07T07:24:25.001Z</time>
</trkpt>
<trkpt lat="43.2900200" lon="-2.2007900">
<ele>262.127991</ele>
<time>2007-12-07T07:24:34.998Z</time>
</trkpt>
<trkpt lat="43.2901400" lon="-2.2010800">
<ele>258.775208</ele>
<time>2007-12-07T07:24:49.997Z</time>
</trkpt>
<trkpt lat="43.2902100" lon="-2.2013000">
<ele>255.727203</ele>
<time>2007-12-07T07:25:01.004Z</time>
</trkpt>
<trkpt lat="43.2903200" lon="-2.2015700">
<ele>252.374405</ele>
<time>2007-12-07T07:25:15.001Z</time>
</trkpt>
<trkpt lat="43.2904100" lon="-2.2017800">
<ele>249.021606</ele>
<time>2007-12-07T07:25:26.000Z</time>
</trkpt>
<trkpt lat="43.2905300" lon="-2.2021800">
<ele>246.278397</ele>
<time>2007-12-07T07:25:46.001Z</time>
</trkpt>
<trkpt lat="43.2905500" lon="-2.2023200">
<ele>245.363998</ele>
<time>2007-12-07T07:25:54.002Z</time>
</trkpt>
<trkpt lat="43.2905000" lon="-2.2023300">
<ele>242.925598</ele>
<time>2007-12-07T07:25:58.002Z</time>
</trkpt>
<trkpt lat="43.2904800" lon="-2.2023200">
<ele>242.925598</ele>
<time>2007-12-07T07:25:58.996Z</time>
</trkpt>
<trkpt lat="43.2902900" lon="-2.2022000">
<ele>243.839996</ele>
<time>2007-12-07T07:26:14.004Z</time>
</trkpt>
<trkpt lat="43.2902500" lon="-2.2021700">
<ele>244.449600</ele>
<time>2007-12-07T07:26:28.000Z</time>
</trkpt>
<trkpt lat="43.2902000" lon="-2.2022100">
<ele>241.096802</ele>
<time>2007-12-07T07:26:56.996Z</time>
</trkpt>
<trkpt lat="43.2900800" lon="-2.2022200">
<ele>237.744003</ele>
<time>2007-12-07T07:27:11.002Z</time>
</trkpt>
<trkpt lat="43.2900200" lon="-2.2022100">
<ele>235.610397</ele>
<time>2007-12-07T07:27:19.002Z</time>
</trkpt>
<trkpt lat="43.2898600" lon="-2.2022300">
<ele>232.867203</ele>
<time>2007-12-07T07:27:34.001Z</time>
</trkpt>
<trkpt lat="43.2897500" lon="-2.2022500">
<ele>230.428802</ele>
<time>2007-12-07T07:27:45.000Z</time>
</trkpt>
<trkpt lat="43.2897300" lon="-2.2022700">
<ele>229.514404</ele>
<time>2007-12-07T07:27:46.996Z</time>
</trkpt>
<trkpt lat="43.2896000" lon="-2.2023100">
<ele>226.161606</ele>
<time>2007-12-07T07:27:58.997Z</time>
</trkpt>
<trkpt lat="43.2895700" lon="-2.2023300">
<ele>224.637604</ele>
<time>2007-12-07T07:28:02.997Z</time>
</trkpt>
<trkpt lat="43.2894900" lon="-2.2024400">
<ele>221.284805</ele>
<time>2007-12-07T07:28:13.996Z</time>
</trkpt>
<trkpt lat="43.2894400" lon="-2.2025100">
<ele>220.675201</ele>
<time>2007-12-07T07:28:20.001Z</time>
</trkpt>
<trkpt lat="43.2894100" lon="-2.2026400">
<ele>217.932007</ele>
<time>2007-12-07T07:28:33.997Z</time>
</trkpt>
<trkpt lat="43.2894000" lon="-2.2027400">
<ele>217.322403</ele>
<time>2007-12-07T07:28:47.001Z</time>
</trkpt>
<trkpt lat="43.2893900" lon="-2.2027600">
<ele>217.322403</ele>
<time>2007-12-07T07:28:48.996Z</time>
</trkpt>
<trkpt lat="43.2893500" lon="-2.2028800">
<ele>214.884003</ele>
<time>2007-12-07T07:29:00.997Z</time>
</trkpt>
<trkpt lat="43.2893500" lon="-2.2029700">
<ele>213.055206</ele>
<time>2007-12-07T07:29:12.998Z</time>
</trkpt>
<trkpt lat="43.2893300" lon="-2.2031200">
<ele>211.531204</ele>
<time>2007-12-07T07:29:23.997Z</time>
</trkpt>
<trkpt lat="43.2893100" lon="-2.2031600">
<ele>211.226395</ele>
<time>2007-12-07T07:29:26.002Z</time>
</trkpt>
<trkpt lat="43.2892400" lon="-2.2032300">
<ele>209.092804</ele>
<time>2007-12-07T07:29:31.998Z</time>
</trkpt>
<trkpt lat="43.2891700" lon="-2.2033200">
<ele>206.349594</ele>
<time>2007-12-07T07:29:43.999Z</time>
</trkpt>
<trkpt lat="43.2891000" lon="-2.2033800">
<ele>204.520798</ele>
<time>2007-12-07T07:29:50.997Z</time>
</trkpt>
<trkpt lat="43.2890400" lon="-2.2034000">
<ele>203.606400</ele>
<time>2007-12-07T07:29:54.997Z</time>
</trkpt>
<trkpt lat="43.2890200" lon="-2.2034200">
<ele>203.606400</ele>
<time>2007-12-07T07:29:57.002Z</time>
</trkpt>
<trkpt lat="43.2888400" lon="-2.2035200">
<ele>200.253601</ele>
<time>2007-12-07T07:30:13.997Z</time>
</trkpt>
<trkpt lat="43.2886600" lon="-2.2036100">
<ele>196.595993</ele>
<time>2007-12-07T07:30:31.000Z</time>
</trkpt>
<trkpt lat="43.2885700" lon="-2.2036400">
<ele>194.767197</ele>
<time>2007-12-07T07:30:40.003Z</time>
</trkpt>
<trkpt lat="43.2883300" lon="-2.2036300">
<ele>192.328796</ele>
<time>2007-12-07T07:30:59.996Z</time>
</trkpt>
<trkpt lat="43.2882000" lon="-2.2036300">
<ele>192.024002</ele>
<time>2007-12-07T07:31:11.997Z</time>
</trkpt>
<trkpt lat="43.2881300" lon="-2.2036600">
<ele>191.414398</ele>
<time>2007-12-07T07:31:19.004Z</time>
</trkpt>
<trkpt lat="43.2880200" lon="-2.2036800">
<ele>189.890396</ele>
<time>2007-12-07T07:31:26.996Z</time>
</trkpt>
<trkpt lat="43.2879800" lon="-2.2037300">
<ele>188.671204</ele>
<time>2007-12-07T07:31:30.996Z</time>
</trkpt>
<trkpt lat="43.2879000" lon="-2.2038800">
<ele>185.318405</ele>
<time>2007-12-07T07:31:41.002Z</time>
</trkpt>
<trkpt lat="43.2877600" lon="-2.2040000">
<ele>184.099197</ele>
<time>2007-12-07T07:31:52.000Z</time>
</trkpt>
<trkpt lat="43.2875200" lon="-2.2040500">
<ele>182.880005</ele>
<time>2007-12-07T07:32:09.004Z</time>
</trkpt>
<trkpt lat="43.2873500" lon="-2.2041400">
<ele>180.746399</ele>
<time>2007-12-07T07:32:23.001Z</time>
</trkpt>
<trkpt lat="43.2872900" lon="-2.2041900">
<ele>180.441605</ele>
<time>2007-12-07T07:32:28.997Z</time>
</trkpt>
<trkpt lat="43.2871900" lon="-2.2044400">
<ele>177.393600</ele>
<time>2007-12-07T07:32:44.998Z</time>
</trkpt>
<trkpt lat="43.2871600" lon="-2.2046300">
<ele>176.174393</ele>
<time>2007-12-07T07:32:55.003Z</time>
</trkpt>
<trkpt lat="43.2871400" lon="-2.2048400">
<ele>172.821594</ele>
<time>2007-12-07T07:33:07.004Z</time>
</trkpt>
<trkpt lat="43.2871000" lon="-2.2050100">
<ele>171.297607</ele>
<time>2007-12-07T07:33:15.998Z</time>
</trkpt>
<trkpt lat="43.2870400" lon="-2.2053100">
<ele>167.335205</ele>
<time>2007-12-07T07:33:32.000Z</time>
</trkpt>
<trkpt lat="43.2869600" lon="-2.2055700">
<ele>164.591995</ele>
<time>2007-12-07T07:33:45.996Z</time>
</trkpt>
<trkpt lat="43.2869500" lon="-2.2055900">
<ele>163.982407</ele>
<time>2007-12-07T07:33:46.999Z</time>
</trkpt>
<trkpt lat="43.2868500" lon="-2.2058500">
<ele>163.067993</ele>
<time>2007-12-07T07:34:03.000Z</time>
</trkpt>
<trkpt lat="43.2868200" lon="-2.2059400">
<ele>162.763199</ele>
<time>2007-12-07T07:34:08.003Z</time>
</trkpt>
<trkpt lat="43.2866700" lon="-2.2062400">
<ele>161.239197</ele>
<time>2007-12-07T07:34:24.997Z</time>
</trkpt>
<trkpt lat="43.2865500" lon="-2.2064800">
<ele>159.715195</ele>
<time>2007-12-07T07:34:39.003Z</time>
</trkpt>
<trkpt lat="43.2864400" lon="-2.2064500">
<ele>159.715195</ele>
<time>2007-12-07T07:34:46.001Z</time>
</trkpt>
<trkpt lat="43.2861800" lon="-2.2065000">
<ele>156.362396</ele>
<time>2007-12-07T07:35:02.996Z</time>
</trkpt>
<trkpt lat="43.2859200" lon="-2.2066800">
<ele>154.838394</ele>
<time>2007-12-07T07:35:18.997Z</time>
</trkpt>
<trkpt lat="43.2856100" lon="-2.2069200">
<ele>153.619202</ele>
<time>2007-12-07T07:35:38.999Z</time>
</trkpt>
<trkpt lat="43.2852900" lon="-2.2071600">
<ele>151.485596</ele>
<time>2007-12-07T07:36:00.003Z</time>
</trkpt>
<trkpt lat="43.2849500" lon="-2.2074800">
<ele>150.266403</ele>
<time>2007-12-07T07:36:23.996Z</time>
</trkpt>
<trkpt lat="43.2847100" lon="-2.2078700">
<ele>150.266403</ele>
<time>2007-12-07T07:36:46.002Z</time>
</trkpt>
<trkpt lat="43.2845000" lon="-2.2082000">
<ele>149.047195</ele>
<time>2007-12-07T07:37:05.002Z</time>
</trkpt>
<trkpt lat="43.2842400" lon="-2.2085000">
<ele>148.742401</ele>
<time>2007-12-07T07:37:25.003Z</time>
</trkpt>
<trkpt lat="43.2838300" lon="-2.2086000">
<ele>146.304001</ele>
<time>2007-12-07T07:37:51.001Z</time>
</trkpt>
<trkpt lat="43.2835300" lon="-2.2085100">
<ele>146.304001</ele>
<time>2007-12-07T07:38:10.000Z</time>
</trkpt>
<trkpt lat="43.2831600" lon="-2.2083700">
<ele>143.255997</ele>
<time>2007-12-07T07:38:31.998Z</time>
</trkpt>
<trkpt lat="43.2828000" lon="-2.2083000">
<ele>142.951202</ele>
<time>2007-12-07T07:38:53.002Z</time>
</trkpt>
<trkpt lat="43.2825000" lon="-2.2084600">
<ele>142.341599</ele>
<time>2007-12-07T07:39:13.003Z</time>
</trkpt>
<trkpt lat="43.2821100" lon="-2.2087800">
<ele>141.427200</ele>
<time>2007-12-07T07:39:40.003Z</time>
</trkpt>
<trkpt lat="43.2817300" lon="-2.2091200">
<ele>140.512802</ele>
<time>2007-12-07T07:40:07.997Z</time>
</trkpt>
<trkpt lat="43.2814600" lon="-2.2093700">
<ele>139.903198</ele>
<time>2007-12-07T07:40:27.998Z</time>
</trkpt>
<trkpt lat="43.2813400" lon="-2.2094800">
<ele>139.903198</ele>
<time>2007-12-07T07:40:37.001Z</time>
</trkpt>
<trkpt lat="43.2810900" lon="-2.2095800">
<ele>140.512802</ele>
<time>2007-12-07T07:40:53.996Z</time>
</trkpt>
<trkpt lat="43.2808220" lon="-2.2098600">
<ele>142.951202</ele>
<time>2007-12-07T07:41:16.002Z</time>
</trkpt>
<trkpt lat="43.2805700" lon="-2.2102200">
<ele>144.779999</ele>
<time>2007-12-07T07:41:40.004Z</time>
</trkpt>
<trkpt lat="43.2803800" lon="-2.2104200">
<ele>146.608795</ele>
<time>2007-12-07T07:41:55.997Z</time>
</trkpt>
<trkpt lat="43.2801300" lon="-2.2106700">
<ele>148.132797</ele>
<time>2007-12-07T07:42:17.001Z</time>
</trkpt>
<trkpt lat="43.2798500" lon="-2.2109600">
<ele>150.266403</ele>
<time>2007-12-07T07:42:40.000Z</time>
</trkpt>
<trkpt lat="43.2795500" lon="-2.2112000">
<ele>153.619202</ele>
<time>2007-12-07T07:43:03.000Z</time>
</trkpt>
<trkpt lat="43.2793000" lon="-2.2112200">
<ele>156.362396</ele>
<time>2007-12-07T07:43:20.997Z</time>
</trkpt>
<trkpt lat="43.2789900" lon="-2.2111800">
<ele>159.105606</ele>
<time>2007-12-07T07:43:43.003Z</time>
</trkpt>
<trkpt lat="43.2786500" lon="-2.2113100">
<ele>161.544006</ele>
<time>2007-12-07T07:44:06.996Z</time>
</trkpt>
<trkpt lat="43.2784100" lon="-2.2115400">
<ele>164.896805</ele>
<time>2007-12-07T07:44:26.998Z</time>
</trkpt>
<trkpt lat="43.2781000" lon="-2.2117000">
<ele>167.944794</ele>
<time>2007-12-07T07:44:49.998Z</time>
</trkpt>
<trkpt lat="43.2778700" lon="-2.2116700">
<ele>171.297607</ele>
<time>2007-12-07T07:45:05.999Z</time>
</trkpt>
<trkpt lat="43.2776300" lon="-2.2115100">
<ele>174.650406</ele>
<time>2007-12-07T07:45:24.998Z</time>
</trkpt>
<trkpt lat="43.2774100" lon="-2.2113900">
<ele>177.393600</ele>
<time>2007-12-07T07:45:42.002Z</time>
</trkpt>
<trkpt lat="43.2772600" lon="-2.2111000">
<ele>179.527206</ele>
<time>2007-12-07T07:46:01.001Z</time>
</trkpt>
<trkpt lat="43.2770600" lon="-2.2111800">
<ele>180.441605</ele>
<time>2007-12-07T07:46:16.000Z</time>
</trkpt>
<trkpt lat="43.2770200" lon="-2.2113500">
<ele>181.965607</ele>
<time>2007-12-07T07:46:26.999Z</time>
</trkpt>
<trkpt lat="43.2769700" lon="-2.2113900">
<ele>182.880005</ele>
<time>2007-12-07T07:46:30.999Z</time>
</trkpt>
<trkpt lat="43.2769300" lon="-2.2114000">
<ele>183.184799</ele>
<time>2007-12-07T07:46:33.997Z</time>
</trkpt>
<trkpt lat="43.2768300" lon="-2.2114300">
<ele>185.623199</ele>
<time>2007-12-07T07:46:41.998Z</time>
</trkpt>
<trkpt lat="43.2766100" lon="-2.2114300">
<ele>188.975998</ele>
<time>2007-12-07T07:46:57.999Z</time>
</trkpt>
<trkpt lat="43.2763800" lon="-2.2113800">
<ele>192.024002</ele>
<time>2007-12-07T07:47:15.003Z</time>
</trkpt>
<trkpt lat="43.2761400" lon="-2.2113000">
<ele>195.376801</ele>
<time>2007-12-07T07:47:31.998Z</time>
</trkpt>
<trkpt lat="43.2760200" lon="-2.2112600">
<ele>197.205597</ele>
<time>2007-12-07T07:47:39.998Z</time>
</trkpt>
<trkpt lat="43.2757600" lon="-2.2110900">
<ele>199.643997</ele>
<time>2007-12-07T07:48:00.000Z</time>
</trkpt>
<trkpt lat="43.2754000" lon="-2.2108700">
<ele>199.034393</ele>
<time>2007-12-07T07:48:25.004Z</time>
</trkpt>
<trkpt lat="43.2750200" lon="-2.2107700">
<ele>199.643997</ele>
<time>2007-12-07T07:48:48.997Z</time>
</trkpt>
<trkpt lat="43.2747400" lon="-2.2105700">
<ele>196.595993</ele>
<time>2007-12-07T07:49:08.999Z</time>
</trkpt>
<trkpt lat="43.2745800" lon="-2.2101500">
<ele>198.119995</ele>
<time>2007-12-07T07:49:30.003Z</time>
</trkpt>
<trkpt lat="43.2743500" lon="-2.2095800">
<ele>200.253601</ele>
<time>2007-12-07T07:50:00.001Z</time>
</trkpt>
<trkpt lat="43.2742400" lon="-2.2094400">
<ele>200.558395</ele>
<time>2007-12-07T07:50:09.997Z</time>
</trkpt>
<trkpt lat="43.2740100" lon="-2.2092500">
<ele>203.911194</ele>
<time>2007-12-07T07:50:27.001Z</time>
</trkpt>
<trkpt lat="43.2737000" lon="-2.2089900">
<ele>207.264008</ele>
<time>2007-12-07T07:50:50.001Z</time>
</trkpt>
<trkpt lat="43.2736200" lon="-2.2089200">
<ele>208.178406</ele>
<time>2007-12-07T07:50:55.997Z</time>
</trkpt>
<trkpt lat="43.2733600" lon="-2.2086600">
<ele>211.531204</ele>
<time>2007-12-07T07:51:17.001Z</time>
</trkpt>
<trkpt lat="43.2732400" lon="-2.2082900">
<ele>214.579193</ele>
<time>2007-12-07T07:51:36.000Z</time>
</trkpt>
<trkpt lat="43.2731400" lon="-2.2077000">
<ele>217.017593</ele>
<time>2007-12-07T07:52:04.002Z</time>
</trkpt>
<trkpt lat="43.2730600" lon="-2.2072100">
<ele>220.370407</ele>
<time>2007-12-07T07:52:28.004Z</time>
</trkpt>
<trkpt lat="43.2728600" lon="-2.2069400">
<ele>220.675201</ele>
<time>2007-12-07T07:52:47.004Z</time>
</trkpt>
<trkpt lat="43.2727100" lon="-2.2068600">
<ele>220.675201</ele>
<time>2007-12-07T07:53:02.996Z</time>
</trkpt>
<trkpt lat="43.2727100" lon="-2.2068700">
<ele>220.675201</ele>
<time>2007-12-07T07:53:33.996Z</time>
</trkpt>
<trkpt lat="43.2724100" lon="-2.2069300">
<ele>223.113602</ele>
<time>2007-12-07T07:53:56.003Z</time>
</trkpt>
<trkpt lat="43.2721100" lon="-2.2068600">
<ele>226.466400</ele>
<time>2007-12-07T07:54:16.004Z</time>
</trkpt>
<trkpt lat="43.2718000" lon="-2.2067500">
<ele>228.600006</ele>
<time>2007-12-07T07:54:38.002Z</time>
</trkpt>
<trkpt lat="43.2716200" lon="-2.2067200">
<ele>231.343201</ele>
<time>2007-12-07T07:54:50.996Z</time>
</trkpt>
<trkpt lat="43.2714000" lon="-2.2067700">
<ele>234.695999</ele>
<time>2007-12-07T07:55:08.000Z</time>
</trkpt>
<trkpt lat="43.2712700" lon="-2.2067700">
<ele>237.744003</ele>
<time>2007-12-07T07:55:18.998Z</time>
</trkpt>
<trkpt lat="43.2710600" lon="-2.2067400">
<ele>241.096802</ele>
<time>2007-12-07T07:55:36.002Z</time>
</trkpt>
<trkpt lat="43.2708500" lon="-2.2066700">
<ele>244.449600</ele>
<time>2007-12-07T07:55:52.003Z</time>
</trkpt>
<trkpt lat="43.2706000" lon="-2.2066100">
<ele>245.668793</ele>
<time>2007-12-07T07:56:11.003Z</time>
</trkpt>
<trkpt lat="43.2704500" lon="-2.2066000">
<ele>249.021606</ele>
<time>2007-12-07T07:56:23.997Z</time>
</trkpt>
<trkpt lat="43.2702600" lon="-2.2065700">
<ele>252.069595</ele>
<time>2007-12-07T07:56:38.996Z</time>
</trkpt>
<trkpt lat="43.2699900" lon="-2.2065500">
<ele>254.507996</ele>
<time>2007-12-07T07:56:58.998Z</time>
</trkpt>
<trkpt lat="43.2699100" lon="-2.2065600">
<ele>255.727203</ele>
<time>2007-12-07T07:57:05.003Z</time>
</trkpt>
<trkpt lat="43.2697400" lon="-2.2065500">
<ele>259.689606</ele>
<time>2007-12-07T07:57:20.002Z</time>
</trkpt>
<trkpt lat="43.2695900" lon="-2.2065700">
<ele>262.737610</ele>
<time>2007-12-07T07:57:33.998Z</time>
</trkpt>
<trkpt lat="43.2694900" lon="-2.2065400">
<ele>266.090393</ele>
<time>2007-12-07T07:57:44.004Z</time>
</trkpt>
<trkpt lat="43.2693700" lon="-2.2064800">
<ele>269.443207</ele>
<time>2007-12-07T07:57:56.998Z</time>
</trkpt>
<trkpt lat="43.2693500" lon="-2.2064800">
<ele>269.747986</ele>
<time>2007-12-07T07:57:59.996Z</time>
</trkpt>
<trkpt lat="43.2693200" lon="-2.2064800">
<ele>270.662415</ele>
<time>2007-12-07T07:58:02.001Z</time>
</trkpt>
<trkpt lat="43.2693100" lon="-2.2064900">
<ele>270.357605</ele>
<time>2007-12-07T07:58:03.996Z</time>
</trkpt>
<trkpt lat="43.2692900" lon="-2.2065000">
<ele>271.272003</ele>
<time>2007-12-07T07:58:06.001Z</time>
</trkpt>
<trkpt lat="43.2691700" lon="-2.2068900">
<ele>272.795990</ele>
<time>2007-12-07T07:58:26.996Z</time>
</trkpt>
<trkpt lat="43.2690300" lon="-2.2071500">
<ele>272.795990</ele>
<time>2007-12-07T07:58:42.997Z</time>
</trkpt>
<trkpt lat="43.2688500" lon="-2.2074500">
<ele>276.148804</ele>
<time>2007-12-07T07:59:02.999Z</time>
</trkpt>
<trkpt lat="43.2686800" lon="-2.2077300">
<ele>276.148804</ele>
<time>2007-12-07T07:59:20.996Z</time>
</trkpt>
<trkpt lat="43.2684000" lon="-2.2079300">
<ele>278.891998</ele>
<time>2007-12-07T07:59:42.000Z</time>
</trkpt>
<trkpt lat="43.2681300" lon="-2.2079300">
<ele>281.330414</ele>
<time>2007-12-07T08:00:00.999Z</time>
</trkpt>
<trkpt lat="43.2678800" lon="-2.2079100">
<ele>284.683197</ele>
<time>2007-12-07T08:00:18.003Z</time>
</trkpt>
<trkpt lat="43.2677200" lon="-2.2078900">
<ele>288.036011</ele>
<time>2007-12-07T08:00:30.004Z</time>
</trkpt>
<trkpt lat="43.2675400" lon="-2.2079000">
<ele>291.388794</ele>
<time>2007-12-07T08:00:42.998Z</time>
</trkpt>
<trkpt lat="43.2672200" lon="-2.2079800">
<ele>293.827209</ele>
<time>2007-12-07T08:01:04.996Z</time>
</trkpt>
<trkpt lat="43.2669100" lon="-2.2080700">
<ele>296.570404</ele>
<time>2007-12-07T08:01:28.004Z</time>
</trkpt>
<trkpt lat="43.2666200" lon="-2.2081700">
<ele>299.008789</ele>
<time>2007-12-07T08:01:47.997Z</time>
</trkpt>
<trkpt lat="43.2664200" lon="-2.2082200">
<ele>299.618408</ele>
<time>2007-12-07T08:02:02.003Z</time>
</trkpt>
<trkpt lat="43.2661200" lon="-2.2083000">
<ele>298.704010</ele>
<time>2007-12-07T08:02:22.004Z</time>
</trkpt>
<trkpt lat="43.2658600" lon="-2.2084000">
<ele>299.618408</ele>
<time>2007-12-07T08:02:41.004Z</time>
</trkpt>
<trkpt lat="43.2655700" lon="-2.2086700">
<ele>300.532806</ele>
<time>2007-12-07T08:03:04.997Z</time>
</trkpt>
<trkpt lat="43.2654400" lon="-2.2088800">
<ele>302.361603</ele>
<time>2007-12-07T08:03:19.996Z</time>
</trkpt>
<trkpt lat="43.2652700" lon="-2.2091900">
<ele>305.409607</ele>
<time>2007-12-07T08:03:39.997Z</time>
</trkpt>
<trkpt lat="43.2652300" lon="-2.2092700">
<ele>307.238403</ele>
<time>2007-12-07T08:03:45.000Z</time>
</trkpt>
<trkpt lat="43.2651300" lon="-2.2094600">
<ele>310.591187</ele>
<time>2007-12-07T08:03:57.001Z</time>
</trkpt>
<trkpt lat="43.2650300" lon="-2.2096700">
<ele>313.944000</ele>
<time>2007-12-07T08:04:10.004Z</time>
</trkpt>
<trkpt lat="43.2649500" lon="-2.2098400">
<ele>316.077606</ele>
<time>2007-12-07T08:04:20.001Z</time>
</trkpt>
<trkpt lat="43.2648400" lon="-2.2099800">
<ele>317.906403</ele>
<time>2007-12-07T08:04:30.999Z</time>
</trkpt>
<trkpt lat="43.2646300" lon="-2.2101100">
<ele>319.735199</ele>
<time>2007-12-07T08:04:47.001Z</time>
</trkpt>
<trkpt lat="43.2643700" lon="-2.2103400">
<ele>321.259186</ele>
<time>2007-12-07T08:05:07.996Z</time>
</trkpt>
<trkpt lat="43.2641000" lon="-2.2107700">
<ele>324.612000</ele>
<time>2007-12-07T08:05:34.996Z</time>
</trkpt>
<trkpt lat="43.2640700" lon="-2.2108100">
<ele>326.135986</ele>
<time>2007-12-07T08:05:38.003Z</time>
</trkpt>
<trkpt lat="43.2640300" lon="-2.2108900">
<ele>323.697601</ele>
<time>2007-12-07T08:05:42.003Z</time>
</trkpt>
<trkpt lat="43.2638400" lon="-2.2111700">
<ele>327.050415</ele>
<time>2007-12-07T08:06:01.996Z</time>
</trkpt>
<trkpt lat="43.2638100" lon="-2.2112100">
<ele>327.964813</ele>
<time>2007-12-07T08:06:05.003Z</time>
</trkpt>
<trkpt lat="43.2637900" lon="-2.2112600">
<ele>326.440796</ele>
<time>2007-12-07T08:06:08.001Z</time>
</trkpt>
<trkpt lat="43.2637500" lon="-2.2113200">
<ele>327.964813</ele>
<time>2007-12-07T08:06:13.003Z</time>
</trkpt>
<trkpt lat="43.2636800" lon="-2.2114300">
<ele>329.793610</ele>
<time>2007-12-07T08:06:21.004Z</time>
</trkpt>
<trkpt lat="43.2634800" lon="-2.2117300">
<ele>332.841614</ele>
<time>2007-12-07T08:06:41.999Z</time>
</trkpt>
<trkpt lat="43.2633700" lon="-2.2118800">
<ele>336.194397</ele>
<time>2007-12-07T08:06:54.000Z</time>
</trkpt>
<trkpt lat="43.2632100" lon="-2.2121000">
<ele>339.547211</ele>
<time>2007-12-07T08:07:11.004Z</time>
</trkpt>
<trkpt lat="43.2630700" lon="-2.2123100">
<ele>343.204803</ele>
<time>2007-12-07T08:07:26.996Z</time>
</trkpt>
<trkpt lat="43.2629500" lon="-2.2124900">
<ele>346.252808</ele>
<time>2007-12-07T08:07:41.002Z</time>
</trkpt>
<trkpt lat="43.2628600" lon="-2.2125900">
<ele>348.996002</ele>
<time>2007-12-07T08:07:49.996Z</time>
</trkpt>
<trkpt lat="43.2627500" lon="-2.2127100">
<ele>352.044006</ele>
<time>2007-12-07T08:08:01.997Z</time>
</trkpt>
<trkpt lat="43.2626500" lon="-2.2128000">
<ele>355.396790</ele>
<time>2007-12-07T08:08:13.004Z</time>
</trkpt>
<trkpt lat="43.2625600" lon="-2.2128900">
<ele>358.140015</ele>
<time>2007-12-07T08:08:23.001Z</time>
</trkpt>
<trkpt lat="43.2624700" lon="-2.2129800">
<ele>361.492798</ele>
<time>2007-12-07T08:08:35.002Z</time>
</trkpt>
<trkpt lat="43.2624000" lon="-2.2130500">
<ele>364.540802</ele>
<time>2007-12-07T08:08:43.996Z</time>
</trkpt>
<trkpt lat="43.2623000" lon="-2.2131600">
<ele>368.198395</ele>
<time>2007-12-07T08:08:56.999Z</time>
</trkpt>
<trkpt lat="43.2622400" lon="-2.2132200">
<ele>370.332001</ele>
<time>2007-12-07T08:09:05.000Z</time>
</trkpt>
<trkpt lat="43.2622000" lon="-2.2132700">
<ele>373.075195</ele>
<time>2007-12-07T08:09:13.000Z</time>
</trkpt>
<trkpt lat="43.2621000" lon="-2.2133100">
<ele>377.037598</ele>
<time>2007-12-07T08:09:25.001Z</time>
</trkpt>
<trkpt lat="43.2620400" lon="-2.2133500">
<ele>379.780792</ele>
<time>2007-12-07T08:09:34.004Z</time>
</trkpt>
<trkpt lat="43.2619700" lon="-2.2134100">
<ele>382.828796</ele>
<time>2007-12-07T08:09:44.001Z</time>
</trkpt>
<trkpt lat="43.2619700" lon="-2.2134200">
<ele>382.828796</ele>
<time>2007-12-07T08:09:45.003Z</time>
</trkpt>
<trkpt lat="43.2619100" lon="-2.2134800">
<ele>386.181610</ele>
<time>2007-12-07T08:09:53.997Z</time>
</trkpt>
<trkpt lat="43.2618400" lon="-2.2135300">
<ele>389.534393</ele>
<time>2007-12-07T08:10:04.996Z</time>
</trkpt>
<trkpt lat="43.2617700" lon="-2.2135900">
<ele>392.887207</ele>
<time>2007-12-07T08:10:17.999Z</time>
</trkpt>
<trkpt lat="43.2617400" lon="-2.2136200">
<ele>394.716003</ele>
<time>2007-12-07T08:10:23.002Z</time>
</trkpt>
<trkpt lat="43.2616900" lon="-2.2136700">
<ele>397.764008</ele>
<time>2007-12-07T08:10:32.998Z</time>
</trkpt>
<trkpt lat="43.2616400" lon="-2.2137200">
<ele>401.116791</ele>
<time>2007-12-07T08:10:43.003Z</time>
</trkpt>
<trkpt lat="43.2616000" lon="-2.2137900">
<ele>403.859985</ele>
<time>2007-12-07T08:10:53.000Z</time>
</trkpt>
<trkpt lat="43.2615300" lon="-2.2138600">
<ele>406.907990</ele>
<time>2007-12-07T08:11:06.996Z</time>
</trkpt>
<trkpt lat="43.2615000" lon="-2.2139200">
<ele>409.041595</ele>
<time>2007-12-07T08:11:14.004Z</time>
</trkpt>
<trkpt lat="43.2614000" lon="-2.2139800">
<ele>412.699188</ele>
<time>2007-12-07T08:11:25.996Z</time>
</trkpt>
<trkpt lat="43.2613200" lon="-2.2140600">
<ele>415.442413</ele>
<time>2007-12-07T08:11:37.003Z</time>
</trkpt>
<trkpt lat="43.2612400" lon="-2.2141600">
<ele>418.795197</ele>
<time>2007-12-07T08:11:48.002Z</time>
</trkpt>
<trkpt lat="43.2611600" lon="-2.2143100">
<ele>421.538391</ele>
<time>2007-12-07T08:12:00.996Z</time>
</trkpt>
<trkpt lat="43.2610700" lon="-2.2144200">
<ele>425.196014</ele>
<time>2007-12-07T08:12:12.997Z</time>
</trkpt>
<trkpt lat="43.2610000" lon="-2.2145400">
<ele>427.939209</ele>
<time>2007-12-07T08:12:23.996Z</time>
</trkpt>
<trkpt lat="43.2608900" lon="-2.2146900">
<ele>430.682404</ele>
<time>2007-12-07T08:12:38.002Z</time>
</trkpt>
<trkpt lat="43.2607900" lon="-2.2148600">
<ele>434.339996</ele>
<time>2007-12-07T08:12:51.998Z</time>
</trkpt>
<trkpt lat="43.2607200" lon="-2.2149900">
<ele>437.692810</ele>
<time>2007-12-07T08:13:02.997Z</time>
</trkpt>
<trkpt lat="43.2606800" lon="-2.2150400">
<ele>439.521606</ele>
<time>2007-12-07T08:13:06.997Z</time>
</trkpt>
<trkpt lat="43.2606100" lon="-2.2151800">
<ele>441.959991</ele>
<time>2007-12-07T08:13:18.998Z</time>
</trkpt>
<trkpt lat="43.2605200" lon="-2.2153100">
<ele>445.312805</ele>
<time>2007-12-07T08:13:30.999Z</time>
</trkpt>
<trkpt lat="43.2604600" lon="-2.2154000">
<ele>448.665588</ele>
<time>2007-12-07T08:13:40.996Z</time>
</trkpt>
<trkpt lat="43.2604000" lon="-2.2155300">
<ele>451.408813</ele>
<time>2007-12-07T08:13:52.997Z</time>
</trkpt>
<trkpt lat="43.2604000" lon="-2.2155700">
<ele>452.323212</ele>
<time>2007-12-07T08:14:07.996Z</time>
</trkpt>
<trkpt lat="43.2603900" lon="-2.2156000">
<ele>452.932800</ele>
<time>2007-12-07T08:14:19.003Z</time>
</trkpt>
<trkpt lat="43.2603200" lon="-2.2157000">
<ele>453.847198</ele>
<time>2007-12-07T08:14:27.004Z</time>
</trkpt>
<trkpt lat="43.2602800" lon="-2.2157400">
<ele>455.675995</ele>
<time>2007-12-07T08:14:31.004Z</time>
</trkpt>
<trkpt lat="43.2602500" lon="-2.2158100">
<ele>456.895203</ele>
<time>2007-12-07T08:14:35.998Z</time>
</trkpt>
<trkpt lat="43.2601300" lon="-2.2158200">
<ele>459.333588</ele>
<time>2007-12-07T08:14:46.003Z</time>
</trkpt>
<trkpt lat="43.2601200" lon="-2.2158300">
<ele>456.285614</ele>
<time>2007-12-07T08:14:47.999Z</time>
</trkpt>
<trkpt lat="43.2601200" lon="-2.2158300">
<ele>456.895203</ele>
<time>2007-12-07T08:14:49.001Z</time>
</trkpt>
<trkpt lat="43.2601200" lon="-2.2158300">
<ele>460.552795</ele>
<time>2007-12-07T08:14:51.999Z</time>
</trkpt>
<trkpt lat="43.2601100" lon="-2.2158200">
<ele>457.809601</ele>
<time>2007-12-07T08:15:05.996Z</time>
</trkpt>
<trkpt lat="43.2601100" lon="-2.2158200">
<ele>461.467194</ele>
<time>2007-12-07T08:15:06.998Z</time>
</trkpt>
<trkpt lat="43.2601100" lon="-2.2158200">
<ele>459.333588</ele>
<time>2007-12-07T08:15:08.001Z</time>
</trkpt>
<trkpt lat="43.2600700" lon="-2.2157900">
<ele>455.675995</ele>
<time>2007-12-07T08:15:10.999Z</time>
</trkpt>
<trkpt lat="43.2600000" lon="-2.2157300">
<ele>456.895203</ele>
<time>2007-12-07T08:15:16.001Z</time>
</trkpt>
<trkpt lat="43.2599500" lon="-2.2157100">
<ele>455.371185</ele>
<time>2007-12-07T08:15:18.999Z</time>
</trkpt>
<trkpt lat="43.2597700" lon="-2.2155500">
<ele>452.018402</ele>
<time>2007-12-07T08:15:31.000Z</time>
</trkpt>
<trkpt lat="43.2597600" lon="-2.2155400">
<ele>452.018402</ele>
<time>2007-12-07T08:15:32.003Z</time>
</trkpt>
<trkpt lat="43.2595500" lon="-2.2152600">
<ele>452.018402</ele>
<time>2007-12-07T08:15:51.002Z</time>
</trkpt>
<trkpt lat="43.2595400" lon="-2.2152500">
<ele>451.104004</ele>
<time>2007-12-07T08:16:02.001Z</time>
</trkpt>
<trkpt lat="43.2595400" lon="-2.2152600">
<ele>451.408813</ele>
<time>2007-12-07T08:17:40.998Z</time>
</trkpt>
<trkpt lat="43.2595400" lon="-2.2152500">
<ele>452.018402</ele>
<time>2007-12-07T08:18:18.996Z</time>
</trkpt>
<trkpt lat="43.2595400" lon="-2.2152500">
<ele>452.323212</ele>
<time>2007-12-07T08:18:22.997Z</time>
</trkpt>
<trkpt lat="43.2595400" lon="-2.2152400">
<ele>451.408813</ele>
<time>2007-12-07T08:18:30.004Z</time>
</trkpt>
<trkpt lat="43.2595400" lon="-2.2152500">
<ele>452.323212</ele>
<time>2007-12-07T08:18:54.999Z</time>
</trkpt>
<trkpt lat="43.2594800" lon="-2.2151500">
<ele>451.104004</ele>
<time>2007-12-07T08:19:13.999Z</time>
</trkpt>
<trkpt lat="43.2593700" lon="-2.2149600">
<ele>448.056000</ele>
<time>2007-12-07T08:19:24.997Z</time>
</trkpt>
<trkpt lat="43.2591500" lon="-2.2147800">
<ele>445.617615</ele>
<time>2007-12-07T08:19:39.996Z</time>
</trkpt>
<trkpt lat="43.2589500" lon="-2.2146100">
<ele>442.264801</ele>
<time>2007-12-07T08:19:54.002Z</time>
</trkpt>
<trkpt lat="43.2589100" lon="-2.2145800">
<ele>441.045593</ele>
<time>2007-12-07T08:19:57.000Z</time>
</trkpt>
<trkpt lat="43.2588300" lon="-2.2145200">
<ele>437.997589</ele>
<time>2007-12-07T08:20:02.996Z</time>
</trkpt>
<trkpt lat="43.2588000" lon="-2.2144900">
<ele>437.083191</ele>
<time>2007-12-07T08:20:06.003Z</time>
</trkpt>
<trkpt lat="43.2587000" lon="-2.2143900">
<ele>433.120789</ele>
<time>2007-12-07T08:20:14.004Z</time>
</trkpt>
<trkpt lat="43.2585500" lon="-2.2142500">
<ele>429.768005</ele>
<time>2007-12-07T08:20:25.996Z</time>
</trkpt>
<trkpt lat="43.2584100" lon="-2.2141500">
<ele>427.329590</ele>
<time>2007-12-07T08:20:36.001Z</time>
</trkpt>
<trkpt lat="43.2581700" lon="-2.2139200">
<ele>423.062408</ele>
<time>2007-12-07T08:20:52.996Z</time>
</trkpt>
<trkpt lat="43.2581000" lon="-2.2138300">
<ele>423.671997</ele>
<time>2007-12-07T08:21:03.001Z</time>
</trkpt>
<trkpt lat="43.2579800" lon="-2.2137200">
<ele>422.757599</ele>
<time>2007-12-07T08:21:14.000Z</time>
</trkpt>
<trkpt lat="43.2578200" lon="-2.2133900">
<ele>424.586395</ele>
<time>2007-12-07T08:21:32.999Z</time>
</trkpt>
<trkpt lat="43.2578100" lon="-2.2133700">
<ele>423.671997</ele>
<time>2007-12-07T08:21:39.004Z</time>
</trkpt>
<trkpt lat="43.2578000" lon="-2.2133500">
<ele>423.976807</ele>
<time>2007-12-07T08:21:42.002Z</time>
</trkpt>
<trkpt lat="43.2577000" lon="-2.2129900">
<ele>422.148010</ele>
<time>2007-12-07T08:21:59.999Z</time>
</trkpt>
<trkpt lat="43.2575800" lon="-2.2127200">
<ele>418.795197</ele>
<time>2007-12-07T08:22:14.998Z</time>
</trkpt>
<trkpt lat="43.2574900" lon="-2.2125600">
<ele>418.185608</ele>
<time>2007-12-07T08:22:29.004Z</time>
</trkpt>
<trkpt lat="43.2574400" lon="-2.2123600">
<ele>418.795197</ele>
<time>2007-12-07T08:22:43.000Z</time>
</trkpt>
<trkpt lat="43.2573900" lon="-2.2121300">
<ele>421.538391</ele>
<time>2007-12-07T08:22:59.002Z</time>
</trkpt>
<trkpt lat="43.2573600" lon="-2.2120200">
<ele>425.196014</ele>
<time>2007-12-07T08:23:07.002Z</time>
</trkpt>
<trkpt lat="43.2573500" lon="-2.2120100">
<ele>425.196014</ele>
<time>2007-12-07T08:23:07.996Z</time>
</trkpt>
<trkpt lat="43.2573100" lon="-2.2118800">
<ele>428.548798</ele>
<time>2007-12-07T08:23:18.001Z</time>
</trkpt>
<trkpt lat="43.2571900" lon="-2.2116400">
<ele>431.901611</ele>
<time>2007-12-07T08:23:35.998Z</time>
</trkpt>
<trkpt lat="43.2570500" lon="-2.2113900">
<ele>433.730408</ele>
<time>2007-12-07T08:23:53.002Z</time>
</trkpt>
<trkpt lat="43.2570300" lon="-2.2111900">
<ele>434.644806</ele>
<time>2007-12-07T08:24:09.003Z</time>
</trkpt>
<trkpt lat="43.2570300" lon="-2.2111800">
<ele>434.644806</ele>
<time>2007-12-07T08:24:21.997Z</time>
</trkpt>
<trkpt lat="43.2570300" lon="-2.2111800">
<ele>435.559204</ele>
<time>2007-12-07T08:24:36.996Z</time>
</trkpt>
<trkpt lat="43.2569500" lon="-2.2110100">
<ele>430.682404</ele>
<time>2007-12-07T08:24:48.997Z</time>
</trkpt>
<trkpt lat="43.2569200" lon="-2.2109400">
<ele>427.329590</ele>
<time>2007-12-07T08:24:52.998Z</time>
</trkpt>
<trkpt lat="43.2568600" lon="-2.2107700">
<ele>424.586395</ele>
<time>2007-12-07T08:25:03.003Z</time>
</trkpt>
<trkpt lat="43.2568400" lon="-2.2107200">
<ele>422.757599</ele>
<time>2007-12-07T08:25:06.001Z</time>
</trkpt>
<trkpt lat="43.2568200" lon="-2.2106400">
<ele>419.404785</ele>
<time>2007-12-07T08:25:11.004Z</time>
</trkpt>
<trkpt lat="43.2568200" lon="-2.2106300">
<ele>418.795197</ele>
<time>2007-12-07T08:25:11.997Z</time>
</trkpt>
<trkpt lat="43.2568000" lon="-2.2105900">
<ele>417.271210</ele>
<time>2007-12-07T08:25:15.004Z</time>
</trkpt>
<trkpt lat="43.2567900" lon="-2.2105200">
<ele>414.528015</ele>
<time>2007-12-07T08:25:19.998Z</time>
</trkpt>
<trkpt lat="43.2567500" lon="-2.2104400">
<ele>412.699188</ele>
<time>2007-12-07T08:25:25.000Z</time>
</trkpt>
<trkpt lat="43.2567000" lon="-2.2103200">
<ele>408.736786</ele>
<time>2007-12-07T08:25:31.999Z</time>
</trkpt>
<trkpt lat="43.2566900" lon="-2.2103000">
<ele>408.736786</ele>
<time>2007-12-07T08:25:33.001Z</time>
</trkpt>
<trkpt lat="43.2565800" lon="-2.2100900">
<ele>405.384003</ele>
<time>2007-12-07T08:25:44.000Z</time>
</trkpt>
<trkpt lat="43.2565700" lon="-2.2100700">
<ele>405.384003</ele>
<time>2007-12-07T08:25:45.002Z</time>
</trkpt>
<trkpt lat="43.2564800" lon="-2.2099000">
<ele>402.031189</ele>
<time>2007-12-07T08:25:54.998Z</time>
</trkpt>
<trkpt lat="43.2563800" lon="-2.2097400">
<ele>404.774414</ele>
<time>2007-12-07T08:26:05.004Z</time>
</trkpt>
<trkpt lat="43.2561800" lon="-2.2094000">
<ele>405.688812</ele>
<time>2007-12-07T08:26:25.999Z</time>
</trkpt>
<trkpt lat="43.2559600" lon="-2.2090600">
<ele>406.907990</ele>
<time>2007-12-07T08:26:50.001Z</time>
</trkpt>
<trkpt lat="43.2559600" lon="-2.2090500">
<ele>407.212799</ele>
<time>2007-12-07T08:27:05.000Z</time>
</trkpt>
<trkpt lat="43.2559600" lon="-2.2090600">
<ele>406.298401</ele>
<time>2007-12-07T08:27:15.998Z</time>
</trkpt>
<trkpt lat="43.2558300" lon="-2.2088600">
<ele>404.774414</ele>
<time>2007-12-07T08:27:41.003Z</time>
</trkpt>
<trkpt lat="43.2558000" lon="-2.2088400">
<ele>403.859985</ele>
<time>2007-12-07T08:27:42.998Z</time>
</trkpt>
<trkpt lat="43.2557500" lon="-2.2087800">
<ele>401.116791</ele>
<time>2007-12-07T08:27:46.999Z</time>
</trkpt>
<trkpt lat="43.2557100" lon="-2.2086600">
<ele>398.068787</ele>
<time>2007-12-07T08:27:53.997Z</time>
</trkpt>
<trkpt lat="43.2556400" lon="-2.2085600">
<ele>395.630402</ele>
<time>2007-12-07T08:28:01.004Z</time>
</trkpt>
<trkpt lat="43.2556100" lon="-2.2085300">
<ele>394.716003</ele>
<time>2007-12-07T08:28:04.002Z</time>
</trkpt>
<trkpt lat="43.2555800" lon="-2.2085100">
<ele>393.191986</ele>
<time>2007-12-07T08:28:08.996Z</time>
</trkpt>
<trkpt lat="43.2555300" lon="-2.2083800">
<ele>389.839203</ele>
<time>2007-12-07T08:28:19.001Z</time>
</trkpt>
<trkpt lat="43.2555000" lon="-2.2083300">
<ele>388.619995</ele>
<time>2007-12-07T08:28:21.999Z</time>
</trkpt>
<trkpt lat="43.2554300" lon="-2.2082500">
<ele>385.267212</ele>
<time>2007-12-07T08:28:28.004Z</time>
</trkpt>
<trkpt lat="43.2553100" lon="-2.2080600">
<ele>381.304810</ele>
<time>2007-12-07T08:28:39.996Z</time>
</trkpt>
<trkpt lat="43.2553000" lon="-2.2080500">
<ele>381.304810</ele>
<time>2007-12-07T08:28:40.999Z</time>
</trkpt>
<trkpt lat="43.2551800" lon="-2.2079200">
<ele>377.951996</ele>
<time>2007-12-07T08:28:51.004Z</time>
</trkpt>
<trkpt lat="43.2551700" lon="-2.2079100">
<ele>377.951996</ele>
<time>2007-12-07T08:28:51.997Z</time>
</trkpt>
<trkpt lat="43.2551200" lon="-2.2077800">
<ele>375.513611</ele>
<time>2007-12-07T08:28:58.996Z</time>
</trkpt>
<trkpt lat="43.2551000" lon="-2.2077400">
<ele>373.684814</ele>
<time>2007-12-07T08:29:02.003Z</time>
</trkpt>
<trkpt lat="43.2550900" lon="-2.2077300">
<ele>373.684814</ele>
<time>2007-12-07T08:29:02.996Z</time>
</trkpt>
<trkpt lat="43.2549400" lon="-2.2074900">
<ele>369.417603</ele>
<time>2007-12-07T08:29:18.004Z</time>
</trkpt>
<trkpt lat="43.2547700" lon="-2.2072800">
<ele>366.979187</ele>
<time>2007-12-07T08:29:33.003Z</time>
</trkpt>
<trkpt lat="43.2547500" lon="-2.2072400">
<ele>367.893585</ele>
<time>2007-12-07T08:29:36.001Z</time>
</trkpt>
<trkpt lat="43.2547300" lon="-2.2072000">
<ele>366.369598</ele>
<time>2007-12-07T08:29:47.000Z</time>
</trkpt>
<trkpt lat="43.2546400" lon="-2.2071100">
<ele>366.979187</ele>
<time>2007-12-07T08:29:52.996Z</time>
</trkpt>
<trkpt lat="43.2545100" lon="-2.2068080">
<ele>366.369598</ele>
<time>2007-12-07T08:30:09.999Z</time>
</trkpt>
<trkpt lat="43.2543300" lon="-2.2066000">
<ele>369.417603</ele>
<time>2007-12-07T08:30:27.996Z</time>
</trkpt>
<trkpt lat="43.2541400" lon="-2.2065100">
<ele>372.160797</ele>
<time>2007-12-07T08:30:45.000Z</time>
</trkpt>
<trkpt lat="43.2541300" lon="-2.2065100">
<ele>373.684814</ele>
<time>2007-12-07T08:30:57.001Z</time>
</trkpt>
<trkpt lat="43.2541300" lon="-2.2065100">
<ele>372.160797</ele>
<time>2007-12-07T08:31:10.998Z</time>
</trkpt>
<trkpt lat="43.2541300" lon="-2.2065200">
<ele>372.160797</ele>
<time>2007-12-07T08:31:29.997Z</time>
</trkpt>
<trkpt lat="43.2541300" lon="-2.2065100">
<ele>373.075195</ele>
<time>2007-12-07T08:31:35.000Z</time>
</trkpt>
<trkpt lat="43.2541700" lon="-2.2063000">
<ele>373.684814</ele>
<time>2007-12-07T08:31:45.998Z</time>
</trkpt>
<trkpt lat="43.2541800" lon="-2.2062300">
<ele>374.599213</ele>
<time>2007-12-07T08:31:49.999Z</time>
</trkpt>
<trkpt lat="43.2541900" lon="-2.2062000">
<ele>375.513611</ele>
<time>2007-12-07T08:31:52.003Z</time>
</trkpt>
<trkpt lat="43.2543000" lon="-2.2061200">
<ele>378.866394</ele>
<time>2007-12-07T08:32:02.000Z</time>
</trkpt>
<trkpt lat="43.2543500" lon="-2.2060200">
<ele>379.476013</ele>
<time>2007-12-07T08:32:15.003Z</time>
</trkpt>
<trkpt lat="43.2543500" lon="-2.2060100">
<ele>380.390411</ele>
<time>2007-12-07T08:32:26.002Z</time>
</trkpt>
<trkpt lat="43.2543800" lon="-2.2059700">
<ele>380.695190</ele>
<time>2007-12-07T08:32:31.004Z</time>
</trkpt>
<trkpt lat="43.2544800" lon="-2.2057700">
<ele>383.743195</ele>
<time>2007-12-07T08:32:45.001Z</time>
</trkpt>
<trkpt lat="43.2545500" lon="-2.2056200">
<ele>384.048004</ele>
<time>2007-12-07T08:32:56.000Z</time>
</trkpt>
<trkpt lat="43.2545600" lon="-2.2055600">
<ele>384.048004</ele>
<time>2007-12-07T08:33:00.000Z</time>
</trkpt>
<trkpt lat="43.2545700" lon="-2.2055300">
<ele>384.048004</ele>
<time>2007-12-07T08:33:01.996Z</time>
</trkpt>
<trkpt lat="43.2546200" lon="-2.2054000">
<ele>385.267212</ele>
<time>2007-12-07T08:33:10.999Z</time>
</trkpt>
<trkpt lat="43.2546500" lon="-2.2053500">
<ele>384.657593</ele>
<time>2007-12-07T08:33:14.999Z</time>
</trkpt>
<trkpt lat="43.2546900" lon="-2.2052400">
<ele>385.267212</ele>
<time>2007-12-07T08:33:21.997Z</time>
</trkpt>
<trkpt lat="43.2547000" lon="-2.2049400">
<ele>388.619995</ele>
<time>2007-12-07T08:33:39.001Z</time>
</trkpt>
<trkpt lat="43.2546700" lon="-2.2048400">
<ele>389.534393</ele>
<time>2007-12-07T08:33:45.999Z</time>
</trkpt>
<trkpt lat="43.2545800" lon="-2.2047700">
<ele>393.191986</ele>
<time>2007-12-07T08:33:55.996Z</time>
</trkpt>
<trkpt lat="43.2545100" lon="-2.2047200">
<ele>395.325592</ele>
<time>2007-12-07T08:34:03.003Z</time>
</trkpt>
<trkpt lat="43.2544900" lon="-2.2047100">
<ele>395.630402</ele>
<time>2007-12-07T08:34:04.999Z</time>
</trkpt>
<trkpt lat="43.2544600" lon="-2.2047000">
<ele>396.239990</ele>
<time>2007-12-07T08:34:07.997Z</time>
</trkpt>
<trkpt lat="43.2544000" lon="-2.2046600">
<ele>397.764008</ele>
<time>2007-12-07T08:34:15.004Z</time>
</trkpt>
<trkpt lat="43.2543200" lon="-2.2045300">
<ele>402.031189</ele>
<time>2007-12-07T08:34:26.003Z</time>
</trkpt>
<trkpt lat="43.2542500" lon="-2.2044800">
<ele>403.859985</ele>
<time>2007-12-07T08:34:34.997Z</time>
</trkpt>
<trkpt lat="43.2541400" lon="-2.2043800">
<ele>407.822388</ele>
<time>2007-12-07T08:34:48.000Z</time>
</trkpt>
<trkpt lat="43.2541300" lon="-2.2043700">
<ele>408.127197</ele>
<time>2007-12-07T08:34:49.002Z</time>
</trkpt>
<trkpt lat="43.2540200" lon="-2.2042900">
<ele>411.480011</ele>
<time>2007-12-07T08:35:01.003Z</time>
</trkpt>
<trkpt lat="43.2539500" lon="-2.2042500">
<ele>413.918396</ele>
<time>2007-12-07T08:35:06.999Z</time>
</trkpt>
<trkpt lat="43.2538500" lon="-2.2041600">
<ele>417.271210</ele>
<time>2007-12-07T08:35:17.998Z</time>
</trkpt>
<trkpt lat="43.2537400" lon="-2.2040500">
<ele>420.319214</ele>
<time>2007-12-07T08:35:29.999Z</time>
</trkpt>
<trkpt lat="43.2536800" lon="-2.2037300">
<ele>423.062408</ele>
<time>2007-12-07T08:35:50.001Z</time>
</trkpt>
<trkpt lat="43.2536600" lon="-2.2034200">
<ele>424.586395</ele>
<time>2007-12-07T08:36:07.998Z</time>
</trkpt>
<trkpt lat="43.2536600" lon="-2.2034000">
<ele>425.196014</ele>
<time>2007-12-07T08:36:21.001Z</time>
</trkpt>
<trkpt lat="43.2536300" lon="-2.2032400">
<ele>423.976807</ele>
<time>2007-12-07T08:36:52.001Z</time>
</trkpt>
<trkpt lat="43.2535600" lon="-2.2029800">
<ele>421.233612</ele>
<time>2007-12-07T08:37:04.996Z</time>
</trkpt>
<trkpt lat="43.2535200" lon="-2.2028100">
<ele>417.880798</ele>
<time>2007-12-07T08:37:13.999Z</time>
</trkpt>
<trkpt lat="43.2535100" lon="-2.2027900">
<ele>417.880798</ele>
<time>2007-12-07T08:37:15.001Z</time>
</trkpt>
<trkpt lat="43.2535200" lon="-2.2027100">
<ele>416.356812</ele>
<time>2007-12-07T08:37:19.001Z</time>
</trkpt>
<trkpt lat="43.2534800" lon="-2.2024700">
<ele>413.003998</ele>
<time>2007-12-07T08:37:31.002Z</time>
</trkpt>
<trkpt lat="43.2534900" lon="-2.2024500">
<ele>413.003998</ele>
<time>2007-12-07T08:37:31.996Z</time>
</trkpt>
<trkpt lat="43.2534600" lon="-2.2020900">
<ele>414.832794</ele>
<time>2007-12-07T08:37:51.004Z</time>
</trkpt>
<trkpt lat="43.2534600" lon="-2.2020400">
<ele>416.356812</ele>
<time>2007-12-07T08:37:54.002Z</time>
</trkpt>
<trkpt lat="43.2534500" lon="-2.2018700">
<ele>419.709595</ele>
<time>2007-12-07T08:38:03.998Z</time>
</trkpt>
<trkpt lat="43.2534400" lon="-2.2018600">
<ele>419.404785</ele>
<time>2007-12-07T08:38:05.001Z</time>
</trkpt>
<trkpt lat="43.2534400" lon="-2.2017900">
<ele>421.538391</ele>
<time>2007-12-07T08:38:10.003Z</time>
</trkpt>
<trkpt lat="43.2534200" lon="-2.2016800">
<ele>423.671997</ele>
<time>2007-12-07T08:38:18.004Z</time>
</trkpt>
<trkpt lat="43.2534100" lon="-2.2016400">
<ele>424.586395</ele>
<time>2007-12-07T08:38:21.002Z</time>
</trkpt>
<trkpt lat="43.2533900" lon="-2.2014900">
<ele>427.329590</ele>
<time>2007-12-07T08:38:33.003Z</time>
</trkpt>
<trkpt lat="43.2533900" lon="-2.2014500">
<ele>428.853607</ele>
<time>2007-12-07T08:38:36.001Z</time>
</trkpt>
<trkpt lat="43.2534000" lon="-2.2013900">
<ele>431.291992</ele>
<time>2007-12-07T08:38:41.004Z</time>
</trkpt>
<trkpt lat="43.2533900" lon="-2.2013100">
<ele>433.730408</ele>
<time>2007-12-07T08:38:48.002Z</time>
</trkpt>
<trkpt lat="43.2533900" lon="-2.2011900">
<ele>437.083191</ele>
<time>2007-12-07T08:38:57.998Z</time>
</trkpt>
<trkpt lat="43.2533900" lon="-2.2011500">
<ele>437.997589</ele>
<time>2007-12-07T08:39:03.001Z</time>
</trkpt>
<trkpt lat="43.2533700" lon="-2.2011300">
<ele>437.997589</ele>
<time>2007-12-07T08:39:05.999Z</time>
</trkpt>
<trkpt lat="43.2533500" lon="-2.2010800">
<ele>440.436005</ele>
<time>2007-12-07T08:39:09.999Z</time>
</trkpt>
<trkpt lat="43.2533300" lon="-2.2010100">
<ele>441.959991</ele>
<time>2007-12-07T08:39:16.004Z</time>
</trkpt>
<trkpt lat="43.2533100" lon="-2.2009800">
<ele>443.179199</ele>
<time>2007-12-07T08:39:19.002Z</time>
</trkpt>
<trkpt lat="43.2532700" lon="-2.2008000">
<ele>446.836792</ele>
<time>2007-12-07T08:39:31.997Z</time>
</trkpt>
<trkpt lat="43.2532300" lon="-2.2006700">
<ele>450.189606</ele>
<time>2007-12-07T08:39:43.004Z</time>
</trkpt>
<trkpt lat="43.2532100" lon="-2.2005900">
<ele>452.018402</ele>
<time>2007-12-07T08:39:50.003Z</time>
</trkpt>
<trkpt lat="43.2531700" lon="-2.2005400">
<ele>453.542389</ele>
<time>2007-12-07T08:39:54.996Z</time>
</trkpt>
<trkpt lat="43.2531500" lon="-2.2005100">
<ele>453.847198</ele>
<time>2007-12-07T08:39:58.003Z</time>
</trkpt>
<trkpt lat="43.2531200" lon="-2.2003600">
<ele>457.200012</ele>
<time>2007-12-07T08:40:10.998Z</time>
</trkpt>
<trkpt lat="43.2531100" lon="-2.2003500">
<ele>457.200012</ele>
<time>2007-12-07T08:40:12.000Z</time>
</trkpt>
<trkpt lat="43.2531000" lon="-2.2002400">
<ele>458.723999</ele>
<time>2007-12-07T08:40:20.001Z</time>
</trkpt>
<trkpt lat="43.2530600" lon="-2.2002100">
<ele>459.333588</ele>
<time>2007-12-07T08:40:26.999Z</time>
</trkpt>
<trkpt lat="43.2530700" lon="-2.2001800">
<ele>460.552795</ele>
<time>2007-12-07T08:40:33.997Z</time>
</trkpt>
<trkpt lat="43.2530700" lon="-2.2000200">
<ele>461.162415</ele>
<time>2007-12-07T08:40:48.996Z</time>
</trkpt>
<trkpt lat="43.2530700" lon="-2.2000200">
<ele>461.467194</ele>
<time>2007-12-07T08:40:49.999Z</time>
</trkpt>
<trkpt lat="43.2530800" lon="-2.2000000">
<ele>460.247986</ele>
<time>2007-12-07T08:40:52.003Z</time>
</trkpt>
<trkpt lat="43.2531600" lon="-2.1997600">
<ele>457.200012</ele>
<time>2007-12-07T08:41:04.004Z</time>
</trkpt>
<trkpt lat="43.2531600" lon="-2.1997000">
<ele>455.675995</ele>
<time>2007-12-07T08:41:07.002Z</time>
</trkpt>
<trkpt lat="43.2531800" lon="-2.1996000">
<ele>453.847198</ele>
<time>2007-12-07T08:41:11.996Z</time>
</trkpt>
<trkpt lat="43.2532000" lon="-2.1994900">
<ele>451.104004</ele>
<time>2007-12-07T08:41:18.001Z</time>
</trkpt>
<trkpt lat="43.2532100" lon="-2.1994500">
<ele>450.189606</ele>
<time>2007-12-07T08:41:19.997Z</time>
</trkpt>
<trkpt lat="43.2532400" lon="-2.1993100">
<ele>446.836792</ele>
<time>2007-12-07T08:41:27.004Z</time>
</trkpt>
<trkpt lat="43.2532700" lon="-2.1991600">
<ele>443.179199</ele>
<time>2007-12-07T08:41:34.002Z</time>
</trkpt>
<trkpt lat="43.2534000" lon="-2.1988800">
<ele>440.436005</ele>
<time>2007-12-07T08:41:49.001Z</time>
</trkpt>
<trkpt lat="43.2535100" lon="-2.1987700">
<ele>438.607208</ele>
<time>2007-12-07T08:41:58.004Z</time>
</trkpt>
<trkpt lat="43.2535400" lon="-2.1986900">
<ele>435.254395</ele>
<time>2007-12-07T08:42:05.003Z</time>
</trkpt>
<trkpt lat="43.2535400" lon="-2.1986900">
<ele>438.911987</ele>
<time>2007-12-07T08:42:05.996Z</time>
</trkpt>
<trkpt lat="43.2535400" lon="-2.1986900">
<ele>435.559204</ele>
<time>2007-12-07T08:42:12.001Z</time>
</trkpt>
<trkpt lat="43.2535700" lon="-2.1986600">
<ele>436.168793</ele>
<time>2007-12-07T08:42:16.001Z</time>
</trkpt>
<trkpt lat="43.2537500" lon="-2.1985700">
<ele>432.816010</ele>
<time>2007-12-07T08:42:28.002Z</time>
</trkpt>
<trkpt lat="43.2538700" lon="-2.1985200">
<ele>429.463196</ele>
<time>2007-12-07T08:42:36.996Z</time>
</trkpt>
<trkpt lat="43.2538800" lon="-2.1985300">
<ele>428.853607</ele>
<time>2007-12-07T08:42:37.999Z</time>
</trkpt>
<trkpt lat="43.2539300" lon="-2.1984600">
<ele>426.110413</ele>
<time>2007-12-07T08:42:44.004Z</time>
</trkpt>
<trkpt lat="43.2539400" lon="-2.1984500">
<ele>425.500793</ele>
<time>2007-12-07T08:42:44.997Z</time>
</trkpt>
<trkpt lat="43.2539700" lon="-2.1984000">
<ele>423.671997</ele>
<time>2007-12-07T08:42:48.997Z</time>
</trkpt>
<trkpt lat="43.2539900" lon="-2.1983800">
<ele>422.757599</ele>
<time>2007-12-07T08:42:51.002Z</time>
</trkpt>
<trkpt lat="43.2540000" lon="-2.1983500">
<ele>421.538391</ele>
<time>2007-12-07T08:42:52.998Z</time>
</trkpt>
<trkpt lat="43.2539800" lon="-2.1983000">
<ele>419.709595</ele>
<time>2007-12-07T08:42:55.996Z</time>
</trkpt>
<trkpt lat="43.2539400" lon="-2.1982100">
<ele>417.880798</ele>
<time>2007-12-07T08:43:00.998Z</time>
</trkpt>
<trkpt lat="43.2538300" lon="-2.1980300">
<ele>414.528015</ele>
<time>2007-12-07T08:43:11.997Z</time>
</trkpt>
<trkpt lat="43.2537200" lon="-2.1979000">
<ele>411.175201</ele>
<time>2007-12-07T08:43:21.000Z</time>
</trkpt>
<trkpt lat="43.2536400" lon="-2.1978300">
<ele>409.041595</ele>
<time>2007-12-07T08:43:26.996Z</time>
</trkpt>
<trkpt lat="43.2535200" lon="-2.1976900">
<ele>405.384003</ele>
<time>2007-12-07T08:43:37.001Z</time>
</trkpt>
<trkpt lat="43.2534400" lon="-2.1975200">
<ele>401.421600</ele>
<time>2007-12-07T08:43:46.004Z</time>
</trkpt>
<trkpt lat="43.2534300" lon="-2.1975100">
<ele>401.421600</ele>
<time>2007-12-07T08:43:46.998Z</time>
</trkpt>
<trkpt lat="43.2532500" lon="-2.1973500">
<ele>397.764008</ele>
<time>2007-12-07T08:44:00.001Z</time>
</trkpt>
<trkpt lat="43.2530900" lon="-2.1972200">
<ele>393.801605</ele>
<time>2007-12-07T08:44:11.000Z</time>
</trkpt>
<trkpt lat="43.2529900" lon="-2.1970900">
<ele>391.058411</ele>
<time>2007-12-07T08:44:20.003Z</time>
</trkpt>
<trkpt lat="43.2529300" lon="-2.1969700">
<ele>388.010406</ele>
<time>2007-12-07T08:44:27.001Z</time>
</trkpt>
<trkpt lat="43.2528800" lon="-2.1968900">
<ele>387.096008</ele>
<time>2007-12-07T08:44:32.004Z</time>
</trkpt>
<trkpt lat="43.2528700" lon="-2.1968500">
<ele>386.486389</ele>
<time>2007-12-07T08:44:33.999Z</time>
</trkpt>
<trkpt lat="43.2528500" lon="-2.1968200">
<ele>385.267212</ele>
<time>2007-12-07T08:44:36.997Z</time>
</trkpt>
<trkpt lat="43.2528300" lon="-2.1968100">
<ele>385.267212</ele>
<time>2007-12-07T08:44:50.001Z</time>
</trkpt>
<trkpt lat="43.2528100" lon="-2.1966200">
<ele>382.828796</ele>
<time>2007-12-07T08:45:02.002Z</time>
</trkpt>
<trkpt lat="43.2528000" lon="-2.1965400">
<ele>380.695190</ele>
<time>2007-12-07T08:45:06.002Z</time>
</trkpt>
<trkpt lat="43.2527500" lon="-2.1964300">
<ele>378.561615</ele>
<time>2007-12-07T08:45:17.001Z</time>
</trkpt>
<trkpt lat="43.2526800" lon="-2.1963600">
<ele>377.037598</ele>
<time>2007-12-07T08:45:30.004Z</time>
</trkpt>
<trkpt lat="43.2526600" lon="-2.1963900">
<ele>377.342407</ele>
<time>2007-12-07T08:45:44.001Z</time>
</trkpt>
<trkpt lat="43.2525800" lon="-2.1963500">
<ele>374.599213</ele>
<time>2007-12-07T08:45:49.997Z</time>
</trkpt>
<trkpt lat="43.2523000" lon="-2.1962600">
<ele>373.684814</ele>
<time>2007-12-07T08:46:05.998Z</time>
</trkpt>
<trkpt lat="43.2518900" lon="-2.1961600">
<ele>373.075195</ele>
<time>2007-12-07T08:46:31.002Z</time>
</trkpt>
<trkpt lat="43.2514500" lon="-2.1960900">
<ele>373.989594</ele>
<time>2007-12-07T08:46:57.000Z</time>
</trkpt>
<trkpt lat="43.2509400" lon="-2.1962100">
<ele>372.770386</ele>
<time>2007-12-07T08:47:25.996Z</time>
</trkpt>
<trkpt lat="43.2505300" lon="-2.1962700">
<ele>371.551208</ele>
<time>2007-12-07T08:47:49.004Z</time>
</trkpt>
<trkpt lat="43.2503300" lon="-2.1962400">
<ele>368.198395</ele>
<time>2007-12-07T08:48:00.003Z</time>
</trkpt>
<trkpt lat="43.2500800" lon="-2.1959500">
<ele>365.455200</ele>
<time>2007-12-07T08:48:18.000Z</time>
</trkpt>
<trkpt lat="43.2499400" lon="-2.1955700">
<ele>361.492798</ele>
<time>2007-12-07T08:48:35.004Z</time>
</trkpt>
<trkpt lat="43.2497800" lon="-2.1953100">
<ele>358.140015</ele>
<time>2007-12-07T08:48:49.000Z</time>
</trkpt>
<trkpt lat="43.2495600" lon="-2.1954400">
<ele>355.701599</ele>
<time>2007-12-07T08:49:03.999Z</time>
</trkpt>
<trkpt lat="43.2493500" lon="-2.1958900">
<ele>357.225586</ele>
<time>2007-12-07T08:49:26.999Z</time>
</trkpt>
<trkpt lat="43.2492300" lon="-2.1962200">
<ele>356.920807</ele>
<time>2007-12-07T08:49:43.000Z</time>
</trkpt>
<trkpt lat="43.2490000" lon="-2.1965700">
<ele>358.749603</ele>
<time>2007-12-07T08:50:06.000Z</time>
</trkpt>
<trkpt lat="43.2489300" lon="-2.1966200">
<ele>358.140015</ele>
<time>2007-12-07T08:50:15.996Z</time>
</trkpt>
<trkpt lat="43.2489300" lon="-2.1966200">
<ele>358.140015</ele>
<time>2007-12-07T08:50:18.001Z</time>
</trkpt>
<trkpt lat="43.2487900" lon="-2.1970000">
<ele>358.140015</ele>
<time>2007-12-07T08:50:38.003Z</time>
</trkpt>
<trkpt lat="43.2487400" lon="-2.1972600">
<ele>356.311188</ele>
<time>2007-12-07T08:50:50.997Z</time>
</trkpt>
<trkpt lat="43.2487500" lon="-2.1972400">
<ele>360.578400</ele>
<time>2007-12-04T07:05:52.999Z</time>
</trkpt>
<trkpt lat="43.2486900" lon="-2.1972800">
<ele>361.492798</ele>
<time>2007-12-04T07:05:56.999Z</time>
</trkpt>
<trkpt lat="43.2483600" lon="-2.1974700">
<ele>359.054413</ele>
<time>2007-12-04T07:06:18.996Z</time>
</trkpt>
<trkpt lat="43.2481600" lon="-2.1976300">
<ele>355.701599</ele>
<time>2007-12-04T07:06:32.000Z</time>
</trkpt>
<trkpt lat="43.2478500" lon="-2.1978700">
<ele>352.348785</ele>
<time>2007-12-04T07:06:53.004Z</time>
</trkpt>
<trkpt lat="43.2476500" lon="-2.1981100">
<ele>351.434387</ele>
<time>2007-12-04T07:07:09.998Z</time>
</trkpt>
<trkpt lat="43.2474800" lon="-2.1984000">
<ele>350.519989</ele>
<time>2007-12-04T07:07:27.002Z</time>
</trkpt>
<trkpt lat="43.2472700" lon="-2.1986400">
<ele>350.519989</ele>
<time>2007-12-04T07:07:44.999Z</time>
</trkpt>
<trkpt lat="43.2470500" lon="-2.1988300">
<ele>349.605591</ele>
<time>2007-12-04T07:08:02.996Z</time>
</trkpt>
<trkpt lat="43.2468300" lon="-2.1988900">
<ele>347.776794</ele>
<time>2007-12-04T07:08:17.002Z</time>
</trkpt>
<trkpt lat="43.2467000" lon="-2.1989100">
<ele>344.424011</ele>
<time>2007-12-04T07:08:25.002Z</time>
</trkpt>
<trkpt lat="43.2465500" lon="-2.1989700">
<ele>341.376007</ele>
<time>2007-12-04T07:08:33.996Z</time>
</trkpt>
<trkpt lat="43.2464100" lon="-2.1991500">
<ele>338.023193</ele>
<time>2007-12-04T07:08:45.004Z</time>
</trkpt>
<trkpt lat="43.2463800" lon="-2.1991800">
<ele>337.718414</ele>
<time>2007-12-04T07:08:47.000Z</time>
</trkpt>
<trkpt lat="43.2462700" lon="-2.1993300">
<ele>334.060791</ele>
<time>2007-12-04T07:08:56.996Z</time>
</trkpt>
<trkpt lat="43.2461700" lon="-2.1994300">
<ele>330.708008</ele>
<time>2007-12-04T07:09:04.997Z</time>
</trkpt>
<trkpt lat="43.2460800" lon="-2.1995700">
<ele>327.355194</ele>
<time>2007-12-04T07:09:14.000Z</time>
</trkpt>
<trkpt lat="43.2460300" lon="-2.1996300">
<ele>325.526398</ele>
<time>2007-12-04T07:09:18.000Z</time>
</trkpt>
<trkpt lat="43.2459200" lon="-2.1997600">
<ele>322.783203</ele>
<time>2007-12-04T07:09:27.003Z</time>
</trkpt>
<trkpt lat="43.2459000" lon="-2.1997900">
<ele>321.563995</ele>
<time>2007-12-04T07:09:28.999Z</time>
</trkpt>
<trkpt lat="43.2458300" lon="-2.1999100">
<ele>318.820801</ele>
<time>2007-12-04T07:09:35.997Z</time>
</trkpt>
<trkpt lat="43.2457400" lon="-2.2000300">
<ele>315.467987</ele>
<time>2007-12-04T07:09:43.998Z</time>
</trkpt>
<trkpt lat="43.2456100" lon="-2.2001700">
<ele>311.505615</ele>
<time>2007-12-04T07:09:54.003Z</time>
</trkpt>
<trkpt lat="43.2455000" lon="-2.2003100">
<ele>308.152802</ele>
<time>2007-12-04T07:10:02.997Z</time>
</trkpt>
<trkpt lat="43.2454100" lon="-2.2004100">
<ele>306.324005</ele>
<time>2007-12-04T07:10:10.004Z</time>
</trkpt>
<trkpt lat="43.2452700" lon="-2.2006400">
<ele>302.971191</ele>
<time>2007-12-04T07:10:24.001Z</time>
</trkpt>
<trkpt lat="43.2451600" lon="-2.2008000">
<ele>299.618408</ele>
<time>2007-12-04T07:10:36.002Z</time>
</trkpt>
<trkpt lat="43.2451500" lon="-2.2008200">
<ele>299.008789</ele>
<time>2007-12-04T07:10:37.004Z</time>
</trkpt>
<trkpt lat="43.2450600" lon="-2.2008900">
<ele>298.094391</ele>
<time>2007-12-04T07:10:44.996Z</time>
</trkpt>
<trkpt lat="43.2450100" lon="-2.2009700">
<ele>296.570404</ele>
<time>2007-12-04T07:10:51.001Z</time>
</trkpt>
<trkpt lat="43.2448500" lon="-2.2012100">
<ele>292.912811</ele>
<time>2007-12-04T07:11:06.000Z</time>
</trkpt>
<trkpt lat="43.2447800" lon="-2.2013100">
<ele>291.084015</ele>
<time>2007-12-04T07:11:12.998Z</time>
</trkpt>
<trkpt lat="43.2446700" lon="-2.2014900">
<ele>287.731201</ele>
<time>2007-12-04T07:11:23.997Z</time>
</trkpt>
<trkpt lat="43.2446600" lon="-2.2015000">
<ele>287.731201</ele>
<time>2007-12-04T07:11:24.999Z</time>
</trkpt>
<trkpt lat="43.2445600" lon="-2.2016900">
<ele>284.073608</ele>
<time>2007-12-04T07:11:35.998Z</time>
</trkpt>
<trkpt lat="43.2445100" lon="-2.2018700">
<ele>281.330414</ele>
<time>2007-12-04T07:11:46.003Z</time>
</trkpt>
<trkpt lat="43.2445000" lon="-2.2019100">
<ele>279.806396</ele>
<time>2007-12-04T07:11:47.999Z</time>
</trkpt>
<trkpt lat="43.2445100" lon="-2.2020500">
<ele>277.368011</ele>
<time>2007-12-04T07:11:54.997Z</time>
</trkpt>
<trkpt lat="43.2445000" lon="-2.2021300">
<ele>276.453613</ele>
<time>2007-12-04T07:11:58.998Z</time>
</trkpt>
<trkpt lat="43.2444300" lon="-2.2021300">
<ele>273.710388</ele>
<time>2007-12-04T07:12:05.003Z</time>
</trkpt>
<trkpt lat="43.2443900" lon="-2.2021100">
<ele>272.795990</ele>
<time>2007-12-04T07:12:08.001Z</time>
</trkpt>
<trkpt lat="43.2442700" lon="-2.2020500">
<ele>269.443207</ele>
<time>2007-12-04T07:12:17.004Z</time>
</trkpt>
<trkpt lat="43.2441700" lon="-2.2020500">
<ele>266.090393</ele>
<time>2007-12-04T07:12:31.000Z</time>
</trkpt>
<trkpt lat="43.2441600" lon="-2.2020700">
<ele>265.480804</ele>
<time>2007-12-04T07:12:32.996Z</time>
</trkpt>
<trkpt lat="43.2441400" lon="-2.2022600">
<ele>261.518402</ele>
<time>2007-12-04T07:12:43.001Z</time>
</trkpt>
<trkpt lat="43.2441500" lon="-2.2023700">
<ele>260.299194</ele>
<time>2007-12-04T07:12:48.004Z</time>
</trkpt>
<trkpt lat="43.2442000" lon="-2.2025900">
<ele>256.946411</ele>
<time>2007-12-04T07:12:59.996Z</time>
</trkpt>
<trkpt lat="43.2442900" lon="-2.2027500">
<ele>253.593597</ele>
<time>2007-12-04T07:13:08.999Z</time>
</trkpt>
<trkpt lat="43.2443900" lon="-2.2029400">
<ele>250.545593</ele>
<time>2007-12-04T07:13:21.000Z</time>
</trkpt>
<trkpt lat="43.2444000" lon="-2.2029700">
<ele>249.021606</ele>
<time>2007-12-04T07:13:30.003Z</time>
</trkpt>
<trkpt lat="43.2443900" lon="-2.2030100">
<ele>248.107193</ele>
<time>2007-12-04T07:13:31.999Z</time>
</trkpt>
<trkpt lat="43.2443200" lon="-2.2030700">
<ele>246.278397</ele>
<time>2007-12-04T07:13:37.001Z</time>
</trkpt>
<trkpt lat="43.2442300" lon="-2.2031500">
<ele>243.839996</ele>
<time>2007-12-04T07:13:42.997Z</time>
</trkpt>
<trkpt lat="43.2441100" lon="-2.2032300">
<ele>241.096802</ele>
<time>2007-12-04T07:13:50.998Z</time>
</trkpt>
<trkpt lat="43.2440900" lon="-2.2032500">
<ele>239.877594</ele>
<time>2007-12-04T07:13:53.003Z</time>
</trkpt>
<trkpt lat="43.2439700" lon="-2.2033000">
<ele>236.524796</ele>
<time>2007-12-04T07:14:02.999Z</time>
</trkpt>
<trkpt lat="43.2439400" lon="-2.2033200">
<ele>235.610397</ele>
<time>2007-12-04T07:14:05.997Z</time>
</trkpt>
<trkpt lat="43.2438100" lon="-2.2034200">
<ele>232.257599</ele>
<time>2007-12-04T07:14:16.996Z</time>
</trkpt>
<trkpt lat="43.2436700" lon="-2.2035600">
<ele>228.600006</ele>
<time>2007-12-04T07:14:28.997Z</time>
</trkpt>
<trkpt lat="43.2435800" lon="-2.2036900">
<ele>226.466400</ele>
<time>2007-12-04T07:15:09.000Z</time>
</trkpt>
<trkpt lat="43.2435200" lon="-2.2038800">
<ele>222.199203</ele>
<time>2007-12-04T07:15:19.999Z</time>
</trkpt>
<trkpt lat="43.2434400" lon="-2.2041300">
<ele>219.455994</ele>
<time>2007-12-04T07:15:33.002Z</time>
</trkpt>
<trkpt lat="43.2433700" lon="-2.2043100">
<ele>216.103195</ele>
<time>2007-12-04T07:15:44.001Z</time>
</trkpt>
<trkpt lat="43.2432900" lon="-2.2044300">
<ele>212.750397</ele>
<time>2007-12-04T07:15:53.004Z</time>
</trkpt>
<trkpt lat="43.2432500" lon="-2.2045200">
<ele>210.616806</ele>
<time>2007-12-04T07:15:59.000Z</time>
</trkpt>
<trkpt lat="43.2431000" lon="-2.2047300">
<ele>207.873596</ele>
<time>2007-12-04T07:16:15.001Z</time>
</trkpt>
<trkpt lat="43.2430900" lon="-2.2047400">
<ele>206.959198</ele>
<time>2007-12-04T07:16:19.001Z</time>
</trkpt>
<trkpt lat="43.2429920" lon="-2.2047470">
<ele>202.387207</ele>
<time>2007-12-04T07:16:39.003Z</time>
</trkpt>
<trkpt lat="43.2429350" lon="-2.2046310">
<ele>199.034393</ele>
<time>2007-12-04T07:16:50.002Z</time>
</trkpt>
<trkpt lat="43.2429060" lon="-2.2045150">
<ele>195.681595</ele>
<time>2007-12-04T07:17:01.000Z</time>
</trkpt>
<trkpt lat="43.2428760" lon="-2.2042830">
<ele>193.243195</ele>
<time>2007-12-04T07:17:11.999Z</time>
</trkpt>
<trkpt lat="43.2428170" lon="-2.2040510">
<ele>191.414398</ele>
<time>2007-12-04T07:17:17.002Z</time>
</trkpt>
<trkpt lat="43.2427590" lon="-2.2038960">
<ele>188.061600</ele>
<time>2007-12-04T07:17:32.001Z</time>
</trkpt>
<trkpt lat="43.2427300" lon="-2.2037800">
<ele>188.671204</ele>
<time>2007-12-04T07:17:47.000Z</time>
</trkpt>
<trkpt lat="43.2426440" lon="-2.2035880">
<ele>188.975998</ele>
<time>2007-12-04T07:18:04.997Z</time>
</trkpt>
<trkpt lat="43.2425580" lon="-2.2034720">
<ele>188.671204</ele>
<time>2007-12-04T07:18:08.004Z</time>
</trkpt>
<trkpt lat="43.2425010" lon="-2.2034730">
<ele>187.147202</ele>
<time>2007-12-04T07:18:38.002Z</time>
</trkpt>
<trkpt lat="43.2424450" lon="-2.2035510">
<ele>177.088806</ele>
<time>2007-12-04T07:19:08.000Z</time>
</trkpt>
<trkpt lat="43.2424210" lon="-2.2041330">
<ele>168.859207</ele>
<time>2007-12-04T07:19:29.004Z</time>
</trkpt>
<trkpt lat="43.2422870" lon="-2.2042510">
<ele>168.249603</ele>
<time>2007-12-04T07:19:29.997Z</time>
</trkpt>
<trkpt lat="43.2422800" lon="-2.2042900">
<ele>165.506393</ele>
<time>2007-12-04T07:19:40.996Z</time>
</trkpt>
<trkpt lat="43.2420540" lon="-2.2044100">
<ele>163.067993</ele>
<time>2007-12-04T07:19:49.999Z</time>
</trkpt>
<trkpt lat="43.2420540" lon="-2.2043710">
<ele>159.715195</ele>
<time>2007-12-04T07:20:07.996Z</time>
</trkpt>
<trkpt lat="43.2418280" lon="-2.2045680">
<ele>156.362396</ele>
<time>2007-12-04T07:20:19.997Z</time>
</trkpt>
<trkpt lat="43.2418280" lon="-2.2045680">
<ele>155.752808</ele>
<time>2007-12-04T07:20:20.999Z</time>
</trkpt>
<trkpt lat="43.2415170" lon="-2.2046110">
<ele>147.828003</ele>
<time>2007-12-04T07:20:54.004Z</time>
</trkpt>
<trkpt lat="43.2414580" lon="-2.2044170">
<ele>147.218399</ele>
<time>2007-12-04T07:21:06.998Z</time>
</trkpt>
<trkpt lat="43.2415410" lon="-2.2041060">
<ele>146.304001</ele>
<time>2007-12-04T07:21:10.999Z</time>
</trkpt>
<trkpt lat="43.2417370" lon="-2.2037540">
<ele>138.684006</ele>
<time>2007-12-04T07:21:32.996Z</time>
</trkpt>
<trkpt lat="43.2417370" lon="-2.2037540">
<ele>138.074402</ele>
<time>2007-12-04T07:21:33.998Z</time>
</trkpt>
<trkpt lat="43.2416230" lon="-2.2036780">
<ele>135.331207</ele>
<time>2007-12-04T07:21:43.001Z</time>
</trkpt>
<trkpt lat="43.2415950" lon="-2.2037170">
<ele>133.807205</ele>
<time>2007-12-04T07:21:56.998Z</time>
</trkpt>
<trkpt lat="43.2415950" lon="-2.2037170">
<ele>133.197601</ele>
<time>2007-12-04T07:22:15.997Z</time>
</trkpt>
<trkpt lat="43.2414830" lon="-2.2039130">
<ele>129.844803</ele>
<time>2007-12-04T07:22:26.996Z</time>
</trkpt>
<trkpt lat="43.2414040" lon="-2.2039920">
<ele>123.748802</ele>
<time>2007-12-04T07:22:48.000Z</time>
</trkpt>
<trkpt lat="43.2412860" lon="-2.2040710">
<ele>116.128799</ele>
<time>2007-12-04T07:23:44.998Z</time>
</trkpt>
<trkpt lat="43.2412300" lon="-2.2041490">
<ele>116.128799</ele>
<time>2007-12-04T07:23:46.000Z</time>
</trkpt>
<trkpt lat="43.2412300" lon="-2.2041490">
<ele>115.519203</ele>
<time>2007-12-04T07:24:17.001Z</time>
</trkpt>
<trkpt lat="43.2411170" lon="-2.2042280">
<ele>112.166397</ele>
<time>2007-12-04T07:24:34.998Z</time>
</trkpt>
<trkpt lat="43.2409490" lon="-2.2045010">
<ele>109.727997</ele>
<time>2007-12-04T07:24:40.000Z</time>
</trkpt>
<trkpt lat="43.2409210" lon="-2.2046180">
<ele>108.204002</ele>
<time>2007-12-04T07:24:53.004Z</time>
</trkpt>
<trkpt lat="43.2408660" lon="-2.2048900">
<ele>108.204002</ele>
<time>2007-12-04T07:25:11.001Z</time>
</trkpt>
<trkpt lat="43.2407540" lon="-2.2050860">
<ele>104.851196</ele>
<time>2007-12-04T07:25:24.004Z</time>
</trkpt>
<trkpt lat="43.2407270" lon="-2.2052020">
<ele>104.546402</ele>
<time>2007-12-04T07:25:26.000Z</time>
</trkpt>
<trkpt lat="43.2406700" lon="-2.2052420">
<ele>101.498398</ele>
<time>2007-12-04T07:25:38.001Z</time>
</trkpt>
<trkpt lat="43.2405300" lon="-2.2055150">
<ele>98.145599</ele>
<time>2007-12-04T07:25:46.001Z</time>
</trkpt>
<trkpt lat="43.2404740" lon="-2.2056320">
<ele>94.487999</ele>
<time>2007-12-04T07:25:59.998Z</time>
</trkpt>
<trkpt lat="43.2404740" lon="-2.2056320">
<ele>96.316803</ele>
<time>2007-12-04T07:26:09.001Z</time>
</trkpt>
<trkpt lat="43.2404460" lon="-2.2056710">
<ele>93.878403</ele>
<time>2007-12-04T07:26:24.000Z</time>
</trkpt>
<trkpt lat="43.2403900" lon="-2.2057500">
<ele>91.135201</ele>
<time>2007-12-04T07:26:37.997Z</time>
</trkpt>
<trkpt lat="43.2403340" lon="-2.2058280">
<ele>87.782402</ele>
<time>2007-12-04T07:26:49.998Z</time>
</trkpt>
<trkpt lat="43.2403060" lon="-2.2058670">
<ele>87.782402</ele>
<time>2007-12-04T07:26:51.000Z</time>
</trkpt>
<trkpt lat="43.2402490" lon="-2.2059070">
<ele>86.563202</ele>
<time>2007-12-04T07:26:56.003Z</time>
</trkpt>
<trkpt lat="43.2402510" lon="-2.2061010">
<ele>82.905602</ele>
<time>2007-12-04T07:27:08.997Z</time>
</trkpt>
<trkpt lat="43.2402510" lon="-2.2061010">
<ele>82.295998</ele>
<time>2007-12-04T07:27:09.999Z</time>
</trkpt>
<trkpt lat="43.2403090" lon="-2.2062550">
<ele>79.552803</ele>
<time>2007-12-04T07:27:20.998Z</time>
</trkpt>
<trkpt lat="43.2404240" lon="-2.2066030">
<ele>78.943199</ele>
<time>2007-12-04T07:27:30.001Z</time>
</trkpt>
<trkpt lat="43.2404820" lon="-2.2067570">
<ele>78.943199</ele>
<time>2007-12-04T07:27:35.997Z</time>
</trkpt>
<trkpt lat="43.2405390" lon="-2.2067950">
<ele>78.943199</ele>
<time>2007-12-04T07:27:51.998Z</time>
</trkpt>
<trkpt lat="43.2405390" lon="-2.2068340">
<ele>80.772003</ele>
<time>2007-12-04T07:28:20.001Z</time>
</trkpt>
<trkpt lat="43.2405970" lon="-2.2069880">
<ele>76.504799</ele>
<time>2007-12-04T07:28:49.999Z</time>
</trkpt>
<trkpt lat="43.2406830" lon="-2.2071030">
<ele>79.552803</ele>
<time>2007-12-04T07:29:03.002Z</time>
</trkpt>
<trkpt lat="43.2407690" lon="-2.2072580">
<ele>80.772003</ele>
<time>2007-12-04T07:29:14.001Z</time>
</trkpt>
<trkpt lat="43.2408270" lon="-2.2073340">
<ele>81.381599</ele>
<time>2007-12-04T07:29:22.001Z</time>
</trkpt>
<trkpt lat="43.2408850" lon="-2.2076050">
<ele>78.943199</ele>
<time>2007-12-04T07:29:46.003Z</time>
</trkpt>
<trkpt lat="43.2408300" lon="-2.2078300">
<ele>79.552803</ele>
<time>2007-12-04T07:30:13.003Z</time>
</trkpt>
<trkpt lat="43.2408300" lon="-2.2078500">
<ele>79.857597</ele>
<time>2007-12-04T07:30:13.997Z</time>
</trkpt>
<trkpt lat="43.2407230" lon="-2.2080320">
<ele>79.552803</ele>
<time>2007-12-04T07:30:31.000Z</time>
</trkpt>
<trkpt lat="43.2405700" lon="-2.2081200">
<ele>80.772003</ele>
<time>2007-12-04T07:30:45.999Z</time>
</trkpt>
<trkpt lat="43.2405300" lon="-2.2081300">
<ele>80.772003</ele>
<time>2007-12-04T07:30:56.998Z</time>
</trkpt>
<trkpt lat="43.2405100" lon="-2.2081400">
<ele>81.991203</ele>
<time>2007-12-04T07:31:03.003Z</time>
</trkpt>
<trkpt lat="43.2404700" lon="-2.2082900">
<ele>85.344002</ele>
<time>2007-12-04T07:31:15.004Z</time>
</trkpt>
<trkpt lat="43.2404700" lon="-2.2083700">
<ele>86.563202</ele>
<time>2007-12-04T07:31:21.000Z</time>
</trkpt>
<trkpt lat="43.2405100" lon="-2.2085400">
<ele>89.916000</ele>
<time>2007-12-04T07:31:33.001Z</time>
</trkpt>
<trkpt lat="43.2405200" lon="-2.2088000">
<ele>92.963997</ele>
<time>2007-12-04T07:31:49.002Z</time>
</trkpt>
<trkpt lat="43.2404600" lon="-2.2088000">
<ele>95.402397</ele>
<time>2007-12-04T07:31:56.001Z</time>
</trkpt>
<trkpt lat="43.2403500" lon="-2.2086700">
<ele>99.059998</ele>
<time>2007-12-04T07:32:09.004Z</time>
</trkpt>
<trkpt lat="43.2403500" lon="-2.2086500">
<ele>99.059998</ele>
<time>2007-12-04T07:32:09.997Z</time>
</trkpt>
<trkpt lat="43.2403000" lon="-2.2085500">
<ele>101.193604</ele>
<time>2007-12-04T07:32:16.996Z</time>
</trkpt>
<trkpt lat="43.2402800" lon="-2.2085300">
<ele>101.193604</ele>
<time>2007-12-04T07:32:19.000Z</time>
</trkpt>
<trkpt lat="43.2402400" lon="-2.2085600">
<ele>103.022400</ele>
<time>2007-12-04T07:32:24.003Z</time>
</trkpt>
<trkpt lat="43.2402200" lon="-2.2086100">
<ele>103.632004</ele>
<time>2007-12-04T07:32:28.003Z</time>
</trkpt>
<trkpt lat="43.2402200" lon="-2.2087900">
<ele>106.984802</ele>
<time>2007-12-04T07:32:39.002Z</time>
</trkpt>
<trkpt lat="43.2402100" lon="-2.2088900">
<ele>109.118401</ele>
<time>2007-12-04T07:32:47.003Z</time>
</trkpt>
<trkpt lat="43.2401700" lon="-2.2089200">
<ele>111.251999</ele>
<time>2007-12-04T07:32:51.996Z</time>
</trkpt>
<trkpt lat="43.2400800" lon="-2.2088500">
<ele>112.776001</ele>
<time>2007-12-04T07:32:59.997Z</time>
</trkpt>
<trkpt lat="43.2399800" lon="-2.2087300">
<ele>116.433601</ele>
<time>2007-12-04T07:33:14.003Z</time>
</trkpt>
<trkpt lat="43.2399200" lon="-2.2087500">
<ele>119.786400</ele>
<time>2007-12-04T07:33:26.997Z</time>
</trkpt>
<trkpt lat="43.2399200" lon="-2.2087800">
<ele>120.700798</ele>
<time>2007-12-04T07:33:30.004Z</time>
</trkpt>
<trkpt lat="43.2399000" lon="-2.2090200">
<ele>124.053596</ele>
<time>2007-12-04T07:33:45.996Z</time>
</trkpt>
<trkpt lat="43.2398300" lon="-2.2091300">
<ele>126.187202</ele>
<time>2007-12-04T07:33:56.002Z</time>
</trkpt>
<trkpt lat="43.2397800" lon="-2.2092300">
<ele>127.101601</ele>
<time>2007-12-04T07:34:07.000Z</time>
</trkpt>
<trkpt lat="43.2397900" lon="-2.2092500">
<ele>128.930405</ele>
<time>2007-12-04T07:34:08.996Z</time>
</trkpt>
<trkpt lat="43.2397900" lon="-2.2093100">
<ele>129.539993</ele>
<time>2007-12-04T07:34:15.001Z</time>
</trkpt>
<trkpt lat="43.2397600" lon="-2.2094900">
<ele>132.892807</ele>
<time>2007-12-04T07:34:28.004Z</time>
</trkpt>
<trkpt lat="43.2397600" lon="-2.2095000">
<ele>133.197601</ele>
<time>2007-12-04T07:34:28.998Z</time>
</trkpt>
<trkpt lat="43.2397200" lon="-2.2097100">
<ele>136.550400</ele>
<time>2007-12-04T07:34:43.003Z</time>
</trkpt>
<trkpt lat="43.2396800" lon="-2.2099400">
<ele>139.903198</ele>
<time>2007-12-04T07:34:55.998Z</time>
</trkpt>
<trkpt lat="43.2397300" lon="-2.2099700">
<ele>142.951202</ele>
<time>2007-12-04T07:35:05.001Z</time>
</trkpt>
<trkpt lat="43.2398300" lon="-2.2098800">
<ele>145.694397</ele>
<time>2007-12-04T07:35:15.999Z</time>
</trkpt>
<trkpt lat="43.2397600" lon="-2.2100500">
<ele>148.742401</ele>
<time>2007-12-04T07:35:28.000Z</time>
</trkpt>
<trkpt lat="43.2397100" lon="-2.2102900">
<ele>152.095200</ele>
<time>2007-12-04T07:35:42.999Z</time>
</trkpt>
<trkpt lat="43.2396800" lon="-2.2104600">
<ele>155.447998</ele>
<time>2007-12-04T07:35:53.998Z</time>
</trkpt>
<trkpt lat="43.2396600" lon="-2.2106000">
<ele>158.800797</ele>
<time>2007-12-04T07:36:04.997Z</time>
</trkpt>
<trkpt lat="43.2396400" lon="-2.2107400">
<ele>161.544006</ele>
<time>2007-12-04T07:36:15.002Z</time>
</trkpt>
<trkpt lat="43.2396400" lon="-2.2107700">
<ele>161.544006</ele>
<time>2007-12-04T07:36:16.998Z</time>
</trkpt>
<trkpt lat="43.2396100" lon="-2.2109200">
<ele>165.506393</ele>
<time>2007-12-04T07:36:28.999Z</time>
</trkpt>
<trkpt lat="43.2395800" lon="-2.2110500">
<ele>168.859207</ele>
<time>2007-12-04T07:36:41.000Z</time>
</trkpt>
<trkpt lat="43.2395700" lon="-2.2111100">
<ele>170.688004</ele>
<time>2007-12-04T07:36:46.002Z</time>
</trkpt>
<trkpt lat="43.2396000" lon="-2.2111200">
<ele>171.297607</ele>
<time>2007-12-04T07:36:50.996Z</time>
</trkpt>
<trkpt lat="43.2396100" lon="-2.2110900">
<ele>171.602402</ele>
<time>2007-12-04T07:36:53.001Z</time>
</trkpt>
<trkpt lat="43.2396200" lon="-2.2110700">
<ele>172.821594</ele>
<time>2007-12-04T07:36:54.996Z</time>
</trkpt>
<trkpt lat="43.2397400" lon="-2.2109000">
<ele>175.259995</ele>
<time>2007-12-04T07:37:10.004Z</time>
</trkpt>
<trkpt lat="43.2398800" lon="-2.2107400">
<ele>177.393600</ele>
<time>2007-12-04T07:37:24.001Z</time>
</trkpt>
<trkpt lat="43.2400600" lon="-2.2107100">
<ele>179.527206</ele>
<time>2007-12-04T07:37:39.000Z</time>
</trkpt>
<trkpt lat="43.2401400" lon="-2.2107500">
<ele>179.832001</ele>
<time>2007-12-04T07:37:44.996Z</time>
</trkpt>
<trkpt lat="43.2402500" lon="-2.2108100">
<ele>182.270401</ele>
<time>2007-12-04T07:37:55.001Z</time>
</trkpt>
<trkpt lat="43.2402700" lon="-2.2108300">
<ele>182.880005</ele>
<time>2007-12-04T07:37:56.997Z</time>
</trkpt>
<trkpt lat="43.2403900" lon="-2.2109400">
<ele>183.794403</ele>
<time>2007-12-04T07:38:07.996Z</time>
</trkpt>
<trkpt lat="43.2405100" lon="-2.2110700">
<ele>187.756805</ele>
<time>2007-12-04T07:38:20.999Z</time>
</trkpt>
<trkpt lat="43.2405200" lon="-2.2111300">
<ele>188.061600</ele>
<time>2007-12-04T07:38:27.004Z</time>
</trkpt>
<trkpt lat="43.2403900" lon="-2.2110700">
<ele>189.890396</ele>
<time>2007-12-04T07:38:38.003Z</time>
</trkpt>
<trkpt lat="43.2402500" lon="-2.2110300">
<ele>192.024002</ele>
<time>2007-12-04T07:38:49.001Z</time>
</trkpt>
<trkpt lat="43.2402300" lon="-2.2110300">
<ele>192.024002</ele>
<time>2007-12-04T07:38:50.997Z</time>
</trkpt>
<trkpt lat="43.2400500" lon="-2.2110900">
<ele>194.767197</ele>
<time>2007-12-04T07:39:05.996Z</time>
</trkpt>
<trkpt lat="43.2399100" lon="-2.2112700">
<ele>197.815201</ele>
<time>2007-12-04T07:39:21.004Z</time>
</trkpt>
<trkpt lat="43.2398100" lon="-2.2115300">
<ele>200.253601</ele>
<time>2007-12-04T07:39:35.001Z</time>
</trkpt>
<trkpt lat="43.2397600" lon="-2.2116900">
<ele>202.082397</ele>
<time>2007-12-04T07:39:44.997Z</time>
</trkpt>
<trkpt lat="43.2397500" lon="-2.2117700">
<ele>204.520798</ele>
<time>2007-12-04T07:39:50.000Z</time>
</trkpt>
<trkpt lat="43.2397400" lon="-2.2118200">
<ele>204.825607</ele>
<time>2007-12-04T07:39:54.000Z</time>
</trkpt>
<trkpt lat="43.2397300" lon="-2.2119000">
<ele>206.349594</ele>
<time>2007-12-04T07:39:59.003Z</time>
</trkpt>
<trkpt lat="43.2397100" lon="-2.2120700">
<ele>208.787994</ele>
<time>2007-12-04T07:40:11.004Z</time>
</trkpt>
<trkpt lat="43.2397000" lon="-2.2122200">
<ele>211.531204</ele>
<time>2007-12-04T07:40:21.000Z</time>
</trkpt>
<trkpt lat="43.2396200" lon="-2.2123400">
<ele>214.579193</ele>
<time>2007-12-04T07:40:33.001Z</time>
</trkpt>
<trkpt lat="43.2395100" lon="-2.2124200">
<ele>217.017593</ele>
<time>2007-12-04T07:40:42.997Z</time>
</trkpt>
<trkpt lat="43.2394600" lon="-2.2125000">
<ele>218.846405</ele>
<time>2007-12-04T07:40:52.000Z</time>
</trkpt>
<trkpt lat="43.2393500" lon="-2.2127500">
<ele>222.808807</ele>
<time>2007-12-04T07:41:05.997Z</time>
</trkpt>
<trkpt lat="43.2393300" lon="-2.2128700">
<ele>224.028000</ele>
<time>2007-12-04T07:41:13.998Z</time>
</trkpt>
<trkpt lat="43.2393200" lon="-2.2129900">
<ele>227.076004</ele>
<time>2007-12-04T07:41:24.003Z</time>
</trkpt>
<trkpt lat="43.2391900" lon="-2.2130800">
<ele>228.904800</ele>
<time>2007-12-04T07:41:36.997Z</time>
</trkpt>
<trkpt lat="43.2391500" lon="-2.2131000">
<ele>230.428802</ele>
<time>2007-12-04T07:41:40.004Z</time>
</trkpt>
<trkpt lat="43.2390400" lon="-2.2131500">
<ele>232.867203</ele>
<time>2007-12-04T07:41:51.996Z</time>
</trkpt>
<trkpt lat="43.2390300" lon="-2.2132100">
<ele>233.781601</ele>
<time>2007-12-04T07:42:17.001Z</time>
</trkpt>
<trkpt lat="43.2390000" lon="-2.2132500">
<ele>234.695999</ele>
<time>2007-12-04T07:42:21.001Z</time>
</trkpt>
<trkpt lat="43.2390200" lon="-2.2132700">
<ele>235.610397</ele>
<time>2007-12-04T07:42:26.004Z</time>
</trkpt>
<trkpt lat="43.2391600" lon="-2.2132100">
<ele>238.658401</ele>
<time>2007-12-04T07:42:38.998Z</time>
</trkpt>
<trkpt lat="43.2392500" lon="-2.2131900">
<ele>238.658401</ele>
<time>2007-12-04T07:42:45.003Z</time>
</trkpt>
<trkpt lat="43.2393200" lon="-2.2131700">
<ele>239.572800</ele>
<time>2007-12-04T07:42:53.004Z</time>
</trkpt>
<trkpt lat="43.2393600" lon="-2.2132000">
<ele>240.487198</ele>
<time>2007-12-04T07:42:59.000Z</time>
</trkpt>
<trkpt lat="43.2392400" lon="-2.2133300">
<ele>243.839996</ele>
<time>2007-12-04T07:43:08.996Z</time>
</trkpt>
<trkpt lat="43.2392200" lon="-2.2133500">
<ele>244.449600</ele>
<time>2007-12-04T07:43:12.003Z</time>
</trkpt>
<trkpt lat="43.2392000" lon="-2.2134400">
<ele>245.668793</ele>
<time>2007-12-04T07:43:19.001Z</time>
</trkpt>
<trkpt lat="43.2391000" lon="-2.2136100">
<ele>248.716797</ele>
<time>2007-12-04T07:43:31.996Z</time>
</trkpt>
<trkpt lat="43.2390400" lon="-2.2137000">
<ele>249.631195</ele>
<time>2007-12-04T07:43:39.003Z</time>
</trkpt>
<trkpt lat="43.2390200" lon="-2.2137400">
<ele>251.155197</ele>
<time>2007-12-04T07:43:42.001Z</time>
</trkpt>
<trkpt lat="43.2388900" lon="-2.2138800">
<ele>253.898407</ele>
<time>2007-12-04T07:43:55.998Z</time>
</trkpt>
<trkpt lat="43.2388200" lon="-2.2139700">
<ele>257.251190</ele>
<time>2007-12-04T07:44:06.003Z</time>
</trkpt>
<trkpt lat="43.2386900" lon="-2.2141500">
<ele>260.604004</ele>
<time>2007-12-04T07:44:20.000Z</time>
</trkpt>
<trkpt lat="43.2386600" lon="-2.2142000">
<ele>261.213593</ele>
<time>2007-12-04T07:44:24.000Z</time>
</trkpt>
<trkpt lat="43.2386400" lon="-2.2142400">
<ele>262.127991</ele>
<time>2007-12-04T07:44:26.998Z</time>
</trkpt>
<trkpt lat="43.2386200" lon="-2.2142900">
<ele>263.042389</ele>
<time>2007-12-04T07:44:30.998Z</time>
</trkpt>
<trkpt lat="43.2385900" lon="-2.2143600">
<ele>263.652008</ele>
<time>2007-12-04T07:44:34.999Z</time>
</trkpt>
<trkpt lat="43.2385000" lon="-2.2145300">
<ele>266.395203</ele>
<time>2007-12-04T07:44:49.998Z</time>
</trkpt>
<trkpt lat="43.2383800" lon="-2.2145700">
<ele>270.357605</ele>
<time>2007-12-04T07:45:01.999Z</time>
</trkpt>
<trkpt lat="43.2382500" lon="-2.2146900">
<ele>273.710388</ele>
<time>2007-12-04T07:45:16.004Z</time>
</trkpt>
<trkpt lat="43.2381900" lon="-2.2147300">
<ele>274.624786</ele>
<time>2007-12-04T07:45:22.000Z</time>
</trkpt>
<trkpt lat="43.2380300" lon="-2.2148300">
<ele>277.368011</ele>
<time>2007-12-04T07:45:35.004Z</time>
</trkpt>
<trkpt lat="43.2378400" lon="-2.2148500">
<ele>280.720795</ele>
<time>2007-12-04T07:45:53.001Z</time>
</trkpt>
<trkpt lat="43.2377800" lon="-2.2148700">
<ele>282.244812</ele>
<time>2007-12-04T07:45:58.997Z</time>
</trkpt>
<trkpt lat="43.2376400" lon="-2.2149100">
<ele>285.597595</ele>
<time>2007-12-04T07:46:13.002Z</time>
</trkpt>
<trkpt lat="43.2376300" lon="-2.2149100">
<ele>285.597595</ele>
<time>2007-12-04T07:46:13.996Z</time>
</trkpt>
<trkpt lat="43.2375100" lon="-2.2148700">
<ele>288.950409</ele>
<time>2007-12-04T07:46:26.999Z</time>
</trkpt>
<trkpt lat="43.2374300" lon="-2.2148600">
<ele>291.084015</ele>
<time>2007-12-04T07:46:37.004Z</time>
</trkpt>
<trkpt lat="43.2374100" lon="-2.2148900">
<ele>289.559998</ele>
<time>2007-12-04T07:46:43.000Z</time>
</trkpt>
<trkpt lat="43.2373900" lon="-2.2149800">
<ele>291.388794</ele>
<time>2007-12-04T07:46:48.996Z</time>
</trkpt>
<trkpt lat="43.2374300" lon="-2.2152500">
<ele>294.741608</ele>
<time>2007-12-04T07:47:06.000Z</time>
</trkpt>
<trkpt lat="43.2374800" lon="-2.2155000">
<ele>297.789612</ele>
<time>2007-12-04T07:47:20.999Z</time>
</trkpt>
<trkpt lat="43.2374800" lon="-2.2157900">
<ele>300.227997</ele>
<time>2007-12-04T07:47:38.003Z</time>
</trkpt>
<trkpt lat="43.2374200" lon="-2.2161300">
<ele>302.971191</ele>
<time>2007-12-04T07:47:58.004Z</time>
</trkpt>
<trkpt lat="43.2373500" lon="-2.2166000">
<ele>303.885590</ele>
<time>2007-12-04T07:48:21.997Z</time>
</trkpt>
<trkpt lat="43.2372500" lon="-2.2168600">
<ele>303.580811</ele>
<time>2007-12-04T07:48:40.003Z</time>
</trkpt>
<trkpt lat="43.2372600" lon="-2.2168700">
<ele>303.580811</ele>
<time>2007-12-04T07:49:23.998Z</time>
</trkpt>
<trkpt lat="43.2372400" lon="-2.2168700">
<ele>303.885590</ele>
<time>2007-12-04T07:49:39.999Z</time>
</trkpt>
<trkpt lat="43.2372200" lon="-2.2168200">
<ele>302.361603</ele>
<time>2007-12-04T07:49:42.997Z</time>
</trkpt>
<trkpt lat="43.2371300" lon="-2.2164100">
<ele>303.580811</ele>
<time>2007-12-04T07:50:04.001Z</time>
</trkpt>
<trkpt lat="43.2369900" lon="-2.2160100">
<ele>303.885590</ele>
<time>2007-12-04T07:50:24.003Z</time>
</trkpt>
<trkpt lat="43.2367700" lon="-2.2157100">
<ele>305.409607</ele>
<time>2007-12-04T07:50:44.998Z</time>
</trkpt>
<trkpt lat="43.2367100" lon="-2.2156800">
<ele>306.324005</ele>
<time>2007-12-04T07:51:03.004Z</time>
</trkpt>
<trkpt lat="43.2364700" lon="-2.2154800">
<ele>309.067200</ele>
<time>2007-12-04T07:51:22.003Z</time>
</trkpt>
<trkpt lat="43.2363000" lon="-2.2154100">
<ele>312.724792</ele>
<time>2007-12-04T07:51:34.998Z</time>
</trkpt>
<trkpt lat="43.2360600" lon="-2.2153800">
<ele>315.467987</ele>
<time>2007-12-04T07:51:52.001Z</time>
</trkpt>
<trkpt lat="43.2358600" lon="-2.2154300">
<ele>318.820801</ele>
<time>2007-12-04T07:52:07.000Z</time>
</trkpt>
<trkpt lat="43.2356200" lon="-2.2155300">
<ele>321.563995</ele>
<time>2007-12-04T07:52:24.997Z</time>
</trkpt>
<trkpt lat="43.2353500" lon="-2.2157600">
<ele>325.221588</ele>
<time>2007-12-04T07:52:47.004Z</time>
</trkpt>
<trkpt lat="43.2352100" lon="-2.2158400">
<ele>328.574402</ele>
<time>2007-12-04T07:53:02.003Z</time>
</trkpt>
<trkpt lat="43.2350520" lon="-2.2157200">
<ele>328.574402</ele>
<time>2007-12-04T07:53:21.002Z</time>
</trkpt>
<trkpt lat="43.2350020" lon="-2.2156300">
<ele>330.403198</ele>
<time>2007-12-04T07:53:26.998Z</time>
</trkpt>
<trkpt lat="43.2348620" lon="-2.2153700">
<ele>333.756012</ele>
<time>2007-12-04T07:53:45.004Z</time>
</trkpt>
<trkpt lat="43.2346920" lon="-2.2151200">
<ele>337.108795</ele>
<time>2007-12-04T07:54:03.001Z</time>
</trkpt>
<trkpt lat="43.2345720" lon="-2.2150000">
<ele>339.851990</ele>
<time>2007-12-04T07:54:14.000Z</time>
</trkpt>
<trkpt lat="43.2344600" lon="-2.2148500">
<ele>343.204803</ele>
<time>2007-12-04T07:54:27.003Z</time>
</trkpt>
<trkpt lat="43.2343800" lon="-2.2147200">
<ele>346.252808</ele>
<time>2007-12-04T07:54:38.002Z</time>
</trkpt>
<trkpt lat="43.2342700" lon="-2.2145500">
<ele>349.605591</ele>
<time>2007-12-04T07:54:51.998Z</time>
</trkpt>
<trkpt lat="43.2341400" lon="-2.2144100">
<ele>352.348785</ele>
<time>2007-12-04T07:55:05.002Z</time>
</trkpt>
<trkpt lat="43.2338700" lon="-2.2141500">
<ele>353.872803</ele>
<time>2007-12-04T07:55:28.001Z</time>
</trkpt>
<trkpt lat="43.2336000" lon="-2.2137100">
<ele>351.129608</ele>
<time>2007-12-04T07:55:55.001Z</time>
</trkpt>
<trkpt lat="43.2333900" lon="-2.2133500">
<ele>349.605591</ele>
<time>2007-12-04T07:56:16.999Z</time>
</trkpt>
<trkpt lat="43.2332700" lon="-2.2132400">
<ele>350.215210</ele>
<time>2007-12-04T07:56:34.002Z</time>
</trkpt>
<trkpt lat="43.2331300" lon="-2.2131600">
<ele>351.129608</ele>
<time>2007-12-04T07:56:47.999Z</time>
</trkpt>
<trkpt lat="43.2329300" lon="-2.2130400">
<ele>354.482391</ele>
<time>2007-12-04T07:57:04.000Z</time>
</trkpt>
<trkpt lat="43.2327500" lon="-2.2129800">
<ele>356.920807</ele>
<time>2007-12-04T07:57:20.002Z</time>
</trkpt>
<trkpt lat="43.2324500" lon="-2.2129500">
<ele>357.835205</ele>
<time>2007-12-04T07:57:40.003Z</time>
</trkpt>
<trkpt lat="43.2323300" lon="-2.2129700">
<ele>357.225586</ele>
<time>2007-12-04T07:58:10.001Z</time>
</trkpt>
<trkpt lat="43.2321300" lon="-2.2131300">
<ele>357.225586</ele>
<time>2007-12-04T07:58:26.003Z</time>
</trkpt>
<trkpt lat="43.2319300" lon="-2.2133300">
<ele>357.835205</ele>
<time>2007-12-04T07:58:42.997Z</time>
</trkpt>
<trkpt lat="43.2317400" lon="-2.2134800">
<ele>355.701599</ele>
<time>2007-12-04T07:59:01.003Z</time>
</trkpt>
<trkpt lat="43.2315600" lon="-2.2135200">
<ele>353.872803</ele>
<time>2007-12-04T07:59:17.998Z</time>
</trkpt>
<trkpt lat="43.2314400" lon="-2.2135100">
<ele>352.044006</ele>
<time>2007-12-04T07:59:24.996Z</time>
</trkpt>
<trkpt lat="43.2312300" lon="-2.2134700">
<ele>348.996002</ele>
<time>2007-12-04T07:59:36.997Z</time>
</trkpt>
<trkpt lat="43.2309000" lon="-2.2134000">
<ele>345.643188</ele>
<time>2007-12-04T07:59:55.997Z</time>
</trkpt>
<trkpt lat="43.2306200" lon="-2.2133600">
<ele>342.290405</ele>
<time>2007-12-04T08:00:11.998Z</time>
</trkpt>
<trkpt lat="43.2304600" lon="-2.2133500">
<ele>341.985596</ele>
<time>2007-12-04T08:00:22.997Z</time>
</trkpt>
<trkpt lat="43.2305000" lon="-2.2133600">
<ele>341.985596</ele>
<time>2007-12-04T08:00:36.000Z</time>
</trkpt>
<trkpt lat="43.2301400" lon="-2.2133000">
<ele>338.937592</ele>
<time>2007-12-04T08:00:57.997Z</time>
</trkpt>
<trkpt lat="43.2300000" lon="-2.2133200">
<ele>338.632813</ele>
<time>2007-12-04T08:01:11.001Z</time>
</trkpt>
<trkpt lat="43.2299900" lon="-2.2133200">
<ele>338.937592</ele>
<time>2007-12-04T08:01:15.001Z</time>
</trkpt>
<trkpt lat="43.2299200" lon="-2.2133400">
<ele>335.584808</ele>
<time>2007-12-04T08:01:20.004Z</time>
</trkpt>
<trkpt lat="43.2296800" lon="-2.2133900">
<ele>332.231995</ele>
<time>2007-12-04T08:01:34.000Z</time>
</trkpt>
<trkpt lat="43.2295600" lon="-2.2134100">
<ele>329.488800</ele>
<time>2007-12-04T08:01:40.999Z</time>
</trkpt>
<trkpt lat="43.2293900" lon="-2.2134000">
<ele>326.135986</ele>
<time>2007-12-04T08:01:51.004Z</time>
</trkpt>
<trkpt lat="43.2292400" lon="-2.2133800">
<ele>323.088013</ele>
<time>2007-12-04T08:01:59.998Z</time>
</trkpt>
<trkpt lat="43.2292300" lon="-2.2133800">
<ele>322.783203</ele>
<time>2007-12-04T08:02:01.000Z</time>
</trkpt>
<trkpt lat="43.2290800" lon="-2.2133700">
<ele>321.259186</ele>
<time>2007-12-04T08:04:37.998Z</time>
</trkpt>
<trkpt lat="43.2290800" lon="-2.2133700">
<ele>318.211212</ele>
<time>2007-12-04T08:04:49.999Z</time>
</trkpt>
<trkpt lat="43.2290700" lon="-2.2133800">
<ele>319.735199</ele>
<time>2007-12-04T08:04:52.997Z</time>
</trkpt>
<trkpt lat="43.2289400" lon="-2.2134000">
<ele>316.992004</ele>
<time>2007-12-04T08:05:00.997Z</time>
</trkpt>
<trkpt lat="43.2287800" lon="-2.2134200">
<ele>313.639191</ele>
<time>2007-12-04T08:05:10.000Z</time>
</trkpt>
<trkpt lat="43.2287100" lon="-2.2134200">
<ele>312.115204</ele>
<time>2007-12-04T08:05:14.001Z</time>
</trkpt>
<trkpt lat="43.2285600" lon="-2.2134100">
<ele>308.762390</ele>
<time>2007-12-04T08:05:23.004Z</time>
</trkpt>
<trkpt lat="43.2283900" lon="-2.2133900">
<ele>305.409607</ele>
<time>2007-12-04T08:05:33.000Z</time>
</trkpt>
<trkpt lat="43.2283100" lon="-2.2133700">
<ele>303.580811</ele>
<time>2007-12-04T08:05:38.003Z</time>
</trkpt>
<trkpt lat="43.2282600" lon="-2.2133300">
<ele>302.361603</ele>
<time>2007-12-04T08:05:42.003Z</time>
</trkpt>
<trkpt lat="43.2281800" lon="-2.2131900">
<ele>300.532806</ele>
<time>2007-12-04T08:05:50.004Z</time>
</trkpt>
<trkpt lat="43.2281400" lon="-2.2130600">
<ele>300.532806</ele>
<time>2007-12-04T08:06:04.000Z</time>
</trkpt>
<trkpt lat="43.2281400" lon="-2.2130500">
<ele>300.227997</ele>
<time>2007-12-04T08:06:05.003Z</time>
</trkpt>
<trkpt lat="43.2281400" lon="-2.2127700">
<ele>301.142395</ele>
<time>2007-12-04T08:06:23.000Z</time>
</trkpt>
<trkpt lat="43.2281200" lon="-2.2125800">
<ele>303.885590</ele>
<time>2007-12-04T08:06:37.999Z</time>
</trkpt>
<trkpt lat="43.2281200" lon="-2.2125200">
<ele>304.495209</ele>
<time>2007-12-04T08:06:41.999Z</time>
</trkpt>
<trkpt lat="43.2281400" lon="-2.2123200">
<ele>307.847992</ele>
<time>2007-12-04T08:06:58.000Z</time>
</trkpt>
<trkpt lat="43.2281500" lon="-2.2121900">
<ele>309.067200</ele>
<time>2007-12-04T08:07:11.997Z</time>
</trkpt>
<trkpt lat="43.2281000" lon="-2.2120100">
<ele>311.505615</ele>
<time>2007-12-04T08:07:26.003Z</time>
</trkpt>
<trkpt lat="43.2280900" lon="-2.2119700">
<ele>312.724792</ele>
<time>2007-12-04T08:07:30.003Z</time>
</trkpt>
<trkpt lat="43.2280800" lon="-2.2119200">
<ele>313.029602</ele>
<time>2007-12-04T08:07:33.001Z</time>
</trkpt>
<trkpt lat="43.2279600" lon="-2.2117200">
<ele>316.077606</ele>
<time>2007-12-04T08:07:48.000Z</time>
</trkpt>
<trkpt lat="43.2278600" lon="-2.2115300">
<ele>316.992004</ele>
<time>2007-12-04T08:07:58.999Z</time>
</trkpt>
<trkpt lat="43.2277300" lon="-2.2112400">
<ele>320.344788</ele>
<time>2007-12-04T08:08:15.000Z</time>
</trkpt>
<trkpt lat="43.2276200" lon="-2.2109700">
<ele>323.088013</ele>
<time>2007-12-04T08:08:29.999Z</time>
</trkpt>
<trkpt lat="43.2274500" lon="-2.2106500">
<ele>325.526398</ele>
<time>2007-12-04T08:08:48.998Z</time>
</trkpt>
<trkpt lat="43.2273000" lon="-2.2103600">
<ele>328.574402</ele>
<time>2007-12-04T08:09:07.004Z</time>
</trkpt>
<trkpt lat="43.2271700" lon="-2.2100900">
<ele>330.708008</ele>
<time>2007-12-04T08:09:23.999Z</time>
</trkpt>
<trkpt lat="43.2270300" lon="-2.2098000">
<ele>334.060791</ele>
<time>2007-12-04T08:09:42.998Z</time>
</trkpt>
<trkpt lat="43.2269200" lon="-2.2095900">
<ele>337.108795</ele>
<time>2007-12-04T08:09:57.004Z</time>
</trkpt>
<trkpt lat="43.2268900" lon="-2.2095600">
<ele>337.718414</ele>
<time>2007-12-04T08:09:59.000Z</time>
</trkpt>
<trkpt lat="43.2268500" lon="-2.2094900">
<ele>338.632813</ele>
<time>2007-12-04T08:10:04.002Z</time>
</trkpt>
<trkpt lat="43.2267100" lon="-2.2092600">
<ele>342.290405</ele>
<time>2007-12-04T08:10:20.004Z</time>
</trkpt>
<trkpt lat="43.2266100" lon="-2.2090400">
<ele>344.424011</ele>
<time>2007-12-04T08:10:35.996Z</time>
</trkpt>
<trkpt lat="43.2265400" lon="-2.2088900">
<ele>347.776794</ele>
<time>2007-12-04T08:10:47.004Z</time>
</trkpt>
<trkpt lat="43.2264600" lon="-2.2087300">
<ele>351.129608</ele>
<time>2007-12-04T08:10:59.998Z</time>
</trkpt>
<trkpt lat="43.2263800" lon="-2.2086200">
<ele>353.567993</ele>
<time>2007-12-04T08:11:14.997Z</time>
</trkpt>
<trkpt lat="43.2263500" lon="-2.2086000">
<ele>351.434387</ele>
<time>2007-12-04T08:11:26.998Z</time>
</trkpt>
<trkpt lat="43.2262500" lon="-2.2085000">
<ele>351.434387</ele>
<time>2007-12-04T08:11:41.997Z</time>
</trkpt>
<trkpt lat="43.2260700" lon="-2.2083300">
<ele>352.044006</ele>
<time>2007-12-04T08:11:57.998Z</time>
</trkpt>
<trkpt lat="43.2258800" lon="-2.2082200">
<ele>352.044006</ele>
<time>2007-12-04T08:12:12.997Z</time>
</trkpt>
<trkpt lat="43.2256300" lon="-2.2081900">
<ele>352.958405</ele>
<time>2007-12-04T08:12:31.003Z</time>
</trkpt>
<trkpt lat="43.2253800" lon="-2.2081900">
<ele>354.787201</ele>
<time>2007-12-04T08:12:49.000Z</time>
</trkpt>
<trkpt lat="43.2251700" lon="-2.2083000">
<ele>356.920807</ele>
<time>2007-12-04T08:13:05.002Z</time>
</trkpt>
<trkpt lat="43.2249600" lon="-2.2083600">
<ele>359.664001</ele>
<time>2007-12-04T08:13:21.996Z</time>
</trkpt>
<trkpt lat="43.2248000" lon="-2.2083800">
<ele>363.016815</ele>
<time>2007-12-04T08:13:35.000Z</time>
</trkpt>
<trkpt lat="43.2247900" lon="-2.2083800">
<ele>363.626404</ele>
<time>2007-12-04T08:13:36.002Z</time>
</trkpt>
<trkpt lat="43.2247000" lon="-2.2084000">
<ele>364.540802</ele>
<time>2007-12-04T08:13:43.000Z</time>
</trkpt>
<trkpt lat="43.2246100" lon="-2.2084500">
<ele>365.455200</ele>
<time>2007-12-04T08:13:49.999Z</time>
</trkpt>
<trkpt lat="43.2243800" lon="-2.2085200">
<ele>366.979187</ele>
<time>2007-12-04T08:14:06.000Z</time>
</trkpt>
<trkpt lat="43.2241000" lon="-2.2085600">
<ele>368.198395</ele>
<time>2007-12-04T08:14:26.002Z</time>
</trkpt>
<trkpt lat="43.2240600" lon="-2.2085500">
<ele>367.893585</ele>
<time>2007-12-04T08:14:46.997Z</time>
</trkpt>
<trkpt lat="43.2240400" lon="-2.2085400">
<ele>367.893585</ele>
<time>2007-12-04T08:14:56.000Z</time>
</trkpt>
<trkpt lat="43.2238400" lon="-2.2086300">
<ele>370.636810</ele>
<time>2007-12-04T08:15:14.999Z</time>
</trkpt>
<trkpt lat="43.2237300" lon="-2.2088200">
<ele>373.989594</ele>
<time>2007-12-04T08:15:29.998Z</time>
</trkpt>
<trkpt lat="43.2237500" lon="-2.2090900">
<ele>376.428009</ele>
<time>2007-12-04T08:15:45.999Z</time>
</trkpt>
<trkpt lat="43.2237900" lon="-2.2093200">
<ele>379.476013</ele>
<time>2007-12-04T08:15:59.996Z</time>
</trkpt>
<trkpt lat="43.2238100" lon="-2.2096000">
<ele>382.828796</ele>
<time>2007-12-04T08:16:15.004Z</time>
</trkpt>
<trkpt lat="43.2238000" lon="-2.2096900">
<ele>385.571991</ele>
<time>2007-12-04T08:16:22.996Z</time>
</trkpt>
<trkpt lat="43.2238000" lon="-2.2097000">
<ele>385.267212</ele>
<time>2007-12-04T08:16:23.998Z</time>
</trkpt>
<trkpt lat="43.2237300" lon="-2.2096700">
<ele>387.705597</ele>
<time>2007-12-04T08:16:34.997Z</time>
</trkpt>
<trkpt lat="43.2236800" lon="-2.2094700">
<ele>390.448792</ele>
<time>2007-12-04T08:16:49.996Z</time>
</trkpt>
<trkpt lat="43.2236200" lon="-2.2094800">
<ele>393.801605</ele>
<time>2007-12-04T08:17:01.003Z</time>
</trkpt>
<trkpt lat="43.2235600" lon="-2.2095900">
<ele>396.239990</ele>
<time>2007-12-04T08:17:13.004Z</time>
</trkpt>
<trkpt lat="43.2235100" lon="-2.2096900">
<ele>398.983185</ele>
<time>2007-12-04T08:17:25.999Z</time>
</trkpt>
<trkpt lat="43.2234600" lon="-2.2098000">
<ele>402.335999</ele>
<time>2007-12-04T08:17:36.997Z</time>
</trkpt>
<trkpt lat="43.2234200" lon="-2.2099000">
<ele>405.688812</ele>
<time>2007-12-04T08:17:48.998Z</time>
</trkpt>
<trkpt lat="43.2233800" lon="-2.2099600">
<ele>407.822388</ele>
<time>2007-12-04T08:18:05.000Z</time>
</trkpt>
<trkpt lat="43.2233000" lon="-2.2099500">
<ele>408.736786</ele>
<time>2007-12-04T08:18:32.000Z</time>
</trkpt>
<trkpt lat="43.2232800" lon="-2.2099400">
<ele>409.041595</ele>
<time>2007-12-04T08:18:34.004Z</time>
</trkpt>
<trkpt lat="43.2232600" lon="-2.2099100">
<ele>409.041595</ele>
<time>2007-12-04T08:18:37.002Z</time>
</trkpt>
<trkpt lat="43.2231000" lon="-2.2099200">
<ele>411.480011</ele>
<time>2007-12-04T08:18:49.997Z</time>
</trkpt>
<trkpt lat="43.2230100" lon="-2.2099200">
<ele>411.480011</ele>
<time>2007-12-04T08:18:57.004Z</time>
</trkpt>
<trkpt lat="43.2227800" lon="-2.2100100">
<ele>408.736786</ele>
<time>2007-12-04T08:19:12.996Z</time>
</trkpt>
<trkpt lat="43.2225700" lon="-2.2099600">
<ele>409.651215</ele>
<time>2007-12-04T08:19:28.004Z</time>
</trkpt>
<trkpt lat="43.2224500" lon="-2.2099600">
<ele>409.651215</ele>
<time>2007-12-04T08:19:36.998Z</time>
</trkpt>
<trkpt lat="43.2224200" lon="-2.2099500">
<ele>409.651215</ele>
<time>2007-12-04T08:19:39.003Z</time>
</trkpt>
<trkpt lat="43.2221300" lon="-2.2099800">
<ele>411.175201</ele>
<time>2007-12-04T08:19:57.000Z</time>
</trkpt>
<trkpt lat="43.2220100" lon="-2.2101800">
<ele>413.918396</ele>
<time>2007-12-04T08:20:10.997Z</time>
</trkpt>
<trkpt lat="43.2219500" lon="-2.2103100">
<ele>416.052002</ele>
<time>2007-12-04T08:20:18.997Z</time>
</trkpt>
<trkpt lat="43.2217900" lon="-2.2104700">
<ele>419.404785</ele>
<time>2007-12-04T08:20:33.003Z</time>
</trkpt>
<trkpt lat="43.2216000" lon="-2.2105500">
<ele>422.148010</ele>
<time>2007-12-04T08:20:48.002Z</time>
</trkpt>
<trkpt lat="43.2213100" lon="-2.2105600">
<ele>422.148010</ele>
<time>2007-12-04T08:21:07.001Z</time>
</trkpt>
<trkpt lat="43.2210300" lon="-2.2106800">
<ele>419.404785</ele>
<time>2007-12-04T08:21:24.998Z</time>
</trkpt>
<trkpt lat="43.2207600" lon="-2.2107000">
<ele>417.880798</ele>
<time>2007-12-04T08:21:41.000Z</time>
</trkpt>
<trkpt lat="43.2204200" lon="-2.2106800">
<ele>416.356812</ele>
<time>2007-12-04T08:22:02.997Z</time>
</trkpt>
<trkpt lat="43.2201200" lon="-2.2106600">
<ele>416.356812</ele>
<time>2007-12-04T08:22:21.996Z</time>
</trkpt>
<trkpt lat="43.2197400" lon="-2.2107500">
<ele>415.442413</ele>
<time>2007-12-04T08:22:45.998Z</time>
</trkpt>
<trkpt lat="43.2193800" lon="-2.2107700">
<ele>416.966400</ele>
<time>2007-12-04T08:23:08.998Z</time>
</trkpt>
<trkpt lat="43.2191100" lon="-2.2107500">
<ele>419.709595</ele>
<time>2007-12-04T08:23:29.000Z</time>
</trkpt>
<trkpt lat="43.2189200" lon="-2.2105800">
<ele>420.319214</ele>
<time>2007-12-04T08:23:45.001Z</time>
</trkpt>
<trkpt lat="43.2188700" lon="-2.2105600">
<ele>421.233612</ele>
<time>2007-12-04T08:23:49.001Z</time>
</trkpt>
<trkpt lat="43.2186800" lon="-2.2105000">
<ele>425.196014</ele>
<time>2007-12-04T08:24:06.998Z</time>
</trkpt>
<trkpt lat="43.2186700" lon="-2.2105000">
<ele>422.757599</ele>
<time>2007-12-04T08:24:09.996Z</time>
</trkpt>
<trkpt lat="43.2186200" lon="-2.2104700">
<ele>423.671997</ele>
<time>2007-12-04T08:24:25.004Z</time>
</trkpt>
<trkpt lat="43.2184700" lon="-2.2103000">
<ele>425.500793</ele>
<time>2007-12-04T08:24:41.999Z</time>
</trkpt>
<trkpt lat="43.2183600" lon="-2.2100500">
<ele>427.329590</ele>
<time>2007-12-04T08:24:59.003Z</time>
</trkpt>
<trkpt lat="43.2184000" lon="-2.2099000">
<ele>430.377594</ele>
<time>2007-12-04T08:25:12.999Z</time>
</trkpt>
<trkpt lat="43.2186100" lon="-2.2098700">
<ele>432.816010</ele>
<time>2007-12-04T08:25:29.001Z</time>
</trkpt>
<trkpt lat="43.2187000" lon="-2.2099200">
<ele>434.339996</ele>
<time>2007-12-04T08:25:37.001Z</time>
</trkpt>
<trkpt lat="43.2187500" lon="-2.2099300">
<ele>435.254395</ele>
<time>2007-12-04T08:25:41.002Z</time>
</trkpt>
<trkpt lat="43.2189900" lon="-2.2100600">
<ele>437.997589</ele>
<time>2007-12-04T08:25:58.999Z</time>
</trkpt>
<trkpt lat="43.2191600" lon="-2.2099800">
<ele>441.045593</ele>
<time>2007-12-04T08:26:12.002Z</time>
</trkpt>
<trkpt lat="43.2192700" lon="-2.2098900">
<ele>444.398407</ele>
<time>2007-12-04T08:26:21.998Z</time>
</trkpt>
<trkpt lat="43.2194100" lon="-2.2097900">
<ele>447.751190</ele>
<time>2007-12-04T08:26:33.999Z</time>
</trkpt>
<trkpt lat="43.2194600" lon="-2.2098000">
<ele>448.970398</ele>
<time>2007-12-04T08:26:39.002Z</time>
</trkpt>
<trkpt lat="43.2195900" lon="-2.2098000">
<ele>452.018402</ele>
<time>2007-12-04T08:26:50.001Z</time>
</trkpt>
<trkpt lat="43.2197400" lon="-2.2097900">
<ele>454.761597</ele>
<time>2007-12-04T08:27:05.000Z</time>
</trkpt>
<trkpt lat="43.2198400" lon="-2.2097800">
<ele>456.895203</ele>
<time>2007-12-04T08:27:15.998Z</time>
</trkpt>
<trkpt lat="43.2200100" lon="-2.2097700">
<ele>458.114410</ele>
<time>2007-12-04T08:27:29.002Z</time>
</trkpt>
<trkpt lat="43.2201200" lon="-2.2096300">
<ele>459.333588</ele>
<time>2007-12-04T08:27:40.000Z</time>
</trkpt>
<trkpt lat="43.2202000" lon="-2.2093800">
<ele>462.686401</ele>
<time>2007-12-04T08:27:56.002Z</time>
</trkpt>
<trkpt lat="43.2202300" lon="-2.2092500">
<ele>462.991211</ele>
<time>2007-12-04T08:28:04.002Z</time>
</trkpt>
<trkpt lat="43.2203400" lon="-2.2091000">
<ele>466.953613</ele>
<time>2007-12-04T08:28:19.001Z</time>
</trkpt>
<trkpt lat="43.2203600" lon="-2.2091200">
<ele>466.953613</ele>
<time>2007-12-04T08:28:23.002Z</time>
</trkpt>
<trkpt lat="43.2205100" lon="-2.2092500">
<ele>470.306396</ele>
<time>2007-12-04T08:28:39.003Z</time>
</trkpt>
<trkpt lat="43.2206200" lon="-2.2093400">
<ele>472.744812</ele>
<time>2007-12-04T08:28:50.002Z</time>
</trkpt>
<trkpt lat="43.2208100" lon="-2.2094200">
<ele>475.488007</ele>
<time>2007-12-04T08:29:06.003Z</time>
</trkpt>
<trkpt lat="43.2209400" lon="-2.2094300">
<ele>477.926392</ele>
<time>2007-12-04T08:29:14.997Z</time>
</trkpt>
<trkpt lat="43.2210000" lon="-2.2093500">
<ele>479.755188</ele>
<time>2007-12-04T08:29:22.998Z</time>
</trkpt>
<trkpt lat="43.2209600" lon="-2.2092300">
<ele>483.108002</ele>
<time>2007-12-04T08:29:34.999Z</time>
</trkpt>
<trkpt lat="43.2209300" lon="-2.2092200">
<ele>485.241608</ele>
<time>2007-12-04T08:29:38.999Z</time>
</trkpt>
<trkpt lat="43.2208600" lon="-2.2091400">
<ele>487.984802</ele>
<time>2007-12-04T08:29:49.998Z</time>
</trkpt>
<trkpt lat="43.2208500" lon="-2.2091300">
<ele>487.984802</ele>
<time>2007-12-04T08:29:51.000Z</time>
</trkpt>
<trkpt lat="43.2207900" lon="-2.2090300">
<ele>491.032806</ele>
<time>2007-12-04T08:30:01.999Z</time>
</trkpt>
<trkpt lat="43.2208200" lon="-2.2090000">
<ele>492.252014</ele>
<time>2007-12-04T08:30:07.001Z</time>
</trkpt>
<trkpt lat="43.2208700" lon="-2.2089700">
<ele>493.776001</ele>
<time>2007-12-04T08:30:12.997Z</time>
</trkpt>
<trkpt lat="43.2208900" lon="-2.2088500">
<ele>495.604797</ele>
<time>2007-12-04T08:30:22.000Z</time>
</trkpt>
<trkpt lat="43.2208700" lon="-2.2087800">
<ele>497.738403</ele>
<time>2007-12-04T08:30:27.996Z</time>
</trkpt>
<trkpt lat="43.2208900" lon="-2.2085000">
<ele>499.567200</ele>
<time>2007-12-04T08:30:45.000Z</time>
</trkpt>
<trkpt lat="43.2208500" lon="-2.2084300">
<ele>499.567200</ele>
<time>2007-12-04T08:30:50.996Z</time>
</trkpt>
<trkpt lat="43.2208100" lon="-2.2084400">
<ele>500.176788</ele>
<time>2007-12-04T08:30:54.996Z</time>
</trkpt>
<trkpt lat="43.2207800" lon="-2.2084900">
<ele>500.176788</ele>
<time>2007-12-04T08:31:10.998Z</time>
</trkpt>
<trkpt lat="43.2207800" lon="-2.2084900">
<ele>500.176788</ele>
<time>2007-12-04T08:31:29.004Z</time>
</trkpt>
<trkpt lat="43.2208200" lon="-2.2086800">
<ele>500.176788</ele>
<time>2007-12-04T08:31:44.003Z</time>
</trkpt>
<trkpt lat="43.2207600" lon="-2.2086600">
<ele>499.567200</ele>
<time>2007-12-04T08:32:02.000Z</time>
</trkpt>
<trkpt lat="43.2207700" lon="-2.2086600">
<ele>500.176788</ele>
<time>2007-12-04T08:32:27.004Z</time>
</trkpt>
<trkpt lat="43.2208500" lon="-2.2087900">
<ele>497.128815</ele>
<time>2007-12-04T08:32:37.000Z</time>
</trkpt>
<trkpt lat="43.2208800" lon="-2.2088500">
<ele>496.214386</ele>
<time>2007-12-04T08:32:41.001Z</time>
</trkpt>
<trkpt lat="43.2208500" lon="-2.2089500">
<ele>494.385590</ele>
<time>2007-12-04T08:32:46.997Z</time>
</trkpt>
<trkpt lat="43.2207500" lon="-2.2090100">
<ele>491.337585</ele>
<time>2007-12-04T08:32:54.997Z</time>
</trkpt>
<trkpt lat="43.2208200" lon="-2.2091200">
<ele>488.594391</ele>
<time>2007-12-04T08:33:02.998Z</time>
</trkpt>
<trkpt lat="43.2209100" lon="-2.2092100">
<ele>485.546387</ele>
<time>2007-12-04T08:33:12.001Z</time>
</trkpt>
<trkpt lat="43.2209500" lon="-2.2092100">
<ele>484.327209</ele>
<time>2007-12-04T08:33:14.999Z</time>
</trkpt>
<trkpt lat="43.2210000" lon="-2.2092300">
<ele>482.193604</ele>
<time>2007-12-04T08:33:20.002Z</time>
</trkpt>
<trkpt lat="43.2210100" lon="-2.2092900">
<ele>480.669586</ele>
<time>2007-12-04T08:33:23.000Z</time>
</trkpt>
<trkpt lat="43.2210200" lon="-2.2093800">
<ele>479.755188</ele>
<time>2007-12-04T08:33:28.002Z</time>
</trkpt>
<trkpt lat="43.2208800" lon="-2.2094500">
<ele>476.097595</ele>
<time>2007-12-04T08:33:40.997Z</time>
</trkpt>
<trkpt lat="43.2206700" lon="-2.2093500">
<ele>472.744812</ele>
<time>2007-12-04T08:33:55.996Z</time>
</trkpt>
<trkpt lat="43.2205000" lon="-2.2091900">
<ele>469.391998</ele>
<time>2007-12-04T08:34:10.001Z</time>
</trkpt>
<trkpt lat="43.2203300" lon="-2.2090500">
<ele>466.343994</ele>
<time>2007-12-04T08:34:22.002Z</time>
</trkpt>
<trkpt lat="43.2203200" lon="-2.2090500">
<ele>466.343994</ele>
<time>2007-12-04T08:34:22.996Z</time>
</trkpt>
<trkpt lat="43.2202400" lon="-2.2091100">
<ele>464.820007</ele>
<time>2007-12-04T08:34:29.001Z</time>
</trkpt>
<trkpt lat="43.2201900" lon="-2.2094700">
<ele>461.467194</ele>
<time>2007-12-04T08:34:46.004Z</time>
</trkpt>
<trkpt lat="43.2201200" lon="-2.2097000">
<ele>458.114410</ele>
<time>2007-12-04T08:34:57.003Z</time>
</trkpt>
<trkpt lat="43.2199100" lon="-2.2097900">
<ele>456.285614</ele>
<time>2007-12-04T08:35:12.002Z</time>
</trkpt>
<trkpt lat="43.2197000" lon="-2.2097900">
<ele>453.847198</ele>
<time>2007-12-04T08:35:27.001Z</time>
</trkpt>
<trkpt lat="43.2196300" lon="-2.2098100">
<ele>452.323212</ele>
<time>2007-12-04T08:35:32.004Z</time>
</trkpt>
<trkpt lat="43.2195300" lon="-2.2098000">
<ele>450.189606</ele>
<time>2007-12-04T08:35:38.000Z</time>
</trkpt>
<trkpt lat="43.2193500" lon="-2.2098200">
<ele>446.836792</ele>
<time>2007-12-04T08:35:48.998Z</time>
</trkpt>
<trkpt lat="43.2192400" lon="-2.2099200">
<ele>443.179199</ele>
<time>2007-12-04T08:35:56.999Z</time>
</trkpt>
<trkpt lat="43.2192200" lon="-2.2099300">
<ele>442.874390</ele>
<time>2007-12-04T08:35:58.001Z</time>
</trkpt>
<trkpt lat="43.2191200" lon="-2.2100200">
<ele>439.826385</ele>
<time>2007-12-04T08:36:05.000Z</time>
</trkpt>
<trkpt lat="43.2189200" lon="-2.2100400">
<ele>436.473602</ele>
<time>2007-12-04T08:36:17.001Z</time>
</trkpt>
<trkpt lat="43.2189000" lon="-2.2100400">
<ele>436.473602</ele>
<time>2007-12-04T08:36:18.003Z</time>
</trkpt>
<trkpt lat="43.2187900" lon="-2.2099400">
<ele>435.254395</ele>
<time>2007-12-04T08:36:26.997Z</time>
</trkpt>
<trkpt lat="43.2185600" lon="-2.2098700">
<ele>431.901611</ele>
<time>2007-12-04T08:36:42.998Z</time>
</trkpt>
<trkpt lat="43.2184200" lon="-2.2098100">
<ele>429.768005</ele>
<time>2007-12-04T08:36:57.004Z</time>
</trkpt>
<trkpt lat="43.2184200" lon="-2.2098400">
<ele>429.463196</ele>
<time>2007-12-04T08:37:07.000Z</time>
</trkpt>
<trkpt lat="43.2184200" lon="-2.2098500">
<ele>431.291992</ele>
<time>2007-12-04T08:37:08.996Z</time>
</trkpt>
<trkpt lat="43.2184100" lon="-2.2098600">
<ele>431.291992</ele>
<time>2007-12-04T08:37:13.999Z</time>
</trkpt>
<trkpt lat="43.2183800" lon="-2.2098600">
<ele>430.377594</ele>
<time>2007-12-04T08:37:16.003Z</time>
</trkpt>
<trkpt lat="43.2183500" lon="-2.2098600">
<ele>429.463196</ele>
<time>2007-12-04T08:37:17.999Z</time>
</trkpt>
<trkpt lat="43.2180700" lon="-2.2098400">
<ele>427.939209</ele>
<time>2007-12-04T08:37:35.996Z</time>
</trkpt>
<trkpt lat="43.2180200" lon="-2.2098400">
<ele>428.548798</ele>
<time>2007-12-04T08:37:39.996Z</time>
</trkpt>
<trkpt lat="43.2179000" lon="-2.2099100">
<ele>432.206390</ele>
<time>2007-12-04T08:37:50.002Z</time>
</trkpt>
<trkpt lat="43.2178700" lon="-2.2099300">
<ele>430.682404</ele>
<time>2007-12-04T08:38:02.003Z</time>
</trkpt>
<trkpt lat="43.2178500" lon="-2.2099400">
<ele>431.901611</ele>
<time>2007-12-04T08:38:11.999Z</time>
</trkpt>
<trkpt lat="43.2178400" lon="-2.2099400">
<ele>431.291992</ele>
<time>2007-12-04T08:38:14.004Z</time>
</trkpt>
<trkpt lat="43.2177900" lon="-2.2099800">
<ele>430.682404</ele>
<time>2007-12-04T08:38:18.004Z</time>
</trkpt>
<trkpt lat="43.2175400" lon="-2.2101900">
<ele>434.339996</ele>
<time>2007-12-04T08:38:37.003Z</time>
</trkpt>
<trkpt lat="43.2174900" lon="-2.2102700">
<ele>434.644806</ele>
<time>2007-12-04T08:38:41.997Z</time>
</trkpt>
<trkpt lat="43.2172900" lon="-2.2103200">
<ele>437.997589</ele>
<time>2007-12-04T08:38:56.003Z</time>
</trkpt>
<trkpt lat="43.2170600" lon="-2.2101800">
<ele>440.436005</ele>
<time>2007-12-04T08:39:14.000Z</time>
</trkpt>
<trkpt lat="43.2168700" lon="-2.2098400">
<ele>441.959991</ele>
<time>2007-12-04T08:39:34.001Z</time>
</trkpt>
<trkpt lat="43.2167000" lon="-2.2093400">
<ele>438.607208</ele>
<time>2007-12-04T08:39:58.003Z</time>
</trkpt>
<trkpt lat="43.2164600" lon="-2.2090100">
<ele>436.473602</ele>
<time>2007-12-04T08:40:17.996Z</time>
</trkpt>
<trkpt lat="43.2164400" lon="-2.2089900">
<ele>436.168793</ele>
<time>2007-12-04T08:40:20.001Z</time>
</trkpt>
<trkpt lat="43.2163600" lon="-2.2089500">
<ele>435.254395</ele>
<time>2007-12-04T08:40:35.000Z</time>
</trkpt>
<trkpt lat="43.2163600" lon="-2.2089500">
<ele>436.168793</ele>
<time>2007-12-04T08:40:37.004Z</time>
</trkpt>
<trkpt lat="43.2162200" lon="-2.2088800">
<ele>435.559204</ele>
<time>2007-12-04T08:40:48.003Z</time>
</trkpt>
<trkpt lat="43.2159400" lon="-2.2087300">
<ele>435.559204</ele>
<time>2007-12-04T08:41:08.998Z</time>
</trkpt>
<trkpt lat="43.2156500" lon="-2.2087200">
<ele>436.473602</ele>
<time>2007-12-04T08:41:27.997Z</time>
</trkpt>
<trkpt lat="43.2153500" lon="-2.2086300">
<ele>439.521606</ele>
<time>2007-12-04T08:41:50.004Z</time>
</trkpt>
<trkpt lat="43.2152300" lon="-2.2084700">
<ele>442.874390</ele>
<time>2007-12-04T08:42:02.998Z</time>
</trkpt>
<trkpt lat="43.2149800" lon="-2.2080700">
<ele>445.617615</ele>
<time>2007-12-04T08:42:29.998Z</time>
</trkpt>
<trkpt lat="43.2148300" lon="-2.2078200">
<ele>447.141602</ele>
<time>2007-12-04T08:42:51.002Z</time>
</trkpt>
<trkpt lat="43.2148400" lon="-2.2077800">
<ele>448.665588</ele>
<time>2007-12-04T08:43:07.003Z</time>
</trkpt>
<trkpt lat="43.2148400" lon="-2.2077800">
<ele>447.141602</ele>
<time>2007-12-04T08:43:08.999Z</time>
</trkpt>
<trkpt lat="43.2148000" lon="-2.2077300">
<ele>447.141602</ele>
<time>2007-12-04T08:43:12.999Z</time>
</trkpt>
<trkpt lat="43.2146000" lon="-2.2073600">
<ele>449.579987</ele>
<time>2007-12-04T08:43:35.999Z</time>
</trkpt>
<trkpt lat="43.2145400" lon="-2.2068900">
<ele>451.104004</ele>
<time>2007-12-04T08:43:58.999Z</time>
</trkpt>
<trkpt lat="43.2145200" lon="-2.2064300">
<ele>451.408813</ele>
<time>2007-12-04T08:44:20.996Z</time>
</trkpt>
<trkpt lat="43.2144900" lon="-2.2058800">
<ele>450.494385</ele>
<time>2007-12-04T08:44:47.003Z</time>
</trkpt>
<trkpt lat="43.2144000" lon="-2.2053200">
<ele>449.579987</ele>
<time>2007-12-04T08:45:14.003Z</time>
</trkpt>
<trkpt lat="43.2143000" lon="-2.2048700">
<ele>446.227203</ele>
<time>2007-12-04T08:45:36.000Z</time>
</trkpt>
<trkpt lat="43.2142500" lon="-2.2047700">
<ele>447.141602</ele>
<time>2007-12-04T08:45:50.999Z</time>
</trkpt>
<trkpt lat="43.2142500" lon="-2.2047700">
<ele>445.617615</ele>
<time>2007-12-04T08:46:04.996Z</time>
</trkpt>
<trkpt lat="43.2142100" lon="-2.2046900">
<ele>445.312805</ele>
<time>2007-12-04T08:46:09.998Z</time>
</trkpt>
<trkpt lat="43.2139800" lon="-2.2042800">
<ele>445.617615</ele>
<time>2007-12-04T08:46:34.000Z</time>
</trkpt>
<trkpt lat="43.2137500" lon="-2.2038000">
<ele>446.836792</ele>
<time>2007-12-04T08:46:59.998Z</time>
</trkpt>
<trkpt lat="43.2134700" lon="-2.2033900">
<ele>450.189606</ele>
<time>2007-12-04T08:47:26.998Z</time>
</trkpt>
<trkpt lat="43.2131500" lon="-2.2030500">
<ele>451.104004</ele>
<time>2007-12-04T08:47:52.002Z</time>
</trkpt>
<trkpt lat="43.2128400" lon="-2.2027280">
<ele>452.323212</ele>
<time>2007-12-04T08:48:16.004Z</time>
</trkpt>
<trkpt lat="43.2125200" lon="-2.2023300">
<ele>454.456787</ele>
<time>2007-12-04T08:48:43.004Z</time>
</trkpt>
<trkpt lat="43.2122800" lon="-2.2019200">
<ele>455.371185</ele>
<time>2007-12-04T08:49:06.997Z</time>
</trkpt>
<trkpt lat="43.2120600" lon="-2.2016100">
<ele>456.895203</ele>
<time>2007-12-04T08:49:26.999Z</time>
</trkpt>
<trkpt lat="43.2118300" lon="-2.2014500">
<ele>457.200012</ele>
<time>2007-12-04T08:49:44.003Z</time>
</trkpt>
<trkpt lat="43.2116500" lon="-2.2013800">
<ele>457.200012</ele>
<time>2007-12-04T08:50:00.997Z</time>
</trkpt>
<trkpt lat="43.2116400" lon="-2.2013700">
<ele>460.247986</ele>
<time>2007-12-04T08:50:19.997Z</time>
</trkpt>
<trkpt lat="43.2116500" lon="-2.2013400">
<ele>458.114410</ele>
<time>2007-12-04T08:50:22.001Z</time>
</trkpt>
<trkpt lat="43.2117500" lon="-2.2012500">
<ele>461.467194</ele>
<time>2007-12-04T08:50:33.000Z</time>
</trkpt>
<trkpt lat="43.2119200" lon="-2.2011300">
<ele>464.515198</ele>
<time>2007-12-04T08:50:49.001Z</time>
</trkpt>
<trkpt lat="43.2119800" lon="-2.2010700">
<ele>464.515198</ele>
<time>2007-12-04T08:51:05.996Z</time>
</trkpt>
<trkpt lat="43.2120000" lon="-2.2010400">
<ele>465.429596</ele>
<time>2007-12-04T08:51:09.003Z</time>
</trkpt>
<trkpt lat="43.2119700" lon="-2.2009100">
<ele>466.953613</ele>
<time>2007-12-04T08:51:18.999Z</time>
</trkpt>
<trkpt lat="43.2119400" lon="-2.2008200">
<ele>466.953613</ele>
<time>2007-12-04T08:51:35.001Z</time>
</trkpt>
<trkpt lat="43.2119300" lon="-2.2008000">
<ele>466.953613</ele>
<time>2007-12-04T08:51:44.004Z</time>
</trkpt>
<trkpt lat="43.2117400" lon="-2.2007600">
<ele>467.868011</ele>
<time>2007-12-04T08:51:58.000Z</time>
</trkpt>
<trkpt lat="43.2115100" lon="-2.2007200">
<ele>470.306396</ele>
<time>2007-12-04T08:52:12.999Z</time>
</trkpt>
<trkpt lat="43.2114900" lon="-2.2007100">
<ele>470.306396</ele>
<time>2007-12-04T08:52:14.002Z</time>
</trkpt>
<trkpt lat="43.2113200" lon="-2.2006600">
<ele>473.659210</ele>
<time>2007-12-04T08:52:26.996Z</time>
</trkpt>
<trkpt lat="43.2111300" lon="-2.2006100">
<ele>476.097595</ele>
<time>2007-12-04T08:52:42.004Z</time>
</trkpt>
<trkpt lat="43.2109700" lon="-2.2004900">
<ele>477.316803</ele>
<time>2007-12-04T08:52:54.998Z</time>
</trkpt>
<trkpt lat="43.2108000" lon="-2.2003400">
<ele>478.536011</ele>
<time>2007-12-04T08:53:05.997Z</time>
</trkpt>
<trkpt lat="43.2107700" lon="-2.2003100">
<ele>478.840790</ele>
<time>2007-12-04T08:53:09.004Z</time>
</trkpt>
<trkpt lat="43.2106400" lon="-2.2001900">
<ele>480.669586</ele>
<time>2007-12-04T08:53:20.996Z</time>
</trkpt>
<trkpt lat="43.2105300" lon="-2.2000800">
<ele>481.888794</ele>
<time>2007-12-04T08:53:32.997Z</time>
</trkpt>
<trkpt lat="43.2103900" lon="-2.1999700">
<ele>485.241608</ele>
<time>2007-12-04T08:53:46.000Z</time>
</trkpt>
<trkpt lat="43.2102300" lon="-2.1998900">
<ele>485.546387</ele>
<time>2007-12-04T08:54:07.004Z</time>
</trkpt>
<trkpt lat="43.2101200" lon="-2.1998300">
<ele>486.460785</ele>
<time>2007-12-04T08:54:14.996Z</time>
</trkpt>
<trkpt lat="43.2100200" lon="-2.1997500">
<ele>487.984802</ele>
<time>2007-12-04T08:54:22.003Z</time>
</trkpt>
<trkpt lat="43.2098000" lon="-2.1995600">
<ele>491.032806</ele>
<time>2007-12-04T08:54:38.998Z</time>
</trkpt>
<trkpt lat="43.2095900" lon="-2.1994300">
<ele>492.861603</ele>
<time>2007-12-04T08:54:56.002Z</time>
</trkpt>
<trkpt lat="43.2095800" lon="-2.1994300">
<ele>492.252014</ele>
<time>2007-12-04T08:55:01.004Z</time>
</trkpt>
<trkpt lat="43.2095500" lon="-2.1994200">
<ele>493.776001</ele>
<time>2007-12-04T08:55:15.001Z</time>
</trkpt>
<trkpt lat="43.2095200" lon="-2.1994200">
<ele>493.776001</ele>
<time>2007-12-04T08:55:17.999Z</time>
</trkpt>
<trkpt lat="43.2094200" lon="-2.1994200">
<ele>495.604797</ele>
<time>2007-12-04T08:55:26.000Z</time>
</trkpt>
<trkpt lat="43.2092000" lon="-2.1993400">
<ele>498.043213</ele>
<time>2007-12-04T08:55:43.003Z</time>
</trkpt>
<trkpt lat="43.2091700" lon="-2.1993100">
<ele>498.652802</ele>
<time>2007-12-04T08:55:46.001Z</time>
</trkpt>
<trkpt lat="43.2091500" lon="-2.1992900">
<ele>498.652802</ele>
<time>2007-12-04T08:55:47.997Z</time>
</trkpt>
<trkpt lat="43.2089600" lon="-2.1992200">
<ele>500.481598</ele>
<time>2007-12-04T08:56:02.003Z</time>
</trkpt>
<trkpt lat="43.2088100" lon="-2.1991500">
<ele>501.395996</ele>
<time>2007-12-04T08:56:15.999Z</time>
</trkpt>
<trkpt lat="43.2086200" lon="-2.1990500">
<ele>501.395996</ele>
<time>2007-12-04T08:56:29.003Z</time>
</trkpt>
<trkpt lat="43.2084300" lon="-2.1989300">
<ele>501.091187</ele>
<time>2007-12-04T08:56:41.997Z</time>
</trkpt>
<trkpt lat="43.2082100" lon="-2.1987300">
<ele>498.957611</ele>
<time>2007-12-04T08:56:55.000Z</time>
</trkpt>
<trkpt lat="43.2081400" lon="-2.1987100">
<ele>498.957611</ele>
<time>2007-12-04T08:56:59.001Z</time>
</trkpt>
<trkpt lat="43.2079200" lon="-2.1986600">
<ele>497.738403</ele>
<time>2007-12-04T08:57:12.004Z</time>
</trkpt>
<trkpt lat="43.2076700" lon="-2.1986300">
<ele>495.299988</ele>
<time>2007-12-04T08:57:26.001Z</time>
</trkpt>
<trkpt lat="43.2076100" lon="-2.1986000">
<ele>494.690399</ele>
<time>2007-12-04T08:57:30.001Z</time>
</trkpt>
<trkpt lat="43.2075000" lon="-2.1985900">
<ele>493.776001</ele>
<time>2007-12-04T08:57:36.999Z</time>
</trkpt>
<trkpt lat="43.2074300" lon="-2.1985500">
<ele>492.861603</ele>
<time>2007-12-04T08:57:42.002Z</time>
</trkpt>
<trkpt lat="43.2073600" lon="-2.1985500">
<ele>492.861603</ele>
<time>2007-12-04T08:57:46.002Z</time>
</trkpt>
<trkpt lat="43.2071400" lon="-2.1985200">
<ele>491.947205</ele>
<time>2007-12-04T08:57:59.999Z</time>
</trkpt>
<trkpt lat="43.2068900" lon="-2.1985400">
<ele>491.032806</ele>
<time>2007-12-04T08:58:14.998Z</time>
</trkpt>
<trkpt lat="43.2066900" lon="-2.1985000">
<ele>491.032806</ele>
<time>2007-12-04T08:58:29.004Z</time>
</trkpt>
<trkpt lat="43.2065300" lon="-2.1984500">
<ele>491.337585</ele>
<time>2007-12-04T08:58:40.996Z</time>
</trkpt>
<trkpt lat="43.2063300" lon="-2.1984200">
<ele>491.337585</ele>
<time>2007-12-04T08:58:53.999Z</time>
</trkpt>
<trkpt lat="43.2060500" lon="-2.1983400">
<ele>491.337585</ele>
<time>2007-12-04T08:59:10.000Z</time>
</trkpt>
<trkpt lat="43.2059000" lon="-2.1983400">
<ele>491.947205</ele>
<time>2007-12-04T09:02:12.002Z</time>
</trkpt>
<trkpt lat="43.2059100" lon="-2.1983400">
<ele>491.947205</ele>
<time>2007-12-04T09:02:13.998Z</time>
</trkpt>
<trkpt lat="43.2057800" lon="-2.1983100">
<ele>491.032806</ele>
<time>2007-12-04T09:02:28.997Z</time>
</trkpt>
<trkpt lat="43.2057200" lon="-2.1982800">
<ele>491.337585</ele>
<time>2007-12-04T09:02:33.999Z</time>
</trkpt>
<trkpt lat="43.2056100" lon="-2.1982200">
<ele>491.947205</ele>
<time>2007-12-04T09:02:43.996Z</time>
</trkpt>
<trkpt lat="43.2051900" lon="-2.1980200">
<ele>493.166412</ele>
<time>2007-12-04T09:03:26.004Z</time>
</trkpt>
<trkpt lat="43.2051600" lon="-2.1980100">
<ele>493.776001</ele>
<time>2007-12-04T09:03:29.002Z</time>
</trkpt>
<trkpt lat="43.2049400" lon="-2.1979500">
<ele>496.824005</ele>
<time>2007-12-04T09:03:48.001Z</time>
</trkpt>
<trkpt lat="43.2047300" lon="-2.1978700">
<ele>498.652802</ele>
<time>2007-12-04T09:04:03.000Z</time>
</trkpt>
<trkpt lat="43.2046300" lon="-2.1978600">
<ele>500.176788</ele>
<time>2007-12-04T09:04:09.998Z</time>
</trkpt>
<trkpt lat="43.2044000" lon="-2.1978400">
<ele>502.920013</ele>
<time>2007-12-04T09:04:26.000Z</time>
</trkpt>
<trkpt lat="43.2041600" lon="-2.1978400">
<ele>505.358398</ele>
<time>2007-12-04T09:04:40.999Z</time>
</trkpt>
<trkpt lat="43.2039800" lon="-2.1978600">
<ele>508.101593</ele>
<time>2007-12-04T09:04:54.002Z</time>
</trkpt>
<trkpt lat="43.2037400" lon="-2.1978700">
<ele>511.149597</ele>
<time>2007-12-04T09:05:10.997Z</time>
</trkpt>
<trkpt lat="43.2035600" lon="-2.1978200">
<ele>509.625610</ele>
<time>2007-12-04T09:05:24.000Z</time>
</trkpt>
<trkpt lat="43.2033900" lon="-2.1977400">
<ele>509.320801</ele>
<time>2007-12-04T09:05:36.001Z</time>
</trkpt>
<trkpt lat="43.2033200" lon="-2.1977200">
<ele>509.320801</ele>
<time>2007-12-04T09:05:41.004Z</time>
</trkpt>
<trkpt lat="43.2030600" lon="-2.1976200">
<ele>508.101593</ele>
<time>2007-12-04T09:05:56.996Z</time>
</trkpt>
<trkpt lat="43.2029500" lon="-2.1976200">
<ele>508.711212</ele>
<time>2007-12-04T09:06:09.999Z</time>
</trkpt>
<trkpt lat="43.2029200" lon="-2.1976200">
<ele>508.711212</ele>
<time>2007-12-04T09:06:12.004Z</time>
</trkpt>
<trkpt lat="43.2027300" lon="-2.1976800">
<ele>510.540009</ele>
<time>2007-12-04T09:06:27.996Z</time>
</trkpt>
<trkpt lat="43.2027200" lon="-2.1977000">
<ele>511.149597</ele>
<time>2007-12-04T09:06:34.001Z</time>
</trkpt>
<trkpt lat="43.2027000" lon="-2.1977100">
<ele>509.320801</ele>
<time>2007-12-04T09:06:35.997Z</time>
</trkpt>
<trkpt lat="43.2025400" lon="-2.1977500">
<ele>511.149597</ele>
<time>2007-12-04T09:06:49.000Z</time>
</trkpt>
<trkpt lat="43.2024000" lon="-2.1977100">
<ele>514.502380</ele>
<time>2007-12-04T09:06:59.999Z</time>
</trkpt>
<trkpt lat="43.2023000" lon="-2.1977100">
<ele>517.855225</ele>
<time>2007-12-04T09:07:09.002Z</time>
</trkpt>
<trkpt lat="43.2021200" lon="-2.1977800">
<ele>520.598389</ele>
<time>2007-12-04T09:07:24.001Z</time>
</trkpt>
<trkpt lat="43.2019500" lon="-2.1978000">
<ele>523.951172</ele>
<time>2007-12-04T09:07:36.002Z</time>
</trkpt>
<trkpt lat="43.2017500" lon="-2.1978300">
<ele>526.389587</ele>
<time>2007-12-04T09:07:52.003Z</time>
</trkpt>
<trkpt lat="43.2016200" lon="-2.1978600">
<ele>529.742371</ele>
<time>2007-12-04T09:08:03.002Z</time>
</trkpt>
<trkpt lat="43.2014800" lon="-2.1978900">
<ele>533.095215</ele>
<time>2007-12-04T09:08:15.003Z</time>
</trkpt>
<trkpt lat="43.2013300" lon="-2.1979300">
<ele>536.447998</ele>
<time>2007-12-04T09:08:27.997Z</time>
</trkpt>
<trkpt lat="43.2011700" lon="-2.1979600">
<ele>539.800781</ele>
<time>2007-12-04T09:08:41.001Z</time>
</trkpt>
<trkpt lat="43.2010600" lon="-2.1980000">
<ele>543.153625</ele>
<time>2007-12-04T09:08:53.002Z</time>
</trkpt>
<trkpt lat="43.2009100" lon="-2.1980200">
<ele>546.811218</ele>
<time>2007-12-04T09:09:05.003Z</time>
</trkpt>
<trkpt lat="43.2007700" lon="-2.1980500">
<ele>548.944824</ele>
<time>2007-12-04T09:09:17.004Z</time>
</trkpt>
<trkpt lat="43.2005800" lon="-2.1980900">
<ele>553.516785</ele>
<time>2007-12-04T09:09:32.996Z</time>
</trkpt>
<trkpt lat="43.2004300" lon="-2.1981100">
<ele>556.260010</ele>
<time>2007-12-04T09:09:47.002Z</time>
</trkpt>
<trkpt lat="43.2002700" lon="-2.1980600">
<ele>559.612793</ele>
<time>2007-12-04T09:10:03.003Z</time>
</trkpt>
<trkpt lat="43.2001100" lon="-2.1979000">
<ele>562.965576</ele>
<time>2007-12-04T09:10:22.002Z</time>
</trkpt>
<trkpt lat="43.2000700" lon="-2.1978200">
<ele>563.880005</ele>
<time>2007-12-04T09:10:30.003Z</time>
</trkpt>
<trkpt lat="43.1999600" lon="-2.1975900">
<ele>567.842407</ele>
<time>2007-12-04T09:10:45.002Z</time>
</trkpt>
<trkpt lat="43.1998600" lon="-2.1974200">
<ele>568.756775</ele>
<time>2007-12-04T09:11:01.997Z</time>
</trkpt>
<trkpt lat="43.1997700" lon="-2.1973400">
<ele>570.280823</ele>
<time>2007-12-04T09:11:29.999Z</time>
</trkpt>
<trkpt lat="43.1997500" lon="-2.1973500">
<ele>570.585571</ele>
<time>2007-12-04T09:11:32.004Z</time>
</trkpt>
<trkpt lat="43.1995600" lon="-2.1972900">
<ele>571.804810</ele>
<time>2007-12-04T09:11:47.003Z</time>
</trkpt>
<trkpt lat="43.1993300" lon="-2.1972100">
<ele>573.938416</ele>
<time>2007-12-04T09:12:03.997Z</time>
</trkpt>
<trkpt lat="43.1992600" lon="-2.1971900">
<ele>575.157593</ele>
<time>2007-12-04T09:12:09.000Z</time>
</trkpt>
<trkpt lat="43.1991900" lon="-2.1971700">
<ele>575.462402</ele>
<time>2007-12-04T09:12:14.003Z</time>
</trkpt>
<trkpt lat="43.1989700" lon="-2.1970800">
<ele>576.376770</ele>
<time>2007-12-04T09:12:32.000Z</time>
</trkpt>
<trkpt lat="43.1987400" lon="-2.1970100">
<ele>579.424805</ele>
<time>2007-12-04T09:12:46.999Z</time>
</trkpt>
<trkpt lat="43.1984800" lon="-2.1969600">
<ele>581.253601</ele>
<time>2007-12-04T09:13:04.996Z</time>
</trkpt>
<trkpt lat="43.1982900" lon="-2.1969000">
<ele>582.777588</ele>
<time>2007-12-04T09:13:20.997Z</time>
</trkpt>
<trkpt lat="43.1981500" lon="-2.1968800">
<ele>583.692017</ele>
<time>2007-12-04T09:13:47.004Z</time>
</trkpt>
<trkpt lat="43.1979300" lon="-2.1968000">
<ele>585.520813</ele>
<time>2007-12-04T09:14:05.001Z</time>
</trkpt>
<trkpt lat="43.1977600" lon="-2.1967300">
<ele>587.959229</ele>
<time>2007-12-04T09:14:18.004Z</time>
</trkpt>
<trkpt lat="43.1975800" lon="-2.1966600">
<ele>591.007202</ele>
<time>2007-12-04T09:14:29.003Z</time>
</trkpt>
<trkpt lat="43.1974400" lon="-2.1965900">
<ele>594.359985</ele>
<time>2007-12-04T09:14:41.004Z</time>
</trkpt>
<trkpt lat="43.1972800" lon="-2.1965100">
<ele>597.103210</ele>
<time>2007-12-04T09:14:53.998Z</time>
</trkpt>
<trkpt lat="43.1970900" lon="-2.1964700">
<ele>600.455994</ele>
<time>2007-12-04T09:15:11.002Z</time>
</trkpt>
<trkpt lat="43.1969000" lon="-2.1964300">
<ele>603.504028</ele>
<time>2007-12-04T09:15:27.996Z</time>
</trkpt>
<trkpt lat="43.1967500" lon="-2.1963500">
<ele>606.247192</ele>
<time>2007-12-04T09:15:39.004Z</time>
</trkpt>
<trkpt lat="43.1965400" lon="-2.1963000">
<ele>608.075989</ele>
<time>2007-12-04T09:15:54.003Z</time>
</trkpt>
<trkpt lat="43.1963400" lon="-2.1962300">
<ele>611.124023</ele>
<time>2007-12-04T09:16:10.004Z</time>
</trkpt>
<trkpt lat="43.1962600" lon="-2.1961700">
<ele>612.038391</ele>
<time>2007-12-04T09:16:22.999Z</time>
</trkpt>
<trkpt lat="43.1962000" lon="-2.1961100">
<ele>612.038391</ele>
<time>2007-12-04T09:16:37.998Z</time>
</trkpt>
<trkpt lat="43.1960600" lon="-2.1959800">
<ele>614.476807</ele>
<time>2007-12-04T09:16:53.999Z</time>
</trkpt>
<trkpt lat="43.1960400" lon="-2.1959700">
<ele>614.781616</ele>
<time>2007-12-04T09:16:55.001Z</time>
</trkpt>
<trkpt lat="43.1959300" lon="-2.1958400">
<ele>616.305603</ele>
<time>2007-12-04T09:17:08.998Z</time>
</trkpt>
<trkpt lat="43.1959000" lon="-2.1958000">
<ele>617.219971</ele>
<time>2007-12-04T09:17:11.996Z</time>
</trkpt>
<trkpt lat="43.1957700" lon="-2.1955800">
<ele>619.353577</ele>
<time>2007-12-04T09:17:26.002Z</time>
</trkpt>
<trkpt lat="43.1956300" lon="-2.1952100">
<ele>621.182373</ele>
<time>2007-12-04T09:17:42.996Z</time>
</trkpt>
<trkpt lat="43.1955400" lon="-2.1948300">
<ele>623.925598</ele>
<time>2007-12-04T09:18:02.998Z</time>
</trkpt>
<trkpt lat="43.1954500" lon="-2.1945300">
<ele>625.449585</ele>
<time>2007-12-04T09:18:20.002Z</time>
</trkpt>
<trkpt lat="43.1954000" lon="-2.1944300">
<ele>625.449585</ele>
<time>2007-12-04T09:18:36.003Z</time>
</trkpt>
<trkpt lat="43.1954000" lon="-2.1944100">
<ele>626.059204</ele>
<time>2007-12-04T09:18:55.002Z</time>
</trkpt>
<trkpt lat="43.1953900" lon="-2.1944000">
<ele>625.449585</ele>
<time>2007-12-04T09:18:59.003Z</time>
</trkpt>
<trkpt lat="43.1953800" lon="-2.1943300">
<ele>626.059204</ele>
<time>2007-12-04T09:19:03.003Z</time>
</trkpt>
<trkpt lat="43.1953300" lon="-2.1939600">
<ele>626.364014</ele>
<time>2007-12-04T09:19:22.002Z</time>
</trkpt>
<trkpt lat="43.1952500" lon="-2.1935200">
<ele>624.535217</ele>
<time>2007-12-04T09:19:42.004Z</time>
</trkpt>
<trkpt lat="43.1951900" lon="-2.1930000">
<ele>622.096802</ele>
<time>2007-12-04T09:20:05.997Z</time>
</trkpt>
<trkpt lat="43.1951900" lon="-2.1928800">
<ele>622.096802</ele>
<time>2007-12-04T09:20:12.002Z</time>
</trkpt>
<trkpt lat="43.1951900" lon="-2.1925700">
<ele>620.572815</ele>
<time>2007-12-04T09:20:28.003Z</time>
</trkpt>
<trkpt lat="43.1951200" lon="-2.1921200">
<ele>619.658386</ele>
<time>2007-12-04T09:20:47.003Z</time>
</trkpt>
<trkpt lat="43.1950400" lon="-2.1917200">
<ele>618.744019</ele>
<time>2007-12-04T09:21:06.002Z</time>
</trkpt>
<trkpt lat="43.1949400" lon="-2.1914200">
<ele>618.134399</ele>
<time>2007-12-04T09:21:22.003Z</time>
</trkpt>
<trkpt lat="43.1948800" lon="-2.1911800">
<ele>619.658386</ele>
<time>2007-12-04T09:21:37.996Z</time>
</trkpt>
<trkpt lat="43.1948200" lon="-2.1909400">
<ele>617.829590</ele>
<time>2007-12-04T09:21:54.999Z</time>
</trkpt>
<trkpt lat="43.1947200" lon="-2.1905600">
<ele>616.305603</ele>
<time>2007-12-04T09:22:12.003Z</time>
</trkpt>
<trkpt lat="43.1946000" lon="-2.1901500">
<ele>613.867188</ele>
<time>2007-12-04T09:22:31.002Z</time>
</trkpt>
<trkpt lat="43.1945200" lon="-2.1896700">
<ele>611.428772</ele>
<time>2007-12-04T09:22:51.997Z</time>
</trkpt>
<trkpt lat="43.1944800" lon="-2.1892600">
<ele>610.209595</ele>
<time>2007-12-04T09:23:10.997Z</time>
</trkpt>
<trkpt lat="43.1943800" lon="-2.1887800">
<ele>609.295227</ele>
<time>2007-12-04T09:23:33.003Z</time>
</trkpt>
<trkpt lat="43.1942600" lon="-2.1883500">
<ele>607.771179</ele>
<time>2007-12-04T09:23:53.998Z</time>
</trkpt>
<trkpt lat="43.1942200" lon="-2.1879900">
<ele>605.637573</ele>
<time>2007-12-04T09:24:11.002Z</time>
</trkpt>
<trkpt lat="43.1941900" lon="-2.1876600">
<ele>607.161621</ele>
<time>2007-12-04T09:24:30.001Z</time>
</trkpt>
<trkpt lat="43.1941000" lon="-2.1875000">
<ele>608.075989</ele>
<time>2007-12-04T09:24:58.003Z</time>
</trkpt>
<trkpt lat="43.1940700" lon="-2.1871400">
<ele>609.599976</ele>
<time>2007-12-04T09:25:17.003Z</time>
</trkpt>
<trkpt lat="43.1939900" lon="-2.1867500">
<ele>611.428772</ele>
<time>2007-12-04T09:25:37.998Z</time>
</trkpt>
<trkpt lat="43.1938900" lon="-2.1862900">
<ele>612.952820</ele>
<time>2007-12-04T09:26:00.997Z</time>
</trkpt>
<trkpt lat="43.1938000" lon="-2.1860200">
<ele>616.000793</ele>
<time>2007-12-04T09:26:15.996Z</time>
</trkpt>
<trkpt lat="43.1936800" lon="-2.1857700">
<ele>618.744019</ele>
<time>2007-12-04T09:26:31.998Z</time>
</trkpt>
<trkpt lat="43.1936400" lon="-2.1856700">
<ele>621.182373</ele>
<time>2007-12-04T09:26:38.996Z</time>
</trkpt>
<trkpt lat="43.1936300" lon="-2.1856200">
<ele>621.791992</ele>
<time>2007-12-04T09:26:42.003Z</time>
</trkpt>
<trkpt lat="43.1936000" lon="-2.1855500">
<ele>623.620789</ele>
<time>2007-12-04T09:26:47.999Z</time>
</trkpt>
<trkpt lat="43.1935500" lon="-2.1854700">
<ele>625.449585</ele>
<time>2007-12-04T09:27:06.998Z</time>
</trkpt>
<trkpt lat="43.1934800" lon="-2.1853200">
<ele>628.497620</ele>
<time>2007-12-04T09:27:17.997Z</time>
</trkpt>
<trkpt lat="43.1934000" lon="-2.1851700">
<ele>631.850403</ele>
<time>2007-12-04T09:27:28.996Z</time>
</trkpt>
<trkpt lat="43.1933900" lon="-2.1851600">
<ele>632.155212</ele>
<time>2007-12-04T09:27:29.998Z</time>
</trkpt>
<trkpt lat="43.1932800" lon="-2.1850200">
<ele>635.203186</ele>
<time>2007-12-04T09:27:43.001Z</time>
</trkpt>
<trkpt lat="43.1931900" lon="-2.1849100">
<ele>638.556030</ele>
<time>2007-12-04T09:27:52.998Z</time>
</trkpt>
<trkpt lat="43.1931300" lon="-2.1848600">
<ele>639.775208</ele>
<time>2007-12-04T09:27:58.000Z</time>
</trkpt>
<trkpt lat="43.1930300" lon="-2.1846600">
<ele>643.127991</ele>
<time>2007-12-04T09:28:11.997Z</time>
</trkpt>
<trkpt lat="43.1929200" lon="-2.1845100">
<ele>646.785583</ele>
<time>2007-12-04T09:28:23.998Z</time>
</trkpt>
<trkpt lat="43.1928000" lon="-2.1843600">
<ele>649.528809</ele>
<time>2007-12-04T09:28:37.001Z</time>
</trkpt>
<trkpt lat="43.1926900" lon="-2.1842800">
<ele>652.881592</ele>
<time>2007-12-04T09:28:46.998Z</time>
</trkpt>
<trkpt lat="43.1925700" lon="-2.1842300">
<ele>656.843994</ele>
<time>2007-12-04T09:28:57.996Z</time>
</trkpt>
<trkpt lat="43.1924400" lon="-2.1841100">
<ele>660.196777</ele>
<time>2007-12-04T09:29:11.000Z</time>
</trkpt>
<trkpt lat="43.1923500" lon="-2.1839700">
<ele>663.549622</ele>
<time>2007-12-04T09:29:23.001Z</time>
</trkpt>
<trkpt lat="43.1922500" lon="-2.1838600">
<ele>666.902405</ele>
<time>2007-12-04T09:29:35.002Z</time>
</trkpt>
<trkpt lat="43.1922500" lon="-2.1838500">
<ele>667.207214</ele>
<time>2007-12-04T09:29:36.004Z</time>
</trkpt>
<trkpt lat="43.1921900" lon="-2.1837600">
<ele>670.255188</ele>
<time>2007-12-04T09:29:43.996Z</time>
</trkpt>
<trkpt lat="43.1920900" lon="-2.1836400">
<ele>673.607971</ele>
<time>2007-12-04T09:29:55.997Z</time>
</trkpt>
<trkpt lat="43.1919800" lon="-2.1835500">
<ele>676.960815</ele>
<time>2007-12-04T09:30:07.998Z</time>
</trkpt>
<trkpt lat="43.1919300" lon="-2.1835300">
<ele>677.875183</ele>
<time>2007-12-04T09:30:13.000Z</time>
</trkpt>
<trkpt lat="43.1918700" lon="-2.1834600">
<ele>680.618408</ele>
<time>2007-12-04T09:30:19.999Z</time>
</trkpt>
<trkpt lat="43.1918500" lon="-2.1834200">
<ele>681.837585</ele>
<time>2007-12-04T09:30:23.999Z</time>
</trkpt>
<trkpt lat="43.1918400" lon="-2.1833700">
<ele>682.142395</ele>
<time>2007-12-04T09:30:26.997Z</time>
</trkpt>
<trkpt lat="43.1917400" lon="-2.1832400">
<ele>685.495178</ele>
<time>2007-12-04T09:30:38.998Z</time>
</trkpt>
<trkpt lat="43.1915900" lon="-2.1831500">
<ele>688.543213</ele>
<time>2007-12-04T09:30:52.001Z</time>
</trkpt>
<trkpt lat="43.1913600" lon="-2.1830400">
<ele>691.895996</ele>
<time>2007-12-04T09:31:09.998Z</time>
</trkpt>
<trkpt lat="43.1911500" lon="-2.1828100">
<ele>695.248779</ele>
<time>2007-12-04T09:31:30.000Z</time>
</trkpt>
<trkpt lat="43.1910000" lon="-2.1825800">
<ele>697.992004</ele>
<time>2007-12-04T09:31:46.001Z</time>
</trkpt>
<trkpt lat="43.1908700" lon="-2.1823500">
<ele>700.430420</ele>
<time>2007-12-04T09:32:02.003Z</time>
</trkpt>
<trkpt lat="43.1906800" lon="-2.1820500">
<ele>703.478394</ele>
<time>2007-12-04T09:32:22.004Z</time>
</trkpt>
<trkpt lat="43.1905500" lon="-2.1818400">
<ele>706.221619</ele>
<time>2007-12-04T09:32:37.003Z</time>
</trkpt>
<trkpt lat="43.1904400" lon="-2.1816700">
<ele>709.574402</ele>
<time>2007-12-04T09:32:49.998Z</time>
</trkpt>
<trkpt lat="43.1903600" lon="-2.1814300">
<ele>712.622375</ele>
<time>2007-12-04T09:33:04.997Z</time>
</trkpt>
<trkpt lat="43.1903100" lon="-2.1812800">
<ele>714.755981</ele>
<time>2007-12-04T09:33:14.000Z</time>
</trkpt>
<trkpt lat="43.1901900" lon="-2.1809400">
<ele>717.804016</ele>
<time>2007-12-04T09:33:34.001Z</time>
</trkpt>
<trkpt lat="43.1901300" lon="-2.1806900">
<ele>721.156799</ele>
<time>2007-12-04T09:33:49.000Z</time>
</trkpt>
<trkpt lat="43.1900300" lon="-2.1804500">
<ele>723.900024</ele>
<time>2007-12-04T09:34:03.999Z</time>
</trkpt>
<trkpt lat="43.1899400" lon="-2.1802000">
<ele>727.252808</ele>
<time>2007-12-04T09:34:18.998Z</time>
</trkpt>
<trkpt lat="43.1898400" lon="-2.1799300">
<ele>730.300781</ele>
<time>2007-12-04T09:34:35.000Z</time>
</trkpt>
<trkpt lat="43.1897900" lon="-2.1797100">
<ele>733.044006</ele>
<time>2007-12-04T09:34:47.001Z</time>
</trkpt>
<trkpt lat="43.1897000" lon="-2.1794700">
<ele>736.396790</ele>
<time>2007-12-04T09:35:02.000Z</time>
</trkpt>
<trkpt lat="43.1896100" lon="-2.1792900">
<ele>739.749573</ele>
<time>2007-12-04T09:35:15.003Z</time>
</trkpt>
<trkpt lat="43.1895600" lon="-2.1791700">
<ele>743.711975</ele>
<time>2007-12-04T09:35:24.999Z</time>
</trkpt>
<trkpt lat="43.1895500" lon="-2.1791600">
<ele>743.711975</ele>
<time>2007-12-04T09:35:26.002Z</time>
</trkpt>
<trkpt lat="43.1895400" lon="-2.1791500">
<ele>743.711975</ele>
<time>2007-12-04T09:35:34.996Z</time>
</trkpt>
<trkpt lat="43.1895400" lon="-2.1791400">
<ele>743.102417</ele>
<time>2007-12-04T09:35:35.998Z</time>
</trkpt>
<trkpt lat="43.1894100" lon="-2.1789500">
<ele>747.979187</ele>
<time>2007-12-04T09:35:53.002Z</time>
</trkpt>
<trkpt lat="43.1893400" lon="-2.1788700">
<ele>747.064819</ele>
<time>2007-12-04T09:36:16.001Z</time>
</trkpt>
<trkpt lat="43.1891600" lon="-2.1787200">
<ele>750.417603</ele>
<time>2007-12-04T09:36:32.003Z</time>
</trkpt>
<trkpt lat="43.1890600" lon="-2.1786500">
<ele>751.941589</ele>
<time>2007-12-04T09:36:40.003Z</time>
</trkpt>
<trkpt lat="43.1890200" lon="-2.1786200">
<ele>752.856018</ele>
<time>2007-12-04T09:36:44.004Z</time>
</trkpt>
<trkpt lat="43.1888500" lon="-2.1784800">
<ele>756.208801</ele>
<time>2007-12-04T09:36:59.003Z</time>
</trkpt>
<trkpt lat="43.1888300" lon="-2.1784600">
<ele>757.123230</ele>
<time>2007-12-04T09:37:00.998Z</time>
</trkpt>
<trkpt lat="43.1887900" lon="-2.1784300">
<ele>758.037598</ele>
<time>2007-12-04T09:37:04.999Z</time>
</trkpt>
<trkpt lat="43.1886400" lon="-2.1782800">
<ele>761.390381</ele>
<time>2007-12-04T09:37:19.998Z</time>
</trkpt>
<trkpt lat="43.1886000" lon="-2.1782500">
<ele>762.609619</ele>
<time>2007-12-04T09:37:23.998Z</time>
</trkpt>
<trkpt lat="43.1884300" lon="-2.1781300">
<ele>766.876770</ele>
<time>2007-12-04T09:37:38.997Z</time>
</trkpt>
<trkpt lat="43.1883700" lon="-2.1780900">
<ele>767.181580</ele>
<time>2007-12-04T09:37:44.000Z</time>
</trkpt>
<trkpt lat="43.1881700" lon="-2.1779300">
<ele>770.229614</ele>
<time>2007-12-04T09:38:00.001Z</time>
</trkpt>
<trkpt lat="43.1880600" lon="-2.1778500">
<ele>773.582397</ele>
<time>2007-12-04T09:38:11.000Z</time>
</trkpt>
<trkpt lat="43.1880400" lon="-2.1778300">
<ele>773.887207</ele>
<time>2007-12-04T09:38:13.004Z</time>
</trkpt>
<trkpt lat="43.1880000" lon="-2.1777800">
<ele>775.411194</ele>
<time>2007-12-04T09:38:17.998Z</time>
</trkpt>
<trkpt lat="43.1878800" lon="-2.1776900">
<ele>779.373596</ele>
<time>2007-12-04T09:38:28.997Z</time>
</trkpt>
<trkpt lat="43.1878600" lon="-2.1776600">
<ele>779.373596</ele>
<time>2007-12-04T09:38:31.001Z</time>
</trkpt>
<trkpt lat="43.1878600" lon="-2.1776000">
<ele>780.288025</ele>
<time>2007-12-04T09:38:46.000Z</time>
</trkpt>
<trkpt lat="43.1878300" lon="-2.1774400">
<ele>783.031189</ele>
<time>2007-12-04T09:38:58.001Z</time>
</trkpt>
<trkpt lat="43.1877200" lon="-2.1772100">
<ele>786.383972</ele>
<time>2007-12-04T09:39:14.003Z</time>
</trkpt>
<trkpt lat="43.1876000" lon="-2.1770700">
<ele>788.517578</ele>
<time>2007-12-04T09:39:26.997Z</time>
</trkpt>
<trkpt lat="43.1875300" lon="-2.1769480">
<ele>788.517578</ele>
<time>2007-12-04T09:39:34.004Z</time>
</trkpt>
<trkpt lat="43.1873800" lon="-2.1766980">
<ele>789.736816</ele>
<time>2007-12-04T09:39:50.999Z</time>
</trkpt>
<trkpt lat="43.1871900" lon="-2.1763400">
<ele>787.908020</ele>
<time>2007-12-04T09:40:12.003Z</time>
</trkpt>
<trkpt lat="43.1870700" lon="-2.1761500">
<ele>787.908020</ele>
<time>2007-12-04T09:40:24.997Z</time>
</trkpt>
<trkpt lat="43.1869400" lon="-2.1759200">
<ele>789.432007</ele>
<time>2007-12-04T09:40:39.996Z</time>
</trkpt>
<trkpt lat="43.1868200" lon="-2.1756500">
<ele>790.955994</ele>
<time>2007-12-04T09:40:55.998Z</time>
</trkpt>
<trkpt lat="43.1866800" lon="-2.1755300">
<ele>791.260803</ele>
<time>2007-12-04T09:41:07.999Z</time>
</trkpt>
<trkpt lat="43.1866500" lon="-2.1755000">
<ele>791.260803</ele>
<time>2007-12-04T09:41:10.003Z</time>
</trkpt>
<trkpt lat="43.1864300" lon="-2.1754000">
<ele>793.089600</ele>
<time>2007-12-04T09:41:25.996Z</time>
</trkpt>
<trkpt lat="43.1863000" lon="-2.1753600">
<ele>794.613586</ele>
<time>2007-12-04T09:41:38.999Z</time>
</trkpt>
<trkpt lat="43.1861300" lon="-2.1753000">
<ele>795.223206</ele>
<time>2007-12-04T09:41:51.000Z</time>
</trkpt>
<trkpt lat="43.1861100" lon="-2.1752700">
<ele>795.528015</ele>
<time>2007-12-04T09:41:52.996Z</time>
</trkpt>
<trkpt lat="43.1859000" lon="-2.1751100">
<ele>797.661621</ele>
<time>2007-12-04T09:42:07.001Z</time>
</trkpt>
<trkpt lat="43.1857900" lon="-2.1750300">
<ele>798.880798</ele>
<time>2007-12-04T09:42:16.998Z</time>
</trkpt>
<trkpt lat="43.1855700" lon="-2.1749000">
<ele>800.404785</ele>
<time>2007-12-04T09:42:32.999Z</time>
</trkpt>
<trkpt lat="43.1854500" lon="-2.1747700">
<ele>799.490417</ele>
<time>2007-12-04T09:42:51.998Z</time>
</trkpt>
<trkpt lat="43.1853100" lon="-2.1745100">
<ele>798.880798</ele>
<time>2007-12-04T09:43:06.004Z</time>
</trkpt>
<trkpt lat="43.1852000" lon="-2.1743400">
<ele>798.575989</ele>
<time>2007-12-04T09:43:17.003Z</time>
</trkpt>
<trkpt lat="43.1850300" lon="-2.1741700">
<ele>798.880798</ele>
<time>2007-12-04T09:43:29.997Z</time>
</trkpt>
<trkpt lat="43.1849900" lon="-2.1741300">
<ele>798.880798</ele>
<time>2007-12-04T09:43:33.004Z</time>
</trkpt>
<trkpt lat="43.1847300" lon="-2.1739300">
<ele>796.137573</ele>
<time>2007-12-04T09:43:52.003Z</time>
</trkpt>
<trkpt lat="43.1845200" lon="-2.1735800">
<ele>796.747192</ele>
<time>2007-12-04T09:44:11.003Z</time>
</trkpt>
<trkpt lat="43.1843600" lon="-2.1731500">
<ele>797.661621</ele>
<time>2007-12-04T09:44:33.000Z</time>
</trkpt>
<trkpt lat="43.1841900" lon="-2.1728600">
<ele>798.575989</ele>
<time>2007-12-04T09:44:50.997Z</time>
</trkpt>
<trkpt lat="43.1840400" lon="-2.1726100">
<ele>801.014404</ele>
<time>2007-12-04T09:45:08.001Z</time>
</trkpt>
<trkpt lat="43.1838900" lon="-2.1724100">
<ele>803.452820</ele>
<time>2007-12-04T09:45:25.004Z</time>
</trkpt>
<trkpt lat="43.1838000" lon="-2.1722700">
<ele>804.367188</ele>
<time>2007-12-04T09:45:32.996Z</time>
</trkpt>
<trkpt lat="43.1836700" lon="-2.1720600">
<ele>804.671997</ele>
<time>2007-12-04T09:45:45.999Z</time>
</trkpt>
<trkpt lat="43.1835300" lon="-2.1718600">
<ele>806.195984</ele>
<time>2007-12-04T09:45:59.996Z</time>
</trkpt>
<trkpt lat="43.1834600" lon="-2.1717000">
<ele>808.634399</ele>
<time>2007-12-04T09:46:08.999Z</time>
</trkpt>
<trkpt lat="43.1834000" lon="-2.1716000">
<ele>809.548828</ele>
<time>2007-12-04T09:46:15.997Z</time>
</trkpt>
<trkpt lat="43.1832500" lon="-2.1714700">
<ele>812.596802</ele>
<time>2007-12-04T09:46:29.001Z</time>
</trkpt>
<trkpt lat="43.1831500" lon="-2.1713700">
<ele>811.072815</ele>
<time>2007-12-04T09:46:35.999Z</time>
</trkpt>
<trkpt lat="43.1830700" lon="-2.1712500">
<ele>809.548828</ele>
<time>2007-12-04T09:46:42.997Z</time>
</trkpt>
<trkpt lat="43.1830100" lon="-2.1711400">
<ele>809.548828</ele>
<time>2007-12-04T09:46:49.996Z</time>
</trkpt>
<trkpt lat="43.1829400" lon="-2.1708400">
<ele>809.244019</ele>
<time>2007-12-04T09:47:02.999Z</time>
</trkpt>
<trkpt lat="43.1829200" lon="-2.1707000">
<ele>808.634399</ele>
<time>2007-12-04T09:47:09.004Z</time>
</trkpt>
<trkpt lat="43.1828700" lon="-2.1703600">
<ele>805.281616</ele>
<time>2007-12-04T09:47:24.003Z</time>
</trkpt>
<trkpt lat="43.1828500" lon="-2.1703000">
<ele>804.671997</ele>
<time>2007-12-04T09:47:27.001Z</time>
</trkpt>
<trkpt lat="43.1828700" lon="-2.1701700">
<ele>804.671997</ele>
<time>2007-12-04T09:47:32.997Z</time>
</trkpt>
<trkpt lat="43.1829400" lon="-2.1700100">
<ele>805.281616</ele>
<time>2007-12-04T09:47:43.002Z</time>
</trkpt>
<trkpt lat="43.1829000" lon="-2.1698400">
<ele>806.195984</ele>
<time>2007-12-04T09:47:52.999Z</time>
</trkpt>
<trkpt lat="43.1827700" lon="-2.1695600">
<ele>803.757629</ele>
<time>2007-12-04T09:48:09.000Z</time>
</trkpt>
<trkpt lat="43.1827400" lon="-2.1694800">
<ele>804.367188</ele>
<time>2007-12-04T09:48:13.000Z</time>
</trkpt>
<trkpt lat="43.1827700" lon="-2.1691200">
<ele>805.281616</ele>
<time>2007-12-04T09:48:29.002Z</time>
</trkpt>
<trkpt lat="43.1829300" lon="-2.1689200">
<ele>804.367188</ele>
<time>2007-12-04T09:48:42.998Z</time>
</trkpt>
<trkpt lat="43.1830100" lon="-2.1688900">
<ele>803.757629</ele>
<time>2007-12-04T09:48:46.999Z</time>
</trkpt>
<trkpt lat="43.1831900" lon="-2.1688200">
<ele>805.281616</ele>
<time>2007-12-04T09:48:57.997Z</time>
</trkpt>
<trkpt lat="43.1833200" lon="-2.1686700">
<ele>806.805603</ele>
<time>2007-12-04T09:49:12.996Z</time>
</trkpt>
<trkpt lat="43.1834500" lon="-2.1684600">
<ele>807.719971</ele>
<time>2007-12-04T09:49:27.002Z</time>
</trkpt>
<trkpt lat="43.1835800" lon="-2.1682600">
<ele>809.548828</ele>
<time>2007-12-04T09:49:42.001Z</time>
</trkpt>
<trkpt lat="43.1836300" lon="-2.1681000">
<ele>810.158386</ele>
<time>2007-12-04T09:50:02.003Z</time>
</trkpt>
<trkpt lat="43.1837100" lon="-2.1678700">
<ele>811.987183</ele>
<time>2007-12-04T09:50:15.999Z</time>
</trkpt>
<trkpt lat="43.1837700" lon="-2.1676100">
<ele>814.730408</ele>
<time>2007-12-04T09:50:29.996Z</time>
</trkpt>
<trkpt lat="43.1837600" lon="-2.1673200">
<ele>816.864014</ele>
<time>2007-12-04T09:50:45.004Z</time>
</trkpt>
<trkpt lat="43.1837500" lon="-2.1672000">
<ele>818.692810</ele>
<time>2007-12-04T09:50:52.996Z</time>
</trkpt>
<trkpt lat="43.1837800" lon="-2.1671300">
<ele>819.607178</ele>
<time>2007-12-04T09:50:56.996Z</time>
</trkpt>
<trkpt lat="43.1838200" lon="-2.1669200">
<ele>822.045593</ele>
<time>2007-12-04T09:51:14.000Z</time>
</trkpt>
<trkpt lat="43.1838200" lon="-2.1669000">
<ele>822.655212</ele>
<time>2007-12-04T09:51:19.996Z</time>
</trkpt>
<trkpt lat="43.1838400" lon="-2.1667500">
<ele>822.960022</ele>
<time>2007-12-04T09:51:28.999Z</time>
</trkpt>
<trkpt lat="43.1838800" lon="-2.1665100">
<ele>826.007996</ele>
<time>2007-12-04T09:51:43.998Z</time>
</trkpt>
<trkpt lat="43.1839500" lon="-2.1662700">
<ele>828.751221</ele>
<time>2007-12-04T09:51:58.003Z</time>
</trkpt>
<trkpt lat="43.1840100" lon="-2.1659000">
<ele>830.580017</ele>
<time>2007-12-04T09:52:17.003Z</time>
</trkpt>
<trkpt lat="43.1840400" lon="-2.1655200">
<ele>831.189575</ele>
<time>2007-12-04T09:52:33.004Z</time>
</trkpt>
<trkpt lat="43.1841200" lon="-2.1652400">
<ele>834.542419</ele>
<time>2007-12-04T09:52:48.996Z</time>
</trkpt>
<trkpt lat="43.1842100" lon="-2.1647600">
<ele>836.371216</ele>
<time>2007-12-04T09:53:12.998Z</time>
</trkpt>
<trkpt lat="43.1842900" lon="-2.1643500">
<ele>837.590393</ele>
<time>2007-12-04T09:53:33.000Z</time>
</trkpt>
<trkpt lat="43.1844000" lon="-2.1639700">
<ele>839.419189</ele>
<time>2007-12-04T09:53:53.002Z</time>
</trkpt>
<trkpt lat="43.1845200" lon="-2.1635000">
<ele>840.943176</ele>
<time>2007-12-04T09:54:17.004Z</time>
</trkpt>
<trkpt lat="43.1846600" lon="-2.1630000">
<ele>841.857605</ele>
<time>2007-12-04T09:54:41.999Z</time>
</trkpt>
<trkpt lat="43.1847500" lon="-2.1625700">
<ele>841.247986</ele>
<time>2007-12-04T09:55:03.003Z</time>
</trkpt>
<trkpt lat="43.1847900" lon="-2.1624000">
<ele>842.771973</ele>
<time>2007-12-04T09:55:11.997Z</time>
</trkpt>
<trkpt lat="43.1848300" lon="-2.1622500">
<ele>845.515198</ele>
<time>2007-12-04T09:55:21.000Z</time>
</trkpt>
<trkpt lat="43.1849200" lon="-2.1618600">
<ele>849.477600</ele>
<time>2007-12-04T09:55:42.004Z</time>
</trkpt>
<trkpt lat="43.1850200" lon="-2.1614900">
<ele>852.220825</ele>
<time>2007-12-04T09:56:02.999Z</time>
</trkpt>
<trkpt lat="43.1851000" lon="-2.1611700">
<ele>853.440002</ele>
<time>2007-12-04T09:56:21.998Z</time>
</trkpt>
<trkpt lat="43.1850900" lon="-2.1610300">
<ele>851.306396</ele>
<time>2007-12-04T09:56:31.001Z</time>
</trkpt>
<trkpt lat="43.1851000" lon="-2.1609600">
<ele>850.087219</ele>
<time>2007-12-04T09:56:35.002Z</time>
</trkpt>
<trkpt lat="43.1851400" lon="-2.1607500">
<ele>846.124817</ele>
<time>2007-12-04T09:56:44.998Z</time>
</trkpt>
<trkpt lat="43.1852000" lon="-2.1604200">
<ele>844.296021</ele>
<time>2007-12-04T09:57:02.002Z</time>
</trkpt>
<trkpt lat="43.1852300" lon="-2.1602200">
<ele>840.943176</ele>
<time>2007-12-04T09:57:15.998Z</time>
</trkpt>
<trkpt lat="43.1852400" lon="-2.1602000">
<ele>836.066406</ele>
<time>2007-12-04T09:57:29.002Z</time>
</trkpt>
<trkpt lat="43.1852300" lon="-2.1602000">
<ele>843.076782</ele>
<time>2007-12-04T09:57:30.004Z</time>
</trkpt>
<trkpt lat="43.1852300" lon="-2.1602000">
<ele>839.723999</ele>
<time>2007-12-04T09:57:30.997Z</time>
</trkpt>
<trkpt lat="43.1852400" lon="-2.1602000">
<ele>839.723999</ele>
<time>2007-12-04T09:59:03.998Z</time>
</trkpt>
<trkpt lat="43.1852200" lon="-2.1601700">
<ele>839.419189</ele>
<time>2007-12-04T10:02:26.002Z</time>
</trkpt>
<trkpt lat="43.1852100" lon="-2.1600600">
<ele>836.980774</ele>
<time>2007-12-04T10:02:31.998Z</time>
</trkpt>
<trkpt lat="43.1852000" lon="-2.1598600">
<ele>833.627991</ele>
<time>2007-12-04T10:02:41.001Z</time>
</trkpt>
<trkpt lat="43.1852100" lon="-2.1596500">
<ele>830.580017</ele>
<time>2007-12-04T10:02:50.004Z</time>
</trkpt>
<trkpt lat="43.1852300" lon="-2.1594000">
<ele>827.227173</ele>
<time>2007-12-04T10:03:02.998Z</time>
</trkpt>
<trkpt lat="43.1852300" lon="-2.1591900">
<ele>823.874390</ele>
<time>2007-12-04T10:03:13.003Z</time>
</trkpt>
<trkpt lat="43.1852500" lon="-2.1590100">
<ele>821.131226</ele>
<time>2007-12-04T10:03:21.997Z</time>
</trkpt>
<trkpt lat="43.1854500" lon="-2.1589100">
<ele>820.216797</ele>
<time>2007-12-04T10:03:39.001Z</time>
</trkpt>
<trkpt lat="43.1855600" lon="-2.1588600">
<ele>817.168823</ele>
<time>2007-12-04T10:03:47.002Z</time>
</trkpt>
<trkpt lat="43.1856300" lon="-2.1587500">
<ele>814.730408</ele>
<time>2007-12-04T10:03:54.000Z</time>
</trkpt>
<trkpt lat="43.1856400" lon="-2.1587100">
<ele>814.730408</ele>
<time>2007-12-04T10:03:55.996Z</time>
</trkpt>
<trkpt lat="43.1857200" lon="-2.1584300">
<ele>811.377625</ele>
<time>2007-12-04T10:04:10.001Z</time>
</trkpt>
<trkpt lat="43.1858000" lon="-2.1581800">
<ele>808.024780</ele>
<time>2007-12-04T10:04:25.000Z</time>
</trkpt>
<trkpt lat="43.1858100" lon="-2.1581500">
<ele>807.719971</ele>
<time>2007-12-04T10:04:26.003Z</time>
</trkpt>
<trkpt lat="43.1858800" lon="-2.1579900">
<ele>804.367188</ele>
<time>2007-12-04T10:04:35.999Z</time>
</trkpt>
<trkpt lat="43.1860600" lon="-2.1578600">
<ele>801.014404</ele>
<time>2007-12-04T10:04:49.996Z</time>
</trkpt>
<trkpt lat="43.1860700" lon="-2.1578600">
<ele>801.014404</ele>
<time>2007-12-04T10:04:50.998Z</time>
</trkpt>
<trkpt lat="43.1861200" lon="-2.1578400">
<ele>798.880798</ele>
<time>2007-12-04T10:04:56.001Z</time>
</trkpt>
<trkpt lat="43.1861600" lon="-2.1577900">
<ele>797.661621</ele>
<time>2007-12-04T10:05:00.001Z</time>
</trkpt>
<trkpt lat="43.1861800" lon="-2.1577800">
<ele>796.747192</ele>
<time>2007-12-04T10:05:01.997Z</time>
</trkpt>
<trkpt lat="43.1862000" lon="-2.1577700">
<ele>795.528015</ele>
<time>2007-12-04T10:05:04.001Z</time>
</trkpt>
<trkpt lat="43.1862200" lon="-2.1577500">
<ele>795.223206</ele>
<time>2007-12-04T10:05:06.999Z</time>
</trkpt>
<trkpt lat="43.1862500" lon="-2.1576100">
<ele>791.260803</ele>
<time>2007-12-04T10:05:16.996Z</time>
</trkpt>
<trkpt lat="43.1862500" lon="-2.1575600">
<ele>789.736816</ele>
<time>2007-12-04T10:05:20.003Z</time>
</trkpt>
<trkpt lat="43.1863600" lon="-2.1575100">
<ele>786.079224</ele>
<time>2007-12-04T10:05:29.999Z</time>
</trkpt>
<trkpt lat="43.1863900" lon="-2.1574300">
<ele>783.640808</ele>
<time>2007-12-04T10:05:35.002Z</time>
</trkpt>
<trkpt lat="43.1863900" lon="-2.1573800">
<ele>782.116821</ele>
<time>2007-12-04T10:05:39.002Z</time>
</trkpt>
<trkpt lat="43.1863900" lon="-2.1573600">
<ele>781.812012</ele>
<time>2007-12-04T10:05:40.998Z</time>
</trkpt>
<trkpt lat="43.1864200" lon="-2.1572500">
<ele>778.763977</ele>
<time>2007-12-04T10:05:47.003Z</time>
</trkpt>
<trkpt lat="43.1864400" lon="-2.1572100">
<ele>776.935181</ele>
<time>2007-12-04T10:05:50.001Z</time>
</trkpt>
<trkpt lat="43.1865100" lon="-2.1571300">
<ele>773.582397</ele>
<time>2007-12-04T10:05:58.001Z</time>
</trkpt>
<trkpt lat="43.1865400" lon="-2.1571000">
<ele>772.058411</ele>
<time>2007-12-04T10:06:00.999Z</time>
</trkpt>
<trkpt lat="43.1865500" lon="-2.1570300">
<ele>770.229614</ele>
<time>2007-12-04T10:06:05.000Z</time>
</trkpt>
<trkpt lat="43.1865500" lon="-2.1569400">
<ele>769.315186</ele>
<time>2007-12-04T10:06:09.000Z</time>
</trkpt>
<trkpt lat="43.1865800" lon="-2.1567900">
<ele>765.352783</ele>
<time>2007-12-04T10:06:17.001Z</time>
</trkpt>
<trkpt lat="43.1865900" lon="-2.1567700">
<ele>764.743225</ele>
<time>2007-12-04T10:06:18.003Z</time>
</trkpt>
<trkpt lat="43.1865900" lon="-2.1567400">
<ele>763.828796</ele>
<time>2007-12-04T10:06:19.999Z</time>
</trkpt>
<trkpt lat="43.1866300" lon="-2.1565600">
<ele>760.476013</ele>
<time>2007-12-04T10:06:27.999Z</time>
</trkpt>
<trkpt lat="43.1866400" lon="-2.1564000">
<ele>757.123230</ele>
<time>2007-12-04T10:06:34.998Z</time>
</trkpt>
<trkpt lat="43.1866600" lon="-2.1560900">
<ele>754.380005</ele>
<time>2007-12-04T10:06:49.003Z</time>
</trkpt>
<trkpt lat="43.1866500" lon="-2.1559200">
<ele>753.770386</ele>
<time>2007-12-04T10:06:57.004Z</time>
</trkpt>
<trkpt lat="43.1867400" lon="-2.1556700">
<ele>750.112793</ele>
<time>2007-12-04T10:07:11.001Z</time>
</trkpt>
<trkpt lat="43.1868700" lon="-2.1553500">
<ele>748.588806</ele>
<time>2007-12-04T10:07:28.004Z</time>
</trkpt>
<trkpt lat="43.1870000" lon="-2.1549600">
<ele>745.540771</ele>
<time>2007-12-04T10:07:47.997Z</time>
</trkpt>
<trkpt lat="43.1870800" lon="-2.1547400">
<ele>742.187988</ele>
<time>2007-12-04T10:07:59.998Z</time>
</trkpt>
<trkpt lat="43.1872300" lon="-2.1545900">
<ele>739.749573</ele>
<time>2007-12-04T10:08:14.004Z</time>
</trkpt>
<trkpt lat="43.1874800" lon="-2.1544800">
<ele>739.749573</ele>
<time>2007-12-04T10:08:29.996Z</time>
</trkpt>
<trkpt lat="43.1877100" lon="-2.1543400">
<ele>738.530396</ele>
<time>2007-12-04T10:08:45.997Z</time>
</trkpt>
<trkpt lat="43.1878600" lon="-2.1542900">
<ele>737.616028</ele>
<time>2007-12-04T10:08:56.003Z</time>
</trkpt>
<trkpt lat="43.1878800" lon="-2.1542700">
<ele>737.616028</ele>
<time>2007-12-04T10:08:57.998Z</time>
</trkpt>
<trkpt lat="43.1879800" lon="-2.1542500">
<ele>737.006409</ele>
<time>2007-12-04T10:09:05.999Z</time>
</trkpt>
<trkpt lat="43.1881800" lon="-2.1541900">
<ele>733.653625</ele>
<time>2007-12-04T10:09:18.000Z</time>
</trkpt>
<trkpt lat="43.1883800" lon="-2.1541700">
<ele>734.567993</ele>
<time>2007-12-04T10:09:31.997Z</time>
</trkpt>
<trkpt lat="43.1885500" lon="-2.1541800">
<ele>734.263184</ele>
<time>2007-12-04T10:09:46.002Z</time>
</trkpt>
<trkpt lat="43.1885900" lon="-2.1542000">
<ele>734.567993</ele>
<time>2007-12-04T10:09:50.003Z</time>
</trkpt>
<trkpt lat="43.1888300" lon="-2.1542200">
<ele>732.739197</ele>
<time>2007-12-04T10:10:06.004Z</time>
</trkpt>
<trkpt lat="43.1891200" lon="-2.1540700">
<ele>730.300781</ele>
<time>2007-12-04T10:10:25.003Z</time>
</trkpt>
<trkpt lat="43.1893100" lon="-2.1537800">
<ele>728.471985</ele>
<time>2007-12-04T10:10:41.998Z</time>
</trkpt>
<trkpt lat="43.1894400" lon="-2.1535400">
<ele>726.033630</ele>
<time>2007-12-04T10:10:55.001Z</time>
</trkpt>
<trkpt lat="43.1894800" lon="-2.1534700">
<ele>725.424011</ele>
<time>2007-12-04T10:10:59.002Z</time>
</trkpt>
<trkpt lat="43.1896600" lon="-2.1533700">
<ele>722.985596</ele>
<time>2007-12-04T10:11:11.003Z</time>
</trkpt>
<trkpt lat="43.1897000" lon="-2.1532800">
<ele>720.547180</ele>
<time>2007-12-04T10:11:16.999Z</time>
</trkpt>
<trkpt lat="43.1897300" lon="-2.1531600">
<ele>718.718384</ele>
<time>2007-12-04T10:11:24.999Z</time>
</trkpt>
<trkpt lat="43.1897200" lon="-2.1530300">
<ele>715.975220</ele>
<time>2007-12-04T10:11:33.000Z</time>
</trkpt>
<trkpt lat="43.1897200" lon="-2.1528900">
<ele>713.536804</ele>
<time>2007-12-04T10:11:41.001Z</time>
</trkpt>
<trkpt lat="43.1897700" lon="-2.1527400">
<ele>710.184021</ele>
<time>2007-12-04T10:11:50.004Z</time>
</trkpt>
<trkpt lat="43.1897700" lon="-2.1527200">
<ele>710.184021</ele>
<time>2007-12-04T10:11:50.997Z</time>
</trkpt>
<trkpt lat="43.1898200" lon="-2.1526400">
<ele>707.745605</ele>
<time>2007-12-04T10:11:57.002Z</time>
</trkpt>
<trkpt lat="43.1898300" lon="-2.1525100">
<ele>704.697571</ele>
<time>2007-12-04T10:12:05.003Z</time>
</trkpt>
<trkpt lat="43.1898600" lon="-2.1524500">
<ele>702.868774</ele>
<time>2007-12-04T10:12:09.996Z</time>
</trkpt>
<trkpt lat="43.1898600" lon="-2.1523100">
<ele>699.515991</ele>
<time>2007-12-04T10:12:21.997Z</time>
</trkpt>
<trkpt lat="43.1898400" lon="-2.1522400">
<ele>696.772827</ele>
<time>2007-12-04T10:12:31.000Z</time>
</trkpt>
<trkpt lat="43.1898300" lon="-2.1521200">
<ele>694.334412</ele>
<time>2007-12-04T10:12:40.003Z</time>
</trkpt>
<trkpt lat="43.1899000" lon="-2.1520200">
<ele>690.981628</ele>
<time>2007-12-04T10:12:48.997Z</time>
</trkpt>
<trkpt lat="43.1899000" lon="-2.1519500">
<ele>689.457581</ele>
<time>2007-12-04T10:12:52.998Z</time>
</trkpt>
<trkpt lat="43.1899000" lon="-2.1519100">
<ele>687.933594</ele>
<time>2007-12-04T10:12:55.002Z</time>
</trkpt>
<trkpt lat="43.1899900" lon="-2.1517200">
<ele>684.580811</ele>
<time>2007-12-04T10:13:07.003Z</time>
</trkpt>
<trkpt lat="43.1900200" lon="-2.1515100">
<ele>681.837585</ele>
<time>2007-12-04T10:13:17.000Z</time>
</trkpt>
<trkpt lat="43.1900800" lon="-2.1512400">
<ele>678.484802</ele>
<time>2007-12-04T10:13:30.996Z</time>
</trkpt>
<trkpt lat="43.1901400" lon="-2.1511200">
<ele>677.875183</ele>
<time>2007-12-04T10:13:46.004Z</time>
</trkpt>
<trkpt lat="43.1901400" lon="-2.1511200">
<ele>676.960815</ele>
<time>2007-12-04T10:13:53.003Z</time>
</trkpt>
<trkpt lat="43.1903400" lon="-2.1511700">
<ele>672.998413</ele>
<time>2007-12-04T10:14:05.997Z</time>
</trkpt>
<trkpt lat="43.1905000" lon="-2.1512400">
<ele>669.645630</ele>
<time>2007-12-04T10:14:16.996Z</time>
</trkpt>
<trkpt lat="43.1906200" lon="-2.1512900">
<ele>668.121582</ele>
<time>2007-12-04T10:14:25.999Z</time>
</trkpt>
<trkpt lat="43.1908600" lon="-2.1513700">
<ele>665.987976</ele>
<time>2007-12-04T10:14:42.000Z</time>
</trkpt>
<trkpt lat="43.1909400" lon="-2.1514000">
<ele>663.854370</ele>
<time>2007-12-04T10:14:47.996Z</time>
</trkpt>
<trkpt lat="43.1910000" lon="-2.1514100">
<ele>662.940002</ele>
<time>2007-12-04T10:14:51.996Z</time>
</trkpt>
<trkpt lat="43.1910500" lon="-2.1514100">
<ele>662.025574</ele>
<time>2007-12-04T10:14:55.997Z</time>
</trkpt>
<trkpt lat="43.1911800" lon="-2.1514500">
<ele>658.672791</ele>
<time>2007-12-04T10:15:07.004Z</time>
</trkpt>
<trkpt lat="43.1912100" lon="-2.1514200">
<ele>658.063171</ele>
<time>2007-12-04T10:15:09.000Z</time>
</trkpt>
<trkpt lat="43.1912300" lon="-2.1513800">
<ele>656.843994</ele>
<time>2007-12-04T10:15:11.998Z</time>
</trkpt>
<trkpt lat="43.1913500" lon="-2.1512000">
<ele>653.491211</ele>
<time>2007-12-04T10:15:23.999Z</time>
</trkpt>
<trkpt lat="43.1913700" lon="-2.1511700">
<ele>652.881592</ele>
<time>2007-12-04T10:15:26.004Z</time>
</trkpt>
<trkpt lat="43.1914200" lon="-2.1510700">
<ele>651.052795</ele>
<time>2007-12-04T10:15:32.000Z</time>
</trkpt>
<trkpt lat="43.1914700" lon="-2.1510000">
<ele>648.919189</ele>
<time>2007-12-04T10:15:37.002Z</time>
</trkpt>
<trkpt lat="43.1915400" lon="-2.1508800">
<ele>646.785583</ele>
<time>2007-12-04T10:15:45.003Z</time>
</trkpt>
<trkpt lat="43.1915600" lon="-2.1508600">
<ele>646.785583</ele>
<time>2007-12-04T10:15:46.999Z</time>
</trkpt>
<trkpt lat="43.1916200" lon="-2.1507300">
<ele>644.347229</ele>
<time>2007-12-04T10:15:53.997Z</time>
</trkpt>
<trkpt lat="43.1916700" lon="-2.1506700">
<ele>642.823181</ele>
<time>2007-12-04T10:15:59.000Z</time>
</trkpt>
<trkpt lat="43.1917000" lon="-2.1506000">
<ele>641.908813</ele>
<time>2007-12-04T10:16:03.000Z</time>
</trkpt>
<trkpt lat="43.1917900" lon="-2.1503900">
<ele>637.946411</ele>
<time>2007-12-04T10:16:13.999Z</time>
</trkpt>
<trkpt lat="43.1918700" lon="-2.1501400">
<ele>634.288818</ele>
<time>2007-12-04T10:16:27.002Z</time>
</trkpt>
<trkpt lat="43.1919300" lon="-2.1498100">
<ele>631.850403</ele>
<time>2007-12-04T10:16:42.001Z</time>
</trkpt>
<trkpt lat="43.1919300" lon="-2.1497700">
<ele>631.240784</ele>
<time>2007-12-04T10:16:43.997Z</time>
</trkpt>
<trkpt lat="43.1919700" lon="-2.1496500">
<ele>629.411987</ele>
<time>2007-12-04T10:16:51.997Z</time>
</trkpt>
<trkpt lat="43.1919900" lon="-2.1496000">
<ele>628.497620</ele>
<time>2007-12-04T10:16:55.004Z</time>
</trkpt>
<trkpt lat="43.1920000" lon="-2.1495800">
<ele>627.278381</ele>
<time>2007-12-04T10:16:55.998Z</time>
</trkpt>
<trkpt lat="43.1920600" lon="-2.1493900">
<ele>623.925598</ele>
<time>2007-12-04T10:17:06.003Z</time>
</trkpt>
<trkpt lat="43.1920900" lon="-2.1493500">
<ele>623.620789</ele>
<time>2007-12-04T10:17:09.001Z</time>
</trkpt>
<trkpt lat="43.1921600" lon="-2.1492000">
<ele>619.353577</ele>
<time>2007-12-04T10:17:18.004Z</time>
</trkpt>
<trkpt lat="43.1922400" lon="-2.1490800">
<ele>616.305603</ele>
<time>2007-12-04T10:17:25.996Z</time>
</trkpt>
<trkpt lat="43.1922800" lon="-2.1490100">
<ele>614.781616</ele>
<time>2007-12-04T10:17:30.998Z</time>
</trkpt>
<trkpt lat="43.1923500" lon="-2.1489000">
<ele>612.038391</ele>
<time>2007-12-04T10:17:38.999Z</time>
</trkpt>
<trkpt lat="43.1924500" lon="-2.1487700">
<ele>608.685608</ele>
<time>2007-12-04T10:17:49.004Z</time>
</trkpt>
<trkpt lat="43.1926300" lon="-2.1485400">
<ele>605.637573</ele>
<time>2007-12-04T10:18:03.001Z</time>
</trkpt>
<trkpt lat="43.1927900" lon="-2.1484100">
<ele>603.808777</ele>
<time>2007-12-04T10:18:14.000Z</time>
</trkpt>
<trkpt lat="43.1929600" lon="-2.1483400">
<ele>600.151184</ele>
<time>2007-12-04T10:18:27.003Z</time>
</trkpt>
<trkpt lat="43.1930600" lon="-2.1484000">
<ele>599.541626</ele>
<time>2007-12-04T10:18:38.002Z</time>
</trkpt>
<trkpt lat="43.1931800" lon="-2.1484400">
<ele>597.712830</ele>
<time>2007-12-04T10:18:47.998Z</time>
</trkpt>
<trkpt lat="43.1931900" lon="-2.1484300">
<ele>598.932007</ele>
<time>2007-12-04T10:18:50.996Z</time>
</trkpt>
<trkpt lat="43.1932500" lon="-2.1484800">
<ele>597.103210</ele>
<time>2007-12-04T10:19:05.002Z</time>
</trkpt>
<trkpt lat="43.1934100" lon="-2.1484800">
<ele>594.359985</ele>
<time>2007-12-04T10:19:14.998Z</time>
</trkpt>
<trkpt lat="43.1934500" lon="-2.1484800">
<ele>592.835999</ele>
<time>2007-12-04T10:19:17.996Z</time>
</trkpt>
<trkpt lat="43.1935700" lon="-2.1484900">
<ele>589.483215</ele>
<time>2007-12-04T10:19:26.999Z</time>
</trkpt>
<trkpt lat="43.1936400" lon="-2.1484700">
<ele>587.959229</ele>
<time>2007-12-04T10:19:33.004Z</time>
</trkpt>
<trkpt lat="43.1936700" lon="-2.1484100">
<ele>586.130371</ele>
<time>2007-12-04T10:19:37.004Z</time>
</trkpt>
<trkpt lat="43.1937600" lon="-2.1483000">
<ele>582.168030</ele>
<time>2007-12-04T10:19:48.003Z</time>
</trkpt>
<trkpt lat="43.1937800" lon="-2.1483000">
<ele>581.863220</ele>
<time>2007-12-04T10:19:49.999Z</time>
</trkpt>
<trkpt lat="43.1938300" lon="-2.1483000">
<ele>580.339172</ele>
<time>2007-12-04T10:19:55.001Z</time>
</trkpt>
<trkpt lat="43.1939300" lon="-2.1483200">
<ele>579.729614</ele>
<time>2007-12-04T10:20:07.996Z</time>
</trkpt>
<trkpt lat="43.1940300" lon="-2.1483300">
<ele>579.729614</ele>
<time>2007-12-04T10:20:18.001Z</time>
</trkpt>
<trkpt lat="43.1940800" lon="-2.1483700">
<ele>578.815186</ele>
<time>2007-12-04T10:20:22.001Z</time>
</trkpt>
<trkpt lat="43.1942000" lon="-2.1485200">
<ele>580.643982</ele>
<time>2007-12-04T10:20:35.998Z</time>
</trkpt>
<trkpt lat="43.1942900" lon="-2.1486900">
<ele>584.301575</ele>
<time>2007-12-04T10:20:49.001Z</time>
</trkpt>
<trkpt lat="43.1945100" lon="-2.1488800">
<ele>587.044800</ele>
<time>2007-12-04T10:21:06.998Z</time>
</trkpt>
<trkpt lat="43.1947500" lon="-2.1489000">
<ele>589.483215</ele>
<time>2007-12-04T10:21:23.000Z</time>
</trkpt>
<trkpt lat="43.1947500" lon="-2.1489000">
<ele>588.873596</ele>
<time>2007-12-04T10:21:24.002Z</time>
</trkpt>
<trkpt lat="43.1947600" lon="-2.1489000">
<ele>587.959229</ele>
<time>2007-12-04T10:21:25.998Z</time>
</trkpt>
<trkpt lat="43.1948800" lon="-2.1489700">
<ele>588.568787</ele>
<time>2007-12-04T10:21:47.002Z</time>
</trkpt>
<trkpt lat="43.1950600" lon="-2.1490500">
<ele>589.483215</ele>
<time>2007-12-04T10:21:59.003Z</time>
</trkpt>
<trkpt lat="43.1950800" lon="-2.1490600">
<ele>589.483215</ele>
<time>2007-12-04T10:21:59.996Z</time>
</trkpt>
<trkpt lat="43.1951200" lon="-2.1490900">
<ele>589.788025</ele>
<time>2007-12-04T10:22:03.996Z</time>
</trkpt>
<trkpt lat="43.1951800" lon="-2.1491300">
<ele>589.483215</ele>
<time>2007-12-04T10:22:08.999Z</time>
</trkpt>
<trkpt lat="43.1953200" lon="-2.1492400">
<ele>587.654419</ele>
<time>2007-12-04T10:22:21.000Z</time>
</trkpt>
<trkpt lat="43.1955300" lon="-2.1493600">
<ele>587.654419</ele>
<time>2007-12-04T10:22:35.999Z</time>
</trkpt>
<trkpt lat="43.1957100" lon="-2.1494400">
<ele>587.654419</ele>
<time>2007-12-04T10:22:48.000Z</time>
</trkpt>
<trkpt lat="43.1958000" lon="-2.1494800">
<ele>587.959229</ele>
<time>2007-12-04T10:22:54.998Z</time>
</trkpt>
<trkpt lat="43.1959100" lon="-2.1495000">
<ele>587.959229</ele>
<time>2007-12-04T10:23:01.997Z</time>
</trkpt>
<trkpt lat="43.1959300" lon="-2.1495700">
<ele>588.568787</ele>
<time>2007-12-04T10:23:05.997Z</time>
</trkpt>
<trkpt lat="43.1960500" lon="-2.1497800">
<ele>589.788025</ele>
<time>2007-12-04T10:23:17.998Z</time>
</trkpt>
<trkpt lat="43.1960800" lon="-2.1498400">
<ele>590.397583</ele>
<time>2007-12-04T10:23:21.998Z</time>
</trkpt>
<trkpt lat="43.1961000" lon="-2.1498700">
<ele>590.397583</ele>
<time>2007-12-04T10:23:24.003Z</time>
</trkpt>
<trkpt lat="43.1962200" lon="-2.1500200">
<ele>592.226379</ele>
<time>2007-12-04T10:23:35.002Z</time>
</trkpt>
<trkpt lat="43.1963500" lon="-2.1501600">
<ele>593.140808</ele>
<time>2007-12-04T10:23:46.000Z</time>
</trkpt>
<trkpt lat="43.1964100" lon="-2.1502600">
<ele>594.359985</ele>
<time>2007-12-04T10:23:52.999Z</time>
</trkpt>
<trkpt lat="43.1965300" lon="-2.1504000">
<ele>597.103210</ele>
<time>2007-12-04T10:24:07.004Z</time>
</trkpt>
<trkpt lat="43.1965900" lon="-2.1504600">
<ele>597.712830</ele>
<time>2007-12-04T10:24:14.003Z</time>
</trkpt>
<trkpt lat="43.1967000" lon="-2.1505800">
<ele>599.541626</ele>
<time>2007-12-04T10:24:23.999Z</time>
</trkpt>
<trkpt lat="43.1967700" lon="-2.1506300">
<ele>600.455994</ele>
<time>2007-12-04T10:24:27.999Z</time>
</trkpt>
<trkpt lat="43.1969700" lon="-2.1508100">
<ele>602.894409</ele>
<time>2007-12-04T10:24:44.001Z</time>
</trkpt>
<trkpt lat="43.1971600" lon="-2.1509600">
<ele>606.247192</ele>
<time>2007-12-04T10:25:01.004Z</time>
</trkpt>
<trkpt lat="43.1973500" lon="-2.1510400">
<ele>607.161621</ele>
<time>2007-12-04T10:25:12.996Z</time>
</trkpt>
<trkpt lat="43.1974720" lon="-2.1510900">
<ele>608.075989</ele>
<time>2007-12-04T10:25:20.004Z</time>
</trkpt>
<trkpt lat="43.1976700" lon="-2.1512300">
<ele>608.685608</ele>
<time>2007-12-04T10:25:35.996Z</time>
</trkpt>
<trkpt lat="43.1978700" lon="-2.1515000">
<ele>606.856812</ele>
<time>2007-12-04T10:25:53.000Z</time>
</trkpt>
<trkpt lat="43.1981000" lon="-2.1516300">
<ele>605.637573</ele>
<time>2007-12-04T10:26:07.999Z</time>
</trkpt>
<trkpt lat="43.1983600" lon="-2.1518000">
<ele>605.332825</ele>
<time>2007-12-04T10:26:25.002Z</time>
</trkpt>
<trkpt lat="43.1985100" lon="-2.1519200">
<ele>603.808777</ele>
<time>2007-12-04T10:26:34.999Z</time>
</trkpt>
<trkpt lat="43.1987100" lon="-2.1521800">
<ele>601.065613</ele>
<time>2007-12-04T10:26:52.002Z</time>
</trkpt>
<trkpt lat="43.1989300" lon="-2.1524400">
<ele>600.455994</ele>
<time>2007-12-04T10:27:09.999Z</time>
</trkpt>
<trkpt lat="43.1991000" lon="-2.1526300">
<ele>599.541626</ele>
<time>2007-12-04T10:27:23.996Z</time>
</trkpt>
<trkpt lat="43.1993700" lon="-2.1527500">
<ele>596.798401</ele>
<time>2007-12-04T10:27:39.997Z</time>
</trkpt>
<trkpt lat="43.1996500" lon="-2.1527300">
<ele>595.579224</ele>
<time>2007-12-04T10:27:57.001Z</time>
</trkpt>
<trkpt lat="43.1999200" lon="-2.1526800">
<ele>594.359985</ele>
<time>2007-12-04T10:28:13.002Z</time>
</trkpt>
<trkpt lat="43.2002100" lon="-2.1526600">
<ele>592.835999</ele>
<time>2007-12-04T10:28:30.999Z</time>
</trkpt>
<trkpt lat="43.2003100" lon="-2.1526600">
<ele>592.226379</ele>
<time>2007-12-04T10:28:37.004Z</time>
</trkpt>
<trkpt lat="43.2003900" lon="-2.1526300">
<ele>592.226379</ele>
<time>2007-12-04T10:28:41.998Z</time>
</trkpt>
<trkpt lat="43.2006800" lon="-2.1525600">
<ele>591.312012</ele>
<time>2007-12-04T10:29:02.000Z</time>
</trkpt>
<trkpt lat="43.2009500" lon="-2.1525400">
<ele>589.788025</ele>
<time>2007-12-04T10:29:19.003Z</time>
</trkpt>
<trkpt lat="43.2012500" lon="-2.1526400">
<ele>587.959229</ele>
<time>2007-12-04T10:29:38.003Z</time>
</trkpt>
<trkpt lat="43.2014900" lon="-2.1527400">
<ele>587.654419</ele>
<time>2007-12-04T10:29:54.997Z</time>
</trkpt>
<trkpt lat="43.2017500" lon="-2.1528500">
<ele>586.130371</ele>
<time>2007-12-04T10:30:13.997Z</time>
</trkpt>
<trkpt lat="43.2017600" lon="-2.1528400">
<ele>585.520813</ele>
<time>2007-12-04T10:30:14.999Z</time>
</trkpt>
<trkpt lat="43.2018100" lon="-2.1528600">
<ele>586.130371</ele>
<time>2007-12-04T10:30:18.999Z</time>
</trkpt>
<trkpt lat="43.2019200" lon="-2.1529200">
<ele>585.520813</ele>
<time>2007-12-04T10:30:28.002Z</time>
</trkpt>
<trkpt lat="43.2019500" lon="-2.1529500">
<ele>585.520813</ele>
<time>2007-12-04T10:30:31.000Z</time>
</trkpt>
<trkpt lat="43.2022200" lon="-2.1530600">
<ele>586.435181</ele>
<time>2007-12-04T10:30:52.004Z</time>
</trkpt>
<trkpt lat="43.2022900" lon="-2.1531000">
<ele>586.130371</ele>
<time>2007-12-04T10:30:56.998Z</time>
</trkpt>
<trkpt lat="43.2023500" lon="-2.1531100">
<ele>586.130371</ele>
<time>2007-12-04T10:31:00.998Z</time>
</trkpt>
<trkpt lat="43.2026400" lon="-2.1531500">
<ele>583.692017</ele>
<time>2007-12-04T10:31:18.002Z</time>
</trkpt>
<trkpt lat="43.2029400" lon="-2.1531800">
<ele>582.168030</ele>
<time>2007-12-04T10:31:35.999Z</time>
</trkpt>
<trkpt lat="43.2029600" lon="-2.1531800">
<ele>582.168030</ele>
<time>2007-12-04T10:31:37.001Z</time>
</trkpt>
<trkpt lat="43.2030300" lon="-2.1532100">
<ele>581.253601</ele>
<time>2007-12-04T10:31:42.004Z</time>
</trkpt>
<trkpt lat="43.2031300" lon="-2.1532100">
<ele>580.643982</ele>
<time>2007-12-04T10:31:49.002Z</time>
</trkpt>
<trkpt lat="43.2032900" lon="-2.1532500">
<ele>580.339172</ele>
<time>2007-12-04T10:32:02.999Z</time>
</trkpt>
<trkpt lat="43.2034000" lon="-2.1532400">
<ele>580.643982</ele>
<time>2007-12-04T10:32:13.998Z</time>
</trkpt>
<trkpt lat="43.2034600" lon="-2.1533100">
<ele>579.424805</ele>
<time>2007-12-04T10:32:29.999Z</time>
</trkpt>
<trkpt lat="43.2034900" lon="-2.1533300">
<ele>579.424805</ele>
<time>2007-12-04T10:32:32.004Z</time>
</trkpt>
<trkpt lat="43.2036900" lon="-2.1534900">
<ele>577.291199</ele>
<time>2007-12-04T10:32:47.003Z</time>
</trkpt>
<trkpt lat="43.2039200" lon="-2.1536600">
<ele>575.157593</ele>
<time>2007-12-04T10:33:02.002Z</time>
</trkpt>
<trkpt lat="43.2041200" lon="-2.1539200">
<ele>572.109619</ele>
<time>2007-12-04T10:33:18.003Z</time>
</trkpt>
<trkpt lat="43.2043000" lon="-2.1540700">
<ele>568.756775</ele>
<time>2007-12-04T10:33:30.004Z</time>
</trkpt>
<trkpt lat="43.2044800" lon="-2.1542000">
<ele>565.403992</ele>
<time>2007-12-04T10:33:41.996Z</time>
</trkpt>
<trkpt lat="43.2046900" lon="-2.1542780">
<ele>562.660828</ele>
<time>2007-12-04T10:33:56.002Z</time>
</trkpt>
<trkpt lat="43.2047400" lon="-2.1542880">
<ele>561.441589</ele>
<time>2007-12-04T10:34:00.002Z</time>
</trkpt>
<trkpt lat="43.2049100" lon="-2.1542380">
<ele>558.698425</ele>
<time>2007-12-04T10:34:12.003Z</time>
</trkpt>
<trkpt lat="43.2049500" lon="-2.1541980">
<ele>557.783997</ele>
<time>2007-12-04T10:34:15.001Z</time>
</trkpt>
<trkpt lat="43.2050500" lon="-2.1541580">
<ele>556.869629</ele>
<time>2007-12-04T10:34:20.004Z</time>
</trkpt>
<trkpt lat="43.2051300" lon="-2.1541380">
<ele>554.736023</ele>
<time>2007-12-04T10:34:26.000Z</time>
</trkpt>
<trkpt lat="43.2053300" lon="-2.1540580">
<ele>551.992798</ele>
<time>2007-12-04T10:34:39.996Z</time>
</trkpt>
<trkpt lat="43.2055200" lon="-2.1540500">
<ele>550.468811</ele>
<time>2007-12-04T10:34:53.000Z</time>
</trkpt>
<trkpt lat="43.2057500" lon="-2.1539900">
<ele>548.640015</ele>
<time>2007-12-04T10:35:06.003Z</time>
</trkpt>
<trkpt lat="43.2058600" lon="-2.1539500">
<ele>547.725586</ele>
<time>2007-12-04T10:35:13.001Z</time>
</trkpt>
<trkpt lat="43.2059700" lon="-2.1539200">
<ele>546.811218</ele>
<time>2007-12-04T10:35:17.002Z</time>
</trkpt>
<trkpt lat="43.2061300" lon="-2.1538900">
<ele>543.153625</ele>
<time>2007-12-04T10:35:26.998Z</time>
</trkpt>
<trkpt lat="43.2061500" lon="-2.1538900">
<ele>543.153625</ele>
<time>2007-12-04T10:35:28.000Z</time>
</trkpt>
<trkpt lat="43.2063100" lon="-2.1538300">
<ele>541.020020</ele>
<time>2007-12-04T10:35:37.997Z</time>
</trkpt>
<trkpt lat="43.2064200" lon="-2.1537800">
<ele>538.581604</ele>
<time>2007-12-04T10:35:45.997Z</time>
</trkpt>
<trkpt lat="43.2065200" lon="-2.1536700">
<ele>536.447998</ele>
<time>2007-12-04T10:35:53.998Z</time>
</trkpt>
<trkpt lat="43.2066500" lon="-2.1536100">
<ele>534.314392</ele>
<time>2007-12-04T10:36:01.999Z</time>
</trkpt>
<trkpt lat="43.2066700" lon="-2.1536100">
<ele>534.314392</ele>
<time>2007-12-04T10:36:03.001Z</time>
</trkpt>
<trkpt lat="43.2067600" lon="-2.1536200">
<ele>532.180786</ele>
<time>2007-12-04T10:36:11.002Z</time>
</trkpt>
<trkpt lat="43.2067600" lon="-2.1536300">
<ele>531.266418</ele>
<time>2007-12-04T10:36:12.004Z</time>
</trkpt>
<trkpt lat="43.2067700" lon="-2.1537100">
<ele>529.437622</ele>
<time>2007-12-04T10:36:18.000Z</time>
</trkpt>
<trkpt lat="43.2068200" lon="-2.1537200">
<ele>526.999207</ele>
<time>2007-12-04T10:36:24.998Z</time>
</trkpt>
<trkpt lat="43.2069800" lon="-2.1535900">
<ele>523.646423</ele>
<time>2007-12-04T10:36:35.997Z</time>
</trkpt>
<trkpt lat="43.2070600" lon="-2.1535000">
<ele>520.598389</ele>
<time>2007-12-04T10:36:49.000Z</time>
</trkpt>
<trkpt lat="43.2070900" lon="-2.1534800">
<ele>520.293579</ele>
<time>2007-12-04T10:36:50.996Z</time>
</trkpt>
<trkpt lat="43.2071900" lon="-2.1533000">
<ele>517.245605</ele>
<time>2007-12-04T10:37:05.002Z</time>
</trkpt>
<trkpt lat="43.2072800" lon="-2.1531900">
<ele>514.502380</ele>
<time>2007-12-04T10:37:14.998Z</time>
</trkpt>
<trkpt lat="43.2073700" lon="-2.1531000">
<ele>510.540009</ele>
<time>2007-12-04T10:37:25.003Z</time>
</trkpt>
<trkpt lat="43.2074400" lon="-2.1531000">
<ele>508.711212</ele>
<time>2007-12-04T10:37:29.997Z</time>
</trkpt>
<trkpt lat="43.2075000" lon="-2.1531300">
<ele>508.101593</ele>
<time>2007-12-04T10:37:35.000Z</time>
</trkpt>
<trkpt lat="43.2076100" lon="-2.1533100">
<ele>505.663208</ele>
<time>2007-12-04T10:37:47.001Z</time>
</trkpt>
<trkpt lat="43.2078400" lon="-2.1534400">
<ele>502.920013</ele>
<time>2007-12-04T10:38:00.004Z</time>
</trkpt>
<trkpt lat="43.2079800" lon="-2.1534600">
<ele>502.005615</ele>
<time>2007-12-04T10:38:07.996Z</time>
</trkpt>
<trkpt lat="43.2080600" lon="-2.1535100">
<ele>500.481598</ele>
<time>2007-12-04T10:38:14.001Z</time>
</trkpt>
<trkpt lat="43.2081200" lon="-2.1535600">
<ele>498.957611</ele>
<time>2007-12-04T10:38:19.003Z</time>
</trkpt>
<trkpt lat="43.2082600" lon="-2.1536700">
<ele>495.604797</ele>
<time>2007-12-04T10:38:31.998Z</time>
</trkpt>
<trkpt lat="43.2083800" lon="-2.1537100">
<ele>493.166412</ele>
<time>2007-12-04T10:38:42.003Z</time>
</trkpt>
<trkpt lat="43.2085700" lon="-2.1537900">
<ele>491.032806</ele>
<time>2007-12-04T10:38:54.997Z</time>
</trkpt>
<trkpt lat="43.2086300" lon="-2.1538100">
<ele>490.423187</ele>
<time>2007-12-04T10:38:58.998Z</time>
</trkpt>
<trkpt lat="43.2089200" lon="-2.1538800">
<ele>487.679993</ele>
<time>2007-12-04T10:39:16.001Z</time>
</trkpt>
<trkpt lat="43.2090200" lon="-2.1538600">
<ele>485.241608</ele>
<time>2007-12-04T10:39:21.997Z</time>
</trkpt>
<trkpt lat="43.2090800" lon="-2.1538600">
<ele>483.717590</ele>
<time>2007-12-04T10:39:25.998Z</time>
</trkpt>
<trkpt lat="43.2092500" lon="-2.1537600">
<ele>480.669586</ele>
<time>2007-12-04T10:39:39.001Z</time>
</trkpt>
<trkpt lat="43.2093200" lon="-2.1536900">
<ele>479.450409</ele>
<time>2007-12-04T10:39:44.004Z</time>
</trkpt>
<trkpt lat="43.2094800" lon="-2.1535900">
<ele>476.097595</ele>
<time>2007-12-04T10:39:56.998Z</time>
</trkpt>
<trkpt lat="43.2096400" lon="-2.1535200">
<ele>473.049591</ele>
<time>2007-12-04T10:40:08.999Z</time>
</trkpt>
<trkpt lat="43.2097400" lon="-2.1535000">
<ele>469.696808</ele>
<time>2007-12-04T10:40:19.004Z</time>
</trkpt>
<trkpt lat="43.2099600" lon="-2.1534700">
<ele>466.953613</ele>
<time>2007-12-04T10:40:34.003Z</time>
</trkpt>
<trkpt lat="43.2100200" lon="-2.1534500">
<ele>464.515198</ele>
<time>2007-12-04T10:40:41.002Z</time>
</trkpt>
<trkpt lat="43.2101000" lon="-2.1534500">
<ele>463.600800</ele>
<time>2007-12-04T10:40:46.998Z</time>
</trkpt>
<trkpt lat="43.2101300" lon="-2.1534400">
<ele>462.991211</ele>
<time>2007-12-04T10:40:49.002Z</time>
</trkpt>
<trkpt lat="43.2103100" lon="-2.1534500">
<ele>459.638397</ele>
<time>2007-12-04T10:41:01.997Z</time>
</trkpt>
<trkpt lat="43.2103700" lon="-2.1535400">
<ele>457.200012</ele>
<time>2007-12-04T10:41:08.002Z</time>
</trkpt>
<trkpt lat="43.2104300" lon="-2.1537000">
<ele>454.761597</ele>
<time>2007-12-04T10:41:20.003Z</time>
</trkpt>
<trkpt lat="43.2104400" lon="-2.1537200">
<ele>454.761597</ele>
<time>2007-12-04T10:41:20.996Z</time>
</trkpt>
<trkpt lat="43.2105500" lon="-2.1538400">
<ele>451.408813</ele>
<time>2007-12-04T10:41:28.997Z</time>
</trkpt>
<trkpt lat="43.2106100" lon="-2.1538900">
<ele>450.189606</ele>
<time>2007-12-04T10:41:32.997Z</time>
</trkpt>
<trkpt lat="43.2107800" lon="-2.1539900">
<ele>447.141602</ele>
<time>2007-12-04T10:41:43.996Z</time>
</trkpt>
<trkpt lat="43.2108900" lon="-2.1540800">
<ele>443.179199</ele>
<time>2007-12-04T10:41:52.999Z</time>
</trkpt>
<trkpt lat="43.2109100" lon="-2.1541000">
<ele>442.264801</ele>
<time>2007-12-04T10:41:55.003Z</time>
</trkpt>
<trkpt lat="43.2109900" lon="-2.1541600">
<ele>439.521606</ele>
<time>2007-12-04T10:42:00.999Z</time>
</trkpt>
<trkpt lat="43.2110500" lon="-2.1542000">
<ele>436.168793</ele>
<time>2007-12-04T10:42:06.002Z</time>
</trkpt>
<trkpt lat="43.2110700" lon="-2.1542200">
<ele>436.168793</ele>
<time>2007-12-04T10:42:07.004Z</time>
</trkpt>
<trkpt lat="43.2111600" lon="-2.1543200">
<ele>433.120789</ele>
<time>2007-12-04T10:42:14.996Z</time>
</trkpt>
<trkpt lat="43.2112700" lon="-2.1544600">
<ele>429.768005</ele>
<time>2007-12-04T10:42:23.999Z</time>
</trkpt>
<trkpt lat="43.2113900" lon="-2.1546200">
<ele>426.415192</ele>
<time>2007-12-04T10:42:34.004Z</time>
</trkpt>
<trkpt lat="43.2115200" lon="-2.1547300">
<ele>423.062408</ele>
<time>2007-12-04T10:42:45.003Z</time>
</trkpt>
<trkpt lat="43.2116900" lon="-2.1548200">
<ele>422.148010</ele>
<time>2007-12-04T10:42:59.000Z</time>
</trkpt>
<trkpt lat="43.2117600" lon="-2.1548100">
<ele>423.062408</ele>
<time>2007-12-04T10:43:12.003Z</time>
</trkpt>
<trkpt lat="43.2117400" lon="-2.1548300">
<ele>422.757599</ele>
<time>2007-12-04T10:43:28.998Z</time>
</trkpt>
<trkpt lat="43.2118800" lon="-2.1550500">
<ele>423.062408</ele>
<time>2007-12-04T10:43:44.999Z</time>
</trkpt>
<trkpt lat="43.2120500" lon="-2.1552800">
<ele>424.586395</ele>
<time>2007-12-04T10:44:02.996Z</time>
</trkpt>
<trkpt lat="43.2122300" lon="-2.1555300">
<ele>427.329590</ele>
<time>2007-12-04T10:44:21.002Z</time>
</trkpt>
<trkpt lat="43.2123700" lon="-2.1557300">
<ele>430.377594</ele>
<time>2007-12-04T10:44:36.001Z</time>
</trkpt>
<trkpt lat="43.2125200" lon="-2.1559300">
<ele>432.816010</ele>
<time>2007-12-04T10:44:52.002Z</time>
</trkpt>
<trkpt lat="43.2125800" lon="-2.1560000">
<ele>433.730408</ele>
<time>2007-12-04T10:44:56.996Z</time>
</trkpt>
<trkpt lat="43.2125900" lon="-2.1561400">
<ele>434.644806</ele>
<time>2007-12-04T10:45:15.002Z</time>
</trkpt>
<trkpt lat="43.2125600" lon="-2.1562200">
<ele>436.168793</ele>
<time>2007-12-04T10:45:55.999Z</time>
</trkpt>
<trkpt lat="43.2125300" lon="-2.1562500">
<ele>436.168793</ele>
<time>2007-12-04T10:45:59.999Z</time>
</trkpt>
<trkpt lat="43.2123500" lon="-2.1564900">
<ele>439.521606</ele>
<time>2007-12-04T10:46:20.001Z</time>
</trkpt>
<trkpt lat="43.2123500" lon="-2.1567300">
<ele>442.264801</ele>
<time>2007-12-04T10:46:33.997Z</time>
</trkpt>
<trkpt lat="43.2123600" lon="-2.1567600">
<ele>443.179199</ele>
<time>2007-12-04T10:46:36.002Z</time>
</trkpt>
<trkpt lat="43.2124400" lon="-2.1569400">
<ele>446.227203</ele>
<time>2007-12-04T10:46:48.003Z</time>
</trkpt>
<trkpt lat="43.2124900" lon="-2.1570400">
<ele>448.970398</ele>
<time>2007-12-04T10:46:56.004Z</time>
</trkpt>
<trkpt lat="43.2125400" lon="-2.1571700">
<ele>452.323212</ele>
<time>2007-12-04T10:47:06.000Z</time>
</trkpt>
<trkpt lat="43.2125800" lon="-2.1573200">
<ele>455.371185</ele>
<time>2007-12-04T10:47:16.999Z</time>
</trkpt>
<trkpt lat="43.2126100" lon="-2.1573700">
<ele>456.895203</ele>
<time>2007-12-04T10:47:19.997Z</time>
</trkpt>
<trkpt lat="43.2127100" lon="-2.1575800">
<ele>459.638397</ele>
<time>2007-12-04T10:47:34.996Z</time>
</trkpt>
<trkpt lat="43.2127900" lon="-2.1577400">
<ele>462.991211</ele>
<time>2007-12-04T10:47:46.997Z</time>
</trkpt>
<trkpt lat="43.2128600" lon="-2.1579100">
<ele>466.039215</ele>
<time>2007-12-04T10:47:58.998Z</time>
</trkpt>
<trkpt lat="43.2129400" lon="-2.1580700">
<ele>469.391998</ele>
<time>2007-12-04T10:48:10.999Z</time>
</trkpt>
<trkpt lat="43.2129700" lon="-2.1581400">
<ele>471.220795</ele>
<time>2007-12-04T10:48:16.001Z</time>
</trkpt>
<trkpt lat="43.2130700" lon="-2.1583500">
<ele>473.963989</ele>
<time>2007-12-04T10:48:31.000Z</time>
</trkpt>
<trkpt lat="43.2131300" lon="-2.1585000">
<ele>477.316803</ele>
<time>2007-12-04T10:48:41.999Z</time>
</trkpt>
<trkpt lat="43.2132400" lon="-2.1586700">
<ele>480.364807</ele>
<time>2007-12-04T10:48:55.996Z</time>
</trkpt>
<trkpt lat="43.2133200" lon="-2.1587600">
<ele>483.717590</ele>
<time>2007-12-04T10:49:06.001Z</time>
</trkpt>
<trkpt lat="43.2134600" lon="-2.1589300">
<ele>487.070404</ele>
<time>2007-12-04T10:49:21.000Z</time>
</trkpt>
<trkpt lat="43.2136300" lon="-2.1590800">
<ele>490.423187</ele>
<time>2007-12-04T10:49:37.001Z</time>
</trkpt>
<trkpt lat="43.2136700" lon="-2.1591200">
<ele>491.337585</ele>
<time>2007-12-04T10:49:49.996Z</time>
</trkpt>
<trkpt lat="43.2136900" lon="-2.1591200">
<ele>492.252014</ele>
<time>2007-12-04T10:50:00.001Z</time>
</trkpt>
<trkpt lat="43.2137300" lon="-2.1591500">
<ele>490.423187</ele>
<time>2007-12-04T10:50:04.001Z</time>
</trkpt>
<trkpt lat="43.2138900" lon="-2.1593800">
<ele>493.776001</ele>
<time>2007-12-04T10:50:23.001Z</time>
</trkpt>
<trkpt lat="43.2139100" lon="-2.1594600">
<ele>494.385590</ele>
<time>2007-12-04T10:50:28.003Z</time>
</trkpt>
<trkpt lat="43.2139500" lon="-2.1596800">
<ele>498.043213</ele>
<time>2007-12-04T10:50:42.000Z</time>
</trkpt>
<trkpt lat="43.2139900" lon="-2.1598200">
<ele>501.091187</ele>
<time>2007-12-04T10:50:51.003Z</time>
</trkpt>
<trkpt lat="43.2140800" lon="-2.1600800">
<ele>503.834412</ele>
<time>2007-12-04T10:51:07.998Z</time>
</trkpt>
<trkpt lat="43.2141300" lon="-2.1603000">
<ele>507.187195</ele>
<time>2007-12-04T10:51:22.003Z</time>
</trkpt>
<trkpt lat="43.2141200" lon="-2.1604700">
<ele>510.540009</ele>
<time>2007-12-04T10:51:33.002Z</time>
</trkpt>
<trkpt lat="43.2140900" lon="-2.1605800">
<ele>512.064026</ele>
<time>2007-12-04T10:51:41.003Z</time>
</trkpt>
<trkpt lat="43.2140900" lon="-2.1606100">
<ele>512.064026</ele>
<time>2007-12-04T10:51:42.998Z</time>
</trkpt>
<trkpt lat="43.2141700" lon="-2.1606900">
<ele>514.807190</ele>
<time>2007-12-04T10:51:53.004Z</time>
</trkpt>
<trkpt lat="43.2142900" lon="-2.1605700">
<ele>517.245605</ele>
<time>2007-12-04T10:52:04.002Z</time>
</trkpt>
<trkpt lat="43.2144400" lon="-2.1604800">
<ele>519.684021</ele>
<time>2007-12-04T10:52:16.003Z</time>
</trkpt>
<trkpt lat="43.2145900" lon="-2.1604100">
<ele>522.122375</ele>
<time>2007-12-04T10:52:28.998Z</time>
</trkpt>
<trkpt lat="43.2146400" lon="-2.1604300">
<ele>522.731995</ele>
<time>2007-12-04T10:52:34.000Z</time>
</trkpt>
<trkpt lat="43.2146600" lon="-2.1604800">
<ele>525.170410</ele>
<time>2007-12-04T10:52:38.001Z</time>
</trkpt>
<trkpt lat="43.2146200" lon="-2.1606000">
<ele>526.084778</ele>
<time>2007-12-04T10:52:47.004Z</time>
</trkpt>
<trkpt lat="43.2144800" lon="-2.1608200">
<ele>529.437622</ele>
<time>2007-12-04T10:53:03.998Z</time>
</trkpt>
<trkpt lat="43.2144200" lon="-2.1610600">
<ele>532.790405</ele>
<time>2007-12-04T10:53:18.997Z</time>
</trkpt>
<trkpt lat="43.2143700" lon="-2.1612100">
<ele>535.228821</ele>
<time>2007-12-04T10:53:33.996Z</time>
</trkpt>
<trkpt lat="43.2142800" lon="-2.1613300">
<ele>536.143188</ele>
<time>2007-12-04T10:53:57.998Z</time>
</trkpt>
<trkpt lat="43.2141600" lon="-2.1615300">
<ele>539.495972</ele>
<time>2007-12-04T10:54:12.004Z</time>
</trkpt>
<trkpt lat="43.2140700" lon="-2.1617000">
<ele>542.239197</ele>
<time>2007-12-04T10:54:23.996Z</time>
</trkpt>
<trkpt lat="43.2141200" lon="-2.1619100">
<ele>545.591980</ele>
<time>2007-12-04T10:54:39.004Z</time>
</trkpt>
<trkpt lat="43.2142500" lon="-2.1619100">
<ele>548.944824</ele>
<time>2007-12-04T10:54:50.003Z</time>
</trkpt>
<trkpt lat="43.2142600" lon="-2.1619000">
<ele>548.944824</ele>
<time>2007-12-04T10:54:50.996Z</time>
</trkpt>
<trkpt lat="43.2143900" lon="-2.1618100">
<ele>552.297607</ele>
<time>2007-12-04T10:55:03.999Z</time>
</trkpt>
<trkpt lat="43.2145900" lon="-2.1618500">
<ele>555.650391</ele>
<time>2007-12-04T10:55:20.001Z</time>
</trkpt>
<trkpt lat="43.2147400" lon="-2.1618800">
<ele>557.783997</ele>
<time>2007-12-04T10:55:30.999Z</time>
</trkpt>
<trkpt lat="43.2149300" lon="-2.1618800">
<ele>561.441589</ele>
<time>2007-12-04T10:55:47.001Z</time>
</trkpt>
<trkpt lat="43.2149500" lon="-2.1618700">
<ele>561.136780</ele>
<time>2007-12-04T10:55:48.996Z</time>
</trkpt>
<trkpt lat="43.2150000" lon="-2.1618800">
<ele>562.660828</ele>
<time>2007-12-04T10:55:52.997Z</time>
</trkpt>
<trkpt lat="43.2151800" lon="-2.1619100">
<ele>565.403992</ele>
<time>2007-12-04T10:56:07.996Z</time>
</trkpt>
<trkpt lat="43.2153300" lon="-2.1619800">
<ele>568.756775</ele>
<time>2007-12-04T10:56:22.001Z</time>
</trkpt>
<trkpt lat="43.2153500" lon="-2.1619800">
<ele>569.366394</ele>
<time>2007-12-04T10:56:23.997Z</time>
</trkpt>
<trkpt lat="43.2155300" lon="-2.1618900">
<ele>572.719177</ele>
<time>2007-12-04T10:56:41.001Z</time>
</trkpt>
<trkpt lat="43.2156300" lon="-2.1618500">
<ele>576.072021</ele>
<time>2007-12-04T10:56:51.999Z</time>
</trkpt>
<trkpt lat="43.2156400" lon="-2.1618500">
<ele>574.547974</ele>
<time>2007-12-04T10:57:05.003Z</time>
</trkpt>
<trkpt lat="43.2157100" lon="-2.1618700">
<ele>575.157593</ele>
<time>2007-12-04T10:57:24.002Z</time>
</trkpt>
<trkpt lat="43.2158400" lon="-2.1618600">
<ele>577.900818</ele>
<time>2007-12-04T10:57:37.999Z</time>
</trkpt>
<trkpt lat="43.2159900" lon="-2.1618600">
<ele>581.253601</ele>
<time>2007-12-04T10:57:50.000Z</time>
</trkpt>
<trkpt lat="43.2161200" lon="-2.1618900">
<ele>584.606384</ele>
<time>2007-12-04T10:58:00.998Z</time>
</trkpt>
<trkpt lat="43.2161800" lon="-2.1618900">
<ele>586.435181</ele>
<time>2007-12-04T10:58:06.001Z</time>
</trkpt>
<trkpt lat="43.2163000" lon="-2.1618600">
<ele>589.788025</ele>
<time>2007-12-04T10:58:17.000Z</time>
</trkpt>
<trkpt lat="43.2164700" lon="-2.1618300">
<ele>593.140808</ele>
<time>2007-12-04T10:58:30.003Z</time>
</trkpt>
<trkpt lat="43.2164900" lon="-2.1618300">
<ele>594.359985</ele>
<time>2007-12-04T10:58:31.999Z</time>
</trkpt>
<trkpt lat="43.2166300" lon="-2.1618000">
<ele>597.712830</ele>
<time>2007-12-04T10:58:42.997Z</time>
</trkpt>
<trkpt lat="43.2167700" lon="-2.1617500">
<ele>600.455994</ele>
<time>2007-12-04T10:58:54.998Z</time>
</trkpt>
<trkpt lat="43.2169900" lon="-2.1616900">
<ele>603.808777</ele>
<time>2007-12-04T10:59:12.002Z</time>
</trkpt>
<trkpt lat="43.2171900" lon="-2.1618300">
<ele>604.418396</ele>
<time>2007-12-04T10:59:28.003Z</time>
</trkpt>
<trkpt lat="43.2173400" lon="-2.1620900">
<ele>606.856812</ele>
<time>2007-12-04T10:59:46.000Z</time>
</trkpt>
<trkpt lat="43.2174400" lon="-2.1623900">
<ele>609.599976</ele>
<time>2007-12-04T11:00:06.002Z</time>
</trkpt>
<trkpt lat="43.2174900" lon="-2.1626000">
<ele>612.648010</ele>
<time>2007-12-04T11:00:18.003Z</time>
</trkpt>
<trkpt lat="43.2175400" lon="-2.1628700">
<ele>616.000793</ele>
<time>2007-12-04T11:00:34.004Z</time>
</trkpt>
<trkpt lat="43.2176000" lon="-2.1630000">
<ele>618.134399</ele>
<time>2007-12-04T11:00:42.998Z</time>
</trkpt>
<trkpt lat="43.2176900" lon="-2.1631300">
<ele>621.791992</ele>
<time>2007-12-04T11:00:54.999Z</time>
</trkpt>
<trkpt lat="43.2177800" lon="-2.1632500">
<ele>625.144775</ele>
<time>2007-12-04T11:01:04.996Z</time>
</trkpt>
<trkpt lat="43.2178800" lon="-2.1634300">
<ele>628.497620</ele>
<time>2007-12-04T11:01:19.001Z</time>
</trkpt>
<trkpt lat="43.2180100" lon="-2.1636000">
<ele>631.240784</ele>
<time>2007-12-04T11:01:32.998Z</time>
</trkpt>
<trkpt lat="43.2181200" lon="-2.1636200">
<ele>634.593628</ele>
<time>2007-12-04T11:01:44.999Z</time>
</trkpt>
<trkpt lat="43.2182500" lon="-2.1635700">
<ele>637.946411</ele>
<time>2007-12-04T11:01:57.000Z</time>
</trkpt>
<trkpt lat="43.2183300" lon="-2.1635200">
<ele>639.775208</ele>
<time>2007-12-04T11:02:05.001Z</time>
</trkpt>
<trkpt lat="43.2183800" lon="-2.1634800">
<ele>640.994385</ele>
<time>2007-12-04T11:02:10.003Z</time>
</trkpt>
<trkpt lat="43.2184300" lon="-2.1634600">
<ele>642.823181</ele>
<time>2007-12-04T11:02:14.997Z</time>
</trkpt>
<trkpt lat="43.2185300" lon="-2.1633900">
<ele>646.176025</ele>
<time>2007-12-04T11:02:25.996Z</time>
</trkpt>
<trkpt lat="43.2186700" lon="-2.1633200">
<ele>648.919189</ele>
<time>2007-12-04T11:02:38.999Z</time>
</trkpt>
<trkpt lat="43.2187400" lon="-2.1632900">
<ele>651.052795</ele>
<time>2007-12-04T11:02:45.997Z</time>
</trkpt>
<trkpt lat="43.2189100" lon="-2.1632100">
<ele>653.796021</ele>
<time>2007-12-04T11:03:00.996Z</time>
</trkpt>
<trkpt lat="43.2190700" lon="-2.1631900">
<ele>657.148804</ele>
<time>2007-12-04T11:03:12.997Z</time>
</trkpt>
<trkpt lat="43.2192800" lon="-2.1632800">
<ele>659.587219</ele>
<time>2007-12-04T11:03:30.001Z</time>
</trkpt>
<trkpt lat="43.2195500" lon="-2.1633900">
<ele>662.025574</ele>
<time>2007-12-04T11:03:50.996Z</time>
</trkpt>
<trkpt lat="43.2198500" lon="-2.1635600">
<ele>662.025574</ele>
<time>2007-12-04T11:04:12.000Z</time>
</trkpt>
<trkpt lat="43.2201300" lon="-2.1635500">
<ele>662.025574</ele>
<time>2007-12-04T11:04:30.999Z</time>
</trkpt>
<trkpt lat="43.2202600" lon="-2.1635300">
<ele>660.196777</ele>
<time>2007-12-04T11:04:45.998Z</time>
</trkpt>
<trkpt lat="43.2202500" lon="-2.1635300">
<ele>660.196777</ele>
<time>2007-12-04T11:04:59.002Z</time>
</trkpt>
<trkpt lat="43.2202900" lon="-2.1635200">
<ele>659.282410</ele>
<time>2007-12-04T11:05:08.998Z</time>
</trkpt>
<trkpt lat="43.2206300" lon="-2.1636400">
<ele>657.758423</ele>
<time>2007-12-04T11:05:30.002Z</time>
</trkpt>
<trkpt lat="43.2209300" lon="-2.1637700">
<ele>658.063171</ele>
<time>2007-12-04T11:05:50.004Z</time>
</trkpt>
<trkpt lat="43.2212800" lon="-2.1639100">
<ele>657.148804</ele>
<time>2007-12-04T11:06:13.997Z</time>
</trkpt>
<trkpt lat="43.2215500" lon="-2.1639700">
<ele>656.234375</ele>
<time>2007-12-04T11:06:32.003Z</time>
</trkpt>
<trkpt lat="43.2218000" lon="-2.1640000">
<ele>656.234375</ele>
<time>2007-12-04T11:06:48.997Z</time>
</trkpt>
<trkpt lat="43.2221000" lon="-2.1639100">
<ele>653.796021</ele>
<time>2007-12-04T11:07:07.997Z</time>
</trkpt>
<trkpt lat="43.2224200" lon="-2.1638000">
<ele>651.967224</ele>
<time>2007-12-04T11:07:29.001Z</time>
</trkpt>
<trkpt lat="43.2227100" lon="-2.1637200">
<ele>651.357605</ele>
<time>2007-12-04T11:07:48.000Z</time>
</trkpt>
<trkpt lat="43.2229800" lon="-2.1636200">
<ele>651.052795</ele>
<time>2007-12-04T11:08:05.997Z</time>
</trkpt>
<trkpt lat="43.2232800" lon="-2.1634600">
<ele>648.919189</ele>
<time>2007-12-04T11:08:24.996Z</time>
</trkpt>
<trkpt lat="43.2235100" lon="-2.1634100">
<ele>647.090393</ele>
<time>2007-12-04T11:08:42.000Z</time>
</trkpt>
<trkpt lat="43.2236500" lon="-2.1634300">
<ele>646.176025</ele>
<time>2007-12-04T11:08:59.997Z</time>
</trkpt>
<trkpt lat="43.2236600" lon="-2.1634300">
<ele>645.261597</ele>
<time>2007-12-04T11:09:07.004Z</time>
</trkpt>
<trkpt lat="43.2238900" lon="-2.1636100">
<ele>645.261597</ele>
<time>2007-12-04T11:09:23.999Z</time>
</trkpt>
<trkpt lat="43.2240000" lon="-2.1638000">
<ele>648.614380</ele>
<time>2007-12-04T11:09:37.996Z</time>
</trkpt>
<trkpt lat="43.2240200" lon="-2.1639100">
<ele>650.138428</ele>
<time>2007-12-04T11:09:45.003Z</time>
</trkpt>
<trkpt lat="43.2240300" lon="-2.1639500">
<ele>651.052795</ele>
<time>2007-12-04T11:09:48.001Z</time>
</trkpt>
<trkpt lat="43.2240400" lon="-2.1640800">
<ele>653.491211</ele>
<time>2007-12-04T11:09:56.002Z</time>
</trkpt>
<trkpt lat="43.2240300" lon="-2.1643500">
<ele>657.148804</ele>
<time>2007-12-04T11:10:12.996Z</time>
</trkpt>
<trkpt lat="43.2240300" lon="-2.1645600">
<ele>660.196777</ele>
<time>2007-12-04T11:10:26.000Z</time>
</trkpt>
<trkpt lat="43.2240400" lon="-2.1648000">
<ele>663.549622</ele>
<time>2007-12-04T11:10:39.996Z</time>
</trkpt>
<trkpt lat="43.2240400" lon="-2.1649500">
<ele>665.378418</ele>
<time>2007-12-04T11:10:50.002Z</time>
</trkpt>
<trkpt lat="43.2239600" lon="-2.1652500">
<ele>668.121582</ele>
<time>2007-12-04T11:11:07.999Z</time>
</trkpt>
<trkpt lat="43.2238500" lon="-2.1655900">
<ele>669.645630</ele>
<time>2007-12-04T11:11:28.000Z</time>
</trkpt>
<trkpt lat="43.2237300" lon="-2.1659900">
<ele>671.779175</ele>
<time>2007-12-04T11:11:49.998Z</time>
</trkpt>
<trkpt lat="43.2236300" lon="-2.1663500">
<ele>672.083984</ele>
<time>2007-12-04T11:12:08.997Z</time>
</trkpt>
<trkpt lat="43.2235900" lon="-2.1665500">
<ele>672.693604</ele>
<time>2007-12-04T11:12:23.003Z</time>
</trkpt>
<trkpt lat="43.2235900" lon="-2.1665700">
<ele>672.083984</ele>
<time>2007-12-04T11:12:43.004Z</time>
</trkpt>
<trkpt lat="43.2235900" lon="-2.1665700">
<ele>672.083984</ele>
<time>2007-12-04T11:12:43.998Z</time>
</trkpt>
<trkpt lat="43.2236400" lon="-2.1668700">
<ele>673.912781</ele>
<time>2007-12-04T11:12:59.999Z</time>
</trkpt>
<trkpt lat="43.2237400" lon="-2.1672700">
<ele>675.132019</ele>
<time>2007-12-04T11:13:21.003Z</time>
</trkpt>
<trkpt lat="43.2238100" lon="-2.1676700">
<ele>674.522400</ele>
<time>2007-12-04T11:13:40.996Z</time>
</trkpt>
<trkpt lat="43.2239800" lon="-2.1680300">
<ele>673.912781</ele>
<time>2007-12-04T11:14:00.004Z</time>
</trkpt>
<trkpt lat="43.2241700" lon="-2.1683500">
<ele>673.607971</ele>
<time>2007-12-04T11:14:19.003Z</time>
</trkpt>
<trkpt lat="43.2244100" lon="-2.1686000">
<ele>675.132019</ele>
<time>2007-12-04T11:14:38.996Z</time>
</trkpt>
<trkpt lat="43.2246500" lon="-2.1687700">
<ele>677.875183</ele>
<time>2007-12-04T11:14:57.002Z</time>
</trkpt>
<trkpt lat="43.2248300" lon="-2.1689500">
<ele>680.313599</ele>
<time>2007-12-04T11:15:13.003Z</time>
</trkpt>
<trkpt lat="43.2250100" lon="-2.1691600">
<ele>682.752014</ele>
<time>2007-12-04T11:15:31.000Z</time>
</trkpt>
<trkpt lat="43.2252500" lon="-2.1693400">
<ele>685.495178</ele>
<time>2007-12-04T11:15:50.000Z</time>
</trkpt>
<trkpt lat="43.2254500" lon="-2.1694600">
<ele>688.848022</ele>
<time>2007-12-04T11:16:06.001Z</time>
</trkpt>
<trkpt lat="43.2256600" lon="-2.1694900">
<ele>692.200806</ele>
<time>2007-12-04T11:16:22.996Z</time>
</trkpt>
<trkpt lat="43.2257800" lon="-2.1694200">
<ele>695.553589</ele>
<time>2007-12-04T11:16:37.001Z</time>
</trkpt>
<trkpt lat="43.2257900" lon="-2.1694200">
<ele>695.248779</ele>
<time>2007-12-04T11:16:58.999Z</time>
</trkpt>
<trkpt lat="43.2259600" lon="-2.1693400">
<ele>696.772827</ele>
<time>2007-12-04T11:17:12.002Z</time>
</trkpt>
<trkpt lat="43.2263300" lon="-2.1692600">
<ele>693.115173</ele>
<time>2007-12-04T11:17:36.997Z</time>
</trkpt>
<trkpt lat="43.2264100" lon="-2.1692400">
<ele>692.810425</ele>
<time>2007-12-04T11:17:43.002Z</time>
</trkpt>
<trkpt lat="43.2264500" lon="-2.1692300">
<ele>690.981628</ele>
<time>2007-12-04T11:17:59.997Z</time>
</trkpt>
<trkpt lat="43.2264500" lon="-2.1692400">
<ele>692.810425</ele>
<time>2007-12-04T11:18:00.999Z</time>
</trkpt>
<trkpt lat="43.2265600" lon="-2.1695300">
<ele>689.762390</ele>
<time>2007-12-04T11:18:17.001Z</time>
</trkpt>
<trkpt lat="43.2267600" lon="-2.1696800">
<ele>693.115173</ele>
<time>2007-12-04T11:18:34.004Z</time>
</trkpt>
<trkpt lat="43.2270000" lon="-2.1698500">
<ele>696.163208</ele>
<time>2007-12-04T11:18:53.997Z</time>
</trkpt>
<trkpt lat="43.2271200" lon="-2.1700100">
<ele>697.077576</ele>
<time>2007-12-04T11:19:08.996Z</time>
</trkpt>
<trkpt lat="43.2271300" lon="-2.1700300">
<ele>697.077576</ele>
<time>2007-12-04T11:19:21.999Z</time>
</trkpt>
<trkpt lat="43.2271400" lon="-2.1700500">
<ele>696.772827</ele>
<time>2007-12-04T11:19:39.003Z</time>
</trkpt>
<trkpt lat="43.2270800" lon="-2.1702300">
<ele>699.515991</ele>
<time>2007-12-04T11:19:51.004Z</time>
</trkpt>
<trkpt lat="43.2270300" lon="-2.1703300">
<ele>701.344788</ele>
<time>2007-12-04T11:19:58.002Z</time>
</trkpt>
<trkpt lat="43.2269700" lon="-2.1705700">
<ele>704.697571</ele>
<time>2007-12-04T11:20:14.004Z</time>
</trkpt>
<trkpt lat="43.2269500" lon="-2.1706300">
<ele>705.307190</ele>
<time>2007-12-04T11:20:18.004Z</time>
</trkpt>
<trkpt lat="43.2269100" lon="-2.1708500">
<ele>708.659973</ele>
<time>2007-12-04T11:20:33.003Z</time>
</trkpt>
<trkpt lat="43.2267900" lon="-2.1711400">
<ele>711.098389</ele>
<time>2007-12-04T11:20:51.000Z</time>
</trkpt>
<trkpt lat="43.2266700" lon="-2.1713700">
<ele>712.927185</ele>
<time>2007-12-04T11:21:07.001Z</time>
</trkpt>
<trkpt lat="43.2266200" lon="-2.1714600">
<ele>715.365601</ele>
<time>2007-12-04T11:21:14.000Z</time>
</trkpt>
<trkpt lat="43.2266800" lon="-2.1716300">
<ele>714.755981</ele>
<time>2007-12-04T11:21:24.998Z</time>
</trkpt>
<trkpt lat="43.2268400" lon="-2.1716800">
<ele>714.451172</ele>
<time>2007-12-04T11:21:35.997Z</time>
</trkpt>
<trkpt lat="43.2270100" lon="-2.1718900">
<ele>712.012817</ele>
<time>2007-12-04T11:21:51.998Z</time>
</trkpt>
<trkpt lat="43.2270600" lon="-2.1719300">
<ele>711.403198</ele>
<time>2007-12-04T11:21:55.999Z</time>
</trkpt>
<trkpt lat="43.2271700" lon="-2.1720100">
<ele>711.098389</ele>
<time>2007-12-04T11:22:05.002Z</time>
</trkpt>
<trkpt lat="43.2271900" lon="-2.1720400">
<ele>711.098389</ele>
<time>2007-12-04T11:22:08.000Z</time>
</trkpt>
<trkpt lat="43.2272500" lon="-2.1721000">
<ele>710.488770</ele>
<time>2007-12-04T11:22:13.002Z</time>
</trkpt>
<trkpt lat="43.2274900" lon="-2.1721900">
<ele>708.659973</ele>
<time>2007-12-04T11:22:29.997Z</time>
</trkpt>
<trkpt lat="43.2275200" lon="-2.1721800">
<ele>710.184021</ele>
<time>2007-12-04T11:22:43.000Z</time>
</trkpt>
<trkpt lat="43.2275200" lon="-2.1721800">
<ele>709.269592</ele>
<time>2007-12-04T11:22:44.996Z</time>
</trkpt>
<trkpt lat="43.2275200" lon="-2.1721800">
<ele>709.574402</ele>
<time>2007-12-04T11:22:49.999Z</time>
</trkpt>
<trkpt lat="43.2276000" lon="-2.1722400">
<ele>708.050415</ele>
<time>2007-12-04T11:22:56.997Z</time>
</trkpt>
<trkpt lat="43.2278300" lon="-2.1723900">
<ele>706.221619</ele>
<time>2007-12-04T11:23:12.998Z</time>
</trkpt>
<trkpt lat="43.2279800" lon="-2.1726600">
<ele>703.478394</ele>
<time>2007-12-04T11:23:30.002Z</time>
</trkpt>
<trkpt lat="43.2280200" lon="-2.1728700">
<ele>700.125610</ele>
<time>2007-12-04T11:23:39.998Z</time>
</trkpt>
<trkpt lat="43.2280300" lon="-2.1729100">
<ele>698.906372</ele>
<time>2007-12-04T11:23:42.003Z</time>
</trkpt>
<trkpt lat="43.2280900" lon="-2.1730500">
<ele>697.077576</ele>
<time>2007-12-04T11:23:50.004Z</time>
</trkpt>
<trkpt lat="43.2281300" lon="-2.1732300">
<ele>693.724792</ele>
<time>2007-12-04T11:23:58.998Z</time>
</trkpt>
<trkpt lat="43.2281400" lon="-2.1732500">
<ele>693.115173</ele>
<time>2007-12-04T11:24:00.000Z</time>
</trkpt>
<trkpt lat="43.2282100" lon="-2.1734200">
<ele>690.372009</ele>
<time>2007-12-04T11:24:09.003Z</time>
</trkpt>
<trkpt lat="43.2282300" lon="-2.1734800">
<ele>688.848022</ele>
<time>2007-12-04T11:24:12.001Z</time>
</trkpt>
<trkpt lat="43.2282900" lon="-2.1736800">
<ele>685.495178</ele>
<time>2007-12-04T11:24:23.000Z</time>
</trkpt>
<trkpt lat="43.2283200" lon="-2.1737600">
<ele>684.276001</ele>
<time>2007-12-04T11:24:27.000Z</time>
</trkpt>
<trkpt lat="43.2284200" lon="-2.1739300">
<ele>680.618408</ele>
<time>2007-12-04T11:24:37.999Z</time>
</trkpt>
<trkpt lat="43.2285800" lon="-2.1741200">
<ele>677.265625</ele>
<time>2007-12-04T11:24:52.004Z</time>
</trkpt>
<trkpt lat="43.2286600" lon="-2.1742000">
<ele>675.436829</ele>
<time>2007-12-04T11:25:08.999Z</time>
</trkpt>
<trkpt lat="43.2286800" lon="-2.1742200">
<ele>673.912781</ele>
<time>2007-12-04T11:25:19.998Z</time>
</trkpt>
<trkpt lat="43.2287000" lon="-2.1743300">
<ele>672.998413</ele>
<time>2007-12-04T11:25:26.003Z</time>
</trkpt>
<trkpt lat="43.2287500" lon="-2.1744200">
<ele>671.779175</ele>
<time>2007-12-04T11:25:30.996Z</time>
</trkpt>
<trkpt lat="43.2289900" lon="-2.1747700">
<ele>671.779175</ele>
<time>2007-12-04T11:25:53.996Z</time>
</trkpt>
<trkpt lat="43.2292000" lon="-2.1750800">
<ele>670.255188</ele>
<time>2007-12-04T11:26:13.998Z</time>
</trkpt>
<trkpt lat="43.2293700" lon="-2.1754600">
<ele>669.645630</ele>
<time>2007-12-04T11:26:35.002Z</time>
</trkpt>
<trkpt lat="43.2296500" lon="-2.1758700">
<ele>668.731201</ele>
<time>2007-12-04T11:27:00.999Z</time>
</trkpt>
<trkpt lat="43.2299100" lon="-2.1763100">
<ele>666.902405</ele>
<time>2007-12-04T11:27:26.997Z</time>
</trkpt>
<trkpt lat="43.2301700" lon="-2.1764900">
<ele>667.207214</ele>
<time>2007-12-04T11:27:45.996Z</time>
</trkpt>
<trkpt lat="43.2304600" lon="-2.1766900">
<ele>666.292786</ele>
<time>2007-12-04T11:28:08.003Z</time>
</trkpt>
<trkpt lat="43.2306300" lon="-2.1768000">
<ele>665.987976</ele>
<time>2007-12-04T11:28:23.002Z</time>
</trkpt>
<trkpt lat="43.2306600" lon="-2.1768100">
<ele>665.987976</ele>
<time>2007-12-04T11:28:46.001Z</time>
</trkpt>
<trkpt lat="43.2308700" lon="-2.1766600">
<ele>664.463989</ele>
<time>2007-12-04T11:29:02.996Z</time>
</trkpt>
<trkpt lat="43.2311300" lon="-2.1764000">
<ele>664.768799</ele>
<time>2007-12-04T11:29:25.002Z</time>
</trkpt>
<trkpt lat="43.2313300" lon="-2.1762900">
<ele>666.902405</ele>
<time>2007-12-04T11:29:41.004Z</time>
</trkpt>
<trkpt lat="43.2313700" lon="-2.1762300">
<ele>668.121582</ele>
<time>2007-12-04T11:29:45.997Z</time>
</trkpt>
<trkpt lat="43.2314000" lon="-2.1761800">
<ele>669.340820</ele>
<time>2007-12-04T11:29:49.998Z</time>
</trkpt>
<trkpt lat="43.2314400" lon="-2.1761500">
<ele>670.255188</ele>
<time>2007-12-04T11:29:53.998Z</time>
</trkpt>
<trkpt lat="43.2315500" lon="-2.1760400">
<ele>672.998413</ele>
<time>2007-12-04T11:30:07.001Z</time>
</trkpt>
<trkpt lat="43.2316100" lon="-2.1759600">
<ele>675.132019</ele>
<time>2007-12-04T11:30:16.998Z</time>
</trkpt>
<trkpt lat="43.2316900" lon="-2.1759300">
<ele>677.265625</ele>
<time>2007-12-04T11:30:27.003Z</time>
</trkpt>
<trkpt lat="43.2316800" lon="-2.1759400">
<ele>675.436829</ele>
<time>2007-12-04T11:31:06.997Z</time>
</trkpt>
<trkpt lat="43.2316500" lon="-2.1758600">
<ele>677.875183</ele>
<time>2007-12-07T09:32:33.003Z</time>
</trkpt>
<trkpt lat="43.2316100" lon="-2.1757700">
<ele>675.436829</ele>
<time>2007-12-07T09:32:38.999Z</time>
</trkpt>
<trkpt lat="43.2316100" lon="-2.1757500">
<ele>676.046387</ele>
<time>2007-12-07T09:32:40.001Z</time>
</trkpt>
<trkpt lat="43.2315900" lon="-2.1756400">
<ele>672.693604</ele>
<time>2007-12-07T09:32:49.004Z</time>
</trkpt>
<trkpt lat="43.2315900" lon="-2.1756200">
<ele>672.693604</ele>
<time>2007-12-07T09:32:49.998Z</time>
</trkpt>
<trkpt lat="43.2315300" lon="-2.1754900">
<ele>670.255188</ele>
<time>2007-12-07T09:32:57.998Z</time>
</trkpt>
<trkpt lat="43.2315000" lon="-2.1754700">
<ele>669.645630</ele>
<time>2007-12-07T09:33:00.003Z</time>
</trkpt>
<trkpt lat="43.2314700" lon="-2.1753800">
<ele>668.731201</ele>
<time>2007-12-07T09:33:04.997Z</time>
</trkpt>
<trkpt lat="43.2313600" lon="-2.1751400">
<ele>665.378418</ele>
<time>2007-12-07T09:33:19.002Z</time>
</trkpt>
<trkpt lat="43.2313200" lon="-2.1750000">
<ele>662.025574</ele>
<time>2007-12-07T09:33:27.996Z</time>
</trkpt>
<trkpt lat="43.2312700" lon="-2.1749700">
<ele>661.416016</ele>
<time>2007-12-07T09:33:42.002Z</time>
</trkpt>
<trkpt lat="43.2312600" lon="-2.1749600">
<ele>660.196777</ele>
<time>2007-12-07T09:34:20.001Z</time>
</trkpt>
<trkpt lat="43.2312700" lon="-2.1749700">
<ele>660.501587</ele>
<time>2007-12-07T09:35:11.003Z</time>
</trkpt>
<trkpt lat="43.2312700" lon="-2.1749800">
<ele>662.025574</ele>
<time>2007-12-07T09:35:16.999Z</time>
</trkpt>
<trkpt lat="43.2312400" lon="-2.1749200">
<ele>661.111206</ele>
<time>2007-12-07T09:35:31.998Z</time>
</trkpt>
<trkpt lat="43.2312400" lon="-2.1749300">
<ele>661.111206</ele>
<time>2007-12-07T09:35:35.998Z</time>
</trkpt>
<trkpt lat="43.2312700" lon="-2.1749700">
<ele>662.635193</ele>
<time>2007-12-07T09:35:49.001Z</time>
</trkpt>
<trkpt lat="43.2312300" lon="-2.1749200">
<ele>662.025574</ele>
<time>2007-12-07T09:35:53.002Z</time>
</trkpt>
<trkpt lat="43.2311200" lon="-2.1747900">
<ele>659.282410</ele>
<time>2007-12-07T09:36:05.996Z</time>
</trkpt>
<trkpt lat="43.2309800" lon="-2.1746500">
<ele>658.672791</ele>
<time>2007-12-07T09:36:23.000Z</time>
</trkpt>
<trkpt lat="43.2309700" lon="-2.1746500">
<ele>658.672791</ele>
<time>2007-12-07T09:36:24.002Z</time>
</trkpt>
<trkpt lat="43.2309100" lon="-2.1746100">
<ele>657.148804</ele>
<time>2007-12-07T09:36:31.000Z</time>
</trkpt>
<trkpt lat="43.2308400" lon="-2.1745800">
<ele>657.148804</ele>
<time>2007-12-07T09:36:36.996Z</time>
</trkpt>
<trkpt lat="43.2307600" lon="-2.1744500">
<ele>654.405579</ele>
<time>2007-12-07T09:36:51.002Z</time>
</trkpt>
<trkpt lat="43.2306500" lon="-2.1743100">
<ele>651.357605</ele>
<time>2007-12-07T09:37:02.001Z</time>
</trkpt>
<trkpt lat="43.2305900" lon="-2.1742500">
<ele>650.138428</ele>
<time>2007-12-07T09:37:07.997Z</time>
</trkpt>
<trkpt lat="43.2305800" lon="-2.1741600">
<ele>648.614380</ele>
<time>2007-12-07T09:37:14.002Z</time>
</trkpt>
<trkpt lat="43.2306300" lon="-2.1739800">
<ele>645.566406</ele>
<time>2007-12-07T09:37:25.000Z</time>
</trkpt>
<trkpt lat="43.2305900" lon="-2.1739200">
<ele>644.347229</ele>
<time>2007-12-07T09:37:29.001Z</time>
</trkpt>
<trkpt lat="43.2305500" lon="-2.1738700">
<ele>643.127991</ele>
<time>2007-12-07T09:37:31.999Z</time>
</trkpt>
<trkpt lat="43.2304600" lon="-2.1735000">
<ele>639.470398</ele>
<time>2007-12-07T09:37:49.996Z</time>
</trkpt>
<trkpt lat="43.2304800" lon="-2.1733800">
<ele>637.641602</ele>
<time>2007-12-07T09:37:54.998Z</time>
</trkpt>
<trkpt lat="43.2304600" lon="-2.1730200">
<ele>634.593628</ele>
<time>2007-12-07T09:38:09.997Z</time>
</trkpt>
<trkpt lat="43.2304600" lon="-2.1729300">
<ele>632.764771</ele>
<time>2007-12-07T09:38:13.998Z</time>
</trkpt>
<trkpt lat="43.2304300" lon="-2.1727000">
<ele>629.716797</ele>
<time>2007-12-07T09:38:24.003Z</time>
</trkpt>
<trkpt lat="43.2304000" lon="-2.1723400">
<ele>627.278381</ele>
<time>2007-12-07T09:38:39.002Z</time>
</trkpt>
<trkpt lat="43.2304300" lon="-2.1718400">
<ele>624.535217</ele>
<time>2007-12-07T09:38:59.004Z</time>
</trkpt>
<trkpt lat="43.2304900" lon="-2.1715700">
<ele>621.791992</ele>
<time>2007-12-07T09:39:10.996Z</time>
</trkpt>
<trkpt lat="43.2305900" lon="-2.1713200">
<ele>617.829590</ele>
<time>2007-12-07T09:39:22.997Z</time>
</trkpt>
<trkpt lat="43.2306100" lon="-2.1712100">
<ele>616.915222</ele>
<time>2007-12-07T09:39:27.999Z</time>
</trkpt>
<trkpt lat="43.2306500" lon="-2.1710700">
<ele>614.476807</ele>
<time>2007-12-07T09:39:34.998Z</time>
</trkpt>
<trkpt lat="43.2307200" lon="-2.1709200">
<ele>611.428772</ele>
<time>2007-12-07T09:39:41.996Z</time>
</trkpt>
<trkpt lat="43.2307600" lon="-2.1708600">
<ele>610.514404</ele>
<time>2007-12-07T09:39:45.003Z</time>
</trkpt>
<trkpt lat="43.2307900" lon="-2.1708000">
<ele>609.295227</ele>
<time>2007-12-07T09:39:48.001Z</time>
</trkpt>
<trkpt lat="43.2308700" lon="-2.1705400">
<ele>604.723206</ele>
<time>2007-12-07T09:40:01.004Z</time>
</trkpt>
<trkpt lat="43.2308800" lon="-2.1705000">
<ele>604.723206</ele>
<time>2007-12-07T09:40:08.003Z</time>
</trkpt>
<trkpt lat="43.2309000" lon="-2.1705400">
<ele>603.504028</ele>
<time>2007-12-07T09:40:11.001Z</time>
</trkpt>
<trkpt lat="43.2309100" lon="-2.1706300">
<ele>603.808777</ele>
<time>2007-12-07T09:40:15.001Z</time>
</trkpt>
<trkpt lat="43.2309200" lon="-2.1706700">
<ele>603.808777</ele>
<time>2007-12-07T09:40:16.997Z</time>
</trkpt>
<trkpt lat="43.2309300" lon="-2.1706900">
<ele>603.808777</ele>
<time>2007-12-07T09:40:19.001Z</time>
</trkpt>
<trkpt lat="43.2309500" lon="-2.1709600">
<ele>604.418396</ele>
<time>2007-12-07T09:40:32.998Z</time>
</trkpt>
<trkpt lat="43.2309500" lon="-2.1709800">
<ele>603.808777</ele>
<time>2007-12-07T09:40:34.000Z</time>
</trkpt>
<trkpt lat="43.2309600" lon="-2.1713600">
<ele>603.808777</ele>
<time>2007-12-07T09:40:50.002Z</time>
</trkpt>
<trkpt lat="43.2309500" lon="-2.1716800">
<ele>603.504028</ele>
<time>2007-12-07T09:41:03.998Z</time>
</trkpt>
<trkpt lat="43.2309800" lon="-2.1720000">
<ele>603.808777</ele>
<time>2007-12-07T09:41:18.997Z</time>
</trkpt>
<trkpt lat="43.2311500" lon="-2.1723200">
<ele>601.065613</ele>
<time>2007-12-07T09:41:36.001Z</time>
</trkpt>
<trkpt lat="43.2312700" lon="-2.1725800">
<ele>601.065613</ele>
<time>2007-12-07T09:41:49.998Z</time>
</trkpt>
<trkpt lat="43.2312900" lon="-2.1725900">
<ele>598.932007</ele>
<time>2007-12-07T09:41:55.000Z</time>
</trkpt>
<trkpt lat="43.2313300" lon="-2.1726000">
<ele>598.627197</ele>
<time>2007-12-07T09:41:57.998Z</time>
</trkpt>
<trkpt lat="43.2314200" lon="-2.1726400">
<ele>596.188782</ele>
<time>2007-12-07T09:42:05.999Z</time>
</trkpt>
<trkpt lat="43.2315700" lon="-2.1727500">
<ele>594.664795</ele>
<time>2007-12-07T09:42:18.000Z</time>
</trkpt>
<trkpt lat="43.2318200" lon="-2.1728700">
<ele>593.140808</ele>
<time>2007-12-07T09:42:32.999Z</time>
</trkpt>
<trkpt lat="43.2319000" lon="-2.1729100">
<ele>593.750427</ele>
<time>2007-12-07T09:42:38.002Z</time>
</trkpt>
<trkpt lat="43.2319700" lon="-2.1729400">
<ele>593.140808</ele>
<time>2007-12-07T09:42:42.002Z</time>
</trkpt>
<trkpt lat="43.2322100" lon="-2.1730800">
<ele>591.312012</ele>
<time>2007-12-07T09:42:57.001Z</time>
</trkpt>
<trkpt lat="43.2323100" lon="-2.1731500">
<ele>591.007202</ele>
<time>2007-12-07T09:43:02.997Z</time>
</trkpt>
<trkpt lat="43.2323500" lon="-2.1731900">
<ele>591.007202</ele>
<time>2007-12-07T09:43:06.004Z</time>
</trkpt>
<trkpt lat="43.2325000" lon="-2.1732800">
<ele>589.483215</ele>
<time>2007-12-07T09:43:16.000Z</time>
</trkpt>
<trkpt lat="43.2325900" lon="-2.1733300">
<ele>588.568787</ele>
<time>2007-12-07T09:43:21.003Z</time>
</trkpt>
<trkpt lat="43.2327400" lon="-2.1734200">
<ele>586.435181</ele>
<time>2007-12-07T09:43:29.997Z</time>
</trkpt>
<trkpt lat="43.2327800" lon="-2.1734600">
<ele>585.520813</ele>
<time>2007-12-07T09:43:33.004Z</time>
</trkpt>
<trkpt lat="43.2328500" lon="-2.1735300">
<ele>585.216003</ele>
<time>2007-12-07T09:43:37.998Z</time>
</trkpt>
<trkpt lat="43.2330200" lon="-2.1737200">
<ele>582.777588</ele>
<time>2007-12-07T09:43:51.001Z</time>
</trkpt>
<trkpt lat="43.2331700" lon="-2.1739300">
<ele>580.643982</ele>
<time>2007-12-07T09:44:04.004Z</time>
</trkpt>
<trkpt lat="43.2332500" lon="-2.1740500">
<ele>579.424805</ele>
<time>2007-12-07T09:44:11.996Z</time>
</trkpt>
<trkpt lat="43.2333300" lon="-2.1741600">
<ele>577.900818</ele>
<time>2007-12-07T09:44:19.003Z</time>
</trkpt>
<trkpt lat="43.2334200" lon="-2.1742700">
<ele>576.376770</ele>
<time>2007-12-07T09:44:26.002Z</time>
</trkpt>
<trkpt lat="43.2335000" lon="-2.1743900">
<ele>576.072021</ele>
<time>2007-12-07T09:44:33.000Z</time>
</trkpt>
<trkpt lat="43.2335800" lon="-2.1744700">
<ele>573.938416</ele>
<time>2007-12-07T09:44:38.996Z</time>
</trkpt>
<trkpt lat="43.2336600" lon="-2.1746200">
<ele>573.633606</ele>
<time>2007-12-07T09:44:46.997Z</time>
</trkpt>
<trkpt lat="43.2337000" lon="-2.1746900">
<ele>573.023987</ele>
<time>2007-12-07T09:44:50.997Z</time>
</trkpt>
<trkpt lat="43.2337400" lon="-2.1747700">
<ele>573.023987</ele>
<time>2007-12-07T09:44:54.997Z</time>
</trkpt>
<trkpt lat="43.2337900" lon="-2.1748780">
<ele>572.109619</ele>
<time>2007-12-07T09:45:01.002Z</time>
</trkpt>
<trkpt lat="43.2337900" lon="-2.1749380">
<ele>571.804810</ele>
<time>2007-12-07T09:45:04.000Z</time>
</trkpt>
<trkpt lat="43.2338400" lon="-2.1751380">
<ele>569.366394</ele>
<time>2007-12-07T09:45:13.997Z</time>
</trkpt>
<trkpt lat="43.2338300" lon="-2.1752980">
<ele>568.756775</ele>
<time>2007-12-07T09:45:21.997Z</time>
</trkpt>
<trkpt lat="43.2338600" lon="-2.1753580">
<ele>567.232788</ele>
<time>2007-12-07T09:45:25.004Z</time>
</trkpt>
<trkpt lat="43.2339700" lon="-2.1756200">
<ele>564.794373</ele>
<time>2007-12-07T09:45:37.999Z</time>
</trkpt>
<trkpt lat="43.2340200" lon="-2.1758400">
<ele>563.880005</ele>
<time>2007-12-07T09:45:48.997Z</time>
</trkpt>
<trkpt lat="43.2340100" lon="-2.1758900">
<ele>563.575195</ele>
<time>2007-12-07T09:45:51.002Z</time>
</trkpt>
<trkpt lat="43.2340100" lon="-2.1759300">
<ele>562.965576</ele>
<time>2007-12-07T09:45:52.998Z</time>
</trkpt>
<trkpt lat="43.2340500" lon="-2.1760100">
<ele>562.965576</ele>
<time>2007-12-07T09:45:58.000Z</time>
</trkpt>
<trkpt lat="43.2341200" lon="-2.1761600">
<ele>558.698425</ele>
<time>2007-12-07T09:46:08.999Z</time>
</trkpt>
<trkpt lat="43.2341300" lon="-2.1762000">
<ele>557.783997</ele>
<time>2007-12-07T09:46:11.997Z</time>
</trkpt>
<trkpt lat="43.2341500" lon="-2.1762300">
<ele>556.869629</ele>
<time>2007-12-07T09:46:14.002Z</time>
</trkpt>
<trkpt lat="43.2341200" lon="-2.1763700">
<ele>555.650391</ele>
<time>2007-12-07T09:46:21.000Z</time>
</trkpt>
<trkpt lat="43.2341300" lon="-2.1764100">
<ele>554.736023</ele>
<time>2007-12-07T09:46:22.996Z</time>
</trkpt>
<trkpt lat="43.2341900" lon="-2.1765500">
<ele>551.992798</ele>
<time>2007-12-07T09:46:30.996Z</time>
</trkpt>
<trkpt lat="43.2342100" lon="-2.1766300">
<ele>551.992798</ele>
<time>2007-12-07T09:46:34.997Z</time>
</trkpt>
<trkpt lat="43.2341900" lon="-2.1766900">
<ele>551.992798</ele>
<time>2007-12-07T09:46:38.004Z</time>
</trkpt>
<trkpt lat="43.2342300" lon="-2.1768100">
<ele>550.164001</ele>
<time>2007-12-07T09:46:45.002Z</time>
</trkpt>
<trkpt lat="43.2343000" lon="-2.1770500">
<ele>546.201599</ele>
<time>2007-12-07T09:47:00.001Z</time>
</trkpt>
<trkpt lat="43.2343100" lon="-2.1771900">
<ele>544.372803</ele>
<time>2007-12-07T09:47:08.002Z</time>
</trkpt>
<trkpt lat="43.2343300" lon="-2.1772900">
<ele>542.848816</ele>
<time>2007-12-07T09:47:13.004Z</time>
</trkpt>
<trkpt lat="43.2344200" lon="-2.1775400">
<ele>539.495972</ele>
<time>2007-12-07T09:47:25.999Z</time>
</trkpt>
<trkpt lat="43.2344400" lon="-2.1776200">
<ele>538.886414</ele>
<time>2007-12-07T09:47:31.001Z</time>
</trkpt>
<trkpt lat="43.2344600" lon="-2.1776800">
<ele>539.495972</ele>
<time>2007-12-07T09:47:35.002Z</time>
</trkpt>
<trkpt lat="43.2344800" lon="-2.1777300">
<ele>539.800781</ele>
<time>2007-12-07T09:47:39.002Z</time>
</trkpt>
<trkpt lat="43.2346100" lon="-2.1780100">
<ele>538.581604</ele>
<time>2007-12-07T09:47:55.003Z</time>
</trkpt>
<trkpt lat="43.2346400" lon="-2.1782000">
<ele>536.447998</ele>
<time>2007-12-07T09:48:06.002Z</time>
</trkpt>
<trkpt lat="43.2346700" lon="-2.1783400">
<ele>535.533630</ele>
<time>2007-12-07T09:48:14.996Z</time>
</trkpt>
<trkpt lat="43.2347400" lon="-2.1784400">
<ele>537.667175</ele>
<time>2007-12-07T09:48:26.004Z</time>
</trkpt>
<trkpt lat="43.2347600" lon="-2.1784700">
<ele>538.581604</ele>
<time>2007-12-07T09:48:27.999Z</time>
</trkpt>
<trkpt lat="43.2347900" lon="-2.1785200">
<ele>538.581604</ele>
<time>2007-12-07T09:48:30.997Z</time>
</trkpt>
<trkpt lat="43.2348400" lon="-2.1786300">
<ele>540.410400</ele>
<time>2007-12-07T09:48:38.998Z</time>
</trkpt>
<trkpt lat="43.2348900" lon="-2.1787000">
<ele>540.410400</ele>
<time>2007-12-07T09:48:45.996Z</time>
</trkpt>
<trkpt lat="43.2351100" lon="-2.1787900">
<ele>538.886414</ele>
<time>2007-12-07T09:49:00.002Z</time>
</trkpt>
<trkpt lat="43.2352200" lon="-2.1788100">
<ele>537.057617</ele>
<time>2007-12-07T09:49:07.000Z</time>
</trkpt>
<trkpt lat="43.2353900" lon="-2.1788200">
<ele>536.447998</ele>
<time>2007-12-07T09:49:16.997Z</time>
</trkpt>
<trkpt lat="43.2356000" lon="-2.1789100">
<ele>533.704773</ele>
<time>2007-12-07T09:49:31.002Z</time>
</trkpt>
<trkpt lat="43.2357900" lon="-2.1790100">
<ele>532.790405</ele>
<time>2007-12-07T09:49:43.003Z</time>
</trkpt>
<trkpt lat="43.2360200" lon="-2.1789900">
<ele>529.742371</ele>
<time>2007-12-07T09:49:57.000Z</time>
</trkpt>
<trkpt lat="43.2360800" lon="-2.1789700">
<ele>529.742371</ele>
<time>2007-12-07T09:49:59.998Z</time>
</trkpt>
<trkpt lat="43.2362900" lon="-2.1788700">
<ele>527.913574</ele>
<time>2007-12-07T09:50:13.001Z</time>
</trkpt>
<trkpt lat="43.2364200" lon="-2.1789200">
<ele>525.170410</ele>
<time>2007-12-07T09:50:22.998Z</time>
</trkpt>
<trkpt lat="43.2364300" lon="-2.1789700">
<ele>525.475220</ele>
<time>2007-12-07T09:50:25.996Z</time>
</trkpt>
<trkpt lat="43.2364300" lon="-2.1790900">
<ele>525.170410</ele>
<time>2007-12-07T09:50:32.001Z</time>
</trkpt>
<trkpt lat="43.2363400" lon="-2.1794000">
<ele>523.951172</ele>
<time>2007-12-07T09:50:47.000Z</time>
</trkpt>
<trkpt lat="43.2363200" lon="-2.1794800">
<ele>523.646423</ele>
<time>2007-12-07T09:50:51.000Z</time>
</trkpt>
<trkpt lat="43.2362400" lon="-2.1797500">
<ele>523.036804</ele>
<time>2007-12-07T09:51:03.001Z</time>
</trkpt>
<trkpt lat="43.2362500" lon="-2.1798800">
<ele>522.731995</ele>
<time>2007-12-07T09:51:08.004Z</time>
</trkpt>
<trkpt lat="43.2362000" lon="-2.1800400">
<ele>523.036804</ele>
<time>2007-12-07T09:51:15.002Z</time>
</trkpt>
<trkpt lat="43.2361600" lon="-2.1803400">
<ele>525.475220</ele>
<time>2007-12-07T09:51:27.996Z</time>
</trkpt>
<trkpt lat="43.2361600" lon="-2.1804200">
<ele>525.475220</ele>
<time>2007-12-07T09:51:31.997Z</time>
</trkpt>
<trkpt lat="43.2361500" lon="-2.1806300">
<ele>526.084778</ele>
<time>2007-12-07T09:51:42.002Z</time>
</trkpt>
<trkpt lat="43.2361600" lon="-2.1808500">
<ele>528.828003</ele>
<time>2007-12-07T09:51:54.996Z</time>
</trkpt>
<trkpt lat="43.2361800" lon="-2.1808600">
<ele>529.437622</ele>
<time>2007-12-07T09:51:57.001Z</time>
</trkpt>
<trkpt lat="43.2361800" lon="-2.1808900">
<ele>530.656799</ele>
<time>2007-12-07T09:52:02.004Z</time>
</trkpt>
<trkpt lat="43.2362200" lon="-2.1809200">
<ele>531.875977</ele>
<time>2007-12-07T09:52:06.997Z</time>
</trkpt>
<trkpt lat="43.2362500" lon="-2.1809400">
<ele>532.180786</ele>
<time>2007-12-07T09:52:10.004Z</time>
</trkpt>
<trkpt lat="43.2364200" lon="-2.1810500">
<ele>531.875977</ele>
<time>2007-12-07T09:52:22.999Z</time>
</trkpt>
<trkpt lat="43.2364500" lon="-2.1810600">
<ele>531.875977</ele>
<time>2007-12-07T09:52:25.003Z</time>
</trkpt>
<trkpt lat="43.2365500" lon="-2.1811400">
<ele>529.742371</ele>
<time>2007-12-07T09:52:33.004Z</time>
</trkpt>
<trkpt lat="43.2366900" lon="-2.1812400">
<ele>530.656799</ele>
<time>2007-12-07T09:52:44.996Z</time>
</trkpt>
<trkpt lat="43.2368400" lon="-2.1814000">
<ele>529.437622</ele>
<time>2007-12-07T09:52:57.999Z</time>
</trkpt>
<trkpt lat="43.2368800" lon="-2.1814600">
<ele>528.523193</ele>
<time>2007-12-07T09:53:00.997Z</time>
</trkpt>
<trkpt lat="43.2370100" lon="-2.1817200">
<ele>525.170410</ele>
<time>2007-12-07T09:53:14.001Z</time>
</trkpt>
<trkpt lat="43.2370400" lon="-2.1817800">
<ele>524.560791</ele>
<time>2007-12-07T09:53:16.999Z</time>
</trkpt>
<trkpt lat="43.2371200" lon="-2.1819600">
<ele>521.817627</ele>
<time>2007-12-07T09:53:26.002Z</time>
</trkpt>
<trkpt lat="43.2371400" lon="-2.1819900">
<ele>521.817627</ele>
<time>2007-12-07T09:53:27.997Z</time>
</trkpt>
<trkpt lat="43.2372000" lon="-2.1820900">
<ele>519.684021</ele>
<time>2007-12-07T09:53:34.002Z</time>
</trkpt>
<trkpt lat="43.2373500" lon="-2.1823900">
<ele>521.208008</ele>
<time>2007-12-07T09:53:50.004Z</time>
</trkpt>
<trkpt lat="43.2374500" lon="-2.1824400">
<ele>520.598389</ele>
<time>2007-12-07T09:53:58.004Z</time>
</trkpt>
<trkpt lat="43.2374900" lon="-2.1823900">
<ele>518.769592</ele>
<time>2007-12-07T09:54:01.996Z</time>
</trkpt>
<trkpt lat="43.2376200" lon="-2.1820500">
<ele>516.026428</ele>
<time>2007-12-07T09:54:17.997Z</time>
</trkpt>
<trkpt lat="43.2377700" lon="-2.1817400">
<ele>512.673584</ele>
<time>2007-12-07T09:54:33.998Z</time>
</trkpt>
<trkpt lat="43.2380200" lon="-2.1814200">
<ele>510.235199</ele>
<time>2007-12-07T09:54:52.998Z</time>
</trkpt>
<trkpt lat="43.2382500" lon="-2.1811500">
<ele>506.882385</ele>
<time>2007-12-07T09:55:10.001Z</time>
</trkpt>
<trkpt lat="43.2385800" lon="-2.1809300">
<ele>503.834412</ele>
<time>2007-12-07T09:55:30.996Z</time>
</trkpt>
<trkpt lat="43.2387700" lon="-2.1808300">
<ele>500.481598</ele>
<time>2007-12-07T09:55:42.997Z</time>
</trkpt>
<trkpt lat="43.2390400" lon="-2.1806800">
<ele>497.128815</ele>
<time>2007-12-07T09:56:00.001Z</time>
</trkpt>
<trkpt lat="43.2391100" lon="-2.1805000">
<ele>493.776001</ele>
<time>2007-12-07T09:56:11.000Z</time>
</trkpt>
<trkpt lat="43.2391100" lon="-2.1805000">
<ele>493.776001</ele>
<time>2007-12-07T09:56:12.002Z</time>
</trkpt>
<trkpt lat="43.2391900" lon="-2.1804400">
<ele>489.813599</ele>
<time>2007-12-07T09:56:19.000Z</time>
</trkpt>
<trkpt lat="43.2393500" lon="-2.1803500">
<ele>487.984802</ele>
<time>2007-12-07T09:56:31.001Z</time>
</trkpt>
<trkpt lat="43.2394800" lon="-2.1802500">
<ele>486.460785</ele>
<time>2007-12-07T09:56:42.000Z</time>
</trkpt>
<trkpt lat="43.2396200" lon="-2.1801300">
<ele>485.241608</ele>
<time>2007-12-07T09:56:51.996Z</time>
</trkpt>
<trkpt lat="43.2396600" lon="-2.1800700">
<ele>483.717590</ele>
<time>2007-12-07T09:56:55.997Z</time>
</trkpt>
<trkpt lat="43.2398300" lon="-2.1799800">
<ele>481.279205</ele>
<time>2007-12-07T09:57:07.004Z</time>
</trkpt>
<trkpt lat="43.2399900" lon="-2.1799100">
<ele>478.840790</ele>
<time>2007-12-07T09:57:17.001Z</time>
</trkpt>
<trkpt lat="43.2400800" lon="-2.1799000">
<ele>476.402405</ele>
<time>2007-12-07T09:57:25.001Z</time>
</trkpt>
<trkpt lat="43.2401300" lon="-2.1798700">
<ele>474.573608</ele>
<time>2007-12-07T09:57:29.002Z</time>
</trkpt>
<trkpt lat="43.2402000" lon="-2.1798700">
<ele>473.659210</ele>
<time>2007-12-07T09:57:34.998Z</time>
</trkpt>
<trkpt lat="43.2402900" lon="-2.1799900">
<ele>473.049591</ele>
<time>2007-12-07T09:57:42.998Z</time>
</trkpt>
<trkpt lat="43.2404600" lon="-2.1801900">
<ele>472.744812</ele>
<time>2007-12-07T09:57:54.999Z</time>
</trkpt>
<trkpt lat="43.2405900" lon="-2.1803100">
<ele>471.220795</ele>
<time>2007-12-07T09:58:04.996Z</time>
</trkpt>
<trkpt lat="43.2407000" lon="-2.1804300">
<ele>466.953613</ele>
<time>2007-12-07T09:58:13.999Z</time>
</trkpt>
<trkpt lat="43.2408400" lon="-2.1805800">
<ele>464.515198</ele>
<time>2007-12-07T09:58:27.002Z</time>
</trkpt>
<trkpt lat="43.2408500" lon="-2.1806000">
<ele>463.905609</ele>
<time>2007-12-07T09:58:28.004Z</time>
</trkpt>
<trkpt lat="43.2409500" lon="-2.1806500">
<ele>462.076813</ele>
<time>2007-12-07T09:58:35.996Z</time>
</trkpt>
<trkpt lat="43.2411100" lon="-2.1806500">
<ele>458.114410</ele>
<time>2007-12-07T09:58:46.001Z</time>
</trkpt>
<trkpt lat="43.2411500" lon="-2.1806300">
<ele>457.809601</ele>
<time>2007-12-07T09:58:47.997Z</time>
</trkpt>
<trkpt lat="43.2413700" lon="-2.1805600">
<ele>454.761597</ele>
<time>2007-12-07T09:59:01.000Z</time>
</trkpt>
<trkpt lat="43.2415600" lon="-2.1804800">
<ele>452.323212</ele>
<time>2007-12-07T09:59:11.999Z</time>
</trkpt>
<trkpt lat="43.2417000" lon="-2.1804500">
<ele>450.189606</ele>
<time>2007-12-07T09:59:20.000Z</time>
</trkpt>
<trkpt lat="43.2418700" lon="-2.1803400">
<ele>447.141602</ele>
<time>2007-12-07T09:59:30.998Z</time>
</trkpt>
<trkpt lat="43.2418900" lon="-2.1803000">
<ele>446.227203</ele>
<time>2007-12-07T09:59:33.003Z</time>
</trkpt>
<trkpt lat="43.2419700" lon="-2.1802200">
<ele>443.179199</ele>
<time>2007-12-07T09:59:40.001Z</time>
</trkpt>
<trkpt lat="43.2419800" lon="-2.1802100">
<ele>442.874390</ele>
<time>2007-12-07T09:59:41.004Z</time>
</trkpt>
<trkpt lat="43.2420800" lon="-2.1801500">
<ele>439.826385</ele>
<time>2007-12-07T09:59:47.000Z</time>
</trkpt>
<trkpt lat="43.2421800" lon="-2.1800900">
<ele>437.692810</ele>
<time>2007-12-07T09:59:52.996Z</time>
</trkpt>
<trkpt lat="43.2422600" lon="-2.1800400">
<ele>435.254395</ele>
<time>2007-12-07T09:59:59.001Z</time>
</trkpt>
<trkpt lat="43.2422800" lon="-2.1800000">
<ele>433.730408</ele>
<time>2007-12-07T10:00:01.999Z</time>
</trkpt>
<trkpt lat="43.2423400" lon="-2.1799500">
<ele>432.206390</ele>
<time>2007-12-07T10:00:05.999Z</time>
</trkpt>
<trkpt lat="43.2424200" lon="-2.1798900">
<ele>428.853607</ele>
<time>2007-12-07T10:00:12.004Z</time>
</trkpt>
<trkpt lat="43.2424300" lon="-2.1798700">
<ele>428.548798</ele>
<time>2007-12-07T10:00:12.997Z</time>
</trkpt>
<trkpt lat="43.2424700" lon="-2.1798500">
<ele>427.329590</ele>
<time>2007-12-07T10:00:15.002Z</time>
</trkpt>
<trkpt lat="43.2425400" lon="-2.1798300">
<ele>426.110413</ele>
<time>2007-12-07T10:00:19.002Z</time>
</trkpt>
<trkpt lat="43.2427500" lon="-2.1798100">
<ele>423.062408</ele>
<time>2007-12-07T10:00:31.003Z</time>
</trkpt>
<trkpt lat="43.2428800" lon="-2.1797900">
<ele>420.319214</ele>
<time>2007-12-07T10:00:38.002Z</time>
</trkpt>
<trkpt lat="43.2429800" lon="-2.1797600">
<ele>417.880798</ele>
<time>2007-12-07T10:00:43.004Z</time>
</trkpt>
<trkpt lat="43.2431700" lon="-2.1796300">
<ele>414.528015</ele>
<time>2007-12-07T10:00:57.001Z</time>
</trkpt>
<trkpt lat="43.2432200" lon="-2.1795800">
<ele>412.699188</ele>
<time>2007-12-07T10:01:01.001Z</time>
</trkpt>
<trkpt lat="43.2433100" lon="-2.1794900">
<ele>409.651215</ele>
<time>2007-12-07T10:01:09.002Z</time>
</trkpt>
<trkpt lat="43.2433700" lon="-2.1794300">
<ele>406.298401</ele>
<time>2007-12-07T10:01:13.996Z</time>
</trkpt>
<trkpt lat="43.2435000" lon="-2.1793400">
<ele>402.945587</ele>
<time>2007-12-07T10:01:22.999Z</time>
</trkpt>
<trkpt lat="43.2435200" lon="-2.1793300">
<ele>402.945587</ele>
<time>2007-12-07T10:01:24.001Z</time>
</trkpt>
<trkpt lat="43.2436800" lon="-2.1792400">
<ele>400.202393</ele>
<time>2007-12-07T10:01:33.997Z</time>
</trkpt>
<trkpt lat="43.2438000" lon="-2.1790900">
<ele>396.544800</ele>
<time>2007-12-07T10:01:44.996Z</time>
</trkpt>
<trkpt lat="43.2438800" lon="-2.1789600">
<ele>393.191986</ele>
<time>2007-12-07T10:01:53.999Z</time>
</trkpt>
<trkpt lat="43.2440200" lon="-2.1787700">
<ele>390.448792</ele>
<time>2007-12-07T10:02:07.002Z</time>
</trkpt>
<trkpt lat="43.2440800" lon="-2.1785400">
<ele>389.534393</ele>
<time>2007-12-07T10:02:19.003Z</time>
</trkpt>
<trkpt lat="43.2440300" lon="-2.1784000">
<ele>387.096008</ele>
<time>2007-12-07T10:02:26.002Z</time>
</trkpt>
<trkpt lat="43.2439800" lon="-2.1783700">
<ele>386.181610</ele>
<time>2007-12-07T10:02:30.002Z</time>
</trkpt>
<trkpt lat="43.2438200" lon="-2.1784400">
<ele>382.828796</ele>
<time>2007-12-07T10:02:42.003Z</time>
</trkpt>
<trkpt lat="43.2437200" lon="-2.1785200">
<ele>379.476013</ele>
<time>2007-12-07T10:02:50.997Z</time>
</trkpt>
<trkpt lat="43.2436300" lon="-2.1786300">
<ele>375.513611</ele>
<time>2007-12-07T10:03:01.996Z</time>
</trkpt>
<trkpt lat="43.2435900" lon="-2.1786800">
<ele>373.075195</ele>
<time>2007-12-07T10:03:09.996Z</time>
</trkpt>
<trkpt lat="43.2435000" lon="-2.1786900">
<ele>371.551208</ele>
<time>2007-12-07T10:03:17.004Z</time>
</trkpt>
<trkpt lat="43.2434500" lon="-2.1786600">
<ele>370.332001</ele>
<time>2007-12-07T10:03:21.004Z</time>
</trkpt>
<trkpt lat="43.2432700" lon="-2.1785800">
<ele>366.979187</ele>
<time>2007-12-07T10:03:33.998Z</time>
</trkpt>
<trkpt lat="43.2431700" lon="-2.1785400">
<ele>364.845612</ele>
<time>2007-12-07T10:03:41.999Z</time>
</trkpt>
<trkpt lat="43.2430000" lon="-2.1785700">
<ele>362.712006</ele>
<time>2007-12-07T10:03:54.000Z</time>
</trkpt>
<trkpt lat="43.2429000" lon="-2.1786100">
<ele>361.492798</ele>
<time>2007-12-07T10:04:04.999Z</time>
</trkpt>
<trkpt lat="43.2428800" lon="-2.1786200">
<ele>361.187988</ele>
<time>2007-12-07T10:04:07.003Z</time>
</trkpt>
<trkpt lat="43.2428300" lon="-2.1786300">
<ele>361.187988</ele>
<time>2007-12-07T10:04:11.997Z</time>
</trkpt>
<trkpt lat="43.2428000" lon="-2.1785800">
<ele>361.187988</ele>
<time>2007-12-07T10:04:15.004Z</time>
</trkpt>
<trkpt lat="43.2427300" lon="-2.1784200">
<ele>363.626404</ele>
<time>2007-12-07T10:04:23.998Z</time>
</trkpt>
<trkpt lat="43.2425800" lon="-2.1781900">
<ele>364.845612</ele>
<time>2007-12-07T10:04:39.999Z</time>
</trkpt>
<trkpt lat="43.2424500" lon="-2.1779200">
<ele>363.931213</ele>
<time>2007-12-07T10:04:54.998Z</time>
</trkpt>
<trkpt lat="43.2422600" lon="-2.1776700">
<ele>364.845612</ele>
<time>2007-12-07T10:05:11.000Z</time>
</trkpt>
<trkpt lat="43.2420300" lon="-2.1776500">
<ele>362.102386</ele>
<time>2007-12-07T10:05:24.996Z</time>
</trkpt>
<trkpt lat="43.2418000" lon="-2.1776400">
<ele>361.492798</ele>
<time>2007-12-07T10:05:39.002Z</time>
</trkpt>
<trkpt lat="43.2415600" lon="-2.1775800">
<ele>363.931213</ele>
<time>2007-12-07T10:05:55.997Z</time>
</trkpt>
<trkpt lat="43.2414600" lon="-2.1776300">
<ele>362.102386</ele>
<time>2007-12-07T10:06:05.000Z</time>
</trkpt>
<trkpt lat="43.2414200" lon="-2.1776600">
<ele>361.187988</ele>
<time>2007-12-07T10:06:07.998Z</time>
</trkpt>
<trkpt lat="43.2412100" lon="-2.1775600">
<ele>358.140015</ele>
<time>2007-12-07T10:06:23.999Z</time>
</trkpt>
<trkpt lat="43.2411400" lon="-2.1774900">
<ele>357.835205</ele>
<time>2007-12-07T10:06:29.002Z</time>
</trkpt>
<trkpt lat="43.2410500" lon="-2.1774000">
<ele>354.482391</ele>
<time>2007-12-07T10:06:37.996Z</time>
</trkpt>
<trkpt lat="43.2409300" lon="-2.1773600">
<ele>351.434387</ele>
<time>2007-12-07T10:06:45.996Z</time>
</trkpt>
<trkpt lat="43.2407500" lon="-2.1773500">
<ele>348.081604</ele>
<time>2007-12-07T10:06:57.997Z</time>
</trkpt>
<trkpt lat="43.2406200" lon="-2.1773500">
<ele>346.252808</ele>
<time>2007-12-07T10:07:08.996Z</time>
</trkpt>
<trkpt lat="43.2405100" lon="-2.1773200">
<ele>344.728790</ele>
<time>2007-12-07T10:07:16.997Z</time>
</trkpt>
<trkpt lat="43.2403900" lon="-2.1771800">
<ele>341.376007</ele>
<time>2007-12-07T10:07:31.002Z</time>
</trkpt>
<trkpt lat="43.2403300" lon="-2.1771100">
<ele>338.937592</ele>
<time>2007-12-07T10:07:40.999Z</time>
</trkpt>
<trkpt lat="43.2402400" lon="-2.1770600">
<ele>336.499207</ele>
<time>2007-12-07T10:07:47.997Z</time>
</trkpt>
<trkpt lat="43.2401800" lon="-2.1770400">
<ele>335.279999</ele>
<time>2007-12-07T10:07:51.997Z</time>
</trkpt>
<trkpt lat="43.2401100" lon="-2.1770200">
<ele>333.756012</ele>
<time>2007-12-07T10:07:57.000Z</time>
</trkpt>
<trkpt lat="43.2401000" lon="-2.1769400">
<ele>333.146393</ele>
<time>2007-12-07T10:08:02.003Z</time>
</trkpt>
<trkpt lat="43.2401000" lon="-2.1768600">
<ele>331.927185</ele>
<time>2007-12-07T10:08:07.999Z</time>
</trkpt>
<trkpt lat="43.2401100" lon="-2.1768200">
<ele>331.317596</ele>
<time>2007-12-07T10:08:10.997Z</time>
</trkpt>
<trkpt lat="43.2401400" lon="-2.1765500">
<ele>327.355194</ele>
<time>2007-12-07T10:08:25.002Z</time>
</trkpt>
<trkpt lat="43.2401700" lon="-2.1762100">
<ele>325.221588</ele>
<time>2007-12-07T10:08:40.001Z</time>
</trkpt>
<trkpt lat="43.2401800" lon="-2.1760500">
<ele>324.002411</ele>
<time>2007-12-07T10:08:47.000Z</time>
</trkpt>
<trkpt lat="43.2401600" lon="-2.1759000">
<ele>322.783203</ele>
<time>2007-12-07T10:08:53.998Z</time>
</trkpt>
<trkpt lat="43.2402800" lon="-2.1757300">
<ele>321.259186</ele>
<time>2007-12-07T10:09:05.999Z</time>
</trkpt>
<trkpt lat="43.2404300" lon="-2.1755500">
<ele>319.735199</ele>
<time>2007-12-07T10:09:14.000Z</time>
</trkpt>
<trkpt lat="43.2405000" lon="-2.1755000">
<ele>317.906403</ele>
<time>2007-12-07T10:09:19.002Z</time>
</trkpt>
<trkpt lat="43.2405400" lon="-2.1754800">
<ele>316.992004</ele>
<time>2007-12-07T10:09:20.998Z</time>
</trkpt>
<trkpt lat="43.2405700" lon="-2.1754600">
<ele>315.467987</ele>
<time>2007-12-07T10:09:23.996Z</time>
</trkpt>
<trkpt lat="43.2406300" lon="-2.1754200">
<ele>313.944000</ele>
<time>2007-12-07T10:09:27.996Z</time>
</trkpt>
<trkpt lat="43.2407600" lon="-2.1753400">
<ele>310.591187</ele>
<time>2007-12-07T10:09:36.999Z</time>
</trkpt>
<trkpt lat="43.2409000" lon="-2.1751500">
<ele>307.847992</ele>
<time>2007-12-07T10:09:49.000Z</time>
</trkpt>
<trkpt lat="43.2410300" lon="-2.1750000">
<ele>304.799988</ele>
<time>2007-12-07T10:10:01.001Z</time>
</trkpt>
<trkpt lat="43.2410700" lon="-2.1749400">
<ele>302.971191</ele>
<time>2007-12-07T10:10:05.002Z</time>
</trkpt>
<trkpt lat="43.2412400" lon="-2.1747800">
<ele>300.227997</ele>
<time>2007-12-07T10:10:16.000Z</time>
</trkpt>
<trkpt lat="43.2414000" lon="-2.1746500">
<ele>299.618408</ele>
<time>2007-12-07T10:10:25.997Z</time>
</trkpt>
<trkpt lat="43.2415000" lon="-2.1744700">
<ele>299.008789</ele>
<time>2007-12-07T10:10:40.002Z</time>
</trkpt>
<trkpt lat="43.2415800" lon="-2.1744100">
<ele>299.618408</ele>
<time>2007-12-07T10:10:47.001Z</time>
</trkpt>
<trkpt lat="43.2417900" lon="-2.1742900">
<ele>299.618408</ele>
<time>2007-12-07T10:10:59.002Z</time>
</trkpt>
<trkpt lat="43.2418300" lon="-2.1742700">
<ele>299.618408</ele>
<time>2007-12-07T10:11:00.997Z</time>
</trkpt>
<trkpt lat="43.2418400" lon="-2.1742500">
<ele>299.618408</ele>
<time>2007-12-07T10:11:03.002Z</time>
</trkpt>
<trkpt lat="43.2418800" lon="-2.1741900">
<ele>299.008789</ele>
<time>2007-12-07T10:11:07.002Z</time>
</trkpt>
<trkpt lat="43.2420000" lon="-2.1741000">
<ele>299.008789</ele>
<time>2007-12-07T10:11:14.001Z</time>
</trkpt>
<trkpt lat="43.2421400" lon="-2.1739400">
<ele>299.618408</ele>
<time>2007-12-07T10:11:23.997Z</time>
</trkpt>
<trkpt lat="43.2423800" lon="-2.1737400">
<ele>299.618408</ele>
<time>2007-12-07T10:11:35.998Z</time>
</trkpt>
<trkpt lat="43.2424900" lon="-2.1735800">
<ele>300.227997</ele>
<time>2007-12-07T10:11:46.003Z</time>
</trkpt>
<trkpt lat="43.2426600" lon="-2.1733800">
<ele>299.008789</ele>
<time>2007-12-07T10:11:56.000Z</time>
</trkpt>
<trkpt lat="43.2426900" lon="-2.1732700">
<ele>298.094391</ele>
<time>2007-12-07T10:12:01.002Z</time>
</trkpt>
<trkpt lat="43.2428100" lon="-2.1730500">
<ele>298.094391</ele>
<time>2007-12-07T10:12:12.001Z</time>
</trkpt>
<trkpt lat="43.2429400" lon="-2.1728700">
<ele>299.618408</ele>
<time>2007-12-07T10:12:25.004Z</time>
</trkpt>
<trkpt lat="43.2429700" lon="-2.1726700">
<ele>298.704010</ele>
<time>2007-12-07T10:12:36.996Z</time>
</trkpt>
<trkpt lat="43.2429600" lon="-2.1725200">
<ele>299.008789</ele>
<time>2007-12-07T10:12:44.004Z</time>
</trkpt>
<trkpt lat="43.2430600" lon="-2.1721600">
<ele>296.570404</ele>
<time>2007-12-07T10:12:59.996Z</time>
</trkpt>
<trkpt lat="43.2430800" lon="-2.1719900">
<ele>293.827209</ele>
<time>2007-12-07T10:13:07.003Z</time>
</trkpt>
<trkpt lat="43.2431800" lon="-2.1718200">
<ele>291.084015</ele>
<time>2007-12-07T10:13:15.997Z</time>
</trkpt>
<trkpt lat="43.2432900" lon="-2.1717000">
<ele>287.731201</ele>
<time>2007-12-07T10:13:23.998Z</time>
</trkpt>
<trkpt lat="43.2433400" lon="-2.1716200">
<ele>287.121613</ele>
<time>2007-12-07T10:13:27.998Z</time>
</trkpt>
<trkpt lat="43.2433800" lon="-2.1712200">
<ele>284.683197</ele>
<time>2007-12-07T10:13:45.002Z</time>
</trkpt>
<trkpt lat="43.2433500" lon="-2.1708200">
<ele>284.683197</ele>
<time>2007-12-07T10:14:01.997Z</time>
</trkpt>
<trkpt lat="43.2433900" lon="-2.1705200">
<ele>282.854401</ele>
<time>2007-12-07T10:14:13.998Z</time>
</trkpt>
<trkpt lat="43.2434100" lon="-2.1702200">
<ele>280.720795</ele>
<time>2007-12-07T10:14:27.001Z</time>
</trkpt>
<trkpt lat="43.2435800" lon="-2.1701200">
<ele>277.368011</ele>
<time>2007-12-07T10:14:38.000Z</time>
</trkpt>
<trkpt lat="43.2436500" lon="-2.1700400">
<ele>277.063202</ele>
<time>2007-12-07T10:14:43.996Z</time>
</trkpt>
<trkpt lat="43.2437200" lon="-2.1697400">
<ele>274.015198</ele>
<time>2007-12-07T10:14:58.001Z</time>
</trkpt>
<trkpt lat="43.2438700" lon="-2.1693900">
<ele>274.015198</ele>
<time>2007-12-07T10:15:15.998Z</time>
</trkpt>
<trkpt lat="43.2439000" lon="-2.1692200">
<ele>274.624786</ele>
<time>2007-12-07T10:15:23.999Z</time>
</trkpt>
<trkpt lat="43.2439200" lon="-2.1688800">
<ele>275.539215</ele>
<time>2007-12-07T10:15:40.000Z</time>
</trkpt>
<trkpt lat="43.2440000" lon="-2.1686100">
<ele>278.891998</ele>
<time>2007-12-07T10:15:54.999Z</time>
</trkpt>
<trkpt lat="43.2440500" lon="-2.1683400">
<ele>282.244812</ele>
<time>2007-12-07T10:16:08.996Z</time>
</trkpt>
<trkpt lat="43.2440500" lon="-2.1682800">
<ele>283.159210</ele>
<time>2007-12-07T10:16:12.003Z</time>
</trkpt>
<trkpt lat="43.2440300" lon="-2.1682100">
<ele>281.330414</ele>
<time>2007-12-07T10:16:16.003Z</time>
</trkpt>
<trkpt lat="43.2441000" lon="-2.1680300">
<ele>278.891998</ele>
<time>2007-12-07T10:16:26.000Z</time>
</trkpt>
<trkpt lat="43.2442600" lon="-2.1678800">
<ele>275.539215</ele>
<time>2007-12-07T10:16:35.996Z</time>
</trkpt>
<trkpt lat="43.2444000" lon="-2.1677100">
<ele>274.624786</ele>
<time>2007-12-07T10:16:47.004Z</time>
</trkpt>
<trkpt lat="43.2445200" lon="-2.1675700">
<ele>272.795990</ele>
<time>2007-12-07T10:16:58.002Z</time>
</trkpt>
<trkpt lat="43.2445400" lon="-2.1675600">
<ele>272.795990</ele>
<time>2007-12-07T10:16:58.996Z</time>
</trkpt>
<trkpt lat="43.2446400" lon="-2.1675700">
<ele>271.272003</ele>
<time>2007-12-07T10:17:06.003Z</time>
</trkpt>
<trkpt lat="43.2449000" lon="-2.1675200">
<ele>272.186401</ele>
<time>2007-12-07T10:17:21.002Z</time>
</trkpt>
<trkpt lat="43.2450300" lon="-2.1673800">
<ele>273.100800</ele>
<time>2007-12-07T10:17:32.001Z</time>
</trkpt>
<trkpt lat="43.2451300" lon="-2.1672700">
<ele>273.710388</ele>
<time>2007-12-07T10:17:40.001Z</time>
</trkpt>
<trkpt lat="43.2452800" lon="-2.1671200">
<ele>275.539215</ele>
<time>2007-12-07T10:17:52.996Z</time>
</trkpt>
<trkpt lat="43.2454900" lon="-2.1669500">
<ele>275.539215</ele>
<time>2007-12-07T10:18:08.004Z</time>
</trkpt>
<trkpt lat="43.2457000" lon="-2.1667800">
<ele>274.624786</ele>
<time>2007-12-07T10:18:23.003Z</time>
</trkpt>
<trkpt lat="43.2458400" lon="-2.1665700">
<ele>271.576813</ele>
<time>2007-12-07T10:18:35.004Z</time>
</trkpt>
<trkpt lat="43.2459400" lon="-2.1664300">
<ele>270.357605</ele>
<time>2007-12-07T10:18:43.998Z</time>
</trkpt>
<trkpt lat="43.2459600" lon="-2.1663400">
<ele>270.662415</ele>
<time>2007-12-07T10:18:58.003Z</time>
</trkpt>
<trkpt lat="43.2459600" lon="-2.1662900">
<ele>270.357605</ele>
<time>2007-12-07T10:19:09.002Z</time>
</trkpt>
<trkpt lat="43.2461200" lon="-2.1660700">
<ele>266.395203</ele>
<time>2007-12-07T10:19:21.996Z</time>
</trkpt>
<trkpt lat="43.2463100" lon="-2.1658700">
<ele>264.871185</ele>
<time>2007-12-07T10:19:36.002Z</time>
</trkpt>
<trkpt lat="43.2464800" lon="-2.1656100">
<ele>264.566406</ele>
<time>2007-12-07T10:19:52.003Z</time>
</trkpt>
<trkpt lat="43.2466500" lon="-2.1654300">
<ele>263.652008</ele>
<time>2007-12-07T10:20:04.998Z</time>
</trkpt>
<trkpt lat="43.2469000" lon="-2.1651700">
<ele>262.127991</ele>
<time>2007-12-07T10:20:23.004Z</time>
</trkpt>
<trkpt lat="43.2470500" lon="-2.1649700">
<ele>262.737610</ele>
<time>2007-12-07T10:20:37.000Z</time>
</trkpt>
<trkpt lat="43.2472100" lon="-2.1648200">
<ele>261.518402</ele>
<time>2007-12-07T10:20:47.999Z</time>
</trkpt>
<trkpt lat="43.2473900" lon="-2.1646500">
<ele>259.079987</ele>
<time>2007-12-07T10:21:01.996Z</time>
</trkpt>
<trkpt lat="43.2475800" lon="-2.1644200">
<ele>257.860809</ele>
<time>2007-12-07T10:21:17.004Z</time>
</trkpt>
<trkpt lat="43.2476900" lon="-2.1641700">
<ele>256.336792</ele>
<time>2007-12-07T10:21:29.998Z</time>
</trkpt>
<trkpt lat="43.2477600" lon="-2.1640200">
<ele>254.812805</ele>
<time>2007-12-07T10:21:37.999Z</time>
</trkpt>
<trkpt lat="43.2477900" lon="-2.1638500">
<ele>253.593597</ele>
<time>2007-12-07T10:21:45.999Z</time>
</trkpt>
<trkpt lat="43.2478400" lon="-2.1636600">
<ele>250.545593</ele>
<time>2007-12-07T10:21:55.996Z</time>
</trkpt>
<trkpt lat="43.2478800" lon="-2.1635500">
<ele>249.631195</ele>
<time>2007-12-07T10:22:02.001Z</time>
</trkpt>
<trkpt lat="43.2479200" lon="-2.1634700">
<ele>250.240799</ele>
<time>2007-12-07T10:22:07.003Z</time>
</trkpt>
<trkpt lat="43.2479500" lon="-2.1633900">
<ele>250.545593</ele>
<time>2007-12-07T10:22:11.997Z</time>
</trkpt>
<trkpt lat="43.2480200" lon="-2.1633300">
<ele>253.898407</ele>
<time>2007-12-07T10:22:22.002Z</time>
</trkpt>
<trkpt lat="43.2480200" lon="-2.1633300">
<ele>251.460007</ele>
<time>2007-12-07T10:22:22.996Z</time>
</trkpt>
<trkpt lat="43.2481500" lon="-2.1632100">
<ele>254.812805</ele>
<time>2007-12-07T10:22:34.997Z</time>
</trkpt>
<trkpt lat="43.2481600" lon="-2.1631800">
<ele>255.727203</ele>
<time>2007-12-07T10:22:37.001Z</time>
</trkpt>
<trkpt lat="43.2482900" lon="-2.1628200">
<ele>257.860809</ele>
<time>2007-12-07T10:22:56.001Z</time>
</trkpt>
<trkpt lat="43.2484600" lon="-2.1626000">
<ele>258.165588</ele>
<time>2007-12-07T10:23:09.997Z</time>
</trkpt>
<trkpt lat="43.2487000" lon="-2.1624200">
<ele>258.775208</ele>
<time>2007-12-07T10:23:28.003Z</time>
</trkpt>
<trkpt lat="43.2489500" lon="-2.1623800">
<ele>257.251190</ele>
<time>2007-12-07T10:23:43.996Z</time>
</trkpt>
<trkpt lat="43.2491200" lon="-2.1624000">
<ele>257.251190</ele>
<time>2007-12-07T10:23:55.003Z</time>
</trkpt>
<trkpt lat="43.2493900" lon="-2.1623600">
<ele>257.251190</ele>
<time>2007-12-07T10:24:10.996Z</time>
</trkpt>
<trkpt lat="43.2496900" lon="-2.1623200">
<ele>256.336792</ele>
<time>2007-12-07T10:24:29.002Z</time>
</trkpt>
<trkpt lat="43.2499400" lon="-2.1621700">
<ele>257.251190</ele>
<time>2007-12-07T10:24:46.999Z</time>
</trkpt>
<trkpt lat="43.2502100" lon="-2.1621100">
<ele>255.727203</ele>
<time>2007-12-07T10:25:01.998Z</time>
</trkpt>
<trkpt lat="43.2504700" lon="-2.1620900">
<ele>256.336792</ele>
<time>2007-12-07T10:25:16.997Z</time>
</trkpt>
<trkpt lat="43.2507200" lon="-2.1621200">
<ele>257.251190</ele>
<time>2007-12-07T10:25:31.002Z</time>
</trkpt>
<trkpt lat="43.2509000" lon="-2.1621800">
<ele>256.946411</ele>
<time>2007-12-07T10:25:43.997Z</time>
</trkpt>
<trkpt lat="43.2510700" lon="-2.1621400">
<ele>258.775208</ele>
<time>2007-12-07T10:25:55.998Z</time>
</trkpt>
<trkpt lat="43.2513000" lon="-2.1620700">
<ele>259.689606</ele>
<time>2007-12-07T10:26:11.999Z</time>
</trkpt>
<trkpt lat="43.2513500" lon="-2.1620100">
<ele>257.860809</ele>
<time>2007-12-07T10:26:20.000Z</time>
</trkpt>
<trkpt lat="43.2513500" lon="-2.1619500">
<ele>253.898407</ele>
<time>2007-12-07T10:26:25.996Z</time>
</trkpt>
<trkpt lat="43.2513500" lon="-2.1619500">
<ele>257.860809</ele>
<time>2007-12-07T10:26:26.998Z</time>
</trkpt>
<trkpt lat="43.2513200" lon="-2.1619300">
<ele>254.812805</ele>
<time>2007-12-07T10:27:04.003Z</time>
</trkpt>
<trkpt lat="43.2513200" lon="-2.1618800">
<ele>254.507996</ele>
<time>2007-12-07T10:27:27.996Z</time>
</trkpt>
<trkpt lat="43.2513500" lon="-2.1618400">
<ele>252.983994</ele>
<time>2007-12-07T10:27:31.997Z</time>
</trkpt>
<trkpt lat="43.2514000" lon="-2.1618000">
<ele>251.155197</ele>
<time>2007-12-07T10:27:35.997Z</time>
</trkpt>
<trkpt lat="43.2514300" lon="-2.1617700">
<ele>250.545593</ele>
<time>2007-12-07T10:27:38.002Z</time>
</trkpt>
<trkpt lat="43.2515400" lon="-2.1616800">
<ele>247.192795</ele>
<time>2007-12-07T10:27:46.996Z</time>
</trkpt>
<trkpt lat="43.2516200" lon="-2.1615700">
<ele>243.839996</ele>
<time>2007-12-07T10:27:54.996Z</time>
</trkpt>
<trkpt lat="43.2516300" lon="-2.1615600">
<ele>244.449600</ele>
<time>2007-12-07T10:27:55.999Z</time>
</trkpt>
<trkpt lat="43.2516200" lon="-2.1615300">
<ele>243.839996</ele>
<time>2007-12-07T10:27:58.003Z</time>
</trkpt>
<trkpt lat="43.2515900" lon="-2.1614700">
<ele>242.315994</ele>
<time>2007-12-07T10:28:02.004Z</time>
</trkpt>
<trkpt lat="43.2515300" lon="-2.1614300">
<ele>241.096802</ele>
<time>2007-12-07T10:28:06.004Z</time>
</trkpt>
<trkpt lat="43.2514200" lon="-2.1612800">
<ele>237.744003</ele>
<time>2007-12-07T10:28:14.998Z</time>
</trkpt>
<trkpt lat="43.2512900" lon="-2.1611200">
<ele>234.086395</ele>
<time>2007-12-07T10:28:25.003Z</time>
</trkpt>
<trkpt lat="43.2511800" lon="-2.1609800">
<ele>230.733597</ele>
<time>2007-12-07T10:28:33.997Z</time>
</trkpt>
<trkpt lat="43.2511100" lon="-2.1608300">
<ele>227.380798</ele>
<time>2007-12-07T10:28:41.998Z</time>
</trkpt>
<trkpt lat="43.2510300" lon="-2.1607200">
<ele>225.247192</ele>
<time>2007-12-07T10:28:52.997Z</time>
</trkpt>
<trkpt lat="43.2510900" lon="-2.1607200">
<ele>223.723206</ele>
<time>2007-12-07T10:28:56.997Z</time>
</trkpt>
<trkpt lat="43.2512500" lon="-2.1606200">
<ele>220.675201</ele>
<time>2007-12-07T10:29:08.998Z</time>
</trkpt>
<trkpt lat="43.2512500" lon="-2.1606100">
<ele>219.760803</ele>
<time>2007-12-07T10:29:10.000Z</time>
</trkpt>
<trkpt lat="43.2512300" lon="-2.1605800">
<ele>217.932007</ele>
<time>2007-12-07T10:29:11.996Z</time>
</trkpt>
<trkpt lat="43.2511700" lon="-2.1605200">
<ele>216.408005</ele>
<time>2007-12-07T10:29:15.996Z</time>
</trkpt>
<trkpt lat="43.2510300" lon="-2.1604100">
<ele>213.055206</ele>
<time>2007-12-07T10:29:26.002Z</time>
</trkpt>
<trkpt lat="43.2510200" lon="-2.1604000">
<ele>212.750397</ele>
<time>2007-12-07T10:29:27.004Z</time>
</trkpt>
<trkpt lat="43.2509600" lon="-2.1603500">
<ele>210.616806</ele>
<time>2007-12-07T10:29:31.998Z</time>
</trkpt>
<trkpt lat="43.2508300" lon="-2.1602400">
<ele>206.959198</ele>
<time>2007-12-07T10:29:41.001Z</time>
</trkpt>
<trkpt lat="43.2507100" lon="-2.1601200">
<ele>203.911194</ele>
<time>2007-12-07T10:29:50.004Z</time>
</trkpt>
<trkpt lat="43.2506400" lon="-2.1600800">
<ele>202.082397</ele>
<time>2007-12-07T10:29:54.004Z</time>
</trkpt>
<trkpt lat="43.2504700" lon="-2.1599700">
<ele>199.034393</ele>
<time>2007-12-07T10:30:05.003Z</time>
</trkpt>
<trkpt lat="43.2504100" lon="-2.1599500">
<ele>200.253601</ele>
<time>2007-12-07T10:30:09.003Z</time>
</trkpt>
<trkpt lat="43.2501900" lon="-2.1597700">
<ele>198.729599</ele>
<time>2007-12-07T10:30:25.004Z</time>
</trkpt>
<trkpt lat="43.2501700" lon="-2.1597200">
<ele>196.595993</ele>
<time>2007-12-07T10:30:28.002Z</time>
</trkpt>
<trkpt lat="43.2501200" lon="-2.1594400">
<ele>193.243195</ele>
<time>2007-12-07T10:30:40.003Z</time>
</trkpt>
<trkpt lat="43.2501100" lon="-2.1593200">
<ele>191.109604</ele>
<time>2007-12-07T10:30:45.999Z</time>
</trkpt>
<trkpt lat="43.2500900" lon="-2.1592300">
<ele>189.585602</ele>
<time>2007-12-07T10:30:50.000Z</time>
</trkpt>
<trkpt lat="43.2499000" lon="-2.1589600">
<ele>187.756805</ele>
<time>2007-12-07T10:31:07.003Z</time>
</trkpt>
<trkpt lat="43.2496800" lon="-2.1588500">
<ele>184.708801</ele>
<time>2007-12-07T10:31:21.000Z</time>
</trkpt>
<trkpt lat="43.2496800" lon="-2.1588400">
<ele>184.099197</ele>
<time>2007-12-07T10:31:25.000Z</time>
</trkpt>
<trkpt lat="43.2497000" lon="-2.1588300">
<ele>185.318405</ele>
<time>2007-12-07T10:31:27.998Z</time>
</trkpt>
<trkpt lat="43.2496200" lon="-2.1588800">
<ele>183.794403</ele>
<time>2007-12-07T10:31:34.003Z</time>
</trkpt>
<trkpt lat="43.2494000" lon="-2.1591000">
<ele>181.356003</ele>
<time>2007-12-07T10:31:48.000Z</time>
</trkpt>
<trkpt lat="43.2491300" lon="-2.1593400">
<ele>179.832001</ele>
<time>2007-12-07T10:32:05.004Z</time>
</trkpt>
<trkpt lat="43.2490200" lon="-2.1591200">
<ele>180.746399</ele>
<time>2007-12-07T10:32:17.998Z</time>
</trkpt>
<trkpt lat="43.2490300" lon="-2.1586300">
<ele>180.746399</ele>
<time>2007-12-07T10:32:40.004Z</time>
</trkpt>
<trkpt lat="43.2490000" lon="-2.1582900">
<ele>178.612793</ele>
<time>2007-12-07T10:32:54.001Z</time>
</trkpt>
<trkpt lat="43.2490200" lon="-2.1582600">
<ele>177.393600</ele>
<time>2007-12-07T10:33:00.999Z</time>
</trkpt>
<trkpt lat="43.2490000" lon="-2.1582400">
<ele>178.003204</ele>
<time>2007-12-07T10:33:03.004Z</time>
</trkpt>
<trkpt lat="43.2489800" lon="-2.1581700">
<ele>178.003204</ele>
<time>2007-12-07T10:33:18.003Z</time>
</trkpt>
<trkpt lat="43.2489600" lon="-2.1578000">
<ele>176.174393</ele>
<time>2007-12-07T10:33:34.998Z</time>
</trkpt>
<trkpt lat="43.2489300" lon="-2.1575200">
<ele>177.393600</ele>
<time>2007-12-07T10:33:53.004Z</time>
</trkpt>
<trkpt lat="43.2489300" lon="-2.1575200">
<ele>176.174393</ele>
<time>2007-12-07T10:33:54.999Z</time>
</trkpt>
<trkpt lat="43.2488800" lon="-2.1573000">
<ele>177.088806</ele>
<time>2007-12-07T10:34:13.999Z</time>
</trkpt>
<trkpt lat="43.2487500" lon="-2.1568700">
<ele>177.088806</ele>
<time>2007-12-07T10:34:35.003Z</time>
</trkpt>
<trkpt lat="43.2487800" lon="-2.1565300">
<ele>176.174393</ele>
<time>2007-12-07T10:34:51.004Z</time>
</trkpt>
<trkpt lat="43.2490900" lon="-2.1561400">
<ele>178.917603</ele>
<time>2007-12-07T10:35:17.002Z</time>
</trkpt>
<trkpt lat="43.2491400" lon="-2.1560400">
<ele>178.917603</ele>
<time>2007-12-07T10:35:25.996Z</time>
</trkpt>
<trkpt lat="43.2489400" lon="-2.1557380">
<ele>178.917603</ele>
<time>2007-12-07T10:35:45.004Z</time>
</trkpt>
<trkpt lat="43.2489500" lon="-2.1554880">
<ele>177.393600</ele>
<time>2007-12-07T10:35:56.003Z</time>
</trkpt>
<trkpt lat="43.2489500" lon="-2.1554380">
<ele>177.088806</ele>
<time>2007-12-07T10:36:07.001Z</time>
</trkpt>
<trkpt lat="43.2488600" lon="-2.1553100">
<ele>173.735992</ele>
<time>2007-12-07T10:36:16.004Z</time>
</trkpt>
<trkpt lat="43.2488500" lon="-2.1553000">
<ele>173.126404</ele>
<time>2007-12-07T10:36:16.998Z</time>
</trkpt>
<trkpt lat="43.2487100" lon="-2.1552000">
<ele>169.773605</ele>
<time>2007-12-07T10:36:27.003Z</time>
</trkpt>
<trkpt lat="43.2485100" lon="-2.1551300">
<ele>167.030396</ele>
<time>2007-12-07T10:36:39.004Z</time>
</trkpt>
<trkpt lat="43.2484900" lon="-2.1551300">
<ele>167.335205</ele>
<time>2007-12-07T10:36:41.000Z</time>
</trkpt>
<trkpt lat="43.2484500" lon="-2.1551700">
<ele>166.115997</ele>
<time>2007-12-07T10:36:45.000Z</time>
</trkpt>
<trkpt lat="43.2484300" lon="-2.1551800">
<ele>166.115997</ele>
<time>2007-12-07T10:36:46.002Z</time>
</trkpt>
<trkpt lat="43.2482800" lon="-2.1552300">
<ele>162.153595</ele>
<time>2007-12-07T10:36:55.999Z</time>
</trkpt>
<trkpt lat="43.2482200" lon="-2.1552000">
<ele>160.629593</ele>
<time>2007-12-07T10:36:59.999Z</time>
</trkpt>
<trkpt lat="43.2481500" lon="-2.1551300">
<ele>158.191193</ele>
<time>2007-12-07T10:37:06.004Z</time>
</trkpt>
<trkpt lat="43.2480800" lon="-2.1550400">
<ele>155.447998</ele>
<time>2007-12-07T10:37:12.000Z</time>
</trkpt>
<trkpt lat="43.2480500" lon="-2.1548200">
<ele>152.399994</ele>
<time>2007-12-07T10:37:21.996Z</time>
</trkpt>
<trkpt lat="43.2480200" lon="-2.1547400">
<ele>151.485596</ele>
<time>2007-12-07T10:37:26.999Z</time>
</trkpt>
<trkpt lat="43.2478500" lon="-2.1548800">
<ele>147.828003</ele>
<time>2007-12-07T10:37:40.002Z</time>
</trkpt>
<trkpt lat="43.2478000" lon="-2.1549700">
<ele>146.304001</ele>
<time>2007-12-07T10:37:44.996Z</time>
</trkpt>
<trkpt lat="43.2477700" lon="-2.1549400">
<ele>143.865601</ele>
<time>2007-12-07T10:37:48.996Z</time>
</trkpt>
<trkpt lat="43.2477600" lon="-2.1548700">
<ele>143.865601</ele>
<time>2007-12-07T10:37:52.003Z</time>
</trkpt>
<trkpt lat="43.2477800" lon="-2.1546100">
<ele>140.512802</ele>
<time>2007-12-07T10:38:04.004Z</time>
</trkpt>
<trkpt lat="43.2478000" lon="-2.1545700">
<ele>140.512802</ele>
<time>2007-12-07T10:38:07.996Z</time>
</trkpt>
<trkpt lat="43.2477600" lon="-2.1545500">
<ele>139.598404</ele>
<time>2007-12-07T10:38:22.001Z</time>
</trkpt>
<trkpt lat="43.2477400" lon="-2.1545500">
<ele>138.684006</ele>
<time>2007-12-07T10:38:23.997Z</time>
</trkpt>
<trkpt lat="43.2477100" lon="-2.1545800">
<ele>138.074402</ele>
<time>2007-12-07T10:38:26.002Z</time>
</trkpt>
<trkpt lat="43.2476200" lon="-2.1545800">
<ele>137.769608</ele>
<time>2007-12-07T10:38:38.003Z</time>
</trkpt>
<trkpt lat="43.2476300" lon="-2.1545800">
<ele>137.769608</ele>
<time>2007-12-07T10:38:47.999Z</time>
</trkpt>
<trkpt lat="43.2476400" lon="-2.1546100">
<ele>136.245605</ele>
<time>2007-12-07T10:38:50.004Z</time>
</trkpt>
<trkpt lat="43.2475400" lon="-2.1548700">
<ele>133.197601</ele>
<time>2007-12-07T10:39:01.996Z</time>
</trkpt>
<trkpt lat="43.2475300" lon="-2.1548900">
<ele>132.892807</ele>
<time>2007-12-07T10:39:02.998Z</time>
</trkpt>
<trkpt lat="43.2475100" lon="-2.1550800">
<ele>129.844803</ele>
<time>2007-12-07T10:39:12.001Z</time>
</trkpt>
<trkpt lat="43.2474900" lon="-2.1552200">
<ele>126.491997</ele>
<time>2007-12-07T10:39:18.999Z</time>
</trkpt>
<trkpt lat="43.2474100" lon="-2.1553500">
<ele>123.748802</ele>
<time>2007-12-07T10:39:25.998Z</time>
</trkpt>
<trkpt lat="43.2473800" lon="-2.1553800">
<ele>123.139198</ele>
<time>2007-12-07T10:39:28.002Z</time>
</trkpt>
<trkpt lat="43.2473500" lon="-2.1554100">
<ele>122.834396</ele>
<time>2007-12-07T10:39:29.998Z</time>
</trkpt>
<trkpt lat="43.2472600" lon="-2.1555300">
<ele>120.700798</ele>
<time>2007-12-07T10:39:36.996Z</time>
</trkpt>
<trkpt lat="43.2470400" lon="-2.1556500">
<ele>117.957603</ele>
<time>2007-12-07T10:39:50.000Z</time>
</trkpt>
<trkpt lat="43.2468800" lon="-2.1558000">
<ele>114.909599</ele>
<time>2007-12-07T10:40:00.998Z</time>
</trkpt>
<trkpt lat="43.2468300" lon="-2.1558700">
<ele>113.995201</ele>
<time>2007-12-07T10:40:04.999Z</time>
</trkpt>
<trkpt lat="43.2467800" lon="-2.1559600">
<ele>112.166397</ele>
<time>2007-12-07T10:40:10.001Z</time>
</trkpt>
<trkpt lat="43.2466600" lon="-2.1560500">
<ele>108.813599</ele>
<time>2007-12-07T10:40:18.002Z</time>
</trkpt>
<trkpt lat="43.2466500" lon="-2.1559500">
<ele>107.289597</ele>
<time>2007-12-07T10:40:22.996Z</time>
</trkpt>
<trkpt lat="43.2467000" lon="-2.1557500">
<ele>105.460800</ele>
<time>2007-12-07T10:40:34.003Z</time>
</trkpt>
<trkpt lat="43.2466800" lon="-2.1557700">
<ele>105.765602</ele>
<time>2007-12-07T10:40:37.001Z</time>
</trkpt>
<trkpt lat="43.2467700" lon="-2.1554000">
<ele>103.632004</ele>
<time>2007-12-07T10:40:53.996Z</time>
</trkpt>
<trkpt lat="43.2467600" lon="-2.1551700">
<ele>100.279198</ele>
<time>2007-12-07T10:41:04.001Z</time>
</trkpt>
<trkpt lat="43.2468100" lon="-2.1548700">
<ele>97.231201</ele>
<time>2007-12-07T10:41:16.996Z</time>
</trkpt>
<trkpt lat="43.2469000" lon="-2.1545200">
<ele>95.402397</ele>
<time>2007-12-07T10:41:32.004Z</time>
</trkpt>
<trkpt lat="43.2469700" lon="-2.1542300">
<ele>92.963997</ele>
<time>2007-12-07T10:41:44.998Z</time>
</trkpt>
<trkpt lat="43.2470400" lon="-2.1539800">
<ele>90.525597</ele>
<time>2007-12-07T10:41:58.001Z</time>
</trkpt>
<trkpt lat="43.2470600" lon="-2.1538200">
<ele>89.611198</ele>
<time>2007-12-07T10:42:09.000Z</time>
</trkpt>
<trkpt lat="43.2471000" lon="-2.1534900">
<ele>89.611198</ele>
<time>2007-12-07T10:42:22.997Z</time>
</trkpt>
<trkpt lat="43.2469500" lon="-2.1532300">
<ele>89.611198</ele>
<time>2007-12-07T10:42:37.996Z</time>
</trkpt>
<trkpt lat="43.2469100" lon="-2.1532700">
<ele>89.611198</ele>
<time>2007-12-07T10:42:41.996Z</time>
</trkpt>
<trkpt lat="43.2468100" lon="-2.1533500">
<ele>89.611198</ele>
<time>2007-12-07T10:43:00.002Z</time>
</trkpt>
<trkpt lat="43.2469360" lon="-2.1532310">
<ele>89.916000</ele>
<time>2007-12-07T10:43:43.997Z</time>
</trkpt>
<trkpt lat="43.2470700" lon="-2.1533800">
<ele>89.916000</ele>
<time>2007-12-07T10:43:58.002Z</time>
</trkpt>
<trkpt lat="43.2471200" lon="-2.1537300">
<ele>89.916000</ele>
<time>2007-12-07T10:44:14.004Z</time>
</trkpt>
<trkpt lat="43.2471000" lon="-2.1537300">
<ele>88.696800</ele>
<time>2007-12-07T10:44:25.996Z</time>
</trkpt>
<trkpt lat="43.2472200" lon="-2.1537300">
<ele>89.611198</ele>
<time>2007-12-07T10:44:33.996Z</time>
</trkpt>
<trkpt lat="43.2473200" lon="-2.1534400">
<ele>88.087196</ele>
<time>2007-12-07T10:44:49.004Z</time>
</trkpt>
<trkpt lat="43.2475000" lon="-2.1532900">
<ele>88.087196</ele>
<time>2007-12-07T10:45:03.001Z</time>
</trkpt>
<trkpt lat="43.2476900" lon="-2.1531500">
<ele>89.611198</ele>
<time>2007-12-07T10:45:16.998Z</time>
</trkpt>
<trkpt lat="43.2478620" lon="-2.1530400">
<ele>92.963997</ele>
<time>2007-12-07T10:45:30.001Z</time>
</trkpt>
<trkpt lat="43.2479900" lon="-2.1529400">
<ele>94.792801</ele>
<time>2007-12-07T10:45:41.000Z</time>
</trkpt>
<trkpt lat="43.2481700" lon="-2.1530200">
<ele>96.316803</ele>
<time>2007-12-07T10:45:55.999Z</time>
</trkpt>
<trkpt lat="43.2481900" lon="-2.1530200">
<ele>96.316803</ele>
<time>2007-12-07T10:45:58.003Z</time>
</trkpt>
<trkpt lat="43.2482400" lon="-2.1530000">
<ele>96.316803</ele>
<time>2007-12-07T10:46:01.001Z</time>
</trkpt>
<trkpt lat="43.2482900" lon="-2.1529400">
<ele>97.840797</ele>
<time>2007-12-07T10:46:06.004Z</time>
</trkpt>
<trkpt lat="43.2483800" lon="-2.1527300">
<ele>100.279198</ele>
<time>2007-12-07T10:46:18.998Z</time>
</trkpt>
<trkpt lat="43.2484000" lon="-2.1526800">
<ele>101.193604</ele>
<time>2007-12-07T10:46:22.999Z</time>
</trkpt>
<trkpt lat="43.2484700" lon="-2.1525000">
<ele>104.546402</ele>
<time>2007-12-07T10:46:35.000Z</time>
</trkpt>
<trkpt lat="43.2486700" lon="-2.1523600">
<ele>106.984802</ele>
<time>2007-12-07T10:46:52.003Z</time>
</trkpt>
<trkpt lat="43.2486800" lon="-2.1523500">
<ele>106.984802</ele>
<time>2007-12-07T10:46:52.997Z</time>
</trkpt>
<trkpt lat="43.2487500" lon="-2.1522400">
<ele>106.984802</ele>
<time>2007-12-07T10:47:00.004Z</time>
</trkpt>
<trkpt lat="43.2489000" lon="-2.1519300">
<ele>109.727997</ele>
<time>2007-12-07T10:47:19.003Z</time>
</trkpt>
<trkpt lat="43.2491300" lon="-2.1517100">
<ele>110.642403</ele>
<time>2007-12-07T10:47:38.003Z</time>
</trkpt>
<trkpt lat="43.2494200" lon="-2.1516100">
<ele>108.204002</ele>
<time>2007-12-07T10:47:57.002Z</time>
</trkpt>
<trkpt lat="43.2494600" lon="-2.1515300">
<ele>108.204002</ele>
<time>2007-12-07T10:48:01.996Z</time>
</trkpt>
<trkpt lat="43.2494600" lon="-2.1514900">
<ele>107.899200</ele>
<time>2007-12-07T10:48:04.000Z</time>
</trkpt>
<trkpt lat="43.2495100" lon="-2.1511700">
<ele>106.375198</ele>
<time>2007-12-07T10:48:18.999Z</time>
</trkpt>
<trkpt lat="43.2495500" lon="-2.1510700">
<ele>105.765602</ele>
<time>2007-12-07T10:48:24.002Z</time>
</trkpt>
<trkpt lat="43.2496200" lon="-2.1509900">
<ele>105.460800</ele>
<time>2007-12-07T10:48:28.996Z</time>
</trkpt>
<trkpt lat="43.2498000" lon="-2.1507000">
<ele>104.851196</ele>
<time>2007-12-07T10:48:45.999Z</time>
</trkpt>
<trkpt lat="43.2498700" lon="-2.1504100">
<ele>106.375198</ele>
<time>2007-12-07T10:49:00.998Z</time>
</trkpt>
<trkpt lat="43.2500200" lon="-2.1501800">
<ele>106.375198</ele>
<time>2007-12-07T10:49:15.997Z</time>
</trkpt>
<trkpt lat="43.2502000" lon="-2.1499000">
<ele>105.765602</ele>
<time>2007-12-07T10:49:33.001Z</time>
</trkpt>
<trkpt lat="43.2504000" lon="-2.1496100">
<ele>105.460800</ele>
<time>2007-12-07T10:49:52.000Z</time>
</trkpt>
<trkpt lat="43.2504300" lon="-2.1495600">
<ele>105.460800</ele>
<time>2007-12-07T10:49:54.998Z</time>
</trkpt>
<trkpt lat="43.2505100" lon="-2.1495000">
<ele>104.851196</ele>
<time>2007-12-07T10:50:01.003Z</time>
</trkpt>
<trkpt lat="43.2507200" lon="-2.1493500">
<ele>104.546402</ele>
<time>2007-12-07T10:50:16.002Z</time>
</trkpt>
<trkpt lat="43.2508000" lon="-2.1493400">
<ele>104.546402</ele>
<time>2007-12-07T10:50:20.996Z</time>
</trkpt>
<trkpt lat="43.2509900" lon="-2.1493100">
<ele>103.936798</ele>
<time>2007-12-07T10:50:32.997Z</time>
</trkpt>
<trkpt lat="43.2510500" lon="-2.1492700">
<ele>103.632004</ele>
<time>2007-12-07T10:50:36.997Z</time>
</trkpt>
<trkpt lat="43.2513600" lon="-2.1491800">
<ele>102.412804</ele>
<time>2007-12-07T10:50:58.001Z</time>
</trkpt>
<trkpt lat="43.2516100" lon="-2.1493100">
<ele>99.669601</ele>
<time>2007-12-07T10:51:14.003Z</time>
</trkpt>
<trkpt lat="43.2516400" lon="-2.1495400">
<ele>97.231201</ele>
<time>2007-12-07T10:51:25.001Z</time>
</trkpt>
<trkpt lat="43.2517100" lon="-2.1496500">
<ele>95.707199</ele>
<time>2007-12-07T10:51:30.997Z</time>
</trkpt>
<trkpt lat="43.2518800" lon="-2.1495200">
<ele>94.487999</ele>
<time>2007-12-07T10:51:42.998Z</time>
</trkpt>
<trkpt lat="43.2519600" lon="-2.1494700">
<ele>92.963997</ele>
<time>2007-12-07T10:51:48.001Z</time>
</trkpt>
<trkpt lat="43.2521700" lon="-2.1493600">
<ele>89.611198</ele>
<time>2007-12-07T10:52:01.004Z</time>
</trkpt>
<trkpt lat="43.2524000" lon="-2.1492000">
<ele>87.172798</ele>
<time>2007-12-07T10:52:16.003Z</time>
</trkpt>
<trkpt lat="43.2525100" lon="-2.1491200">
<ele>86.563202</ele>
<time>2007-12-07T10:52:24.004Z</time>
</trkpt>
<trkpt lat="43.2527100" lon="-2.1490300">
<ele>83.210403</ele>
<time>2007-12-07T10:52:35.996Z</time>
</trkpt>
<trkpt lat="43.2529400" lon="-2.1489600">
<ele>79.857597</ele>
<time>2007-12-07T10:52:47.997Z</time>
</trkpt>
<trkpt lat="43.2530200" lon="-2.1489500">
<ele>78.638397</ele>
<time>2007-12-07T10:52:51.997Z</time>
</trkpt>
<trkpt lat="43.2532400" lon="-2.1489500">
<ele>75.285599</ele>
<time>2007-12-07T10:53:05.001Z</time>
</trkpt>
<trkpt lat="43.2533100" lon="-2.1491400">
<ele>73.761597</ele>
<time>2007-12-07T10:53:14.997Z</time>
</trkpt>
<trkpt lat="43.2533500" lon="-2.1493200">
<ele>71.323196</ele>
<time>2007-12-07T10:53:22.004Z</time>
</trkpt>
<trkpt lat="43.2534800" lon="-2.1492300">
<ele>70.408798</ele>
<time>2007-12-07T10:53:32.001Z</time>
</trkpt>
<trkpt lat="43.2537400" lon="-2.1491180">
<ele>68.275200</ele>
<time>2007-12-07T10:53:47.000Z</time>
</trkpt>
<trkpt lat="43.2540000" lon="-2.1490980">
<ele>67.056000</ele>
<time>2007-12-07T10:54:01.999Z</time>
</trkpt>
<trkpt lat="43.2542100" lon="-2.1492380">
<ele>64.617599</ele>
<time>2007-12-07T10:54:15.002Z</time>
</trkpt>
<trkpt lat="43.2543200" lon="-2.1493100">
<ele>63.703201</ele>
<time>2007-12-07T10:54:22.000Z</time>
</trkpt>
<trkpt lat="43.2543800" lon="-2.1493400">
<ele>63.703201</ele>
<time>2007-12-07T10:54:27.003Z</time>
</trkpt>
<trkpt lat="43.2546300" lon="-2.1494400">
<ele>63.093601</ele>
<time>2007-12-07T10:54:42.002Z</time>
</trkpt>
<trkpt lat="43.2548100" lon="-2.1495000">
<ele>62.179199</ele>
<time>2007-12-07T10:54:54.996Z</time>
</trkpt>
<trkpt lat="43.2548700" lon="-2.1494700">
<ele>62.179199</ele>
<time>2007-12-07T10:54:58.997Z</time>
</trkpt>
<trkpt lat="43.2549500" lon="-2.1495200">
<ele>62.179199</ele>
<time>2007-12-07T10:55:03.999Z</time>
</trkpt>
<trkpt lat="43.2550000" lon="-2.1496200">
<ele>61.264801</ele>
<time>2007-12-07T10:55:09.002Z</time>
</trkpt>
<trkpt lat="43.2550500" lon="-2.1497100">
<ele>59.740799</ele>
<time>2007-12-07T10:55:13.996Z</time>
</trkpt>
<trkpt lat="43.2551700" lon="-2.1498300">
<ele>60.655201</ele>
<time>2007-12-07T10:55:22.999Z</time>
</trkpt>
<trkpt lat="43.2551900" lon="-2.1498600">
<ele>61.569599</ele>
<time>2007-12-07T10:55:25.003Z</time>
</trkpt>
<trkpt lat="43.2552300" lon="-2.1499200">
<ele>62.179199</ele>
<time>2007-12-07T10:55:28.001Z</time>
</trkpt>
<trkpt lat="43.2552500" lon="-2.1501600">
<ele>65.531998</ele>
<time>2007-12-07T10:55:40.002Z</time>
</trkpt>
<trkpt lat="43.2552400" lon="-2.1502600">
<ele>67.056000</ele>
<time>2007-12-07T10:55:44.996Z</time>
</trkpt>
<trkpt lat="43.2551400" lon="-2.1504200">
<ele>69.799202</ele>
<time>2007-12-07T10:55:57.999Z</time>
</trkpt>
<trkpt lat="43.2551800" lon="-2.1505400">
<ele>71.323196</ele>
<time>2007-12-07T10:56:07.996Z</time>
</trkpt>
<trkpt lat="43.2552800" lon="-2.1505300">
<ele>72.847198</ele>
<time>2007-12-07T10:56:15.996Z</time>
</trkpt>
<trkpt lat="43.2553700" lon="-2.1505500">
<ele>75.285599</ele>
<time>2007-12-07T10:56:23.997Z</time>
</trkpt>
<trkpt lat="43.2554700" lon="-2.1508500">
<ele>76.199997</ele>
<time>2007-12-07T10:56:39.998Z</time>
</trkpt>
<trkpt lat="43.2554800" lon="-2.1511300">
<ele>76.199997</ele>
<time>2007-12-07T10:56:54.997Z</time>
</trkpt>
<trkpt lat="43.2554600" lon="-2.1514700">
<ele>72.847198</ele>
<time>2007-12-07T10:57:12.001Z</time>
</trkpt>
<trkpt lat="43.2554900" lon="-2.1515100">
<ele>73.152000</ele>
<time>2007-12-07T10:57:14.999Z</time>
</trkpt>
<trkpt lat="43.2555900" lon="-2.1515800">
<ele>74.066399</ele>
<time>2007-12-07T10:57:21.004Z</time>
</trkpt>
<trkpt lat="43.2556700" lon="-2.1516400">
<ele>74.676003</ele>
<time>2007-12-07T10:57:25.004Z</time>
</trkpt>
<trkpt lat="43.2557300" lon="-2.1518000">
<ele>76.199997</ele>
<time>2007-12-07T10:57:33.998Z</time>
</trkpt>
<trkpt lat="43.2557500" lon="-2.1518400">
<ele>76.199997</ele>
<time>2007-12-07T10:57:36.003Z</time>
</trkpt>
<trkpt lat="43.2557800" lon="-2.1520300">
<ele>76.199997</ele>
<time>2007-12-07T10:57:44.004Z</time>
</trkpt>
<trkpt lat="43.2557700" lon="-2.1522400">
<ele>75.285599</ele>
<time>2007-12-07T10:57:54.000Z</time>
</trkpt>
<trkpt lat="43.2557200" lon="-2.1525500">
<ele>74.066399</ele>
<time>2007-12-07T10:58:07.997Z</time>
</trkpt>
<trkpt lat="43.2556900" lon="-2.1526100">
<ele>74.676003</ele>
<time>2007-12-07T10:58:11.997Z</time>
</trkpt>
<trkpt lat="43.2556100" lon="-2.1528200">
<ele>76.504799</ele>
<time>2007-12-07T10:58:23.998Z</time>
</trkpt>
<trkpt lat="43.2555400" lon="-2.1531100">
<ele>79.552803</ele>
<time>2007-12-07T10:58:39.999Z</time>
</trkpt>
<trkpt lat="43.2554200" lon="-2.1534300">
<ele>78.638397</ele>
<time>2007-12-07T10:58:57.003Z</time>
</trkpt>
<trkpt lat="43.2553100" lon="-2.1536500">
<ele>75.285599</ele>
<time>2007-12-07T10:59:08.002Z</time>
</trkpt>
<trkpt lat="43.2552600" lon="-2.1539400">
<ele>75.285599</ele>
<time>2007-12-07T10:59:21.998Z</time>
</trkpt>
<trkpt lat="43.2551900" lon="-2.1541300">
<ele>75.590401</ele>
<time>2007-12-07T10:59:32.004Z</time>
</trkpt>
<trkpt lat="43.2550800" lon="-2.1543400">
<ele>75.590401</ele>
<time>2007-12-07T10:59:43.996Z</time>
</trkpt>
<trkpt lat="43.2549600" lon="-2.1546000">
<ele>77.419197</ele>
<time>2007-12-07T10:59:59.004Z</time>
</trkpt>
<trkpt lat="43.2548500" lon="-2.1547700">
<ele>80.772003</ele>
<time>2007-12-07T11:00:10.996Z</time>
</trkpt>
<trkpt lat="43.2547300" lon="-2.1549700">
<ele>84.734398</ele>
<time>2007-12-07T11:00:25.001Z</time>
</trkpt>
<trkpt lat="43.2546900" lon="-2.1551000">
<ele>84.734398</ele>
<time>2007-12-07T11:00:32.000Z</time>
</trkpt>
<trkpt lat="43.2545900" lon="-2.1553400">
<ele>84.734398</ele>
<time>2007-12-07T11:00:45.996Z</time>
</trkpt>
<trkpt lat="43.2546000" lon="-2.1553800">
<ele>85.344002</ele>
<time>2007-12-07T11:00:49.003Z</time>
</trkpt>
<trkpt lat="43.2545900" lon="-2.1555700">
<ele>82.295998</ele>
<time>2007-12-07T11:00:59.000Z</time>
</trkpt>
<trkpt lat="43.2545900" lon="-2.1556100">
<ele>82.295998</ele>
<time>2007-12-07T11:01:01.004Z</time>
</trkpt>
<trkpt lat="43.2545300" lon="-2.1557500">
<ele>85.648804</ele>
<time>2007-12-07T11:01:12.996Z</time>
</trkpt>
<trkpt lat="43.2545900" lon="-2.1558800">
<ele>88.696800</ele>
<time>2007-12-07T11:01:24.997Z</time>
</trkpt>
<trkpt lat="43.2545900" lon="-2.1559400">
<ele>90.525597</ele>
<time>2007-12-07T11:01:30.000Z</time>
</trkpt>
<trkpt lat="43.2545900" lon="-2.1559800">
<ele>91.135201</ele>
<time>2007-12-07T11:01:31.996Z</time>
</trkpt>
<trkpt lat="43.2546500" lon="-2.1560600">
<ele>92.963997</ele>
<time>2007-12-07T11:01:39.003Z</time>
</trkpt>
<trkpt lat="43.2546600" lon="-2.1561700">
<ele>94.792801</ele>
<time>2007-12-07T11:01:47.004Z</time>
</trkpt>
<trkpt lat="43.2547000" lon="-2.1563100">
<ele>98.145599</ele>
<time>2007-12-07T11:01:57.000Z</time>
</trkpt>
<trkpt lat="43.2547100" lon="-2.1563400">
<ele>98.755203</ele>
<time>2007-12-07T11:01:58.996Z</time>
</trkpt>
<trkpt lat="43.2547900" lon="-2.1565300">
<ele>102.108002</ele>
<time>2007-12-07T11:02:13.001Z</time>
</trkpt>
<trkpt lat="43.2548600" lon="-2.1566500">
<ele>104.546402</ele>
<time>2007-12-07T11:02:22.998Z</time>
</trkpt>
<trkpt lat="43.2548700" lon="-2.1566900">
<ele>105.460800</ele>
<time>2007-12-07T11:02:25.996Z</time>
</trkpt>
<trkpt lat="43.2548700" lon="-2.1568900">
<ele>108.813599</ele>
<time>2007-12-07T11:02:40.001Z</time>
</trkpt>
<trkpt lat="43.2548900" lon="-2.1569800">
<ele>110.337601</ele>
<time>2007-12-07T11:02:45.997Z</time>
</trkpt>
<trkpt lat="43.2549800" lon="-2.1570900">
<ele>113.690399</ele>
<time>2007-12-07T11:02:56.003Z</time>
</trkpt>
<trkpt lat="43.2550000" lon="-2.1571900">
<ele>114.604797</ele>
<time>2007-12-07T11:03:01.999Z</time>
</trkpt>
<trkpt lat="43.2550900" lon="-2.1574200">
<ele>117.957603</ele>
<time>2007-12-07T11:03:18.000Z</time>
</trkpt>
<trkpt lat="43.2551000" lon="-2.1574300">
<ele>118.262398</ele>
<time>2007-12-07T11:03:19.002Z</time>
</trkpt>
<trkpt lat="43.2551700" lon="-2.1574200">
<ele>120.396004</ele>
<time>2007-12-07T11:03:26.001Z</time>
</trkpt>
<trkpt lat="43.2552600" lon="-2.1573000">
<ele>123.748802</ele>
<time>2007-12-07T11:03:38.002Z</time>
</trkpt>
<trkpt lat="43.2553200" lon="-2.1572900">
<ele>125.272797</ele>
<time>2007-12-07T11:03:43.004Z</time>
</trkpt>
<trkpt lat="43.2553400" lon="-2.1573000">
<ele>125.577599</ele>
<time>2007-12-07T11:03:45.000Z</time>
</trkpt>
<trkpt lat="43.2553600" lon="-2.1573600">
<ele>127.101601</ele>
<time>2007-12-07T11:03:50.996Z</time>
</trkpt>
<trkpt lat="43.2553600" lon="-2.1574200">
<ele>128.016006</ele>
<time>2007-12-07T11:03:54.996Z</time>
</trkpt>
<trkpt lat="43.2553400" lon="-2.1575300">
<ele>128.625595</ele>
<time>2007-12-07T11:04:01.001Z</time>
</trkpt>
<trkpt lat="43.2552500" lon="-2.1578200">
<ele>130.759201</ele>
<time>2007-12-07T11:04:18.998Z</time>
</trkpt>
<trkpt lat="43.2552700" lon="-2.1579200">
<ele>131.978394</ele>
<time>2007-12-07T11:04:25.003Z</time>
</trkpt>
<trkpt lat="43.2553200" lon="-2.1579900">
<ele>131.978394</ele>
<time>2007-12-07T11:04:29.004Z</time>
</trkpt>
<trkpt lat="43.2554000" lon="-2.1580200">
<ele>133.807205</ele>
<time>2007-12-07T11:04:35.000Z</time>
</trkpt>
<trkpt lat="43.2554500" lon="-2.1580500">
<ele>134.112000</ele>
<time>2007-12-07T11:04:48.996Z</time>
</trkpt>
<trkpt lat="43.2555000" lon="-2.1580400">
<ele>133.197601</ele>
<time>2007-12-07T11:04:52.997Z</time>
</trkpt>
<trkpt lat="43.2557700" lon="-2.1577800">
<ele>132.283203</ele>
<time>2007-12-07T11:05:11.996Z</time>
</trkpt>
<trkpt lat="43.2560700" lon="-2.1574900">
<ele>131.978394</ele>
<time>2007-12-07T11:05:33.000Z</time>
</trkpt>
<trkpt lat="43.2564200" lon="-2.1573400">
<ele>130.759201</ele>
<time>2007-12-07T11:05:54.004Z</time>
</trkpt>
<trkpt lat="43.2567500" lon="-2.1572300">
<ele>130.454407</ele>
<time>2007-12-07T11:06:13.997Z</time>
</trkpt>
<trkpt lat="43.2570900" lon="-2.1570800">
<ele>129.539993</ele>
<time>2007-12-07T11:06:33.998Z</time>
</trkpt>
<trkpt lat="43.2574200" lon="-2.1568700">
<ele>128.930405</ele>
<time>2007-12-07T11:06:55.002Z</time>
</trkpt>
<trkpt lat="43.2576800" lon="-2.1566400">
<ele>127.406403</ele>
<time>2007-12-07T11:07:12.999Z</time>
</trkpt>
<trkpt lat="43.2579000" lon="-2.1564500">
<ele>127.101601</ele>
<time>2007-12-07T11:07:27.998Z</time>
</trkpt>
<trkpt lat="43.2579800" lon="-2.1563900">
<ele>126.491997</ele>
<time>2007-12-07T11:07:34.003Z</time>
</trkpt>
<trkpt lat="43.2580200" lon="-2.1563900">
<ele>126.187202</ele>
<time>2007-12-07T11:07:37.001Z</time>
</trkpt>
<trkpt lat="43.2582600" lon="-2.1565400">
<ele>127.101601</ele>
<time>2007-12-07T11:07:53.996Z</time>
</trkpt>
<trkpt lat="43.2585800" lon="-2.1564200">
<ele>128.625595</ele>
<time>2007-12-07T11:08:15.000Z</time>
</trkpt>
<trkpt lat="43.2588800" lon="-2.1563000">
<ele>130.759201</ele>
<time>2007-12-07T11:08:35.002Z</time>
</trkpt>
<trkpt lat="43.2591500" lon="-2.1562100">
<ele>132.892807</ele>
<time>2007-12-07T11:08:52.999Z</time>
</trkpt>
<trkpt lat="43.2593800" lon="-2.1560500">
<ele>135.636002</ele>
<time>2007-12-07T11:09:10.002Z</time>
</trkpt>
<trkpt lat="43.2596300" lon="-2.1560800">
<ele>137.769608</ele>
<time>2007-12-07T11:09:26.997Z</time>
</trkpt>
<trkpt lat="43.2598900" lon="-2.1561300">
<ele>141.122406</ele>
<time>2007-12-07T11:09:45.003Z</time>
</trkpt>
<trkpt lat="43.2601800" lon="-2.1561200">
<ele>143.865601</ele>
<time>2007-12-07T11:10:04.996Z</time>
</trkpt>
<trkpt lat="43.2603900" lon="-2.1560400">
<ele>146.304001</ele>
<time>2007-12-07T11:10:20.004Z</time>
</trkpt>
<trkpt lat="43.2606400" lon="-2.1558800">
<ele>149.656799</ele>
<time>2007-12-07T11:10:39.003Z</time>
</trkpt>
<trkpt lat="43.2608700" lon="-2.1557700">
<ele>152.399994</ele>
<time>2007-12-07T11:10:55.998Z</time>
</trkpt>
<trkpt lat="43.2610300" lon="-2.1556600">
<ele>155.752808</ele>
<time>2007-12-07T11:11:09.001Z</time>
</trkpt>
<trkpt lat="43.2612700" lon="-2.1555400">
<ele>159.105606</ele>
<time>2007-12-07T11:11:28.000Z</time>
</trkpt>
<trkpt lat="43.2614900" lon="-2.1554800">
<ele>162.153595</ele>
<time>2007-12-07T11:11:44.002Z</time>
</trkpt>
<trkpt lat="43.2617900" lon="-2.1553700">
<ele>164.591995</ele>
<time>2007-12-07T11:12:04.997Z</time>
</trkpt>
<trkpt lat="43.2620900" lon="-2.1552900">
<ele>164.896805</ele>
<time>2007-12-07T11:12:24.998Z</time>
</trkpt>
<trkpt lat="43.2621200" lon="-2.1552800">
<ele>165.506393</ele>
<time>2007-12-07T11:12:27.003Z</time>
</trkpt>
<trkpt lat="43.2621900" lon="-2.1552400">
<ele>164.896805</ele>
<time>2007-12-07T11:12:32.999Z</time>
</trkpt>
<trkpt lat="43.2625300" lon="-2.1552700">
<ele>164.896805</ele>
<time>2007-12-07T11:12:53.001Z</time>
</trkpt>
<trkpt lat="43.2628400" lon="-2.1552300">
<ele>162.763199</ele>
<time>2007-12-07T11:13:12.000Z</time>
</trkpt>
<trkpt lat="43.2630200" lon="-2.1551800">
<ele>160.324799</ele>
<time>2007-12-07T11:13:21.996Z</time>
</trkpt>
<trkpt lat="43.2632500" lon="-2.1551100">
<ele>157.886398</ele>
<time>2007-12-07T11:13:36.002Z</time>
</trkpt>
<trkpt lat="43.2634100" lon="-2.1549200">
<ele>155.447998</ele>
<time>2007-12-07T11:13:48.003Z</time>
</trkpt>
<trkpt lat="43.2636100" lon="-2.1548700">
<ele>152.399994</ele>
<time>2007-12-07T11:13:59.002Z</time>
</trkpt>
<trkpt lat="43.2637800" lon="-2.1550600">
<ele>148.742401</ele>
<time>2007-12-07T11:14:11.003Z</time>
</trkpt>
<trkpt lat="43.2638800" lon="-2.1551900">
<ele>145.389603</ele>
<time>2007-12-07T11:14:18.001Z</time>
</trkpt>
<trkpt lat="43.2640900" lon="-2.1552200">
<ele>142.036804</ele>
<time>2007-12-07T11:14:29.000Z</time>
</trkpt>
<trkpt lat="43.2643300" lon="-2.1551500">
<ele>139.598404</ele>
<time>2007-12-07T11:14:42.003Z</time>
</trkpt>
<trkpt lat="43.2643800" lon="-2.1552900">
<ele>136.550400</ele>
<time>2007-12-07T11:14:50.004Z</time>
</trkpt>
<trkpt lat="43.2643800" lon="-2.1552600">
<ele>136.550400</ele>
<time>2007-12-07T11:14:51.999Z</time>
</trkpt>
<trkpt lat="43.2643500" lon="-2.1551700">
<ele>138.988800</ele>
<time>2007-12-07T11:15:00.000Z</time>
</trkpt>
<trkpt lat="43.2643900" lon="-2.1552700">
<ele>137.769608</ele>
<time>2007-12-07T11:15:05.003Z</time>
</trkpt>
<trkpt lat="43.2644000" lon="-2.1553400">
<ele>136.245605</ele>
<time>2007-12-07T11:15:08.001Z</time>
</trkpt>
<trkpt lat="43.2645200" lon="-2.1554400">
<ele>132.892807</ele>
<time>2007-12-07T11:15:16.001Z</time>
</trkpt>
<trkpt lat="43.2647200" lon="-2.1555200">
<ele>129.539993</ele>
<time>2007-12-07T11:15:27.000Z</time>
</trkpt>
<trkpt lat="43.2650600" lon="-2.1557400">
<ele>126.491997</ele>
<time>2007-12-07T11:15:47.002Z</time>
</trkpt>
<trkpt lat="43.2654700" lon="-2.1559300">
<ele>124.663200</ele>
<time>2007-12-07T11:16:11.004Z</time>
</trkpt>
<trkpt lat="43.2658100" lon="-2.1559900">
<ele>121.615196</ele>
<time>2007-12-07T11:16:30.003Z</time>
</trkpt>
<trkpt lat="43.2660600" lon="-2.1559900">
<ele>118.262398</ele>
<time>2007-12-07T11:16:44.000Z</time>
</trkpt>
<trkpt lat="43.2663000" lon="-2.1560100">
<ele>115.519203</ele>
<time>2007-12-07T11:16:57.003Z</time>
</trkpt>
<trkpt lat="43.2664500" lon="-2.1560000">
<ele>113.080803</ele>
<time>2007-12-07T11:17:05.004Z</time>
</trkpt>
<trkpt lat="43.2667900" lon="-2.1558800">
<ele>109.727997</ele>
<time>2007-12-07T11:17:24.003Z</time>
</trkpt>
<trkpt lat="43.2671700" lon="-2.1557000">
<ele>108.813599</ele>
<time>2007-12-07T11:17:47.003Z</time>
</trkpt>
<trkpt lat="43.2672100" lon="-2.1557000">
<ele>107.899200</ele>
<time>2007-12-07T11:17:48.998Z</time>
</trkpt>
<trkpt lat="43.2675800" lon="-2.1556700">
<ele>105.460800</ele>
<time>2007-12-07T11:18:10.002Z</time>
</trkpt>
<trkpt lat="43.2679900" lon="-2.1558700">
<ele>103.936798</ele>
<time>2007-12-07T11:18:34.998Z</time>
</trkpt>
<trkpt lat="43.2682900" lon="-2.1559400">
<ele>103.632004</ele>
<time>2007-12-07T11:18:52.001Z</time>
</trkpt>
<trkpt lat="43.2684400" lon="-2.1561000">
<ele>103.632004</ele>
<time>2007-12-07T11:19:04.002Z</time>
</trkpt>
<trkpt lat="43.2684700" lon="-2.1564600">
<ele>104.851196</ele>
<time>2007-12-07T11:19:20.004Z</time>
</trkpt>
<trkpt lat="43.2683800" lon="-2.1567400">
<ele>107.289597</ele>
<time>2007-12-07T11:19:34.000Z</time>
</trkpt>
<trkpt lat="43.2683100" lon="-2.1570600">
<ele>107.289597</ele>
<time>2007-12-07T11:19:48.999Z</time>
</trkpt>
<trkpt lat="43.2683100" lon="-2.1571200">
<ele>107.289597</ele>
<time>2007-12-07T11:19:51.997Z</time>
</trkpt>
<trkpt lat="43.2684000" lon="-2.1572300">
<ele>108.204002</ele>
<time>2007-12-07T11:19:58.996Z</time>
</trkpt>
<trkpt lat="43.2686400" lon="-2.1574000">
<ele>110.337601</ele>
<time>2007-12-07T11:20:14.997Z</time>
</trkpt>
<trkpt lat="43.2689200" lon="-2.1576100">
<ele>111.251999</ele>
<time>2007-12-07T11:20:33.003Z</time>
</trkpt>
<trkpt lat="43.2692800" lon="-2.1578000">
<ele>110.642403</ele>
<time>2007-12-07T11:20:55.000Z</time>
</trkpt>
<trkpt lat="43.2696900" lon="-2.1580200">
<ele>110.642403</ele>
<time>2007-12-07T11:21:20.998Z</time>
</trkpt>
<trkpt lat="43.2700600" lon="-2.1582000">
<ele>111.251999</ele>
<time>2007-12-07T11:21:45.000Z</time>
</trkpt>
<trkpt lat="43.2703000" lon="-2.1584900">
<ele>110.642403</ele>
<time>2007-12-07T11:22:05.002Z</time>
</trkpt>
<trkpt lat="43.2704200" lon="-2.1589500">
<ele>111.556801</ele>
<time>2007-12-07T11:22:25.997Z</time>
</trkpt>
<trkpt lat="43.2705000" lon="-2.1593300">
<ele>108.813599</ele>
<time>2007-12-07T11:22:40.996Z</time>
</trkpt>
<trkpt lat="43.2705700" lon="-2.1596300">
<ele>105.460800</ele>
<time>2007-12-07T11:22:52.997Z</time>
</trkpt>
<trkpt lat="43.2706700" lon="-2.1599600">
<ele>102.108002</ele>
<time>2007-12-07T11:23:07.002Z</time>
</trkpt>
<trkpt lat="43.2708600" lon="-2.1602500">
<ele>99.059998</ele>
<time>2007-12-07T11:23:22.001Z</time>
</trkpt>
<trkpt lat="43.2712500" lon="-2.1604200">
<ele>97.231201</ele>
<time>2007-12-07T11:23:45.001Z</time>
</trkpt>
<trkpt lat="43.2716800" lon="-2.1606500">
<ele>96.621597</ele>
<time>2007-12-07T11:24:12.001Z</time>
</trkpt>
<trkpt lat="43.2720600" lon="-2.1607100">
<ele>97.231201</ele>
<time>2007-12-07T11:24:33.998Z</time>
</trkpt>
<trkpt lat="43.2724300" lon="-2.1606700">
<ele>97.231201</ele>
<time>2007-12-07T11:24:55.996Z</time>
</trkpt>
<trkpt lat="43.2727500" lon="-2.1605800">
<ele>98.755203</ele>
<time>2007-12-07T11:25:15.997Z</time>
</trkpt>
<trkpt lat="43.2730800" lon="-2.1605400">
<ele>95.707199</ele>
<time>2007-12-07T11:25:34.003Z</time>
</trkpt>
<trkpt lat="43.2734000" lon="-2.1603600">
<ele>92.354401</ele>
<time>2007-12-07T11:25:53.003Z</time>
</trkpt>
<trkpt lat="43.2735500" lon="-2.1604000">
<ele>90.525597</ele>
<time>2007-12-07T11:26:02.999Z</time>
</trkpt>
<trkpt lat="43.2737000" lon="-2.1606500">
<ele>86.258400</ele>
<time>2007-12-07T11:26:16.996Z</time>
</trkpt>
<trkpt lat="43.2738200" lon="-2.1608100">
<ele>82.905602</ele>
<time>2007-12-07T11:26:25.999Z</time>
</trkpt>
<trkpt lat="43.2738400" lon="-2.1608200">
<ele>82.905602</ele>
<time>2007-12-07T11:26:27.001Z</time>
</trkpt>
<trkpt lat="43.2740400" lon="-2.1609500">
<ele>79.857597</ele>
<time>2007-12-07T11:26:39.002Z</time>
</trkpt>
<trkpt lat="43.2741800" lon="-2.1611900">
<ele>76.504799</ele>
<time>2007-12-07T11:26:51.003Z</time>
</trkpt>
<trkpt lat="43.2742300" lon="-2.1615800">
<ele>73.152000</ele>
<time>2007-12-07T11:27:07.998Z</time>
</trkpt>
<trkpt lat="43.2745900" lon="-2.1618300">
<ele>73.761597</ele>
<time>2007-12-07T11:27:32.000Z</time>
</trkpt>
<trkpt lat="43.2747900" lon="-2.1621400">
<ele>74.066399</ele>
<time>2007-12-07T11:27:50.999Z</time>
</trkpt>
<trkpt lat="43.2749100" lon="-2.1627000">
<ele>71.627998</ele>
<time>2007-12-07T11:28:15.001Z</time>
</trkpt>
<trkpt lat="43.2749400" lon="-2.1628000">
<ele>71.323196</ele>
<time>2007-12-07T11:28:19.001Z</time>
</trkpt>
<trkpt lat="43.2750900" lon="-2.1633300">
<ele>68.275200</ele>
<time>2007-12-07T11:28:43.003Z</time>
</trkpt>
<trkpt lat="43.2752500" lon="-2.1636300">
<ele>64.617599</ele>
<time>2007-12-07T11:28:58.002Z</time>
</trkpt>
<trkpt lat="43.2752000" lon="-2.1641400">
<ele>63.703201</ele>
<time>2007-12-07T11:29:20.000Z</time>
</trkpt>
<trkpt lat="43.2752700" lon="-2.1646400">
<ele>59.740799</ele>
<time>2007-12-07T11:29:41.004Z</time>
</trkpt>
<trkpt lat="43.2752800" lon="-2.1646900">
<ele>59.131199</ele>
<time>2007-12-07T11:29:42.999Z</time>
</trkpt>
<trkpt lat="43.2754100" lon="-2.1651100">
<ele>56.388000</ele>
<time>2007-12-07T11:30:01.999Z</time>
</trkpt>
<trkpt lat="43.2756600" lon="-2.1651700">
<ele>53.949600</ele>
<time>2007-12-07T11:30:18.000Z</time>
</trkpt>
<trkpt lat="43.2757300" lon="-2.1651800">
<ele>52.425598</ele>
<time>2007-12-07T11:30:22.000Z</time>
</trkpt>
<trkpt lat="43.2757400" lon="-2.1651900">
<ele>52.120800</ele>
<time>2007-12-07T11:30:23.003Z</time>
</trkpt>
<trkpt lat="43.2757400" lon="-2.1653100">
<ele>50.596802</ele>
<time>2007-12-07T11:30:27.996Z</time>
</trkpt>
<trkpt lat="43.2755500" lon="-2.1657700">
<ele>47.853600</ele>
<time>2007-12-07T11:30:50.003Z</time>
</trkpt>
<trkpt lat="43.2755300" lon="-2.1660800">
<ele>44.805599</ele>
<time>2007-12-07T11:31:03.999Z</time>
</trkpt>
<trkpt lat="43.2756800" lon="-2.1660400">
<ele>44.500801</ele>
<time>2007-12-07T11:31:16.000Z</time>
</trkpt>
<trkpt lat="43.2759600" lon="-2.1657800">
<ele>43.281601</ele>
<time>2007-12-07T11:31:35.000Z</time>
</trkpt>
<trkpt lat="43.2760700" lon="-2.1655500">
<ele>40.538399</ele>
<time>2007-12-07T11:31:47.001Z</time>
</trkpt>
<trkpt lat="43.2760800" lon="-2.1654900">
<ele>39.624001</ele>
<time>2007-12-07T11:31:52.997Z</time>
</trkpt>
<trkpt lat="43.2762700" lon="-2.1652500">
<ele>37.795200</ele>
<time>2007-12-07T11:32:07.996Z</time>
</trkpt>
<trkpt lat="43.2765000" lon="-2.1652000">
<ele>36.271198</ele>
<time>2007-12-07T11:32:22.001Z</time>
</trkpt>
<trkpt lat="43.2767200" lon="-2.1651600">
<ele>32.918400</ele>
<time>2007-12-07T11:32:34.002Z</time>
</trkpt>
<trkpt lat="43.2769200" lon="-2.1651300">
<ele>29.870399</ele>
<time>2007-12-07T11:32:45.001Z</time>
</trkpt>
<trkpt lat="43.2771100" lon="-2.1650400">
<ele>26.517599</ele>
<time>2007-12-07T11:32:56.000Z</time>
</trkpt>
<trkpt lat="43.2772300" lon="-2.1648200">
<ele>23.774401</ele>
<time>2007-12-07T11:33:06.998Z</time>
</trkpt>
<trkpt lat="43.2773300" lon="-2.1646100">
<ele>20.421600</ele>
<time>2007-12-07T11:33:17.004Z</time>
</trkpt>
<trkpt lat="43.2775200" lon="-2.1644300">
<ele>18.288000</ele>
<time>2007-12-07T11:33:32.003Z</time>
</trkpt>
<trkpt lat="43.2776000" lon="-2.1644800">
<ele>16.154400</ele>
<time>2007-12-07T11:33:36.996Z</time>
</trkpt>
<trkpt lat="43.2776900" lon="-2.1645700">
<ele>16.154400</ele>
<time>2007-12-07T11:33:43.001Z</time>
</trkpt>
<trkpt lat="43.2779000" lon="-2.1647300">
<ele>12.801600</ele>
<time>2007-12-07T11:33:56.998Z</time>
</trkpt>
<trkpt lat="43.2781000" lon="-2.1649400">
<ele>9.753600</ele>
<time>2007-12-07T11:34:11.997Z</time>
</trkpt>
<trkpt lat="43.2781600" lon="-2.1650700">
<ele>8.229600</ele>
<time>2007-12-07T11:34:19.004Z</time>
</trkpt>
<trkpt lat="43.2780000" lon="-2.1653600">
<ele>5.791200</ele>
<time>2007-12-07T11:34:34.997Z</time>
</trkpt>
<trkpt lat="43.2777800" lon="-2.1658900">
<ele>3.962400</ele>
<time>2007-12-07T11:35:00.001Z</time>
</trkpt>
<trkpt lat="43.2776700" lon="-2.1664300">
<ele>4.572000</ele>
<time>2007-12-07T11:35:24.996Z</time>
</trkpt>
<trkpt lat="43.2777800" lon="-2.1665600">
<ele>4.572000</ele>
<time>2007-12-07T11:35:35.002Z</time>
</trkpt>
<trkpt lat="43.2780900" lon="-2.1667500">
<ele>6.400800</ele>
<time>2007-12-07T11:35:55.003Z</time>
</trkpt>
<trkpt lat="43.2784300" lon="-2.1669300">
<ele>9.753600</ele>
<time>2007-12-07T11:36:17.001Z</time>
</trkpt>
<trkpt lat="43.2787500" lon="-2.1670800">
<ele>9.753600</ele>
<time>2007-12-07T11:36:37.002Z</time>
</trkpt>
<trkpt lat="43.2791300" lon="-2.1672500">
<ele>7.924800</ele>
<time>2007-12-07T11:37:01.004Z</time>
</trkpt>
<trkpt lat="43.2794600" lon="-2.1673200">
<ele>4.572000</ele>
<time>2007-12-07T11:37:20.004Z</time>
</trkpt>
<trkpt lat="43.2797600" lon="-2.1673600">
<ele>3.048000</ele>
<time>2007-12-07T11:37:38.001Z</time>
</trkpt>
<trkpt lat="43.2800200" lon="-2.1674000">
<ele>2.438400</ele>
<time>2007-12-07T11:37:51.997Z</time>
</trkpt>
<trkpt lat="43.2801300" lon="-2.1673800">
<ele>3.048000</ele>
<time>2007-12-07T11:37:58.996Z</time>
</trkpt>
<trkpt lat="43.2803400" lon="-2.1674000">
<ele>2.438400</ele>
<time>2007-12-07T11:38:10.997Z</time>
</trkpt>
<trkpt lat="43.2806300" lon="-2.1673600">
<ele>2.438400</ele>
<time>2007-12-07T11:38:25.996Z</time>
</trkpt>
<trkpt lat="43.2808200" lon="-2.1673000">
<ele>3.048000</ele>
<time>2007-12-07T11:38:41.004Z</time>
</trkpt>
<trkpt lat="43.2808300" lon="-2.1673200">
<ele>3.657600</ele>
<time>2007-12-07T11:38:42.999Z</time>
</trkpt>
<trkpt lat="43.2809100" lon="-2.1672800">
<ele>3.048000</ele>
<time>2007-12-07T11:38:48.002Z</time>
</trkpt>
<trkpt lat="43.2810100" lon="-2.1673000">
<ele>2.438400</ele>
<time>2007-12-07T11:38:55.000Z</time>
</trkpt>
<trkpt lat="43.2810600" lon="-2.1677000">
<ele>2.438400</ele>
<time>2007-12-07T11:39:14.000Z</time>
</trkpt>
<trkpt lat="43.2810500" lon="-2.1680900">
<ele>2.133600</ele>
<time>2007-12-07T11:39:31.997Z</time>
</trkpt>
<trkpt lat="43.2810500" lon="-2.1681400">
<ele>2.438400</ele>
<time>2007-12-07T11:39:34.001Z</time>
</trkpt>
<trkpt lat="43.2810700" lon="-2.1682500">
<ele>2.438400</ele>
<time>2007-12-07T11:39:39.004Z</time>
</trkpt>
<trkpt lat="43.2811300" lon="-2.1685200">
<ele>2.133600</ele>
<time>2007-12-07T11:39:53.001Z</time>
</trkpt>
<trkpt lat="43.2812100" lon="-2.1685600">
<ele>2.438400</ele>
<time>2007-12-07T11:39:58.997Z</time>
</trkpt>
<trkpt lat="43.2812800" lon="-2.1685600">
<ele>3.048000</ele>
<time>2007-12-07T11:40:02.997Z</time>
</trkpt>
<trkpt lat="43.2813200" lon="-2.1685500">
<ele>2.133600</ele>
<time>2007-12-07T11:40:06.004Z</time>
</trkpt>
<trkpt lat="43.2815600" lon="-2.1684900">
<ele>2.438400</ele>
<time>2007-12-07T11:40:21.003Z</time>
</trkpt>
<trkpt lat="43.2818000" lon="-2.1684300">
<ele>2.438400</ele>
<time>2007-12-07T11:40:35.000Z</time>
</trkpt>
<trkpt lat="43.2820400" lon="-2.1683400">
<ele>3.048000</ele>
<time>2007-12-07T11:40:51.001Z</time>
</trkpt>
<trkpt lat="43.2822500" lon="-2.1683300">
<ele>3.048000</ele>
<time>2007-12-07T11:41:04.998Z</time>
</trkpt>
<trkpt lat="43.2824900" lon="-2.1683800">
<ele>3.657600</ele>
<time>2007-12-07T11:41:19.997Z</time>
</trkpt>
<trkpt lat="43.2828400" lon="-2.1683200">
<ele>3.657600</ele>
<time>2007-12-07T11:41:42.003Z</time>
</trkpt>
<trkpt lat="43.2831600" lon="-2.1682300">
<ele>2.438400</ele>
<time>2007-12-07T11:42:01.996Z</time>
</trkpt>
<trkpt lat="43.2832700" lon="-2.1680100">
<ele>2.438400</ele>
<time>2007-12-07T11:42:13.997Z</time>
</trkpt>
<trkpt lat="43.2834100" lon="-2.1681000">
<ele>1.524000</ele>
<time>2007-12-07T11:42:25.004Z</time>
</trkpt>
<trkpt lat="43.2836200" lon="-2.1681900">
<ele>1.524000</ele>
<time>2007-12-07T11:42:40.997Z</time>
</trkpt>
<trkpt lat="43.2838300" lon="-2.1681300">
<ele>-0.914400</ele>
<time>2007-12-07T11:42:55.996Z</time>
</trkpt>
<trkpt lat="43.2838300" lon="-2.1681300">
<ele>-1.219200</ele>
<time>2007-12-07T11:42:56.998Z</time>
</trkpt>
<trkpt lat="43.2838800" lon="-2.1681100">
<ele>-1.219200</ele>
<time>2007-12-07T11:43:02.001Z</time>
</trkpt>
<trkpt lat="43.2840100" lon="-2.1680200">
<ele>1.524000</ele>
<time>2007-12-07T11:43:14.002Z</time>
</trkpt>
<trkpt lat="43.2840300" lon="-2.1680100">
<ele>3.048000</ele>
<time>2007-12-07T11:43:18.002Z</time>
</trkpt>
<trkpt lat="43.2840600" lon="-2.1680200">
<ele>3.657600</ele>
<time>2007-12-07T11:43:33.001Z</time>
</trkpt>
<trkpt lat="43.2840600" lon="-2.1680500">
<ele>3.048000</ele>
<time>2007-12-07T11:43:39.999Z</time>
</trkpt>
<trkpt lat="43.2840900" lon="-2.1684580">
<ele>4.572000</ele>
<time>2007-12-07T11:44:00.001Z</time>
</trkpt>
<trkpt lat="43.2841300" lon="-2.1689400">
<ele>3.962400</ele>
<time>2007-12-07T11:44:21.998Z</time>
</trkpt>
<trkpt lat="43.2841800" lon="-2.1694200">
<ele>3.657600</ele>
<time>2007-12-07T11:44:43.002Z</time>
</trkpt>
<trkpt lat="43.2842200" lon="-2.1699000">
<ele>3.657600</ele>
<time>2007-12-07T11:45:05.000Z</time>
</trkpt>
<trkpt lat="43.2842600" lon="-2.1702700">
<ele>3.657600</ele>
<time>2007-12-07T11:45:22.003Z</time>
</trkpt>
<trkpt lat="43.2843200" lon="-2.1707300">
<ele>4.572000</ele>
<time>2007-12-07T11:45:42.998Z</time>
</trkpt>
<trkpt lat="43.2843500" lon="-2.1708200">
<ele>3.962400</ele>
<time>2007-12-07T11:46:00.002Z</time>
</trkpt>
<trkpt lat="43.2843600" lon="-2.1708800">
<ele>3.962400</ele>
<time>2007-12-07T11:46:20.997Z</time>
</trkpt>
<trkpt lat="43.2844200" lon="-2.1713200">
<ele>3.657600</ele>
<time>2007-12-07T11:46:40.999Z</time>
</trkpt>
<trkpt lat="43.2844200" lon="-2.1717100">
<ele>3.657600</ele>
<time>2007-12-07T11:46:59.998Z</time>
</trkpt>
<trkpt lat="43.2844400" lon="-2.1721300">
<ele>4.572000</ele>
<time>2007-12-07T11:47:18.997Z</time>
</trkpt>
<trkpt lat="43.2844500" lon="-2.1725200">
<ele>3.048000</ele>
<time>2007-12-07T11:47:37.003Z</time>
</trkpt>
</trkseg>
</trk>
</gpx>
